<?xml version="1.0" encoding="UTF-8" standalone="no" ?>
<gpx xmlns="http://www.topografix.com/GPX/1/1" xmlns:xsi="http://www.w3.org/2001/XMLSchema-instance" xsi:schemaLocation="http://www.topografix.com/GPX/1/1 http://www.topografix.com/GPX/1/1/gpx.xsd" version="1.1" creator="VisuGPX - https://www.visugpx.com">
  <metadata>
    <name>Marche Audax 25 km Limours-Le Marais-Saint Maurice Montcouronne</name>
    <desc><![CDATA[Marche #Audax

Difficulté : Facile]]></desc>
  </metadata>
  <trk>
    <name><![CDATA[Boucle Limours-Le Marais-Saint Maurice Montcouronne_1]]></name>
    <extensions>
      <line xmlns="http://www.topografix.com/GPX/gpx_style/0/2">
        <color>0000FF</color>
        <width>4</width>
      </line>
    </extensions>
    <trkseg>
      <trkpt lat="48.64173" lon="2.07168">
        <ele>164.8</ele>
        <time>2025-03-12T15:29:05.700Z</time>
      </trkpt>
      <trkpt lat="48.64171" lon="2.07174">
        <ele>164.8</ele>
        <time>2025-03-12T15:29:08.815Z</time>
      </trkpt>
      <trkpt lat="48.64169" lon="2.07181">
        <ele>164.9</ele>
        <time>2025-03-12T15:29:11.930Z</time>
      </trkpt>
      <trkpt lat="48.64166" lon="2.07187">
        <ele>165</ele>
        <time>2025-03-12T15:29:15.045Z</time>
      </trkpt>
      <trkpt lat="48.64164" lon="2.07194">
        <ele>165.1</ele>
        <time>2025-03-12T15:29:18.160Z</time>
      </trkpt>
      <trkpt lat="48.64162" lon="2.072">
        <ele>165</ele>
        <time>2025-03-12T15:29:21.276Z</time>
      </trkpt>
      <trkpt lat="48.6416" lon="2.07207">
        <ele>164.9</ele>
        <time>2025-03-12T15:29:24.392Z</time>
      </trkpt>
      <trkpt lat="48.64158" lon="2.07213">
        <ele>164.9</ele>
        <time>2025-03-12T15:29:27.508Z</time>
      </trkpt>
      <trkpt lat="48.64156" lon="2.07219">
        <ele>164.9</ele>
        <time>2025-03-12T15:29:30.624Z</time>
      </trkpt>
      <trkpt lat="48.64154" lon="2.07226">
        <ele>164.9</ele>
        <time>2025-03-12T15:29:33.740Z</time>
      </trkpt>
      <trkpt lat="48.64152" lon="2.07232">
        <ele>164.9</ele>
        <time>2025-03-12T15:29:36.856Z</time>
      </trkpt>
      <trkpt lat="48.64149" lon="2.07239">
        <ele>164.9</ele>
        <time>2025-03-12T15:29:39.972Z</time>
      </trkpt>
      <trkpt lat="48.64147" lon="2.07245">
        <ele>164.8</ele>
        <time>2025-03-12T15:29:43.088Z</time>
      </trkpt>
      <trkpt lat="48.64145" lon="2.07252">
        <ele>164.8</ele>
        <time>2025-03-12T15:29:46.204Z</time>
      </trkpt>
      <trkpt lat="48.64143" lon="2.07258">
        <ele>164.9</ele>
        <time>2025-03-12T15:29:49.321Z</time>
      </trkpt>
      <trkpt lat="48.64141" lon="2.07264">
        <ele>164.9</ele>
        <time>2025-03-12T15:29:52.474Z</time>
      </trkpt>
      <trkpt lat="48.64139" lon="2.07271">
        <ele>165</ele>
        <time>2025-03-12T15:29:55.627Z</time>
      </trkpt>
      <trkpt lat="48.64137" lon="2.07277">
        <ele>165.1</ele>
        <time>2025-03-12T15:29:58.780Z</time>
      </trkpt>
      <trkpt lat="48.64135" lon="2.07284">
        <ele>165.2</ele>
        <time>2025-03-12T15:30:01.933Z</time>
      </trkpt>
      <trkpt lat="48.64132" lon="2.0729">
        <ele>165.2</ele>
        <time>2025-03-12T15:30:05.086Z</time>
      </trkpt>
      <trkpt lat="48.6413" lon="2.07297">
        <ele>165.3</ele>
        <time>2025-03-12T15:30:08.240Z</time>
      </trkpt>
      <trkpt lat="48.64128" lon="2.07303">
        <ele>165.4</ele>
        <time>2025-03-12T15:30:11.394Z</time>
      </trkpt>
      <trkpt lat="48.64126" lon="2.0731">
        <ele>165.3</ele>
        <time>2025-03-12T15:30:14.548Z</time>
      </trkpt>
      <trkpt lat="48.64124" lon="2.07316">
        <ele>165.2</ele>
        <time>2025-03-12T15:30:17.702Z</time>
      </trkpt>
      <trkpt lat="48.64122" lon="2.07322">
        <ele>165</ele>
        <time>2025-03-12T15:30:20.856Z</time>
      </trkpt>
      <trkpt lat="48.6412" lon="2.07329">
        <ele>164.9</ele>
        <time>2025-03-12T15:30:24.010Z</time>
      </trkpt>
      <trkpt lat="48.64118" lon="2.07335">
        <ele>164.8</ele>
        <time>2025-03-12T15:30:27.164Z</time>
      </trkpt>
      <trkpt lat="48.64115" lon="2.07342">
        <ele>164.8</ele>
        <time>2025-03-12T15:30:30.318Z</time>
      </trkpt>
      <trkpt lat="48.64113" lon="2.07348">
        <ele>164.9</ele>
        <time>2025-03-12T15:30:33.472Z</time>
      </trkpt>
      <trkpt lat="48.64111" lon="2.07355">
        <ele>165</ele>
        <time>2025-03-12T15:30:36.626Z</time>
      </trkpt>
      <trkpt lat="48.64109" lon="2.07361">
        <ele>165.1</ele>
        <time>2025-03-12T15:30:39.781Z</time>
      </trkpt>
      <trkpt lat="48.64104" lon="2.07358">
        <ele>165.2</ele>
        <time>2025-03-12T15:30:43.563Z</time>
      </trkpt>
      <trkpt lat="48.641" lon="2.07355">
        <ele>165.4</ele>
        <time>2025-03-12T15:30:47.345Z</time>
      </trkpt>
      <trkpt lat="48.64095" lon="2.07351">
        <ele>165.6</ele>
        <time>2025-03-12T15:30:51.127Z</time>
      </trkpt>
      <trkpt lat="48.6409" lon="2.07348">
        <ele>165.8</ele>
        <time>2025-03-12T15:30:54.909Z</time>
      </trkpt>
      <trkpt lat="48.64085" lon="2.07345">
        <ele>165.9</ele>
        <time>2025-03-12T15:30:58.691Z</time>
      </trkpt>
      <trkpt lat="48.64081" lon="2.07342">
        <ele>166.1</ele>
        <time>2025-03-12T15:31:02.473Z</time>
      </trkpt>
      <trkpt lat="48.64076" lon="2.07338">
        <ele>166.3</ele>
        <time>2025-03-12T15:31:06.255Z</time>
      </trkpt>
      <trkpt lat="48.64071" lon="2.07335">
        <ele>166.4</ele>
        <time>2025-03-12T15:31:10.038Z</time>
      </trkpt>
      <trkpt lat="48.64067" lon="2.07332">
        <ele>166.6</ele>
        <time>2025-03-12T15:31:13.464Z</time>
      </trkpt>
      <trkpt lat="48.64063" lon="2.0733">
        <ele>166.8</ele>
        <time>2025-03-12T15:31:16.890Z</time>
      </trkpt>
      <trkpt lat="48.64058" lon="2.07327">
        <ele>166.9</ele>
        <time>2025-03-12T15:31:20.316Z</time>
      </trkpt>
      <trkpt lat="48.64054" lon="2.07324">
        <ele>167.1</ele>
        <time>2025-03-12T15:31:23.744Z</time>
      </trkpt>
      <trkpt lat="48.64049" lon="2.0732">
        <ele>167.3</ele>
        <time>2025-03-12T15:31:28.090Z</time>
      </trkpt>
      <trkpt lat="48.64043" lon="2.07317">
        <ele>167.5</ele>
        <time>2025-03-12T15:31:32.436Z</time>
      </trkpt>
      <trkpt lat="48.64038" lon="2.07313">
        <ele>167.7</ele>
        <time>2025-03-12T15:31:36.782Z</time>
      </trkpt>
      <trkpt lat="48.64032" lon="2.07309">
        <ele>167.8</ele>
        <time>2025-03-12T15:31:41.130Z</time>
      </trkpt>
      <trkpt lat="48.64026" lon="2.07305">
        <ele>168</ele>
        <time>2025-03-12T15:31:45.472Z</time>
      </trkpt>
      <trkpt lat="48.64021" lon="2.07302">
        <ele>168</ele>
        <time>2025-03-12T15:31:49.814Z</time>
      </trkpt>
      <trkpt lat="48.64015" lon="2.07298">
        <ele>168.1</ele>
        <time>2025-03-12T15:31:54.157Z</time>
      </trkpt>
      <trkpt lat="48.6401" lon="2.07295">
        <ele>168.3</ele>
        <time>2025-03-12T15:31:58.500Z</time>
      </trkpt>
      <trkpt lat="48.64004" lon="2.07291">
        <ele>168.5</ele>
        <time>2025-03-12T15:32:02.843Z</time>
      </trkpt>
      <trkpt lat="48.63998" lon="2.07287">
        <ele>168.7</ele>
        <time>2025-03-12T15:32:07.186Z</time>
      </trkpt>
      <trkpt lat="48.63993" lon="2.07284">
        <ele>168.8</ele>
        <time>2025-03-12T15:32:11.529Z</time>
      </trkpt>
      <trkpt lat="48.63987" lon="2.0728">
        <ele>169</ele>
        <time>2025-03-12T15:32:15.873Z</time>
      </trkpt>
      <trkpt lat="48.63982" lon="2.07277">
        <ele>169</ele>
        <time>2025-03-12T15:32:19.541Z</time>
      </trkpt>
      <trkpt lat="48.63978" lon="2.07273">
        <ele>169.1</ele>
        <time>2025-03-12T15:32:23.210Z</time>
      </trkpt>
      <trkpt lat="48.63973" lon="2.0727">
        <ele>169.3</ele>
        <time>2025-03-12T15:32:26.879Z</time>
      </trkpt>
      <trkpt lat="48.63969" lon="2.07266">
        <ele>169.5</ele>
        <time>2025-03-12T15:32:30.548Z</time>
      </trkpt>
      <trkpt lat="48.63964" lon="2.07263">
        <ele>169.7</ele>
        <time>2025-03-12T15:32:34.217Z</time>
      </trkpt>
      <trkpt lat="48.63959" lon="2.07259">
        <ele>169.8</ele>
        <time>2025-03-12T15:32:37.886Z</time>
      </trkpt>
      <trkpt lat="48.63955" lon="2.07256">
        <ele>169.9</ele>
        <time>2025-03-12T15:32:41.555Z</time>
      </trkpt>
      <trkpt lat="48.6395" lon="2.07252">
        <ele>170</ele>
        <time>2025-03-12T15:32:45.225Z</time>
      </trkpt>
      <trkpt lat="48.63946" lon="2.07249">
        <ele>170</ele>
        <time>2025-03-12T15:32:48.477Z</time>
      </trkpt>
      <trkpt lat="48.63942" lon="2.07245">
        <ele>170.1</ele>
        <time>2025-03-12T15:32:51.729Z</time>
      </trkpt>
      <trkpt lat="48.63938" lon="2.07242">
        <ele>170.2</ele>
        <time>2025-03-12T15:32:54.981Z</time>
      </trkpt>
      <trkpt lat="48.63934" lon="2.07238">
        <ele>170.4</ele>
        <time>2025-03-12T15:32:58.234Z</time>
      </trkpt>
      <trkpt lat="48.6393" lon="2.07234">
        <ele>170.5</ele>
        <time>2025-03-12T15:33:02.105Z</time>
      </trkpt>
      <trkpt lat="48.63925" lon="2.07229">
        <ele>170.7</ele>
        <time>2025-03-12T15:33:05.976Z</time>
      </trkpt>
      <trkpt lat="48.63921" lon="2.07225">
        <ele>170.9</ele>
        <time>2025-03-12T15:33:09.847Z</time>
      </trkpt>
      <trkpt lat="48.63916" lon="2.0722">
        <ele>171</ele>
        <time>2025-03-12T15:33:13.720Z</time>
      </trkpt>
      <trkpt lat="48.63912" lon="2.07217">
        <ele>171</ele>
        <time>2025-03-12T15:33:16.931Z</time>
      </trkpt>
      <trkpt lat="48.63908" lon="2.07213">
        <ele>171</ele>
        <time>2025-03-12T15:33:20.142Z</time>
      </trkpt>
      <trkpt lat="48.63903" lon="2.0721">
        <ele>171</ele>
        <time>2025-03-12T15:33:23.353Z</time>
      </trkpt>
      <trkpt lat="48.63899" lon="2.07206">
        <ele>171</ele>
        <time>2025-03-12T15:33:26.564Z</time>
      </trkpt>
      <trkpt lat="48.63895" lon="2.07203">
        <ele>171</ele>
        <time>2025-03-12T15:33:29.775Z</time>
      </trkpt>
      <trkpt lat="48.63891" lon="2.07199">
        <ele>171</ele>
        <time>2025-03-12T15:33:32.986Z</time>
      </trkpt>
      <trkpt lat="48.63887" lon="2.07196">
        <ele>171</ele>
        <time>2025-03-12T15:33:36.197Z</time>
      </trkpt>
      <trkpt lat="48.63883" lon="2.07192">
        <ele>171</ele>
        <time>2025-03-12T15:33:39.408Z</time>
      </trkpt>
      <trkpt lat="48.63878" lon="2.07189">
        <ele>171</ele>
        <time>2025-03-12T15:33:42.619Z</time>
      </trkpt>
      <trkpt lat="48.63874" lon="2.07185">
        <ele>171</ele>
        <time>2025-03-12T15:33:45.830Z</time>
      </trkpt>
      <trkpt lat="48.6387" lon="2.07182">
        <ele>171</ele>
        <time>2025-03-12T15:33:49.042Z</time>
      </trkpt>
      <trkpt lat="48.63866" lon="2.07178">
        <ele>171</ele>
        <time>2025-03-12T15:33:52.254Z</time>
      </trkpt>
      <trkpt lat="48.63862" lon="2.07175">
        <ele>171</ele>
        <time>2025-03-12T15:33:55.466Z</time>
      </trkpt>
      <trkpt lat="48.63857" lon="2.07171">
        <ele>171.1</ele>
        <time>2025-03-12T15:33:58.678Z</time>
      </trkpt>
      <trkpt lat="48.63853" lon="2.07168">
        <ele>171.3</ele>
        <time>2025-03-12T15:34:01.890Z</time>
      </trkpt>
      <trkpt lat="48.63849" lon="2.07164">
        <ele>171.5</ele>
        <time>2025-03-12T15:34:05.103Z</time>
      </trkpt>
      <trkpt lat="48.63843" lon="2.07158">
        <ele>171.8</ele>
        <time>2025-03-12T15:34:10.772Z</time>
      </trkpt>
      <trkpt lat="48.63836" lon="2.07151">
        <ele>172</ele>
        <time>2025-03-12T15:34:16.442Z</time>
      </trkpt>
      <trkpt lat="48.63833" lon="2.07153">
        <ele>172</ele>
        <time>2025-03-12T15:34:18.598Z</time>
      </trkpt>
      <trkpt lat="48.63828" lon="2.07149">
        <ele>171.8</ele>
        <time>2025-03-12T15:34:22.273Z</time>
      </trkpt>
      <trkpt lat="48.63823" lon="2.07145">
        <ele>171.6</ele>
        <time>2025-03-12T15:34:25.948Z</time>
      </trkpt>
      <trkpt lat="48.63818" lon="2.0714">
        <ele>171.5</ele>
        <time>2025-03-12T15:34:29.623Z</time>
      </trkpt>
      <trkpt lat="48.63814" lon="2.07136">
        <ele>171.4</ele>
        <time>2025-03-12T15:34:33.298Z</time>
      </trkpt>
      <trkpt lat="48.63809" lon="2.07132">
        <ele>171.3</ele>
        <time>2025-03-12T15:34:36.973Z</time>
      </trkpt>
      <trkpt lat="48.63804" lon="2.07128">
        <ele>171.4</ele>
        <time>2025-03-12T15:34:40.648Z</time>
      </trkpt>
      <trkpt lat="48.63799" lon="2.07124">
        <ele>171.5</ele>
        <time>2025-03-12T15:34:44.323Z</time>
      </trkpt>
      <trkpt lat="48.63794" lon="2.0712">
        <ele>171.7</ele>
        <time>2025-03-12T15:34:47.998Z</time>
      </trkpt>
      <trkpt lat="48.63789" lon="2.07115">
        <ele>171.8</ele>
        <time>2025-03-12T15:34:51.673Z</time>
      </trkpt>
      <trkpt lat="48.63784" lon="2.07111">
        <ele>172</ele>
        <time>2025-03-12T15:34:55.348Z</time>
      </trkpt>
      <trkpt lat="48.63779" lon="2.07107">
        <ele>172</ele>
        <time>2025-03-12T15:34:59.023Z</time>
      </trkpt>
      <trkpt lat="48.63775" lon="2.07103">
        <ele>171.9</ele>
        <time>2025-03-12T15:35:02.699Z</time>
      </trkpt>
      <trkpt lat="48.6377" lon="2.07099">
        <ele>171.8</ele>
        <time>2025-03-12T15:35:06.375Z</time>
      </trkpt>
      <trkpt lat="48.63765" lon="2.07094">
        <ele>171.8</ele>
        <time>2025-03-12T15:35:10.051Z</time>
      </trkpt>
      <trkpt lat="48.6376" lon="2.0709">
        <ele>171.8</ele>
        <time>2025-03-12T15:35:13.727Z</time>
      </trkpt>
      <trkpt lat="48.63755" lon="2.07086">
        <ele>171.9</ele>
        <time>2025-03-12T15:35:17.404Z</time>
      </trkpt>
      <trkpt lat="48.6375" lon="2.07082">
        <ele>171.9</ele>
        <time>2025-03-12T15:35:21.012Z</time>
      </trkpt>
      <trkpt lat="48.63745" lon="2.07077">
        <ele>171.6</ele>
        <time>2025-03-12T15:35:24.620Z</time>
      </trkpt>
      <trkpt lat="48.6374" lon="2.07073">
        <ele>171.4</ele>
        <time>2025-03-12T15:35:28.228Z</time>
      </trkpt>
      <trkpt lat="48.63735" lon="2.07068">
        <ele>171.2</ele>
        <time>2025-03-12T15:35:31.836Z</time>
      </trkpt>
      <trkpt lat="48.6373" lon="2.07064">
        <ele>171.1</ele>
        <time>2025-03-12T15:35:35.445Z</time>
      </trkpt>
      <trkpt lat="48.63725" lon="2.07059">
        <ele>171</ele>
        <time>2025-03-12T15:35:39.054Z</time>
      </trkpt>
      <trkpt lat="48.6372" lon="2.07055">
        <ele>171</ele>
        <time>2025-03-12T15:35:42.663Z</time>
      </trkpt>
      <trkpt lat="48.63715" lon="2.0705">
        <ele>171</ele>
        <time>2025-03-12T15:35:46.273Z</time>
      </trkpt>
      <trkpt lat="48.63708" lon="2.07042">
        <ele>171</ele>
        <time>2025-03-12T15:35:52.044Z</time>
      </trkpt>
      <trkpt lat="48.63701" lon="2.07034">
        <ele>171</ele>
        <time>2025-03-12T15:35:57.816Z</time>
      </trkpt>
      <trkpt lat="48.63695" lon="2.07029">
        <ele>171</ele>
        <time>2025-03-12T15:36:02.555Z</time>
      </trkpt>
      <trkpt lat="48.63688" lon="2.07023">
        <ele>171</ele>
        <time>2025-03-12T15:36:07.294Z</time>
      </trkpt>
      <trkpt lat="48.63682" lon="2.07018">
        <ele>171</ele>
        <time>2025-03-12T15:36:12.033Z</time>
      </trkpt>
      <trkpt lat="48.63676" lon="2.07013">
        <ele>171</ele>
        <time>2025-03-12T15:36:16.772Z</time>
      </trkpt>
      <trkpt lat="48.63669" lon="2.07007">
        <ele>171</ele>
        <time>2025-03-12T15:36:21.511Z</time>
      </trkpt>
      <trkpt lat="48.63663" lon="2.07002">
        <ele>171</ele>
        <time>2025-03-12T15:36:26.250Z</time>
      </trkpt>
      <trkpt lat="48.63657" lon="2.06997">
        <ele>171</ele>
        <time>2025-03-12T15:36:30.989Z</time>
      </trkpt>
      <trkpt lat="48.63651" lon="2.06992">
        <ele>171</ele>
        <time>2025-03-12T15:36:35.728Z</time>
      </trkpt>
      <trkpt lat="48.63644" lon="2.06986">
        <ele>171</ele>
        <time>2025-03-12T15:36:40.467Z</time>
      </trkpt>
      <trkpt lat="48.63638" lon="2.06981">
        <ele>171</ele>
        <time>2025-03-12T15:36:45.206Z</time>
      </trkpt>
      <trkpt lat="48.63632" lon="2.06976">
        <ele>171</ele>
        <time>2025-03-12T15:36:49.946Z</time>
      </trkpt>
      <trkpt lat="48.63625" lon="2.0697">
        <ele>171</ele>
        <time>2025-03-12T15:36:54.686Z</time>
      </trkpt>
      <trkpt lat="48.63619" lon="2.06965">
        <ele>171</ele>
        <time>2025-03-12T15:36:59.426Z</time>
      </trkpt>
      <trkpt lat="48.63613" lon="2.0696">
        <ele>171</ele>
        <time>2025-03-12T15:37:04.166Z</time>
      </trkpt>
      <trkpt lat="48.63606" lon="2.06954">
        <ele>170.9</ele>
        <time>2025-03-12T15:37:08.906Z</time>
      </trkpt>
      <trkpt lat="48.636" lon="2.06949">
        <ele>170.9</ele>
        <time>2025-03-12T15:37:13.647Z</time>
      </trkpt>
      <trkpt lat="48.63593" lon="2.06943">
        <ele>171</ele>
        <time>2025-03-12T15:37:18.702Z</time>
      </trkpt>
      <trkpt lat="48.63586" lon="2.06937">
        <ele>170.7</ele>
        <time>2025-03-12T15:37:23.757Z</time>
      </trkpt>
      <trkpt lat="48.63579" lon="2.0693">
        <ele>170.4</ele>
        <time>2025-03-12T15:37:28.812Z</time>
      </trkpt>
      <trkpt lat="48.63573" lon="2.06924">
        <ele>170.2</ele>
        <time>2025-03-12T15:37:33.867Z</time>
      </trkpt>
      <trkpt lat="48.63566" lon="2.06918">
        <ele>170</ele>
        <time>2025-03-12T15:37:38.922Z</time>
      </trkpt>
      <trkpt lat="48.63559" lon="2.06912">
        <ele>170</ele>
        <time>2025-03-12T15:37:43.978Z</time>
      </trkpt>
      <trkpt lat="48.63552" lon="2.06905">
        <ele>170</ele>
        <time>2025-03-12T15:37:49.034Z</time>
      </trkpt>
      <trkpt lat="48.63545" lon="2.06899">
        <ele>170</ele>
        <time>2025-03-12T15:37:54.091Z</time>
      </trkpt>
      <trkpt lat="48.6354" lon="2.06894">
        <ele>170</ele>
        <time>2025-03-12T15:37:58.157Z</time>
      </trkpt>
      <trkpt lat="48.63535" lon="2.06888">
        <ele>170</ele>
        <time>2025-03-12T15:38:02.224Z</time>
      </trkpt>
      <trkpt lat="48.6353" lon="2.06881">
        <ele>169.7</ele>
        <time>2025-03-12T15:38:06.536Z</time>
      </trkpt>
      <trkpt lat="48.63524" lon="2.06873">
        <ele>169.4</ele>
        <time>2025-03-12T15:38:10.850Z</time>
      </trkpt>
      <trkpt lat="48.63519" lon="2.06864">
        <ele>169.1</ele>
        <time>2025-03-12T15:38:15.714Z</time>
      </trkpt>
      <trkpt lat="48.63513" lon="2.06855">
        <ele>169</ele>
        <time>2025-03-12T15:38:20.578Z</time>
      </trkpt>
      <trkpt lat="48.63508" lon="2.06847">
        <ele>169</ele>
        <time>2025-03-12T15:38:25.442Z</time>
      </trkpt>
      <trkpt lat="48.63503" lon="2.06838">
        <ele>169</ele>
        <time>2025-03-12T15:38:30.306Z</time>
      </trkpt>
      <trkpt lat="48.63497" lon="2.06829">
        <ele>168.9</ele>
        <time>2025-03-12T15:38:35.170Z</time>
      </trkpt>
      <trkpt lat="48.63492" lon="2.0682">
        <ele>168.7</ele>
        <time>2025-03-12T15:38:40.034Z</time>
      </trkpt>
      <trkpt lat="48.63486" lon="2.06811">
        <ele>168.5</ele>
        <time>2025-03-12T15:38:44.898Z</time>
      </trkpt>
      <trkpt lat="48.63481" lon="2.06803">
        <ele>168.3</ele>
        <time>2025-03-12T15:38:49.762Z</time>
      </trkpt>
      <trkpt lat="48.63476" lon="2.06794">
        <ele>168.1</ele>
        <time>2025-03-12T15:38:54.626Z</time>
      </trkpt>
      <trkpt lat="48.6347" lon="2.06785">
        <ele>167.9</ele>
        <time>2025-03-12T15:38:59.490Z</time>
      </trkpt>
      <trkpt lat="48.63465" lon="2.06776">
        <ele>167.7</ele>
        <time>2025-03-12T15:39:04.354Z</time>
      </trkpt>
      <trkpt lat="48.6346" lon="2.06767">
        <ele>167.5</ele>
        <time>2025-03-12T15:39:09.218Z</time>
      </trkpt>
      <trkpt lat="48.63454" lon="2.06758">
        <ele>167.3</ele>
        <time>2025-03-12T15:39:14.083Z</time>
      </trkpt>
      <trkpt lat="48.63449" lon="2.0675">
        <ele>167.2</ele>
        <time>2025-03-12T15:39:18.948Z</time>
      </trkpt>
      <trkpt lat="48.63443" lon="2.06741">
        <ele>166.9</ele>
        <time>2025-03-12T15:39:23.813Z</time>
      </trkpt>
      <trkpt lat="48.63438" lon="2.06732">
        <ele>166.5</ele>
        <time>2025-03-12T15:39:28.679Z</time>
      </trkpt>
      <trkpt lat="48.63433" lon="2.06728">
        <ele>166.1</ele>
        <time>2025-03-12T15:39:32.278Z</time>
      </trkpt>
      <trkpt lat="48.63427" lon="2.06723">
        <ele>165.7</ele>
        <time>2025-03-12T15:39:35.878Z</time>
      </trkpt>
      <trkpt lat="48.63423" lon="2.06722">
        <ele>165.4</ele>
        <time>2025-03-12T15:39:38.481Z</time>
      </trkpt>
      <trkpt lat="48.63418" lon="2.06722">
        <ele>165.1</ele>
        <time>2025-03-12T15:39:41.085Z</time>
      </trkpt>
      <trkpt lat="48.63414" lon="2.06721">
        <ele>164.9</ele>
        <time>2025-03-12T15:39:43.689Z</time>
      </trkpt>
      <trkpt lat="48.63409" lon="2.06721">
        <ele>164.7</ele>
        <time>2025-03-12T15:39:46.293Z</time>
      </trkpt>
      <trkpt lat="48.63405" lon="2.0672">
        <ele>164.6</ele>
        <time>2025-03-12T15:39:48.897Z</time>
      </trkpt>
      <trkpt lat="48.634" lon="2.06719">
        <ele>164.4</ele>
        <time>2025-03-12T15:39:51.501Z</time>
      </trkpt>
      <trkpt lat="48.63396" lon="2.06719">
        <ele>164.2</ele>
        <time>2025-03-12T15:39:54.105Z</time>
      </trkpt>
      <trkpt lat="48.63391" lon="2.06718">
        <ele>164.1</ele>
        <time>2025-03-12T15:39:56.709Z</time>
      </trkpt>
      <trkpt lat="48.63389" lon="2.06721">
        <ele>164</ele>
        <time>2025-03-12T15:39:58.374Z</time>
      </trkpt>
      <trkpt lat="48.6338" lon="2.06722">
        <ele>163.4</ele>
        <time>2025-03-12T15:40:03.342Z</time>
      </trkpt>
      <trkpt lat="48.63372" lon="2.06722">
        <ele>162.8</ele>
        <time>2025-03-12T15:40:08.310Z</time>
      </trkpt>
      <trkpt lat="48.63363" lon="2.06723">
        <ele>162.1</ele>
        <time>2025-03-12T15:40:13.278Z</time>
      </trkpt>
      <trkpt lat="48.63355" lon="2.06723">
        <ele>161.8</ele>
        <time>2025-03-12T15:40:18.246Z</time>
      </trkpt>
      <trkpt lat="48.63346" lon="2.06724">
        <ele>161.5</ele>
        <time>2025-03-12T15:40:23.215Z</time>
      </trkpt>
      <trkpt lat="48.63337" lon="2.06724">
        <ele>161.1</ele>
        <time>2025-03-12T15:40:28.184Z</time>
      </trkpt>
      <trkpt lat="48.63329" lon="2.06725">
        <ele>160.8</ele>
        <time>2025-03-12T15:40:33.153Z</time>
      </trkpt>
      <trkpt lat="48.6332" lon="2.06725">
        <ele>160.5</ele>
        <time>2025-03-12T15:40:38.122Z</time>
      </trkpt>
      <trkpt lat="48.63311" lon="2.06726">
        <ele>160.2</ele>
        <time>2025-03-12T15:40:43.091Z</time>
      </trkpt>
      <trkpt lat="48.63303" lon="2.06726">
        <ele>159.9</ele>
        <time>2025-03-12T15:40:48.060Z</time>
      </trkpt>
      <trkpt lat="48.63294" lon="2.06727">
        <ele>159.5</ele>
        <time>2025-03-12T15:40:53.029Z</time>
      </trkpt>
      <trkpt lat="48.63286" lon="2.06727">
        <ele>159.2</ele>
        <time>2025-03-12T15:40:57.998Z</time>
      </trkpt>
      <trkpt lat="48.63277" lon="2.06728">
        <ele>158.8</ele>
        <time>2025-03-12T15:41:02.967Z</time>
      </trkpt>
      <trkpt lat="48.63268" lon="2.06728">
        <ele>158.5</ele>
        <time>2025-03-12T15:41:07.936Z</time>
      </trkpt>
      <trkpt lat="48.6326" lon="2.06729">
        <ele>158.1</ele>
        <time>2025-03-12T15:41:12.905Z</time>
      </trkpt>
      <trkpt lat="48.63251" lon="2.06729">
        <ele>157.8</ele>
        <time>2025-03-12T15:41:17.874Z</time>
      </trkpt>
      <trkpt lat="48.63247" lon="2.06732">
        <ele>157.5</ele>
        <time>2025-03-12T15:41:20.444Z</time>
      </trkpt>
      <trkpt lat="48.6324" lon="2.06733">
        <ele>157</ele>
        <time>2025-03-12T15:41:24.478Z</time>
      </trkpt>
      <trkpt lat="48.63233" lon="2.06733">
        <ele>156.6</ele>
        <time>2025-03-12T15:41:28.513Z</time>
      </trkpt>
      <trkpt lat="48.63226" lon="2.06732">
        <ele>156.2</ele>
        <time>2025-03-12T15:41:32.560Z</time>
      </trkpt>
      <trkpt lat="48.63219" lon="2.06731">
        <ele>155.8</ele>
        <time>2025-03-12T15:41:36.608Z</time>
      </trkpt>
      <trkpt lat="48.63214" lon="2.06731">
        <ele>155.6</ele>
        <time>2025-03-12T15:41:39.799Z</time>
      </trkpt>
      <trkpt lat="48.63209" lon="2.06732">
        <ele>155.4</ele>
        <time>2025-03-12T15:41:42.990Z</time>
      </trkpt>
      <trkpt lat="48.63204" lon="2.06732">
        <ele>155.1</ele>
        <time>2025-03-12T15:41:46.181Z</time>
      </trkpt>
      <trkpt lat="48.632" lon="2.06732">
        <ele>154.9</ele>
        <time>2025-03-12T15:41:49.372Z</time>
      </trkpt>
      <trkpt lat="48.63195" lon="2.06733">
        <ele>154.6</ele>
        <time>2025-03-12T15:41:52.563Z</time>
      </trkpt>
      <trkpt lat="48.6319" lon="2.06733">
        <ele>154.4</ele>
        <time>2025-03-12T15:41:55.755Z</time>
      </trkpt>
      <trkpt lat="48.63185" lon="2.06733">
        <ele>154.3</ele>
        <time>2025-03-12T15:41:58.947Z</time>
      </trkpt>
      <trkpt lat="48.6318" lon="2.06734">
        <ele>154.1</ele>
        <time>2025-03-12T15:42:02.139Z</time>
      </trkpt>
      <trkpt lat="48.63175" lon="2.06734">
        <ele>153.9</ele>
        <time>2025-03-12T15:42:05.331Z</time>
      </trkpt>
      <trkpt lat="48.6317" lon="2.06734">
        <ele>153.7</ele>
        <time>2025-03-12T15:42:08.523Z</time>
      </trkpt>
      <trkpt lat="48.63165" lon="2.06735">
        <ele>153.5</ele>
        <time>2025-03-12T15:42:11.715Z</time>
      </trkpt>
      <trkpt lat="48.63161" lon="2.06735">
        <ele>153.1</ele>
        <time>2025-03-12T15:42:14.907Z</time>
      </trkpt>
      <trkpt lat="48.63156" lon="2.06736">
        <ele>152.7</ele>
        <time>2025-03-12T15:42:18.099Z</time>
      </trkpt>
      <trkpt lat="48.63151" lon="2.06736">
        <ele>152.4</ele>
        <time>2025-03-12T15:42:21.291Z</time>
      </trkpt>
      <trkpt lat="48.63146" lon="2.06736">
        <ele>152</ele>
        <time>2025-03-12T15:42:24.483Z</time>
      </trkpt>
      <trkpt lat="48.63141" lon="2.06737">
        <ele>151.6</ele>
        <time>2025-03-12T15:42:27.675Z</time>
      </trkpt>
      <trkpt lat="48.63136" lon="2.06737">
        <ele>151.5</ele>
        <time>2025-03-12T15:42:30.867Z</time>
      </trkpt>
      <trkpt lat="48.63131" lon="2.06737">
        <ele>151.5</ele>
        <time>2025-03-12T15:42:34.059Z</time>
      </trkpt>
      <trkpt lat="48.63126" lon="2.06738">
        <ele>151.4</ele>
        <time>2025-03-12T15:42:37.251Z</time>
      </trkpt>
      <trkpt lat="48.63122" lon="2.06738">
        <ele>151.4</ele>
        <time>2025-03-12T15:42:40.443Z</time>
      </trkpt>
      <trkpt lat="48.63117" lon="2.06738">
        <ele>151.4</ele>
        <time>2025-03-12T15:42:43.635Z</time>
      </trkpt>
      <trkpt lat="48.63112" lon="2.06739">
        <ele>151.4</ele>
        <time>2025-03-12T15:42:46.827Z</time>
      </trkpt>
      <trkpt lat="48.63107" lon="2.06739">
        <ele>151.8</ele>
        <time>2025-03-12T15:42:50.019Z</time>
      </trkpt>
      <trkpt lat="48.63102" lon="2.06739">
        <ele>152.2</ele>
        <time>2025-03-12T15:42:53.211Z</time>
      </trkpt>
      <trkpt lat="48.63097" lon="2.0674">
        <ele>152.7</ele>
        <time>2025-03-12T15:42:56.403Z</time>
      </trkpt>
      <trkpt lat="48.63092" lon="2.0674">
        <ele>153.2</ele>
        <time>2025-03-12T15:42:59.595Z</time>
      </trkpt>
      <trkpt lat="48.63087" lon="2.0674">
        <ele>153.6</ele>
        <time>2025-03-12T15:43:02.787Z</time>
      </trkpt>
      <trkpt lat="48.63083" lon="2.06741">
        <ele>154.1</ele>
        <time>2025-03-12T15:43:05.979Z</time>
      </trkpt>
      <trkpt lat="48.63078" lon="2.06741">
        <ele>154.4</ele>
        <time>2025-03-12T15:43:09.171Z</time>
      </trkpt>
      <trkpt lat="48.63073" lon="2.06741">
        <ele>154.8</ele>
        <time>2025-03-12T15:43:12.363Z</time>
      </trkpt>
      <trkpt lat="48.63068" lon="2.06742">
        <ele>155.1</ele>
        <time>2025-03-12T15:43:15.555Z</time>
      </trkpt>
      <trkpt lat="48.63063" lon="2.06742">
        <ele>155.5</ele>
        <time>2025-03-12T15:43:18.747Z</time>
      </trkpt>
      <trkpt lat="48.63056" lon="2.06742">
        <ele>156</ele>
        <time>2025-03-12T15:43:23.643Z</time>
      </trkpt>
      <trkpt lat="48.63048" lon="2.06742">
        <ele>156.1</ele>
        <time>2025-03-12T15:43:28.539Z</time>
      </trkpt>
      <trkpt lat="48.63041" lon="2.06742">
        <ele>156.2</ele>
        <time>2025-03-12T15:43:33.435Z</time>
      </trkpt>
      <trkpt lat="48.63033" lon="2.06742">
        <ele>156.2</ele>
        <time>2025-03-12T15:43:38.331Z</time>
      </trkpt>
      <trkpt lat="48.63026" lon="2.06742">
        <ele>156.3</ele>
        <time>2025-03-12T15:43:43.227Z</time>
      </trkpt>
      <trkpt lat="48.63018" lon="2.06742">
        <ele>156.3</ele>
        <time>2025-03-12T15:43:48.123Z</time>
      </trkpt>
      <trkpt lat="48.63011" lon="2.06742">
        <ele>156.3</ele>
        <time>2025-03-12T15:43:53.020Z</time>
      </trkpt>
      <trkpt lat="48.63003" lon="2.06743">
        <ele>156.3</ele>
        <time>2025-03-12T15:43:57.917Z</time>
      </trkpt>
      <trkpt lat="48.62996" lon="2.06743">
        <ele>156.1</ele>
        <time>2025-03-12T15:44:02.814Z</time>
      </trkpt>
      <trkpt lat="48.62988" lon="2.06743">
        <ele>155.9</ele>
        <time>2025-03-12T15:44:07.711Z</time>
      </trkpt>
      <trkpt lat="48.62981" lon="2.06743">
        <ele>155.7</ele>
        <time>2025-03-12T15:44:12.608Z</time>
      </trkpt>
      <trkpt lat="48.62973" lon="2.06743">
        <ele>155.5</ele>
        <time>2025-03-12T15:44:17.505Z</time>
      </trkpt>
      <trkpt lat="48.62966" lon="2.06743">
        <ele>155.5</ele>
        <time>2025-03-12T15:44:22.402Z</time>
      </trkpt>
      <trkpt lat="48.62958" lon="2.06743">
        <ele>155.4</ele>
        <time>2025-03-12T15:44:27.299Z</time>
      </trkpt>
      <trkpt lat="48.62951" lon="2.06743">
        <ele>155.3</ele>
        <time>2025-03-12T15:44:32.196Z</time>
      </trkpt>
      <trkpt lat="48.62943" lon="2.06743">
        <ele>155.2</ele>
        <time>2025-03-12T15:44:37.093Z</time>
      </trkpt>
      <trkpt lat="48.62943" lon="2.06752">
        <ele>154.9</ele>
        <time>2025-03-12T15:44:40.363Z</time>
      </trkpt>
      <trkpt lat="48.62943" lon="2.0676">
        <ele>154.6</ele>
        <time>2025-03-12T15:44:43.633Z</time>
      </trkpt>
      <trkpt lat="48.62943" lon="2.06769">
        <ele>154.3</ele>
        <time>2025-03-12T15:44:46.903Z</time>
      </trkpt>
      <trkpt lat="48.62943" lon="2.06777">
        <ele>154</ele>
        <time>2025-03-12T15:44:50.173Z</time>
      </trkpt>
      <trkpt lat="48.62944" lon="2.06786">
        <ele>153.4</ele>
        <time>2025-03-12T15:44:53.443Z</time>
      </trkpt>
      <trkpt lat="48.62944" lon="2.06795">
        <ele>152.8</ele>
        <time>2025-03-12T15:44:56.713Z</time>
      </trkpt>
      <trkpt lat="48.62944" lon="2.06803">
        <ele>152.1</ele>
        <time>2025-03-12T15:44:59.983Z</time>
      </trkpt>
      <trkpt lat="48.62944" lon="2.06812">
        <ele>151.8</ele>
        <time>2025-03-12T15:45:03.253Z</time>
      </trkpt>
      <trkpt lat="48.62944" lon="2.0682">
        <ele>151.4</ele>
        <time>2025-03-12T15:45:06.523Z</time>
      </trkpt>
      <trkpt lat="48.62944" lon="2.06829">
        <ele>151.1</ele>
        <time>2025-03-12T15:45:09.793Z</time>
      </trkpt>
      <trkpt lat="48.62944" lon="2.06838">
        <ele>150.8</ele>
        <time>2025-03-12T15:45:13.063Z</time>
      </trkpt>
      <trkpt lat="48.62944" lon="2.06846">
        <ele>150.5</ele>
        <time>2025-03-12T15:45:16.333Z</time>
      </trkpt>
      <trkpt lat="48.62944" lon="2.06855">
        <ele>150.2</ele>
        <time>2025-03-12T15:45:19.603Z</time>
      </trkpt>
      <trkpt lat="48.62944" lon="2.06863">
        <ele>149.9</ele>
        <time>2025-03-12T15:45:22.873Z</time>
      </trkpt>
      <trkpt lat="48.62944" lon="2.06872">
        <ele>149.6</ele>
        <time>2025-03-12T15:45:26.143Z</time>
      </trkpt>
      <trkpt lat="48.62945" lon="2.06881">
        <ele>149.3</ele>
        <time>2025-03-12T15:45:29.413Z</time>
      </trkpt>
      <trkpt lat="48.62945" lon="2.06889">
        <ele>149</ele>
        <time>2025-03-12T15:45:32.683Z</time>
      </trkpt>
      <trkpt lat="48.62945" lon="2.06898">
        <ele>148.7</ele>
        <time>2025-03-12T15:45:35.953Z</time>
      </trkpt>
      <trkpt lat="48.62945" lon="2.06906">
        <ele>148.4</ele>
        <time>2025-03-12T15:45:39.223Z</time>
      </trkpt>
      <trkpt lat="48.62945" lon="2.06915">
        <ele>148.1</ele>
        <time>2025-03-12T15:45:42.493Z</time>
      </trkpt>
      <trkpt lat="48.62945" lon="2.06924">
        <ele>147.8</ele>
        <time>2025-03-12T15:45:45.763Z</time>
      </trkpt>
      <trkpt lat="48.62945" lon="2.06932">
        <ele>147.4</ele>
        <time>2025-03-12T15:45:49.033Z</time>
      </trkpt>
      <trkpt lat="48.62945" lon="2.06941">
        <ele>147.1</ele>
        <time>2025-03-12T15:45:52.303Z</time>
      </trkpt>
      <trkpt lat="48.62945" lon="2.06949">
        <ele>146.8</ele>
        <time>2025-03-12T15:45:55.573Z</time>
      </trkpt>
      <trkpt lat="48.62945" lon="2.06958">
        <ele>146.5</ele>
        <time>2025-03-12T15:45:58.843Z</time>
      </trkpt>
      <trkpt lat="48.62945" lon="2.06966">
        <ele>146.2</ele>
        <time>2025-03-12T15:46:02.113Z</time>
      </trkpt>
      <trkpt lat="48.62946" lon="2.06975">
        <ele>145.9</ele>
        <time>2025-03-12T15:46:05.383Z</time>
      </trkpt>
      <trkpt lat="48.62946" lon="2.06984">
        <ele>145.6</ele>
        <time>2025-03-12T15:46:08.653Z</time>
      </trkpt>
      <trkpt lat="48.62946" lon="2.06992">
        <ele>145.3</ele>
        <time>2025-03-12T15:46:11.924Z</time>
      </trkpt>
      <trkpt lat="48.62946" lon="2.07001">
        <ele>145</ele>
        <time>2025-03-12T15:46:15.195Z</time>
      </trkpt>
      <trkpt lat="48.62946" lon="2.07009">
        <ele>145</ele>
        <time>2025-03-12T15:46:18.466Z</time>
      </trkpt>
      <trkpt lat="48.62946" lon="2.07018">
        <ele>145</ele>
        <time>2025-03-12T15:46:21.737Z</time>
      </trkpt>
      <trkpt lat="48.62946" lon="2.07027">
        <ele>144.9</ele>
        <time>2025-03-12T15:46:25.477Z</time>
      </trkpt>
      <trkpt lat="48.62946" lon="2.07035">
        <ele>144.7</ele>
        <time>2025-03-12T15:46:29.217Z</time>
      </trkpt>
      <trkpt lat="48.62946" lon="2.07044">
        <ele>144.4</ele>
        <time>2025-03-12T15:46:32.957Z</time>
      </trkpt>
      <trkpt lat="48.62946" lon="2.07053">
        <ele>144.1</ele>
        <time>2025-03-12T15:46:36.697Z</time>
      </trkpt>
      <trkpt lat="48.62946" lon="2.07061">
        <ele>144</ele>
        <time>2025-03-12T15:46:40.437Z</time>
      </trkpt>
      <trkpt lat="48.62946" lon="2.0707">
        <ele>144</ele>
        <time>2025-03-12T15:46:44.177Z</time>
      </trkpt>
      <trkpt lat="48.62946" lon="2.07079">
        <ele>144</ele>
        <time>2025-03-12T15:46:47.917Z</time>
      </trkpt>
      <trkpt lat="48.62947" lon="2.07088">
        <ele>144</ele>
        <time>2025-03-12T15:46:51.657Z</time>
      </trkpt>
      <trkpt lat="48.62947" lon="2.07096">
        <ele>144</ele>
        <time>2025-03-12T15:46:55.397Z</time>
      </trkpt>
      <trkpt lat="48.62947" lon="2.07105">
        <ele>144</ele>
        <time>2025-03-12T15:46:59.137Z</time>
      </trkpt>
      <trkpt lat="48.62947" lon="2.07114">
        <ele>144</ele>
        <time>2025-03-12T15:47:02.877Z</time>
      </trkpt>
      <trkpt lat="48.62947" lon="2.07122">
        <ele>144</ele>
        <time>2025-03-12T15:47:06.617Z</time>
      </trkpt>
      <trkpt lat="48.62947" lon="2.07131">
        <ele>144</ele>
        <time>2025-03-12T15:47:10.357Z</time>
      </trkpt>
      <trkpt lat="48.62947" lon="2.0714">
        <ele>144</ele>
        <time>2025-03-12T15:47:14.097Z</time>
      </trkpt>
      <trkpt lat="48.62947" lon="2.07148">
        <ele>144.3</ele>
        <time>2025-03-12T15:47:17.837Z</time>
      </trkpt>
      <trkpt lat="48.62947" lon="2.07157">
        <ele>144.7</ele>
        <time>2025-03-12T15:47:21.578Z</time>
      </trkpt>
      <trkpt lat="48.62943" lon="2.07154">
        <ele>144.5</ele>
        <time>2025-03-12T15:47:24.148Z</time>
      </trkpt>
      <trkpt lat="48.62939" lon="2.07153">
        <ele>144.3</ele>
        <time>2025-03-12T15:47:26.757Z</time>
      </trkpt>
      <trkpt lat="48.62934" lon="2.07153">
        <ele>144.1</ele>
        <time>2025-03-12T15:47:29.366Z</time>
      </trkpt>
      <trkpt lat="48.6293" lon="2.07152">
        <ele>143.9</ele>
        <time>2025-03-12T15:47:31.975Z</time>
      </trkpt>
      <trkpt lat="48.62925" lon="2.07151">
        <ele>143.7</ele>
        <time>2025-03-12T15:47:34.585Z</time>
      </trkpt>
      <trkpt lat="48.62925" lon="2.07151">
        <ele>143.7</ele>
        <time>2025-03-12T15:47:34.585Z</time>
      </trkpt>
      <trkpt lat="48.62925" lon="2.07151">
        <ele>143.7</ele>
        <time>2025-03-12T15:47:34.585Z</time>
      </trkpt>
      <trkpt lat="48.62918" lon="2.0715">
        <ele>143.4</ele>
        <time>2025-03-12T15:47:40.328Z</time>
      </trkpt>
      <trkpt lat="48.6291" lon="2.07148">
        <ele>143</ele>
        <time>2025-03-12T15:47:46.071Z</time>
      </trkpt>
      <trkpt lat="48.62903" lon="2.07147">
        <ele>142.7</ele>
        <time>2025-03-12T15:47:51.814Z</time>
      </trkpt>
      <trkpt lat="48.62896" lon="2.07145">
        <ele>142.3</ele>
        <time>2025-03-12T15:47:57.557Z</time>
      </trkpt>
      <trkpt lat="48.62888" lon="2.07144">
        <ele>142</ele>
        <time>2025-03-12T15:48:03.301Z</time>
      </trkpt>
      <trkpt lat="48.62881" lon="2.07142">
        <ele>142</ele>
        <time>2025-03-12T15:48:09.045Z</time>
      </trkpt>
      <trkpt lat="48.62874" lon="2.07141">
        <ele>142</ele>
        <time>2025-03-12T15:48:14.789Z</time>
      </trkpt>
      <trkpt lat="48.62867" lon="2.07139">
        <ele>142</ele>
        <time>2025-03-12T15:48:20.533Z</time>
      </trkpt>
      <trkpt lat="48.62859" lon="2.07138">
        <ele>142</ele>
        <time>2025-03-12T15:48:26.277Z</time>
      </trkpt>
      <trkpt lat="48.62852" lon="2.07136">
        <ele>142</ele>
        <time>2025-03-12T15:48:32.021Z</time>
      </trkpt>
      <trkpt lat="48.62845" lon="2.07135">
        <ele>142</ele>
        <time>2025-03-12T15:48:37.765Z</time>
      </trkpt>
      <trkpt lat="48.62837" lon="2.07133">
        <ele>142</ele>
        <time>2025-03-12T15:48:43.509Z</time>
      </trkpt>
      <trkpt lat="48.6283" lon="2.07132">
        <ele>142.2</ele>
        <time>2025-03-12T15:48:49.253Z</time>
      </trkpt>
      <trkpt lat="48.62823" lon="2.0713">
        <ele>142.8</ele>
        <time>2025-03-12T15:48:54.997Z</time>
      </trkpt>
      <trkpt lat="48.62815" lon="2.07129">
        <ele>143.3</ele>
        <time>2025-03-12T15:49:00.741Z</time>
      </trkpt>
      <trkpt lat="48.62808" lon="2.07128">
        <ele>143.8</ele>
        <time>2025-03-12T15:49:06.485Z</time>
      </trkpt>
      <trkpt lat="48.62801" lon="2.07126">
        <ele>144.5</ele>
        <time>2025-03-12T15:49:12.229Z</time>
      </trkpt>
      <trkpt lat="48.62793" lon="2.07125">
        <ele>145.3</ele>
        <time>2025-03-12T15:49:17.973Z</time>
      </trkpt>
      <trkpt lat="48.62786" lon="2.07123">
        <ele>146.1</ele>
        <time>2025-03-12T15:49:23.717Z</time>
      </trkpt>
      <trkpt lat="48.62779" lon="2.07122">
        <ele>146.9</ele>
        <time>2025-03-12T15:49:29.461Z</time>
      </trkpt>
      <trkpt lat="48.62771" lon="2.0712">
        <ele>147.9</ele>
        <time>2025-03-12T15:49:35.205Z</time>
      </trkpt>
      <trkpt lat="48.62764" lon="2.07119">
        <ele>149</ele>
        <time>2025-03-12T15:49:40.949Z</time>
      </trkpt>
      <trkpt lat="48.62757" lon="2.07117">
        <ele>150</ele>
        <time>2025-03-12T15:49:46.693Z</time>
      </trkpt>
      <trkpt lat="48.6275" lon="2.07116">
        <ele>151.1</ele>
        <time>2025-03-12T15:49:52.437Z</time>
      </trkpt>
      <trkpt lat="48.62742" lon="2.07114">
        <ele>151.8</ele>
        <time>2025-03-12T15:49:58.181Z</time>
      </trkpt>
      <trkpt lat="48.62735" lon="2.07113">
        <ele>152.6</ele>
        <time>2025-03-12T15:50:03.925Z</time>
      </trkpt>
      <trkpt lat="48.62728" lon="2.07111">
        <ele>153.4</ele>
        <time>2025-03-12T15:50:09.669Z</time>
      </trkpt>
      <trkpt lat="48.6272" lon="2.0711">
        <ele>154.1</ele>
        <time>2025-03-12T15:50:15.413Z</time>
      </trkpt>
      <trkpt lat="48.62713" lon="2.07108">
        <ele>154.7</ele>
        <time>2025-03-12T15:50:21.157Z</time>
      </trkpt>
      <trkpt lat="48.62706" lon="2.07107">
        <ele>155.2</ele>
        <time>2025-03-12T15:50:26.901Z</time>
      </trkpt>
      <trkpt lat="48.62698" lon="2.07106">
        <ele>155.7</ele>
        <time>2025-03-12T15:50:32.645Z</time>
      </trkpt>
      <trkpt lat="48.62691" lon="2.07104">
        <ele>156.2</ele>
        <time>2025-03-12T15:50:38.390Z</time>
      </trkpt>
      <trkpt lat="48.62685" lon="2.07107">
        <ele>156.7</ele>
        <time>2025-03-12T15:50:43.618Z</time>
      </trkpt>
      <trkpt lat="48.62679" lon="2.0711">
        <ele>157.1</ele>
        <time>2025-03-12T15:50:48.846Z</time>
      </trkpt>
      <trkpt lat="48.62673" lon="2.07113">
        <ele>157.5</ele>
        <time>2025-03-12T15:50:54.075Z</time>
      </trkpt>
      <trkpt lat="48.62667" lon="2.07116">
        <ele>158</ele>
        <time>2025-03-12T15:50:59.305Z</time>
      </trkpt>
      <trkpt lat="48.62662" lon="2.07121">
        <ele>158.2</ele>
        <time>2025-03-12T15:51:03.684Z</time>
      </trkpt>
      <trkpt lat="48.62662" lon="2.07131">
        <ele>158.2</ele>
        <time>2025-03-12T15:51:08.032Z</time>
      </trkpt>
      <trkpt lat="48.62661" lon="2.07139">
        <ele>158.2</ele>
        <time>2025-03-12T15:51:11.706Z</time>
      </trkpt>
      <trkpt lat="48.62659" lon="2.07146">
        <ele>158.3</ele>
        <time>2025-03-12T15:51:15.380Z</time>
      </trkpt>
      <trkpt lat="48.62658" lon="2.07154">
        <ele>158.5</ele>
        <time>2025-03-12T15:51:19.054Z</time>
      </trkpt>
      <trkpt lat="48.62656" lon="2.07161">
        <ele>158.7</ele>
        <time>2025-03-12T15:51:22.730Z</time>
      </trkpt>
      <trkpt lat="48.62653" lon="2.07167">
        <ele>159</ele>
        <time>2025-03-12T15:51:26.400Z</time>
      </trkpt>
      <trkpt lat="48.6265" lon="2.07172">
        <ele>159.2</ele>
        <time>2025-03-12T15:51:30.072Z</time>
      </trkpt>
      <trkpt lat="48.62646" lon="2.07176">
        <ele>159.5</ele>
        <time>2025-03-12T15:51:34.005Z</time>
      </trkpt>
      <trkpt lat="48.62642" lon="2.0718">
        <ele>159.8</ele>
        <time>2025-03-12T15:51:37.939Z</time>
      </trkpt>
      <trkpt lat="48.62637" lon="2.07183">
        <ele>160.1</ele>
        <time>2025-03-12T15:51:41.873Z</time>
      </trkpt>
      <trkpt lat="48.62633" lon="2.07187">
        <ele>160.4</ele>
        <time>2025-03-12T15:51:45.808Z</time>
      </trkpt>
      <trkpt lat="48.6263" lon="2.07194">
        <ele>160.7</ele>
        <time>2025-03-12T15:51:50.181Z</time>
      </trkpt>
      <trkpt lat="48.62626" lon="2.07201">
        <ele>160.9</ele>
        <time>2025-03-12T15:51:54.555Z</time>
      </trkpt>
      <trkpt lat="48.62623" lon="2.07208">
        <ele>161.2</ele>
        <time>2025-03-12T15:51:58.929Z</time>
      </trkpt>
      <trkpt lat="48.62619" lon="2.07215">
        <ele>161.4</ele>
        <time>2025-03-12T15:52:03.304Z</time>
      </trkpt>
      <trkpt lat="48.62617" lon="2.07224">
        <ele>161.6</ele>
        <time>2025-03-12T15:52:07.548Z</time>
      </trkpt>
      <trkpt lat="48.62615" lon="2.07232">
        <ele>161.7</ele>
        <time>2025-03-12T15:52:11.793Z</time>
      </trkpt>
      <trkpt lat="48.62611" lon="2.07242">
        <ele>162</ele>
        <time>2025-03-12T15:52:17.537Z</time>
      </trkpt>
      <trkpt lat="48.62607" lon="2.07252">
        <ele>162.3</ele>
        <time>2025-03-12T15:52:23.283Z</time>
      </trkpt>
      <trkpt lat="48.62604" lon="2.07257">
        <ele>162.5</ele>
        <time>2025-03-12T15:52:27.018Z</time>
      </trkpt>
      <trkpt lat="48.626" lon="2.07262">
        <ele>162.8</ele>
        <time>2025-03-12T15:52:30.753Z</time>
      </trkpt>
      <trkpt lat="48.62597" lon="2.07267">
        <ele>163.1</ele>
        <time>2025-03-12T15:52:34.489Z</time>
      </trkpt>
      <trkpt lat="48.62593" lon="2.07272">
        <ele>163.3</ele>
        <time>2025-03-12T15:52:38.226Z</time>
      </trkpt>
      <trkpt lat="48.62589" lon="2.07281">
        <ele>163.5</ele>
        <time>2025-03-12T15:52:42.955Z</time>
      </trkpt>
      <trkpt lat="48.62585" lon="2.0729">
        <ele>163.5</ele>
        <time>2025-03-12T15:52:47.684Z</time>
      </trkpt>
      <trkpt lat="48.62581" lon="2.07298">
        <ele>163.4</ele>
        <time>2025-03-12T15:52:52.413Z</time>
      </trkpt>
      <trkpt lat="48.62577" lon="2.07307">
        <ele>163.5</ele>
        <time>2025-03-12T15:52:57.143Z</time>
      </trkpt>
      <trkpt lat="48.62582" lon="2.07316">
        <ele>163.1</ele>
        <time>2025-03-12T15:53:01.970Z</time>
      </trkpt>
      <trkpt lat="48.62588" lon="2.07326">
        <ele>162.8</ele>
        <time>2025-03-12T15:53:06.798Z</time>
      </trkpt>
      <trkpt lat="48.62593" lon="2.07335">
        <ele>162.7</ele>
        <time>2025-03-12T15:53:11.626Z</time>
      </trkpt>
      <trkpt lat="48.62598" lon="2.07344">
        <ele>162.5</ele>
        <time>2025-03-12T15:53:16.454Z</time>
      </trkpt>
      <trkpt lat="48.62594" lon="2.07354">
        <ele>162.6</ele>
        <time>2025-03-12T15:53:21.614Z</time>
      </trkpt>
      <trkpt lat="48.6259" lon="2.07363">
        <ele>162.8</ele>
        <time>2025-03-12T15:53:26.774Z</time>
      </trkpt>
      <trkpt lat="48.62586" lon="2.07373">
        <ele>162.9</ele>
        <time>2025-03-12T15:53:31.935Z</time>
      </trkpt>
      <trkpt lat="48.62582" lon="2.07382">
        <ele>163</ele>
        <time>2025-03-12T15:53:37.097Z</time>
      </trkpt>
      <trkpt lat="48.6258" lon="2.07394">
        <ele>163.1</ele>
        <time>2025-03-12T15:53:41.997Z</time>
      </trkpt>
      <trkpt lat="48.62577" lon="2.07406">
        <ele>163.1</ele>
        <time>2025-03-12T15:53:46.897Z</time>
      </trkpt>
      <trkpt lat="48.62575" lon="2.07418">
        <ele>163</ele>
        <time>2025-03-12T15:53:51.797Z</time>
      </trkpt>
      <trkpt lat="48.62572" lon="2.0743">
        <ele>162.5</ele>
        <time>2025-03-12T15:53:56.697Z</time>
      </trkpt>
      <trkpt lat="48.6257" lon="2.07441">
        <ele>162.1</ele>
        <time>2025-03-12T15:54:01.597Z</time>
      </trkpt>
      <trkpt lat="48.62567" lon="2.07453">
        <ele>161.7</ele>
        <time>2025-03-12T15:54:06.498Z</time>
      </trkpt>
      <trkpt lat="48.62565" lon="2.07465">
        <ele>161.3</ele>
        <time>2025-03-12T15:54:11.399Z</time>
      </trkpt>
      <trkpt lat="48.62562" lon="2.07477">
        <ele>160.8</ele>
        <time>2025-03-12T15:54:16.301Z</time>
      </trkpt>
      <trkpt lat="48.62556" lon="2.07483">
        <ele>160.6</ele>
        <time>2025-03-12T15:54:21.113Z</time>
      </trkpt>
      <trkpt lat="48.62549" lon="2.07489">
        <ele>160.6</ele>
        <time>2025-03-12T15:54:25.926Z</time>
      </trkpt>
      <trkpt lat="48.62544" lon="2.07492">
        <ele>160.7</ele>
        <time>2025-03-12T15:54:29.469Z</time>
      </trkpt>
      <trkpt lat="48.6254" lon="2.07495">
        <ele>160.8</ele>
        <time>2025-03-12T15:54:33.012Z</time>
      </trkpt>
      <trkpt lat="48.62535" lon="2.07498">
        <ele>160.8</ele>
        <time>2025-03-12T15:54:36.555Z</time>
      </trkpt>
      <trkpt lat="48.6253" lon="2.07501">
        <ele>160.9</ele>
        <time>2025-03-12T15:54:40.099Z</time>
      </trkpt>
      <trkpt lat="48.62527" lon="2.07504">
        <ele>160.9</ele>
        <time>2025-03-12T15:54:42.465Z</time>
      </trkpt>
      <trkpt lat="48.62521" lon="2.07503">
        <ele>161.1</ele>
        <time>2025-03-12T15:54:46.872Z</time>
      </trkpt>
      <trkpt lat="48.62514" lon="2.07501">
        <ele>161.5</ele>
        <time>2025-03-12T15:54:52.237Z</time>
      </trkpt>
      <trkpt lat="48.62508" lon="2.07498">
        <ele>161.8</ele>
        <time>2025-03-12T15:54:57.602Z</time>
      </trkpt>
      <trkpt lat="48.62501" lon="2.07496">
        <ele>162.1</ele>
        <time>2025-03-12T15:55:02.967Z</time>
      </trkpt>
      <trkpt lat="48.62494" lon="2.07493">
        <ele>162.5</ele>
        <time>2025-03-12T15:55:08.334Z</time>
      </trkpt>
      <trkpt lat="48.62488" lon="2.07491">
        <ele>162.8</ele>
        <time>2025-03-12T15:55:13.104Z</time>
      </trkpt>
      <trkpt lat="48.62482" lon="2.07488">
        <ele>163.1</ele>
        <time>2025-03-12T15:55:17.876Z</time>
      </trkpt>
      <trkpt lat="48.62474" lon="2.0749">
        <ele>163.3</ele>
        <time>2025-03-12T15:55:23.638Z</time>
      </trkpt>
      <trkpt lat="48.6247" lon="2.07491">
        <ele>163.3</ele>
        <time>2025-03-12T15:55:26.606Z</time>
      </trkpt>
      <trkpt lat="48.62465" lon="2.07491">
        <ele>163.3</ele>
        <time>2025-03-12T15:55:29.575Z</time>
      </trkpt>
      <trkpt lat="48.62458" lon="2.07488">
        <ele>163.4</ele>
        <time>2025-03-12T15:55:34.477Z</time>
      </trkpt>
      <trkpt lat="48.62451" lon="2.07485">
        <ele>163.5</ele>
        <time>2025-03-12T15:55:39.379Z</time>
      </trkpt>
      <trkpt lat="48.62444" lon="2.07482">
        <ele>163.6</ele>
        <time>2025-03-12T15:55:44.281Z</time>
      </trkpt>
      <trkpt lat="48.62437" lon="2.0748">
        <ele>163.7</ele>
        <time>2025-03-12T15:55:49.183Z</time>
      </trkpt>
      <trkpt lat="48.62429" lon="2.07477">
        <ele>163.8</ele>
        <time>2025-03-12T15:55:54.085Z</time>
      </trkpt>
      <trkpt lat="48.62422" lon="2.07474">
        <ele>163.9</ele>
        <time>2025-03-12T15:55:58.987Z</time>
      </trkpt>
      <trkpt lat="48.62415" lon="2.07471">
        <ele>163.9</ele>
        <time>2025-03-12T15:56:03.890Z</time>
      </trkpt>
      <trkpt lat="48.62408" lon="2.07468">
        <ele>163.5</ele>
        <time>2025-03-12T15:56:08.794Z</time>
      </trkpt>
      <trkpt lat="48.62401" lon="2.07466">
        <ele>163</ele>
        <time>2025-03-12T15:56:12.895Z</time>
      </trkpt>
      <trkpt lat="48.62397" lon="2.07468">
        <ele>162.6</ele>
        <time>2025-03-12T15:56:15.321Z</time>
      </trkpt>
      <trkpt lat="48.6239" lon="2.07463">
        <ele>162.1</ele>
        <time>2025-03-12T15:56:19.947Z</time>
      </trkpt>
      <trkpt lat="48.62383" lon="2.07458">
        <ele>161.5</ele>
        <time>2025-03-12T15:56:24.574Z</time>
      </trkpt>
      <trkpt lat="48.62375" lon="2.07452">
        <ele>161</ele>
        <time>2025-03-12T15:56:29.201Z</time>
      </trkpt>
      <trkpt lat="48.62368" lon="2.07447">
        <ele>160.5</ele>
        <time>2025-03-12T15:56:33.829Z</time>
      </trkpt>
      <trkpt lat="48.62364" lon="2.07443">
        <ele>160.2</ele>
        <time>2025-03-12T15:56:36.563Z</time>
      </trkpt>
      <trkpt lat="48.6236" lon="2.07439">
        <ele>159.7</ele>
        <time>2025-03-12T15:56:39.297Z</time>
      </trkpt>
      <trkpt lat="48.62356" lon="2.07435">
        <ele>159.3</ele>
        <time>2025-03-12T15:56:42.031Z</time>
      </trkpt>
      <trkpt lat="48.62352" lon="2.07432">
        <ele>158.9</ele>
        <time>2025-03-12T15:56:44.765Z</time>
      </trkpt>
      <trkpt lat="48.62348" lon="2.07428">
        <ele>158.4</ele>
        <time>2025-03-12T15:56:47.499Z</time>
      </trkpt>
      <trkpt lat="48.62344" lon="2.07424">
        <ele>158</ele>
        <time>2025-03-12T15:56:50.233Z</time>
      </trkpt>
      <trkpt lat="48.6234" lon="2.0742">
        <ele>157.6</ele>
        <time>2025-03-12T15:56:52.967Z</time>
      </trkpt>
      <trkpt lat="48.62336" lon="2.07416">
        <ele>157.2</ele>
        <time>2025-03-12T15:56:55.703Z</time>
      </trkpt>
      <trkpt lat="48.62331" lon="2.07409">
        <ele>156.7</ele>
        <time>2025-03-12T15:56:59.669Z</time>
      </trkpt>
      <trkpt lat="48.62326" lon="2.07403">
        <ele>156.3</ele>
        <time>2025-03-12T15:57:03.635Z</time>
      </trkpt>
      <trkpt lat="48.6232" lon="2.07396">
        <ele>155.9</ele>
        <time>2025-03-12T15:57:07.601Z</time>
      </trkpt>
      <trkpt lat="48.62315" lon="2.07389">
        <ele>155.7</ele>
        <time>2025-03-12T15:57:11.568Z</time>
      </trkpt>
      <trkpt lat="48.62311" lon="2.07386">
        <ele>155.5</ele>
        <time>2025-03-12T15:57:14.461Z</time>
      </trkpt>
      <trkpt lat="48.62307" lon="2.07382">
        <ele>155.4</ele>
        <time>2025-03-12T15:57:17.354Z</time>
      </trkpt>
      <trkpt lat="48.62303" lon="2.07379">
        <ele>155.3</ele>
        <time>2025-03-12T15:57:20.247Z</time>
      </trkpt>
      <trkpt lat="48.62299" lon="2.07375">
        <ele>155.4</ele>
        <time>2025-03-12T15:57:23.142Z</time>
      </trkpt>
      <trkpt lat="48.62295" lon="2.07374">
        <ele>155.4</ele>
        <time>2025-03-12T15:57:26.173Z</time>
      </trkpt>
      <trkpt lat="48.6229" lon="2.07372">
        <ele>155.4</ele>
        <time>2025-03-12T15:57:29.205Z</time>
      </trkpt>
      <trkpt lat="48.62284" lon="2.07374">
        <ele>155.2</ele>
        <time>2025-03-12T15:57:33.752Z</time>
      </trkpt>
      <trkpt lat="48.62278" lon="2.07376">
        <ele>154.9</ele>
        <time>2025-03-12T15:57:38.299Z</time>
      </trkpt>
      <trkpt lat="48.62272" lon="2.07378">
        <ele>155.3</ele>
        <time>2025-03-12T15:57:42.846Z</time>
      </trkpt>
      <trkpt lat="48.62267" lon="2.0738">
        <ele>155.7</ele>
        <time>2025-03-12T15:57:47.393Z</time>
      </trkpt>
      <trkpt lat="48.62261" lon="2.07382">
        <ele>156.2</ele>
        <time>2025-03-12T15:57:51.941Z</time>
      </trkpt>
      <trkpt lat="48.62255" lon="2.07384">
        <ele>156.7</ele>
        <time>2025-03-12T15:57:56.489Z</time>
      </trkpt>
      <trkpt lat="48.62249" lon="2.07386">
        <ele>157.2</ele>
        <time>2025-03-12T15:58:01.037Z</time>
      </trkpt>
      <trkpt lat="48.62243" lon="2.07388">
        <ele>157.5</ele>
        <time>2025-03-12T15:58:05.586Z</time>
      </trkpt>
      <trkpt lat="48.62237" lon="2.07387">
        <ele>158</ele>
        <time>2025-03-12T15:58:10.720Z</time>
      </trkpt>
      <trkpt lat="48.62231" lon="2.07386">
        <ele>158.5</ele>
        <time>2025-03-12T15:58:15.855Z</time>
      </trkpt>
      <trkpt lat="48.62225" lon="2.07384">
        <ele>159</ele>
        <time>2025-03-12T15:58:20.990Z</time>
      </trkpt>
      <trkpt lat="48.62219" lon="2.07383">
        <ele>159.4</ele>
        <time>2025-03-12T15:58:26.126Z</time>
      </trkpt>
      <trkpt lat="48.62214" lon="2.07381">
        <ele>159.7</ele>
        <time>2025-03-12T15:58:30.306Z</time>
      </trkpt>
      <trkpt lat="48.62209" lon="2.0738">
        <ele>160</ele>
        <time>2025-03-12T15:58:34.486Z</time>
      </trkpt>
      <trkpt lat="48.62204" lon="2.07378">
        <ele>160.3</ele>
        <time>2025-03-12T15:58:38.666Z</time>
      </trkpt>
      <trkpt lat="48.62199" lon="2.07376">
        <ele>160.7</ele>
        <time>2025-03-12T15:58:42.846Z</time>
      </trkpt>
      <trkpt lat="48.62193" lon="2.07374">
        <ele>161.1</ele>
        <time>2025-03-12T15:58:47.026Z</time>
      </trkpt>
      <trkpt lat="48.62188" lon="2.07373">
        <ele>161.3</ele>
        <time>2025-03-12T15:58:51.206Z</time>
      </trkpt>
      <trkpt lat="48.62183" lon="2.07371">
        <ele>161.6</ele>
        <time>2025-03-12T15:58:55.386Z</time>
      </trkpt>
      <trkpt lat="48.62178" lon="2.07369">
        <ele>161.9</ele>
        <time>2025-03-12T15:58:59.567Z</time>
      </trkpt>
      <trkpt lat="48.62172" lon="2.07366">
        <ele>162.4</ele>
        <time>2025-03-12T15:59:04.097Z</time>
      </trkpt>
      <trkpt lat="48.62166" lon="2.07362">
        <ele>162.9</ele>
        <time>2025-03-12T15:59:08.627Z</time>
      </trkpt>
      <trkpt lat="48.6216" lon="2.07359">
        <ele>162.8</ele>
        <time>2025-03-12T15:59:13.158Z</time>
      </trkpt>
      <trkpt lat="48.62155" lon="2.07355">
        <ele>162.7</ele>
        <time>2025-03-12T15:59:17.689Z</time>
      </trkpt>
      <trkpt lat="48.62149" lon="2.07352">
        <ele>162.6</ele>
        <time>2025-03-12T15:59:22.220Z</time>
      </trkpt>
      <trkpt lat="48.62143" lon="2.07348">
        <ele>162.6</ele>
        <time>2025-03-12T15:59:26.751Z</time>
      </trkpt>
      <trkpt lat="48.62137" lon="2.07345">
        <ele>162.9</ele>
        <time>2025-03-12T15:59:31.282Z</time>
      </trkpt>
      <trkpt lat="48.62131" lon="2.07341">
        <ele>163.3</ele>
        <time>2025-03-12T15:59:35.814Z</time>
      </trkpt>
      <trkpt lat="48.62124" lon="2.07343">
        <ele>163.4</ele>
        <time>2025-03-12T15:59:41.032Z</time>
      </trkpt>
      <trkpt lat="48.62117" lon="2.07344">
        <ele>163.5</ele>
        <time>2025-03-12T15:59:46.250Z</time>
      </trkpt>
      <trkpt lat="48.6211" lon="2.07346">
        <ele>163.7</ele>
        <time>2025-03-12T15:59:51.468Z</time>
      </trkpt>
      <trkpt lat="48.62103" lon="2.07347">
        <ele>164.5</ele>
        <time>2025-03-12T15:59:56.686Z</time>
      </trkpt>
      <trkpt lat="48.62096" lon="2.07349">
        <ele>165.3</ele>
        <time>2025-03-12T16:00:01.904Z</time>
      </trkpt>
      <trkpt lat="48.62089" lon="2.0735">
        <ele>166.2</ele>
        <time>2025-03-12T16:00:07.122Z</time>
      </trkpt>
      <trkpt lat="48.62082" lon="2.07352">
        <ele>167</ele>
        <time>2025-03-12T16:00:12.340Z</time>
      </trkpt>
      <trkpt lat="48.62076" lon="2.07353">
        <ele>167.3</ele>
        <time>2025-03-12T16:00:17.558Z</time>
      </trkpt>
      <trkpt lat="48.62069" lon="2.07355">
        <ele>167.5</ele>
        <time>2025-03-12T16:00:22.776Z</time>
      </trkpt>
      <trkpt lat="48.62062" lon="2.07356">
        <ele>167.8</ele>
        <time>2025-03-12T16:00:27.994Z</time>
      </trkpt>
      <trkpt lat="48.62055" lon="2.07358">
        <ele>168</ele>
        <time>2025-03-12T16:00:33.212Z</time>
      </trkpt>
      <trkpt lat="48.62048" lon="2.07359">
        <ele>168</ele>
        <time>2025-03-12T16:00:38.430Z</time>
      </trkpt>
      <trkpt lat="48.62041" lon="2.07361">
        <ele>168</ele>
        <time>2025-03-12T16:00:43.648Z</time>
      </trkpt>
      <trkpt lat="48.62034" lon="2.07362">
        <ele>168</ele>
        <time>2025-03-12T16:00:48.866Z</time>
      </trkpt>
      <trkpt lat="48.62027" lon="2.07364">
        <ele>168</ele>
        <time>2025-03-12T16:00:54.085Z</time>
      </trkpt>
      <trkpt lat="48.6202" lon="2.07365">
        <ele>167.7</ele>
        <time>2025-03-12T16:00:59.305Z</time>
      </trkpt>
      <trkpt lat="48.62013" lon="2.07372">
        <ele>167.5</ele>
        <time>2025-03-12T16:01:04.486Z</time>
      </trkpt>
      <trkpt lat="48.62006" lon="2.07379">
        <ele>167.2</ele>
        <time>2025-03-12T16:01:09.667Z</time>
      </trkpt>
      <trkpt lat="48.61999" lon="2.07386">
        <ele>167</ele>
        <time>2025-03-12T16:01:14.849Z</time>
      </trkpt>
      <trkpt lat="48.61992" lon="2.07393">
        <ele>167</ele>
        <time>2025-03-12T16:01:20.032Z</time>
      </trkpt>
      <trkpt lat="48.61988" lon="2.07399">
        <ele>167</ele>
        <time>2025-03-12T16:01:23.563Z</time>
      </trkpt>
      <trkpt lat="48.61985" lon="2.07405">
        <ele>167</ele>
        <time>2025-03-12T16:01:27.094Z</time>
      </trkpt>
      <trkpt lat="48.61981" lon="2.07411">
        <ele>167</ele>
        <time>2025-03-12T16:01:30.625Z</time>
      </trkpt>
      <trkpt lat="48.61977" lon="2.07418">
        <ele>167</ele>
        <time>2025-03-12T16:01:34.156Z</time>
      </trkpt>
      <trkpt lat="48.61973" lon="2.07424">
        <ele>167</ele>
        <time>2025-03-12T16:01:37.687Z</time>
      </trkpt>
      <trkpt lat="48.6197" lon="2.0743">
        <ele>166.9</ele>
        <time>2025-03-12T16:01:41.219Z</time>
      </trkpt>
      <trkpt lat="48.61966" lon="2.07436">
        <ele>166.8</ele>
        <time>2025-03-12T16:01:44.751Z</time>
      </trkpt>
      <trkpt lat="48.61962" lon="2.07442">
        <ele>166.6</ele>
        <time>2025-03-12T16:01:48.284Z</time>
      </trkpt>
      <trkpt lat="48.61959" lon="2.07452">
        <ele>166.5</ele>
        <time>2025-03-12T16:01:52.912Z</time>
      </trkpt>
      <trkpt lat="48.61955" lon="2.07462">
        <ele>166.4</ele>
        <time>2025-03-12T16:01:57.540Z</time>
      </trkpt>
      <trkpt lat="48.61952" lon="2.07472">
        <ele>166.3</ele>
        <time>2025-03-12T16:02:02.169Z</time>
      </trkpt>
      <trkpt lat="48.61948" lon="2.07482">
        <ele>166.1</ele>
        <time>2025-03-12T16:02:06.798Z</time>
      </trkpt>
      <trkpt lat="48.61945" lon="2.07491">
        <ele>166</ele>
        <time>2025-03-12T16:02:11.427Z</time>
      </trkpt>
      <trkpt lat="48.61941" lon="2.07501">
        <ele>165.9</ele>
        <time>2025-03-12T16:02:16.056Z</time>
      </trkpt>
      <trkpt lat="48.61938" lon="2.07511">
        <ele>165.7</ele>
        <time>2025-03-12T16:02:20.685Z</time>
      </trkpt>
      <trkpt lat="48.61934" lon="2.07521">
        <ele>165.6</ele>
        <time>2025-03-12T16:02:25.315Z</time>
      </trkpt>
      <trkpt lat="48.61931" lon="2.0753">
        <ele>165.5</ele>
        <time>2025-03-12T16:02:29.392Z</time>
      </trkpt>
      <trkpt lat="48.61929" lon="2.07538">
        <ele>165.3</ele>
        <time>2025-03-12T16:02:33.469Z</time>
      </trkpt>
      <trkpt lat="48.61926" lon="2.07547">
        <ele>165.1</ele>
        <time>2025-03-12T16:02:37.546Z</time>
      </trkpt>
      <trkpt lat="48.61923" lon="2.07556">
        <ele>165</ele>
        <time>2025-03-12T16:02:41.623Z</time>
      </trkpt>
      <trkpt lat="48.6192" lon="2.07564">
        <ele>164.7</ele>
        <time>2025-03-12T16:02:45.700Z</time>
      </trkpt>
      <trkpt lat="48.61918" lon="2.07573">
        <ele>164.4</ele>
        <time>2025-03-12T16:02:49.777Z</time>
      </trkpt>
      <trkpt lat="48.61915" lon="2.07582">
        <ele>164</ele>
        <time>2025-03-12T16:02:53.854Z</time>
      </trkpt>
      <trkpt lat="48.61912" lon="2.07591">
        <ele>163.9</ele>
        <time>2025-03-12T16:02:57.931Z</time>
      </trkpt>
      <trkpt lat="48.61909" lon="2.07599">
        <ele>163.9</ele>
        <time>2025-03-12T16:03:02.008Z</time>
      </trkpt>
      <trkpt lat="48.61907" lon="2.07608">
        <ele>164</ele>
        <time>2025-03-12T16:03:06.085Z</time>
      </trkpt>
      <trkpt lat="48.61904" lon="2.07617">
        <ele>164</ele>
        <time>2025-03-12T16:03:10.162Z</time>
      </trkpt>
      <trkpt lat="48.61901" lon="2.07625">
        <ele>164</ele>
        <time>2025-03-12T16:03:14.240Z</time>
      </trkpt>
      <trkpt lat="48.61898" lon="2.07634">
        <ele>164</ele>
        <time>2025-03-12T16:03:18.318Z</time>
      </trkpt>
      <trkpt lat="48.61896" lon="2.07643">
        <ele>164.1</ele>
        <time>2025-03-12T16:03:22.396Z</time>
      </trkpt>
      <trkpt lat="48.61893" lon="2.07651">
        <ele>164.4</ele>
        <time>2025-03-12T16:03:26.474Z</time>
      </trkpt>
      <trkpt lat="48.6189" lon="2.0766">
        <ele>164.7</ele>
        <time>2025-03-12T16:03:30.553Z</time>
      </trkpt>
      <trkpt lat="48.61889" lon="2.07667">
        <ele>165</ele>
        <time>2025-03-12T16:03:33.873Z</time>
      </trkpt>
      <trkpt lat="48.61887" lon="2.07673">
        <ele>165</ele>
        <time>2025-03-12T16:03:37.195Z</time>
      </trkpt>
      <trkpt lat="48.61885" lon="2.07677">
        <ele>165</ele>
        <time>2025-03-12T16:03:39.377Z</time>
      </trkpt>
      <trkpt lat="48.61882" lon="2.07684">
        <ele>165</ele>
        <time>2025-03-12T16:03:42.995Z</time>
      </trkpt>
      <trkpt lat="48.61879" lon="2.07692">
        <ele>165</ele>
        <time>2025-03-12T16:03:46.613Z</time>
      </trkpt>
      <trkpt lat="48.61876" lon="2.07699">
        <ele>165.1</ele>
        <time>2025-03-12T16:03:50.231Z</time>
      </trkpt>
      <trkpt lat="48.61873" lon="2.07707">
        <ele>165.2</ele>
        <time>2025-03-12T16:03:53.849Z</time>
      </trkpt>
      <trkpt lat="48.6187" lon="2.07714">
        <ele>165.5</ele>
        <time>2025-03-12T16:03:57.467Z</time>
      </trkpt>
      <trkpt lat="48.61867" lon="2.07721">
        <ele>165.8</ele>
        <time>2025-03-12T16:04:01.085Z</time>
      </trkpt>
      <trkpt lat="48.61864" lon="2.07729">
        <ele>165.9</ele>
        <time>2025-03-12T16:04:04.703Z</time>
      </trkpt>
      <trkpt lat="48.61861" lon="2.07736">
        <ele>166</ele>
        <time>2025-03-12T16:04:08.321Z</time>
      </trkpt>
      <trkpt lat="48.61858" lon="2.07743">
        <ele>165.7</ele>
        <time>2025-03-12T16:04:11.939Z</time>
      </trkpt>
      <trkpt lat="48.61855" lon="2.07751">
        <ele>165.3</ele>
        <time>2025-03-12T16:04:15.557Z</time>
      </trkpt>
      <trkpt lat="48.61852" lon="2.07758">
        <ele>164.8</ele>
        <time>2025-03-12T16:04:19.176Z</time>
      </trkpt>
      <trkpt lat="48.61849" lon="2.07766">
        <ele>164.4</ele>
        <time>2025-03-12T16:04:22.795Z</time>
      </trkpt>
      <trkpt lat="48.61846" lon="2.07773">
        <ele>164</ele>
        <time>2025-03-12T16:04:26.414Z</time>
      </trkpt>
      <trkpt lat="48.61843" lon="2.0778">
        <ele>163.8</ele>
        <time>2025-03-12T16:04:30.033Z</time>
      </trkpt>
      <trkpt lat="48.6184" lon="2.07788">
        <ele>163.7</ele>
        <time>2025-03-12T16:04:33.652Z</time>
      </trkpt>
      <trkpt lat="48.61837" lon="2.07795">
        <ele>163.8</ele>
        <time>2025-03-12T16:04:37.272Z</time>
      </trkpt>
      <trkpt lat="48.61832" lon="2.07804">
        <ele>163.7</ele>
        <time>2025-03-12T16:04:42.355Z</time>
      </trkpt>
      <trkpt lat="48.61828" lon="2.07814">
        <ele>163.2</ele>
        <time>2025-03-12T16:04:47.438Z</time>
      </trkpt>
      <trkpt lat="48.61823" lon="2.07823">
        <ele>162.9</ele>
        <time>2025-03-12T16:04:52.521Z</time>
      </trkpt>
      <trkpt lat="48.61818" lon="2.07833">
        <ele>162.8</ele>
        <time>2025-03-12T16:04:57.604Z</time>
      </trkpt>
      <trkpt lat="48.61814" lon="2.07842">
        <ele>162.6</ele>
        <time>2025-03-12T16:05:02.687Z</time>
      </trkpt>
      <trkpt lat="48.61809" lon="2.07852">
        <ele>162.6</ele>
        <time>2025-03-12T16:05:07.771Z</time>
      </trkpt>
      <trkpt lat="48.61804" lon="2.07861">
        <ele>162.8</ele>
        <time>2025-03-12T16:05:12.855Z</time>
      </trkpt>
      <trkpt lat="48.618" lon="2.07871">
        <ele>162.5</ele>
        <time>2025-03-12T16:05:17.939Z</time>
      </trkpt>
      <trkpt lat="48.61795" lon="2.0788">
        <ele>162.4</ele>
        <time>2025-03-12T16:05:23.023Z</time>
      </trkpt>
      <trkpt lat="48.6179" lon="2.07889">
        <ele>162.4</ele>
        <time>2025-03-12T16:05:28.107Z</time>
      </trkpt>
      <trkpt lat="48.61785" lon="2.07899">
        <ele>162.4</ele>
        <time>2025-03-12T16:05:33.191Z</time>
      </trkpt>
      <trkpt lat="48.61781" lon="2.07908">
        <ele>162.6</ele>
        <time>2025-03-12T16:05:38.275Z</time>
      </trkpt>
      <trkpt lat="48.61776" lon="2.07918">
        <ele>162.9</ele>
        <time>2025-03-12T16:05:43.359Z</time>
      </trkpt>
      <trkpt lat="48.61771" lon="2.07927">
        <ele>163.1</ele>
        <time>2025-03-12T16:05:48.443Z</time>
      </trkpt>
      <trkpt lat="48.61767" lon="2.07937">
        <ele>163.2</ele>
        <time>2025-03-12T16:05:53.527Z</time>
      </trkpt>
      <trkpt lat="48.61762" lon="2.07946">
        <ele>163.4</ele>
        <time>2025-03-12T16:05:58.612Z</time>
      </trkpt>
      <trkpt lat="48.61759" lon="2.07952">
        <ele>163.4</ele>
        <time>2025-03-12T16:06:01.951Z</time>
      </trkpt>
      <trkpt lat="48.61756" lon="2.07958">
        <ele>163.5</ele>
        <time>2025-03-12T16:06:05.290Z</time>
      </trkpt>
      <trkpt lat="48.61753" lon="2.07964">
        <ele>163.7</ele>
        <time>2025-03-12T16:06:08.630Z</time>
      </trkpt>
      <trkpt lat="48.6175" lon="2.07971">
        <ele>163.8</ele>
        <time>2025-03-12T16:06:11.970Z</time>
      </trkpt>
      <trkpt lat="48.61746" lon="2.07977">
        <ele>163.7</ele>
        <time>2025-03-12T16:06:15.310Z</time>
      </trkpt>
      <trkpt lat="48.61743" lon="2.07983">
        <ele>163.5</ele>
        <time>2025-03-12T16:06:18.650Z</time>
      </trkpt>
      <trkpt lat="48.6174" lon="2.07989">
        <ele>163.4</ele>
        <time>2025-03-12T16:06:21.990Z</time>
      </trkpt>
      <trkpt lat="48.61737" lon="2.07995">
        <ele>163.3</ele>
        <time>2025-03-12T16:06:25.331Z</time>
      </trkpt>
      <trkpt lat="48.61736" lon="2.08006">
        <ele>163.7</ele>
        <time>2025-03-12T16:06:29.954Z</time>
      </trkpt>
      <trkpt lat="48.61734" lon="2.08016">
        <ele>163.9</ele>
        <time>2025-03-12T16:06:34.577Z</time>
      </trkpt>
      <trkpt lat="48.61733" lon="2.08027">
        <ele>164.1</ele>
        <time>2025-03-12T16:06:39.200Z</time>
      </trkpt>
      <trkpt lat="48.61732" lon="2.08038">
        <ele>164.2</ele>
        <time>2025-03-12T16:06:43.823Z</time>
      </trkpt>
      <trkpt lat="48.6173" lon="2.08048">
        <ele>164.4</ele>
        <time>2025-03-12T16:06:48.446Z</time>
      </trkpt>
      <trkpt lat="48.61729" lon="2.08059">
        <ele>164.5</ele>
        <time>2025-03-12T16:06:53.069Z</time>
      </trkpt>
      <trkpt lat="48.61727" lon="2.0807">
        <ele>164.5</ele>
        <time>2025-03-12T16:06:57.692Z</time>
      </trkpt>
      <trkpt lat="48.61726" lon="2.08081">
        <ele>164.4</ele>
        <time>2025-03-12T16:07:02.315Z</time>
      </trkpt>
      <trkpt lat="48.61725" lon="2.08091">
        <ele>164.5</ele>
        <time>2025-03-12T16:07:06.938Z</time>
      </trkpt>
      <trkpt lat="48.61723" lon="2.08102">
        <ele>164.8</ele>
        <time>2025-03-12T16:07:11.562Z</time>
      </trkpt>
      <trkpt lat="48.61722" lon="2.08113">
        <ele>164.9</ele>
        <time>2025-03-12T16:07:16.186Z</time>
      </trkpt>
      <trkpt lat="48.61721" lon="2.08123">
        <ele>164.2</ele>
        <time>2025-03-12T16:07:20.810Z</time>
      </trkpt>
      <trkpt lat="48.61719" lon="2.08134">
        <ele>163.5</ele>
        <time>2025-03-12T16:07:25.434Z</time>
      </trkpt>
      <trkpt lat="48.61718" lon="2.08145">
        <ele>163</ele>
        <time>2025-03-12T16:07:30.058Z</time>
      </trkpt>
      <trkpt lat="48.61716" lon="2.08155">
        <ele>162.7</ele>
        <time>2025-03-12T16:07:34.682Z</time>
      </trkpt>
      <trkpt lat="48.61715" lon="2.08166">
        <ele>162.4</ele>
        <time>2025-03-12T16:07:39.307Z</time>
      </trkpt>
      <trkpt lat="48.61713" lon="2.08177">
        <ele>162</ele>
        <time>2025-03-12T16:07:43.593Z</time>
      </trkpt>
      <trkpt lat="48.61711" lon="2.08187">
        <ele>161.5</ele>
        <time>2025-03-12T16:07:47.879Z</time>
      </trkpt>
      <trkpt lat="48.61708" lon="2.08198">
        <ele>161.2</ele>
        <time>2025-03-12T16:07:52.165Z</time>
      </trkpt>
      <trkpt lat="48.61706" lon="2.08208">
        <ele>161.3</ele>
        <time>2025-03-12T16:07:56.452Z</time>
      </trkpt>
      <trkpt lat="48.61701" lon="2.08214">
        <ele>160.6</ele>
        <time>2025-03-12T16:08:00.155Z</time>
      </trkpt>
      <trkpt lat="48.61696" lon="2.08219">
        <ele>160</ele>
        <time>2025-03-12T16:08:03.858Z</time>
      </trkpt>
      <trkpt lat="48.6169" lon="2.08225">
        <ele>159.6</ele>
        <time>2025-03-12T16:08:07.561Z</time>
      </trkpt>
      <trkpt lat="48.61685" lon="2.08231">
        <ele>159.2</ele>
        <time>2025-03-12T16:08:11.264Z</time>
      </trkpt>
      <trkpt lat="48.6168" lon="2.08236">
        <ele>158.9</ele>
        <time>2025-03-12T16:08:14.968Z</time>
      </trkpt>
      <trkpt lat="48.61675" lon="2.08242">
        <ele>158.5</ele>
        <time>2025-03-12T16:08:18.672Z</time>
      </trkpt>
      <trkpt lat="48.61669" lon="2.08247">
        <ele>158.2</ele>
        <time>2025-03-12T16:08:22.376Z</time>
      </trkpt>
      <trkpt lat="48.61664" lon="2.08253">
        <ele>157.9</ele>
        <time>2025-03-12T16:08:26.081Z</time>
      </trkpt>
      <trkpt lat="48.61664" lon="2.08253">
        <ele>157.9</ele>
        <time>2025-03-12T16:08:26.081Z</time>
      </trkpt>
      <trkpt lat="48.61659" lon="2.08258">
        <ele>157.8</ele>
        <time>2025-03-12T16:08:29.673Z</time>
      </trkpt>
      <trkpt lat="48.61654" lon="2.08264">
        <ele>157.6</ele>
        <time>2025-03-12T16:08:33.265Z</time>
      </trkpt>
      <trkpt lat="48.61649" lon="2.08269">
        <ele>157.5</ele>
        <time>2025-03-12T16:08:36.857Z</time>
      </trkpt>
      <trkpt lat="48.61644" lon="2.08275">
        <ele>157.3</ele>
        <time>2025-03-12T16:08:40.449Z</time>
      </trkpt>
      <trkpt lat="48.61639" lon="2.0828">
        <ele>157.1</ele>
        <time>2025-03-12T16:08:44.041Z</time>
      </trkpt>
      <trkpt lat="48.61634" lon="2.08285">
        <ele>156.7</ele>
        <time>2025-03-12T16:08:47.633Z</time>
      </trkpt>
      <trkpt lat="48.61629" lon="2.08291">
        <ele>156.4</ele>
        <time>2025-03-12T16:08:51.225Z</time>
      </trkpt>
      <trkpt lat="48.61624" lon="2.08296">
        <ele>156</ele>
        <time>2025-03-12T16:08:54.819Z</time>
      </trkpt>
      <trkpt lat="48.6162" lon="2.083">
        <ele>155.7</ele>
        <time>2025-03-12T16:08:57.700Z</time>
      </trkpt>
      <trkpt lat="48.61616" lon="2.08304">
        <ele>155.4</ele>
        <time>2025-03-12T16:09:00.581Z</time>
      </trkpt>
      <trkpt lat="48.61611" lon="2.08308">
        <ele>155</ele>
        <time>2025-03-12T16:09:03.462Z</time>
      </trkpt>
      <trkpt lat="48.61607" lon="2.08312">
        <ele>154.7</ele>
        <time>2025-03-12T16:09:06.345Z</time>
      </trkpt>
      <trkpt lat="48.61603" lon="2.08322">
        <ele>154.4</ele>
        <time>2025-03-12T16:09:10.868Z</time>
      </trkpt>
      <trkpt lat="48.61598" lon="2.08331">
        <ele>154.1</ele>
        <time>2025-03-12T16:09:15.392Z</time>
      </trkpt>
      <trkpt lat="48.61596" lon="2.08335">
        <ele>153.9</ele>
        <time>2025-03-12T16:09:17.300Z</time>
      </trkpt>
      <trkpt lat="48.61592" lon="2.08342">
        <ele>153.6</ele>
        <time>2025-03-12T16:09:20.785Z</time>
      </trkpt>
      <trkpt lat="48.61588" lon="2.08349">
        <ele>153.3</ele>
        <time>2025-03-12T16:09:24.270Z</time>
      </trkpt>
      <trkpt lat="48.61584" lon="2.08356">
        <ele>153</ele>
        <time>2025-03-12T16:09:27.755Z</time>
      </trkpt>
      <trkpt lat="48.6158" lon="2.08363">
        <ele>152.9</ele>
        <time>2025-03-12T16:09:31.240Z</time>
      </trkpt>
      <trkpt lat="48.61576" lon="2.08369">
        <ele>152.7</ele>
        <time>2025-03-12T16:09:34.725Z</time>
      </trkpt>
      <trkpt lat="48.61572" lon="2.08376">
        <ele>152.4</ele>
        <time>2025-03-12T16:09:38.211Z</time>
      </trkpt>
      <trkpt lat="48.61568" lon="2.08383">
        <ele>152</ele>
        <time>2025-03-12T16:09:41.697Z</time>
      </trkpt>
      <trkpt lat="48.61564" lon="2.0839">
        <ele>151.6</ele>
        <time>2025-03-12T16:09:45.184Z</time>
      </trkpt>
      <trkpt lat="48.61561" lon="2.08399">
        <ele>151.4</ele>
        <time>2025-03-12T16:09:49.017Z</time>
      </trkpt>
      <trkpt lat="48.61558" lon="2.08408">
        <ele>151.2</ele>
        <time>2025-03-12T16:09:52.850Z</time>
      </trkpt>
      <trkpt lat="48.61555" lon="2.08417">
        <ele>150.9</ele>
        <time>2025-03-12T16:09:56.683Z</time>
      </trkpt>
      <trkpt lat="48.61552" lon="2.08426">
        <ele>150.3</ele>
        <time>2025-03-12T16:10:00.516Z</time>
      </trkpt>
      <trkpt lat="48.61549" lon="2.08434">
        <ele>149.8</ele>
        <time>2025-03-12T16:10:04.349Z</time>
      </trkpt>
      <trkpt lat="48.61546" lon="2.08443">
        <ele>149.3</ele>
        <time>2025-03-12T16:10:08.182Z</time>
      </trkpt>
      <trkpt lat="48.61543" lon="2.08452">
        <ele>149.1</ele>
        <time>2025-03-12T16:10:12.015Z</time>
      </trkpt>
      <trkpt lat="48.6154" lon="2.08461">
        <ele>148.8</ele>
        <time>2025-03-12T16:10:15.848Z</time>
      </trkpt>
      <trkpt lat="48.61536" lon="2.0847">
        <ele>148.6</ele>
        <time>2025-03-12T16:10:19.681Z</time>
      </trkpt>
      <trkpt lat="48.61533" lon="2.08479">
        <ele>148.4</ele>
        <time>2025-03-12T16:10:23.514Z</time>
      </trkpt>
      <trkpt lat="48.6153" lon="2.08488">
        <ele>148.1</ele>
        <time>2025-03-12T16:10:27.347Z</time>
      </trkpt>
      <trkpt lat="48.61527" lon="2.08497">
        <ele>148</ele>
        <time>2025-03-12T16:10:31.180Z</time>
      </trkpt>
      <trkpt lat="48.61524" lon="2.08505">
        <ele>147.7</ele>
        <time>2025-03-12T16:10:35.014Z</time>
      </trkpt>
      <trkpt lat="48.61521" lon="2.08514">
        <ele>147.5</ele>
        <time>2025-03-12T16:10:38.848Z</time>
      </trkpt>
      <trkpt lat="48.61518" lon="2.08523">
        <ele>147.3</ele>
        <time>2025-03-12T16:10:42.682Z</time>
      </trkpt>
      <trkpt lat="48.61515" lon="2.08532">
        <ele>147.1</ele>
        <time>2025-03-12T16:10:46.517Z</time>
      </trkpt>
      <trkpt lat="48.61509" lon="2.08538">
        <ele>146.8</ele>
        <time>2025-03-12T16:10:51.357Z</time>
      </trkpt>
      <trkpt lat="48.61502" lon="2.08545">
        <ele>146.7</ele>
        <time>2025-03-12T16:10:56.197Z</time>
      </trkpt>
      <trkpt lat="48.61496" lon="2.08551">
        <ele>146.7</ele>
        <time>2025-03-12T16:11:01.037Z</time>
      </trkpt>
      <trkpt lat="48.6149" lon="2.08557">
        <ele>146.6</ele>
        <time>2025-03-12T16:11:05.877Z</time>
      </trkpt>
      <trkpt lat="48.61483" lon="2.08564">
        <ele>146.4</ele>
        <time>2025-03-12T16:11:10.717Z</time>
      </trkpt>
      <trkpt lat="48.61477" lon="2.0857">
        <ele>146.2</ele>
        <time>2025-03-12T16:11:15.557Z</time>
      </trkpt>
      <trkpt lat="48.6147" lon="2.08576">
        <ele>145.9</ele>
        <time>2025-03-12T16:11:20.397Z</time>
      </trkpt>
      <trkpt lat="48.61464" lon="2.08583">
        <ele>145.7</ele>
        <time>2025-03-12T16:11:25.237Z</time>
      </trkpt>
      <trkpt lat="48.61458" lon="2.08589">
        <ele>145.7</ele>
        <time>2025-03-12T16:11:30.077Z</time>
      </trkpt>
      <trkpt lat="48.61451" lon="2.08595">
        <ele>145.7</ele>
        <time>2025-03-12T16:11:34.917Z</time>
      </trkpt>
      <trkpt lat="48.61445" lon="2.08601">
        <ele>145.7</ele>
        <time>2025-03-12T16:11:39.757Z</time>
      </trkpt>
      <trkpt lat="48.61439" lon="2.08608">
        <ele>145.7</ele>
        <time>2025-03-12T16:11:44.597Z</time>
      </trkpt>
      <trkpt lat="48.61432" lon="2.08614">
        <ele>145.7</ele>
        <time>2025-03-12T16:11:49.437Z</time>
      </trkpt>
      <trkpt lat="48.61426" lon="2.0862">
        <ele>145.7</ele>
        <time>2025-03-12T16:11:54.277Z</time>
      </trkpt>
      <trkpt lat="48.61419" lon="2.08627">
        <ele>145.7</ele>
        <time>2025-03-12T16:11:59.117Z</time>
      </trkpt>
      <trkpt lat="48.61413" lon="2.08633">
        <ele>145.7</ele>
        <time>2025-03-12T16:12:03.958Z</time>
      </trkpt>
      <trkpt lat="48.61407" lon="2.08632">
        <ele>145.4</ele>
        <time>2025-03-12T16:12:07.617Z</time>
      </trkpt>
      <trkpt lat="48.61401" lon="2.08632">
        <ele>145.2</ele>
        <time>2025-03-12T16:12:11.276Z</time>
      </trkpt>
      <trkpt lat="48.61394" lon="2.08631">
        <ele>144.9</ele>
        <time>2025-03-12T16:12:14.935Z</time>
      </trkpt>
      <trkpt lat="48.61388" lon="2.0863">
        <ele>144.7</ele>
        <time>2025-03-12T16:12:18.595Z</time>
      </trkpt>
      <trkpt lat="48.61381" lon="2.08628">
        <ele>144.8</ele>
        <time>2025-03-12T16:12:23.203Z</time>
      </trkpt>
      <trkpt lat="48.61375" lon="2.08627">
        <ele>144.8</ele>
        <time>2025-03-12T16:12:27.811Z</time>
      </trkpt>
      <trkpt lat="48.61368" lon="2.08625">
        <ele>144.9</ele>
        <time>2025-03-12T16:12:32.420Z</time>
      </trkpt>
      <trkpt lat="48.61361" lon="2.08623">
        <ele>144.9</ele>
        <time>2025-03-12T16:12:37.029Z</time>
      </trkpt>
      <trkpt lat="48.61355" lon="2.0862">
        <ele>144.8</ele>
        <time>2025-03-12T16:12:41.499Z</time>
      </trkpt>
      <trkpt lat="48.61348" lon="2.08617">
        <ele>144.8</ele>
        <time>2025-03-12T16:12:45.970Z</time>
      </trkpt>
      <trkpt lat="48.61342" lon="2.08614">
        <ele>144.8</ele>
        <time>2025-03-12T16:12:50.441Z</time>
      </trkpt>
      <trkpt lat="48.61335" lon="2.08611">
        <ele>144.9</ele>
        <time>2025-03-12T16:12:54.913Z</time>
      </trkpt>
      <trkpt lat="48.61329" lon="2.08607">
        <ele>145</ele>
        <time>2025-03-12T16:12:58.666Z</time>
      </trkpt>
      <trkpt lat="48.61324" lon="2.08604">
        <ele>145</ele>
        <time>2025-03-12T16:13:02.419Z</time>
      </trkpt>
      <trkpt lat="48.61318" lon="2.086">
        <ele>144.9</ele>
        <time>2025-03-12T16:13:06.172Z</time>
      </trkpt>
      <trkpt lat="48.61313" lon="2.08596">
        <ele>144.8</ele>
        <time>2025-03-12T16:13:09.925Z</time>
      </trkpt>
      <trkpt lat="48.61307" lon="2.08593">
        <ele>144.6</ele>
        <time>2025-03-12T16:13:13.678Z</time>
      </trkpt>
      <trkpt lat="48.61302" lon="2.08589">
        <ele>144.5</ele>
        <time>2025-03-12T16:13:17.431Z</time>
      </trkpt>
      <trkpt lat="48.61296" lon="2.08585">
        <ele>144.5</ele>
        <time>2025-03-12T16:13:21.184Z</time>
      </trkpt>
      <trkpt lat="48.61291" lon="2.08582">
        <ele>144.4</ele>
        <time>2025-03-12T16:13:24.937Z</time>
      </trkpt>
      <trkpt lat="48.61285" lon="2.08578">
        <ele>144.4</ele>
        <time>2025-03-12T16:13:28.690Z</time>
      </trkpt>
      <trkpt lat="48.61279" lon="2.08574">
        <ele>144.3</ele>
        <time>2025-03-12T16:13:32.443Z</time>
      </trkpt>
      <trkpt lat="48.61274" lon="2.0857">
        <ele>144.1</ele>
        <time>2025-03-12T16:13:36.196Z</time>
      </trkpt>
      <trkpt lat="48.61268" lon="2.08567">
        <ele>143.8</ele>
        <time>2025-03-12T16:13:39.950Z</time>
      </trkpt>
      <trkpt lat="48.61263" lon="2.08563">
        <ele>143.5</ele>
        <time>2025-03-12T16:13:43.704Z</time>
      </trkpt>
      <trkpt lat="48.61257" lon="2.08559">
        <ele>143.3</ele>
        <time>2025-03-12T16:13:47.458Z</time>
      </trkpt>
      <trkpt lat="48.61252" lon="2.08556">
        <ele>143</ele>
        <time>2025-03-12T16:13:51.212Z</time>
      </trkpt>
      <trkpt lat="48.61246" lon="2.08552">
        <ele>142.9</ele>
        <time>2025-03-12T16:13:54.967Z</time>
      </trkpt>
      <trkpt lat="48.61242" lon="2.0855">
        <ele>142.8</ele>
        <time>2025-03-12T16:13:57.859Z</time>
      </trkpt>
      <trkpt lat="48.61237" lon="2.08548">
        <ele>142.7</ele>
        <time>2025-03-12T16:14:00.751Z</time>
      </trkpt>
      <trkpt lat="48.61232" lon="2.08546">
        <ele>142.7</ele>
        <time>2025-03-12T16:14:04.140Z</time>
      </trkpt>
      <trkpt lat="48.61226" lon="2.08545">
        <ele>142.6</ele>
        <time>2025-03-12T16:14:07.529Z</time>
      </trkpt>
      <trkpt lat="48.61221" lon="2.08543">
        <ele>142.6</ele>
        <time>2025-03-12T16:14:10.918Z</time>
      </trkpt>
      <trkpt lat="48.61216" lon="2.08542">
        <ele>142.5</ele>
        <time>2025-03-12T16:14:14.307Z</time>
      </trkpt>
      <trkpt lat="48.6121" lon="2.0854">
        <ele>142.4</ele>
        <time>2025-03-12T16:14:17.696Z</time>
      </trkpt>
      <trkpt lat="48.61205" lon="2.08539">
        <ele>142.4</ele>
        <time>2025-03-12T16:14:21.085Z</time>
      </trkpt>
      <trkpt lat="48.612" lon="2.08537">
        <ele>142.3</ele>
        <time>2025-03-12T16:14:24.474Z</time>
      </trkpt>
      <trkpt lat="48.61195" lon="2.08536">
        <ele>142.3</ele>
        <time>2025-03-12T16:14:27.863Z</time>
      </trkpt>
      <trkpt lat="48.61189" lon="2.08534">
        <ele>142.2</ele>
        <time>2025-03-12T16:14:31.252Z</time>
      </trkpt>
      <trkpt lat="48.61184" lon="2.08532">
        <ele>142.2</ele>
        <time>2025-03-12T16:14:34.641Z</time>
      </trkpt>
      <trkpt lat="48.61179" lon="2.08531">
        <ele>142.1</ele>
        <time>2025-03-12T16:14:38.031Z</time>
      </trkpt>
      <trkpt lat="48.61173" lon="2.08529">
        <ele>142.1</ele>
        <time>2025-03-12T16:14:41.421Z</time>
      </trkpt>
      <trkpt lat="48.61168" lon="2.08528">
        <ele>142</ele>
        <time>2025-03-12T16:14:44.811Z</time>
      </trkpt>
      <trkpt lat="48.61163" lon="2.08526">
        <ele>141.8</ele>
        <time>2025-03-12T16:14:48.201Z</time>
      </trkpt>
      <trkpt lat="48.61157" lon="2.08525">
        <ele>141.5</ele>
        <time>2025-03-12T16:14:51.591Z</time>
      </trkpt>
      <trkpt lat="48.61152" lon="2.08523">
        <ele>141.3</ele>
        <time>2025-03-12T16:14:54.982Z</time>
      </trkpt>
      <trkpt lat="48.61145" lon="2.0852">
        <ele>141</ele>
        <time>2025-03-12T16:14:59.145Z</time>
      </trkpt>
      <trkpt lat="48.61138" lon="2.08518">
        <ele>140.6</ele>
        <time>2025-03-12T16:15:03.308Z</time>
      </trkpt>
      <trkpt lat="48.61131" lon="2.08515">
        <ele>140.1</ele>
        <time>2025-03-12T16:15:07.471Z</time>
      </trkpt>
      <trkpt lat="48.61124" lon="2.08512">
        <ele>139.7</ele>
        <time>2025-03-12T16:15:11.634Z</time>
      </trkpt>
      <trkpt lat="48.61117" lon="2.08509">
        <ele>139.3</ele>
        <time>2025-03-12T16:15:15.797Z</time>
      </trkpt>
      <trkpt lat="48.6111" lon="2.08507">
        <ele>138.9</ele>
        <time>2025-03-12T16:15:19.960Z</time>
      </trkpt>
      <trkpt lat="48.61103" lon="2.08504">
        <ele>138.5</ele>
        <time>2025-03-12T16:15:24.124Z</time>
      </trkpt>
      <trkpt lat="48.61096" lon="2.08501">
        <ele>137.9</ele>
        <time>2025-03-12T16:15:28.289Z</time>
      </trkpt>
      <trkpt lat="48.6109" lon="2.08499">
        <ele>137.5</ele>
        <time>2025-03-12T16:15:31.745Z</time>
      </trkpt>
      <trkpt lat="48.61084" lon="2.08497">
        <ele>137.1</ele>
        <time>2025-03-12T16:15:35.201Z</time>
      </trkpt>
      <trkpt lat="48.61078" lon="2.08495">
        <ele>136.6</ele>
        <time>2025-03-12T16:15:38.657Z</time>
      </trkpt>
      <trkpt lat="48.61073" lon="2.08494">
        <ele>136.2</ele>
        <time>2025-03-12T16:15:42.113Z</time>
      </trkpt>
      <trkpt lat="48.61067" lon="2.08492">
        <ele>135.8</ele>
        <time>2025-03-12T16:15:45.569Z</time>
      </trkpt>
      <trkpt lat="48.61061" lon="2.0849">
        <ele>135.4</ele>
        <time>2025-03-12T16:15:49.026Z</time>
      </trkpt>
      <trkpt lat="48.61055" lon="2.08488">
        <ele>135</ele>
        <time>2025-03-12T16:15:52.483Z</time>
      </trkpt>
      <trkpt lat="48.61049" lon="2.08486">
        <ele>134.6</ele>
        <time>2025-03-12T16:15:55.941Z</time>
      </trkpt>
      <trkpt lat="48.61041" lon="2.08485">
        <ele>134.2</ele>
        <time>2025-03-12T16:16:00.581Z</time>
      </trkpt>
      <trkpt lat="48.61033" lon="2.08483">
        <ele>133.7</ele>
        <time>2025-03-12T16:16:05.221Z</time>
      </trkpt>
      <trkpt lat="48.61025" lon="2.08482">
        <ele>133.1</ele>
        <time>2025-03-12T16:16:09.862Z</time>
      </trkpt>
      <trkpt lat="48.61017" lon="2.0848">
        <ele>132.5</ele>
        <time>2025-03-12T16:16:14.503Z</time>
      </trkpt>
      <trkpt lat="48.61009" lon="2.08481">
        <ele>132</ele>
        <time>2025-03-12T16:16:18.973Z</time>
      </trkpt>
      <trkpt lat="48.61002" lon="2.08482">
        <ele>131.4</ele>
        <time>2025-03-12T16:16:23.443Z</time>
      </trkpt>
      <trkpt lat="48.60994" lon="2.08482">
        <ele>131.1</ele>
        <time>2025-03-12T16:16:27.913Z</time>
      </trkpt>
      <trkpt lat="48.60986" lon="2.08483">
        <ele>130.7</ele>
        <time>2025-03-12T16:16:32.383Z</time>
      </trkpt>
      <trkpt lat="48.60978" lon="2.08484">
        <ele>130.3</ele>
        <time>2025-03-12T16:16:36.854Z</time>
      </trkpt>
      <trkpt lat="48.60971" lon="2.08485">
        <ele>129.9</ele>
        <time>2025-03-12T16:16:41.325Z</time>
      </trkpt>
      <trkpt lat="48.60963" lon="2.08485">
        <ele>129.7</ele>
        <time>2025-03-12T16:16:45.796Z</time>
      </trkpt>
      <trkpt lat="48.60955" lon="2.08486">
        <ele>129.4</ele>
        <time>2025-03-12T16:16:50.267Z</time>
      </trkpt>
      <trkpt lat="48.60949" lon="2.08488">
        <ele>129.2</ele>
        <time>2025-03-12T16:16:54.025Z</time>
      </trkpt>
      <trkpt lat="48.60943" lon="2.08489">
        <ele>129</ele>
        <time>2025-03-12T16:16:57.784Z</time>
      </trkpt>
      <trkpt lat="48.60937" lon="2.08491">
        <ele>128.9</ele>
        <time>2025-03-12T16:17:01.543Z</time>
      </trkpt>
      <trkpt lat="48.60931" lon="2.08492">
        <ele>128.9</ele>
        <time>2025-03-12T16:17:05.302Z</time>
      </trkpt>
      <trkpt lat="48.60927" lon="2.08493">
        <ele>128.8</ele>
        <time>2025-03-12T16:17:08.172Z</time>
      </trkpt>
      <trkpt lat="48.60922" lon="2.08493">
        <ele>128.8</ele>
        <time>2025-03-12T16:17:11.042Z</time>
      </trkpt>
      <trkpt lat="48.60918" lon="2.08497">
        <ele>128.9</ele>
        <time>2025-03-12T16:17:14.175Z</time>
      </trkpt>
      <trkpt lat="48.60914" lon="2.085">
        <ele>128.9</ele>
        <time>2025-03-12T16:17:17.308Z</time>
      </trkpt>
      <trkpt lat="48.60909" lon="2.08504">
        <ele>128.8</ele>
        <time>2025-03-12T16:17:20.441Z</time>
      </trkpt>
      <trkpt lat="48.60905" lon="2.08507">
        <ele>128.7</ele>
        <time>2025-03-12T16:17:23.576Z</time>
      </trkpt>
      <trkpt lat="48.60906" lon="2.085">
        <ele>128.6</ele>
        <time>2025-03-12T16:17:26.710Z</time>
      </trkpt>
      <trkpt lat="48.60907" lon="2.08492">
        <ele>128.5</ele>
        <time>2025-03-12T16:17:29.844Z</time>
      </trkpt>
      <trkpt lat="48.60907" lon="2.08492">
        <ele>128.5</ele>
        <time>2025-03-12T16:17:29.844Z</time>
      </trkpt>
      <trkpt lat="48.60908" lon="2.08485">
        <ele>128.3</ele>
        <time>2025-03-12T16:17:32.899Z</time>
      </trkpt>
      <trkpt lat="48.60909" lon="2.08478">
        <ele>128.2</ele>
        <time>2025-03-12T16:17:35.954Z</time>
      </trkpt>
      <trkpt lat="48.60911" lon="2.08471">
        <ele>128</ele>
        <time>2025-03-12T16:17:39.009Z</time>
      </trkpt>
      <trkpt lat="48.60912" lon="2.08464">
        <ele>127.9</ele>
        <time>2025-03-12T16:17:42.064Z</time>
      </trkpt>
      <trkpt lat="48.60913" lon="2.08457">
        <ele>127.9</ele>
        <time>2025-03-12T16:17:45.119Z</time>
      </trkpt>
      <trkpt lat="48.60914" lon="2.0845">
        <ele>127.9</ele>
        <time>2025-03-12T16:17:48.175Z</time>
      </trkpt>
      <trkpt lat="48.60916" lon="2.08443">
        <ele>127.9</ele>
        <time>2025-03-12T16:17:51.231Z</time>
      </trkpt>
      <trkpt lat="48.60917" lon="2.08436">
        <ele>127.7</ele>
        <time>2025-03-12T16:17:54.287Z</time>
      </trkpt>
      <trkpt lat="48.60918" lon="2.08429">
        <ele>127.5</ele>
        <time>2025-03-12T16:17:57.343Z</time>
      </trkpt>
      <trkpt lat="48.60919" lon="2.08422">
        <ele>127.3</ele>
        <time>2025-03-12T16:18:00.399Z</time>
      </trkpt>
      <trkpt lat="48.6092" lon="2.08415">
        <ele>127.1</ele>
        <time>2025-03-12T16:18:03.455Z</time>
      </trkpt>
      <trkpt lat="48.60922" lon="2.08408">
        <ele>127.2</ele>
        <time>2025-03-12T16:18:06.511Z</time>
      </trkpt>
      <trkpt lat="48.60923" lon="2.08401">
        <ele>127.2</ele>
        <time>2025-03-12T16:18:09.567Z</time>
      </trkpt>
      <trkpt lat="48.60924" lon="2.08394">
        <ele>127.3</ele>
        <time>2025-03-12T16:18:12.623Z</time>
      </trkpt>
      <trkpt lat="48.60925" lon="2.08387">
        <ele>127.3</ele>
        <time>2025-03-12T16:18:15.679Z</time>
      </trkpt>
      <trkpt lat="48.60927" lon="2.0838">
        <ele>127.4</ele>
        <time>2025-03-12T16:18:18.735Z</time>
      </trkpt>
      <trkpt lat="48.60928" lon="2.08373">
        <ele>127.4</ele>
        <time>2025-03-12T16:18:21.791Z</time>
      </trkpt>
      <trkpt lat="48.60929" lon="2.08366">
        <ele>127.4</ele>
        <time>2025-03-12T16:18:24.847Z</time>
      </trkpt>
      <trkpt lat="48.6093" lon="2.08359">
        <ele>127.5</ele>
        <time>2025-03-12T16:18:27.903Z</time>
      </trkpt>
      <trkpt lat="48.60931" lon="2.08352">
        <ele>127.5</ele>
        <time>2025-03-12T16:18:30.959Z</time>
      </trkpt>
      <trkpt lat="48.60933" lon="2.08345">
        <ele>127.6</ele>
        <time>2025-03-12T16:18:34.015Z</time>
      </trkpt>
      <trkpt lat="48.60934" lon="2.08338">
        <ele>127.6</ele>
        <time>2025-03-12T16:18:37.071Z</time>
      </trkpt>
      <trkpt lat="48.60935" lon="2.08331">
        <ele>127.6</ele>
        <time>2025-03-12T16:18:40.127Z</time>
      </trkpt>
      <trkpt lat="48.60936" lon="2.08324">
        <ele>127.5</ele>
        <time>2025-03-12T16:18:43.183Z</time>
      </trkpt>
      <trkpt lat="48.60938" lon="2.08317">
        <ele>127.3</ele>
        <time>2025-03-12T16:18:46.239Z</time>
      </trkpt>
      <trkpt lat="48.60939" lon="2.0831">
        <ele>127.1</ele>
        <time>2025-03-12T16:18:49.295Z</time>
      </trkpt>
      <trkpt lat="48.6094" lon="2.08303">
        <ele>127</ele>
        <time>2025-03-12T16:18:52.351Z</time>
      </trkpt>
      <trkpt lat="48.60941" lon="2.08296">
        <ele>127</ele>
        <time>2025-03-12T16:18:55.407Z</time>
      </trkpt>
      <trkpt lat="48.60942" lon="2.08289">
        <ele>127</ele>
        <time>2025-03-12T16:18:58.463Z</time>
      </trkpt>
      <trkpt lat="48.60944" lon="2.08282">
        <ele>127</ele>
        <time>2025-03-12T16:19:01.519Z</time>
      </trkpt>
      <trkpt lat="48.60945" lon="2.08275">
        <ele>127</ele>
        <time>2025-03-12T16:19:04.575Z</time>
      </trkpt>
      <trkpt lat="48.60946" lon="2.08268">
        <ele>127</ele>
        <time>2025-03-12T16:19:07.631Z</time>
      </trkpt>
      <trkpt lat="48.60942" lon="2.08265">
        <ele>127</ele>
        <time>2025-03-12T16:19:10.477Z</time>
      </trkpt>
      <trkpt lat="48.60938" lon="2.08261">
        <ele>126.9</ele>
        <time>2025-03-12T16:19:13.324Z</time>
      </trkpt>
      <trkpt lat="48.60934" lon="2.08258">
        <ele>126.7</ele>
        <time>2025-03-12T16:19:16.171Z</time>
      </trkpt>
      <trkpt lat="48.6093" lon="2.08254">
        <ele>126.6</ele>
        <time>2025-03-12T16:19:19.019Z</time>
      </trkpt>
      <trkpt lat="48.60923" lon="2.08249">
        <ele>126.2</ele>
        <time>2025-03-12T16:19:23.983Z</time>
      </trkpt>
      <trkpt lat="48.60915" lon="2.08243">
        <ele>126</ele>
        <time>2025-03-12T16:19:28.947Z</time>
      </trkpt>
      <trkpt lat="48.60908" lon="2.08238">
        <ele>125.9</ele>
        <time>2025-03-12T16:19:33.911Z</time>
      </trkpt>
      <trkpt lat="48.609" lon="2.08232">
        <ele>125.6</ele>
        <time>2025-03-12T16:19:38.875Z</time>
      </trkpt>
      <trkpt lat="48.60893" lon="2.08227">
        <ele>125.3</ele>
        <time>2025-03-12T16:19:43.839Z</time>
      </trkpt>
      <trkpt lat="48.60885" lon="2.08221">
        <ele>125</ele>
        <time>2025-03-12T16:19:48.803Z</time>
      </trkpt>
      <trkpt lat="48.60878" lon="2.08216">
        <ele>124.9</ele>
        <time>2025-03-12T16:19:53.767Z</time>
      </trkpt>
      <trkpt lat="48.6087" lon="2.0821">
        <ele>124.7</ele>
        <time>2025-03-12T16:19:58.731Z</time>
      </trkpt>
      <trkpt lat="48.60863" lon="2.08205">
        <ele>124.4</ele>
        <time>2025-03-12T16:20:03.695Z</time>
      </trkpt>
      <trkpt lat="48.60855" lon="2.08199">
        <ele>123.9</ele>
        <time>2025-03-12T16:20:08.659Z</time>
      </trkpt>
      <trkpt lat="48.60848" lon="2.08194">
        <ele>123.5</ele>
        <time>2025-03-12T16:20:13.623Z</time>
      </trkpt>
      <trkpt lat="48.6084" lon="2.08188">
        <ele>123.2</ele>
        <time>2025-03-12T16:20:18.587Z</time>
      </trkpt>
      <trkpt lat="48.60833" lon="2.08183">
        <ele>123</ele>
        <time>2025-03-12T16:20:23.552Z</time>
      </trkpt>
      <trkpt lat="48.60825" lon="2.08177">
        <ele>122.7</ele>
        <time>2025-03-12T16:20:28.517Z</time>
      </trkpt>
      <trkpt lat="48.60818" lon="2.08172">
        <ele>122.4</ele>
        <time>2025-03-12T16:20:33.482Z</time>
      </trkpt>
      <trkpt lat="48.6081" lon="2.08166">
        <ele>122.2</ele>
        <time>2025-03-12T16:20:38.448Z</time>
      </trkpt>
      <trkpt lat="48.60802" lon="2.08164">
        <ele>121.7</ele>
        <time>2025-03-12T16:20:43.243Z</time>
      </trkpt>
      <trkpt lat="48.60794" lon="2.08163">
        <ele>121.1</ele>
        <time>2025-03-12T16:20:48.038Z</time>
      </trkpt>
      <trkpt lat="48.60785" lon="2.08161">
        <ele>120.5</ele>
        <time>2025-03-12T16:20:52.834Z</time>
      </trkpt>
      <trkpt lat="48.60777" lon="2.08159">
        <ele>119.9</ele>
        <time>2025-03-12T16:20:57.631Z</time>
      </trkpt>
      <trkpt lat="48.60772" lon="2.0815">
        <ele>119.6</ele>
        <time>2025-03-12T16:21:01.940Z</time>
      </trkpt>
      <trkpt lat="48.60768" lon="2.08142">
        <ele>119.3</ele>
        <time>2025-03-12T16:21:06.249Z</time>
      </trkpt>
      <trkpt lat="48.60763" lon="2.08133">
        <ele>118.8</ele>
        <time>2025-03-12T16:21:10.558Z</time>
      </trkpt>
      <trkpt lat="48.60758" lon="2.08124">
        <ele>118.4</ele>
        <time>2025-03-12T16:21:14.868Z</time>
      </trkpt>
      <trkpt lat="48.60753" lon="2.08118">
        <ele>118.1</ele>
        <time>2025-03-12T16:21:18.430Z</time>
      </trkpt>
      <trkpt lat="48.60749" lon="2.08112">
        <ele>117.9</ele>
        <time>2025-03-12T16:21:21.992Z</time>
      </trkpt>
      <trkpt lat="48.60744" lon="2.08106">
        <ele>117.4</ele>
        <time>2025-03-12T16:21:25.554Z</time>
      </trkpt>
      <trkpt lat="48.60739" lon="2.081">
        <ele>116.8</ele>
        <time>2025-03-12T16:21:29.116Z</time>
      </trkpt>
      <trkpt lat="48.60734" lon="2.08094">
        <ele>116.2</ele>
        <time>2025-03-12T16:21:32.679Z</time>
      </trkpt>
      <trkpt lat="48.6073" lon="2.08088">
        <ele>115.7</ele>
        <time>2025-03-12T16:21:36.242Z</time>
      </trkpt>
      <trkpt lat="48.60725" lon="2.08082">
        <ele>115.2</ele>
        <time>2025-03-12T16:21:39.805Z</time>
      </trkpt>
      <trkpt lat="48.6072" lon="2.08076">
        <ele>114.9</ele>
        <time>2025-03-12T16:21:43.369Z</time>
      </trkpt>
      <trkpt lat="48.60713" lon="2.08082">
        <ele>114.7</ele>
        <time>2025-03-12T16:21:48.279Z</time>
      </trkpt>
      <trkpt lat="48.60709" lon="2.08085">
        <ele>114.6</ele>
        <time>2025-03-12T16:21:51.023Z</time>
      </trkpt>
      <trkpt lat="48.60702" lon="2.08089">
        <ele>114.3</ele>
        <time>2025-03-12T16:21:55.895Z</time>
      </trkpt>
      <trkpt lat="48.60694" lon="2.08092">
        <ele>114</ele>
        <time>2025-03-12T16:22:00.767Z</time>
      </trkpt>
      <trkpt lat="48.60687" lon="2.08096">
        <ele>114</ele>
        <time>2025-03-12T16:22:05.639Z</time>
      </trkpt>
      <trkpt lat="48.60679" lon="2.08099">
        <ele>114</ele>
        <time>2025-03-12T16:22:10.512Z</time>
      </trkpt>
      <trkpt lat="48.60673" lon="2.08103">
        <ele>114</ele>
        <time>2025-03-12T16:22:14.826Z</time>
      </trkpt>
      <trkpt lat="48.60668" lon="2.0811">
        <ele>114</ele>
        <time>2025-03-12T16:22:19.308Z</time>
      </trkpt>
      <trkpt lat="48.60667" lon="2.08117">
        <ele>113.8</ele>
        <time>2025-03-12T16:22:22.153Z</time>
      </trkpt>
      <trkpt lat="48.60665" lon="2.08123">
        <ele>113.5</ele>
        <time>2025-03-12T16:22:24.999Z</time>
      </trkpt>
      <trkpt lat="48.60664" lon="2.0813">
        <ele>113.3</ele>
        <time>2025-03-12T16:22:27.845Z</time>
      </trkpt>
      <trkpt lat="48.60663" lon="2.08136">
        <ele>113.1</ele>
        <time>2025-03-12T16:22:30.691Z</time>
      </trkpt>
      <trkpt lat="48.60661" lon="2.08143">
        <ele>113.1</ele>
        <time>2025-03-12T16:22:33.537Z</time>
      </trkpt>
      <trkpt lat="48.6066" lon="2.08149">
        <ele>113.3</ele>
        <time>2025-03-12T16:22:36.383Z</time>
      </trkpt>
      <trkpt lat="48.60658" lon="2.08156">
        <ele>113.4</ele>
        <time>2025-03-12T16:22:39.229Z</time>
      </trkpt>
      <trkpt lat="48.60657" lon="2.08162">
        <ele>113.5</ele>
        <time>2025-03-12T16:22:42.076Z</time>
      </trkpt>
      <trkpt lat="48.60653" lon="2.08173">
        <ele>113.5</ele>
        <time>2025-03-12T16:22:47.537Z</time>
      </trkpt>
      <trkpt lat="48.60648" lon="2.0818">
        <ele>113.3</ele>
        <time>2025-03-12T16:22:51.494Z</time>
      </trkpt>
      <trkpt lat="48.60643" lon="2.08186">
        <ele>113.1</ele>
        <time>2025-03-12T16:22:55.453Z</time>
      </trkpt>
      <trkpt lat="48.60638" lon="2.0819">
        <ele>113</ele>
        <time>2025-03-12T16:22:59.090Z</time>
      </trkpt>
      <trkpt lat="48.60632" lon="2.08193">
        <ele>112.8</ele>
        <time>2025-03-12T16:23:02.729Z</time>
      </trkpt>
      <trkpt lat="48.60624" lon="2.08195">
        <ele>112.5</ele>
        <time>2025-03-12T16:23:07.720Z</time>
      </trkpt>
      <trkpt lat="48.60617" lon="2.08197">
        <ele>112.3</ele>
        <time>2025-03-12T16:23:12.711Z</time>
      </trkpt>
      <trkpt lat="48.60609" lon="2.08199">
        <ele>112.2</ele>
        <time>2025-03-12T16:23:17.702Z</time>
      </trkpt>
      <trkpt lat="48.60602" lon="2.08201">
        <ele>112.2</ele>
        <time>2025-03-12T16:23:22.693Z</time>
      </trkpt>
      <trkpt lat="48.60594" lon="2.08203">
        <ele>112.1</ele>
        <time>2025-03-12T16:23:27.684Z</time>
      </trkpt>
      <trkpt lat="48.60586" lon="2.08205">
        <ele>112</ele>
        <time>2025-03-12T16:23:32.676Z</time>
      </trkpt>
      <trkpt lat="48.60579" lon="2.08207">
        <ele>112.2</ele>
        <time>2025-03-12T16:23:37.668Z</time>
      </trkpt>
      <trkpt lat="48.60571" lon="2.08209">
        <ele>112.4</ele>
        <time>2025-03-12T16:23:42.661Z</time>
      </trkpt>
      <trkpt lat="48.60568" lon="2.0821">
        <ele>112.6</ele>
        <time>2025-03-12T16:23:45.151Z</time>
      </trkpt>
      <trkpt lat="48.60563" lon="2.08212">
        <ele>112.7</ele>
        <time>2025-03-12T16:23:50.189Z</time>
      </trkpt>
      <trkpt lat="48.60557" lon="2.08214">
        <ele>112.9</ele>
        <time>2025-03-12T16:23:55.227Z</time>
      </trkpt>
      <trkpt lat="48.60552" lon="2.08216">
        <ele>113.7</ele>
        <time>2025-03-12T16:24:00.265Z</time>
      </trkpt>
      <trkpt lat="48.60546" lon="2.08218">
        <ele>114.7</ele>
        <time>2025-03-12T16:24:05.305Z</time>
      </trkpt>
      <trkpt lat="48.60542" lon="2.0822">
        <ele>115.5</ele>
        <time>2025-03-12T16:24:08.243Z</time>
      </trkpt>
      <trkpt lat="48.60537" lon="2.08221">
        <ele>116.3</ele>
        <time>2025-03-12T16:24:11.181Z</time>
      </trkpt>
      <trkpt lat="48.60533" lon="2.08223">
        <ele>117.1</ele>
        <time>2025-03-12T16:24:14.119Z</time>
      </trkpt>
      <trkpt lat="48.60529" lon="2.08225">
        <ele>117.9</ele>
        <time>2025-03-12T16:24:17.057Z</time>
      </trkpt>
      <trkpt lat="48.60524" lon="2.08226">
        <ele>117.2</ele>
        <time>2025-03-12T16:24:19.996Z</time>
      </trkpt>
      <trkpt lat="48.6052" lon="2.08228">
        <ele>116.3</ele>
        <time>2025-03-12T16:24:22.935Z</time>
      </trkpt>
      <trkpt lat="48.60515" lon="2.08229">
        <ele>115.4</ele>
        <time>2025-03-12T16:24:25.874Z</time>
      </trkpt>
      <trkpt lat="48.60511" lon="2.08231">
        <ele>114.6</ele>
        <time>2025-03-12T16:24:28.814Z</time>
      </trkpt>
      <trkpt lat="48.60507" lon="2.08233">
        <ele>113.7</ele>
        <time>2025-03-12T16:24:31.488Z</time>
      </trkpt>
      <trkpt lat="48.60502" lon="2.08235">
        <ele>112.8</ele>
        <time>2025-03-12T16:24:34.163Z</time>
      </trkpt>
      <trkpt lat="48.60498" lon="2.08236">
        <ele>112.4</ele>
        <time>2025-03-12T16:24:36.838Z</time>
      </trkpt>
      <trkpt lat="48.60493" lon="2.08238">
        <ele>112.3</ele>
        <time>2025-03-12T16:24:39.514Z</time>
      </trkpt>
      <trkpt lat="48.60486" lon="2.08241">
        <ele>112.2</ele>
        <time>2025-03-12T16:24:44.326Z</time>
      </trkpt>
      <trkpt lat="48.60478" lon="2.08244">
        <ele>112</ele>
        <time>2025-03-12T16:24:49.139Z</time>
      </trkpt>
      <trkpt lat="48.60474" lon="2.08247">
        <ele>111.9</ele>
        <time>2025-03-12T16:24:52.159Z</time>
      </trkpt>
      <trkpt lat="48.6047" lon="2.08249">
        <ele>112</ele>
        <time>2025-03-12T16:24:55.179Z</time>
      </trkpt>
      <trkpt lat="48.60465" lon="2.08252">
        <ele>112.1</ele>
        <time>2025-03-12T16:24:58.199Z</time>
      </trkpt>
      <trkpt lat="48.60461" lon="2.08255">
        <ele>112.2</ele>
        <time>2025-03-12T16:25:01.219Z</time>
      </trkpt>
      <trkpt lat="48.60457" lon="2.08257">
        <ele>112.2</ele>
        <time>2025-03-12T16:25:04.239Z</time>
      </trkpt>
      <trkpt lat="48.60453" lon="2.0826">
        <ele>112.2</ele>
        <time>2025-03-12T16:25:07.259Z</time>
      </trkpt>
      <trkpt lat="48.60448" lon="2.08262">
        <ele>112.1</ele>
        <time>2025-03-12T16:25:10.279Z</time>
      </trkpt>
      <trkpt lat="48.60444" lon="2.08265">
        <ele>112</ele>
        <time>2025-03-12T16:25:13.301Z</time>
      </trkpt>
      <trkpt lat="48.60438" lon="2.08269">
        <ele>111.8</ele>
        <time>2025-03-12T16:25:17.105Z</time>
      </trkpt>
      <trkpt lat="48.60432" lon="2.08273">
        <ele>111.6</ele>
        <time>2025-03-12T16:25:20.909Z</time>
      </trkpt>
      <trkpt lat="48.60426" lon="2.08276">
        <ele>111.3</ele>
        <time>2025-03-12T16:25:24.713Z</time>
      </trkpt>
      <trkpt lat="48.6042" lon="2.0828">
        <ele>111</ele>
        <time>2025-03-12T16:25:28.518Z</time>
      </trkpt>
      <trkpt lat="48.60414" lon="2.08285">
        <ele>110.6</ele>
        <time>2025-03-12T16:25:32.633Z</time>
      </trkpt>
      <trkpt lat="48.60408" lon="2.08291">
        <ele>110.2</ele>
        <time>2025-03-12T16:25:36.748Z</time>
      </trkpt>
      <trkpt lat="48.60401" lon="2.08296">
        <ele>109.8</ele>
        <time>2025-03-12T16:25:40.864Z</time>
      </trkpt>
      <trkpt lat="48.60395" lon="2.08301">
        <ele>109.4</ele>
        <time>2025-03-12T16:25:44.981Z</time>
      </trkpt>
      <trkpt lat="48.60391" lon="2.08308">
        <ele>109.1</ele>
        <time>2025-03-12T16:25:48.696Z</time>
      </trkpt>
      <trkpt lat="48.60386" lon="2.08314">
        <ele>109</ele>
        <time>2025-03-12T16:25:52.413Z</time>
      </trkpt>
      <trkpt lat="48.60382" lon="2.0832">
        <ele>109</ele>
        <time>2025-03-12T16:25:56.070Z</time>
      </trkpt>
      <trkpt lat="48.60379" lon="2.08327">
        <ele>109</ele>
        <time>2025-03-12T16:25:59.727Z</time>
      </trkpt>
      <trkpt lat="48.60375" lon="2.08333">
        <ele>109</ele>
        <time>2025-03-12T16:26:03.384Z</time>
      </trkpt>
      <trkpt lat="48.60372" lon="2.0834">
        <ele>109.1</ele>
        <time>2025-03-12T16:26:07.041Z</time>
      </trkpt>
      <trkpt lat="48.60368" lon="2.08346">
        <ele>109.1</ele>
        <time>2025-03-12T16:26:10.699Z</time>
      </trkpt>
      <trkpt lat="48.60364" lon="2.08352">
        <ele>109.1</ele>
        <time>2025-03-12T16:26:14.357Z</time>
      </trkpt>
      <trkpt lat="48.60361" lon="2.08359">
        <ele>109</ele>
        <time>2025-03-12T16:26:18.015Z</time>
      </trkpt>
      <trkpt lat="48.60357" lon="2.08365">
        <ele>109</ele>
        <time>2025-03-12T16:26:21.673Z</time>
      </trkpt>
      <trkpt lat="48.60353" lon="2.08371">
        <ele>109</ele>
        <time>2025-03-12T16:26:25.331Z</time>
      </trkpt>
      <trkpt lat="48.6035" lon="2.08378">
        <ele>109</ele>
        <time>2025-03-12T16:26:28.989Z</time>
      </trkpt>
      <trkpt lat="48.60346" lon="2.08384">
        <ele>109</ele>
        <time>2025-03-12T16:26:32.647Z</time>
      </trkpt>
      <trkpt lat="48.60343" lon="2.08391">
        <ele>109</ele>
        <time>2025-03-12T16:26:36.305Z</time>
      </trkpt>
      <trkpt lat="48.60339" lon="2.08397">
        <ele>109.1</ele>
        <time>2025-03-12T16:26:39.963Z</time>
      </trkpt>
      <trkpt lat="48.60335" lon="2.08403">
        <ele>109</ele>
        <time>2025-03-12T16:26:43.621Z</time>
      </trkpt>
      <trkpt lat="48.60332" lon="2.0841">
        <ele>109</ele>
        <time>2025-03-12T16:26:47.279Z</time>
      </trkpt>
      <trkpt lat="48.60328" lon="2.08416">
        <ele>109</ele>
        <time>2025-03-12T16:26:50.938Z</time>
      </trkpt>
      <trkpt lat="48.60324" lon="2.08423">
        <ele>109</ele>
        <time>2025-03-12T16:26:54.892Z</time>
      </trkpt>
      <trkpt lat="48.60321" lon="2.08431">
        <ele>109</ele>
        <time>2025-03-12T16:26:58.846Z</time>
      </trkpt>
      <trkpt lat="48.60317" lon="2.08438">
        <ele>109</ele>
        <time>2025-03-12T16:27:02.800Z</time>
      </trkpt>
      <trkpt lat="48.60314" lon="2.08445">
        <ele>109</ele>
        <time>2025-03-12T16:27:06.754Z</time>
      </trkpt>
      <trkpt lat="48.6031" lon="2.08452">
        <ele>109</ele>
        <time>2025-03-12T16:27:10.708Z</time>
      </trkpt>
      <trkpt lat="48.60306" lon="2.0846">
        <ele>109</ele>
        <time>2025-03-12T16:27:14.662Z</time>
      </trkpt>
      <trkpt lat="48.60303" lon="2.08467">
        <ele>109</ele>
        <time>2025-03-12T16:27:18.616Z</time>
      </trkpt>
      <trkpt lat="48.60299" lon="2.08474">
        <ele>109</ele>
        <time>2025-03-12T16:27:22.572Z</time>
      </trkpt>
      <trkpt lat="48.60296" lon="2.08484">
        <ele>109</ele>
        <time>2025-03-12T16:27:27.225Z</time>
      </trkpt>
      <trkpt lat="48.60293" lon="2.08494">
        <ele>109</ele>
        <time>2025-03-12T16:27:31.878Z</time>
      </trkpt>
      <trkpt lat="48.6029" lon="2.08503">
        <ele>109.1</ele>
        <time>2025-03-12T16:27:36.531Z</time>
      </trkpt>
      <trkpt lat="48.60287" lon="2.08513">
        <ele>109.2</ele>
        <time>2025-03-12T16:27:41.184Z</time>
      </trkpt>
      <trkpt lat="48.60284" lon="2.08523">
        <ele>109.2</ele>
        <time>2025-03-12T16:27:45.837Z</time>
      </trkpt>
      <trkpt lat="48.60281" lon="2.08533">
        <ele>109.1</ele>
        <time>2025-03-12T16:27:50.490Z</time>
      </trkpt>
      <trkpt lat="48.60278" lon="2.08542">
        <ele>109</ele>
        <time>2025-03-12T16:27:55.143Z</time>
      </trkpt>
      <trkpt lat="48.60275" lon="2.08552">
        <ele>108.9</ele>
        <time>2025-03-12T16:27:59.798Z</time>
      </trkpt>
      <trkpt lat="48.60276" lon="2.08559">
        <ele>108.8</ele>
        <time>2025-03-12T16:28:02.721Z</time>
      </trkpt>
      <trkpt lat="48.60276" lon="2.08566">
        <ele>108.6</ele>
        <time>2025-03-12T16:28:05.644Z</time>
      </trkpt>
      <trkpt lat="48.60277" lon="2.08573">
        <ele>108.3</ele>
        <time>2025-03-12T16:28:08.567Z</time>
      </trkpt>
      <trkpt lat="48.60277" lon="2.08581">
        <ele>108.1</ele>
        <time>2025-03-12T16:28:11.491Z</time>
      </trkpt>
      <trkpt lat="48.60278" lon="2.08588">
        <ele>108</ele>
        <time>2025-03-12T16:28:14.415Z</time>
      </trkpt>
      <trkpt lat="48.60278" lon="2.08595">
        <ele>108</ele>
        <time>2025-03-12T16:28:17.339Z</time>
      </trkpt>
      <trkpt lat="48.60279" lon="2.08602">
        <ele>108.1</ele>
        <time>2025-03-12T16:28:20.263Z</time>
      </trkpt>
      <trkpt lat="48.60279" lon="2.08609">
        <ele>108.1</ele>
        <time>2025-03-12T16:28:23.187Z</time>
      </trkpt>
      <trkpt lat="48.60278" lon="2.08619">
        <ele>108</ele>
        <time>2025-03-12T16:28:27.391Z</time>
      </trkpt>
      <trkpt lat="48.60273" lon="2.08623">
        <ele>107.8</ele>
        <time>2025-03-12T16:28:30.879Z</time>
      </trkpt>
      <trkpt lat="48.60268" lon="2.08627">
        <ele>107.6</ele>
        <time>2025-03-12T16:28:34.367Z</time>
      </trkpt>
      <trkpt lat="48.60262" lon="2.08631">
        <ele>107.4</ele>
        <time>2025-03-12T16:28:37.855Z</time>
      </trkpt>
      <trkpt lat="48.60257" lon="2.08635">
        <ele>107.3</ele>
        <time>2025-03-12T16:28:41.343Z</time>
      </trkpt>
      <trkpt lat="48.60252" lon="2.08638">
        <ele>107.1</ele>
        <time>2025-03-12T16:28:44.832Z</time>
      </trkpt>
      <trkpt lat="48.60247" lon="2.08642">
        <ele>106.9</ele>
        <time>2025-03-12T16:28:48.321Z</time>
      </trkpt>
      <trkpt lat="48.60241" lon="2.08646">
        <ele>106.7</ele>
        <time>2025-03-12T16:28:51.810Z</time>
      </trkpt>
      <trkpt lat="48.60236" lon="2.0865">
        <ele>106.5</ele>
        <time>2025-03-12T16:28:55.300Z</time>
      </trkpt>
      <trkpt lat="48.6023" lon="2.08654">
        <ele>106.3</ele>
        <time>2025-03-12T16:28:59.203Z</time>
      </trkpt>
      <trkpt lat="48.60224" lon="2.08657">
        <ele>106.1</ele>
        <time>2025-03-12T16:29:03.106Z</time>
      </trkpt>
      <trkpt lat="48.60218" lon="2.08661">
        <ele>105.8</ele>
        <time>2025-03-12T16:29:07.009Z</time>
      </trkpt>
      <trkpt lat="48.60212" lon="2.08665">
        <ele>105.6</ele>
        <time>2025-03-12T16:29:10.912Z</time>
      </trkpt>
      <trkpt lat="48.60205" lon="2.08668">
        <ele>105.4</ele>
        <time>2025-03-12T16:29:14.815Z</time>
      </trkpt>
      <trkpt lat="48.60199" lon="2.08672">
        <ele>105.2</ele>
        <time>2025-03-12T16:29:18.718Z</time>
      </trkpt>
      <trkpt lat="48.60193" lon="2.08675">
        <ele>105</ele>
        <time>2025-03-12T16:29:22.622Z</time>
      </trkpt>
      <trkpt lat="48.60187" lon="2.08679">
        <ele>104.7</ele>
        <time>2025-03-12T16:29:26.527Z</time>
      </trkpt>
      <trkpt lat="48.60181" lon="2.08681">
        <ele>104.5</ele>
        <time>2025-03-12T16:29:30.330Z</time>
      </trkpt>
      <trkpt lat="48.60175" lon="2.08684">
        <ele>104.3</ele>
        <time>2025-03-12T16:29:34.133Z</time>
      </trkpt>
      <trkpt lat="48.60168" lon="2.08686">
        <ele>104.1</ele>
        <time>2025-03-12T16:29:37.936Z</time>
      </trkpt>
      <trkpt lat="48.60162" lon="2.08688">
        <ele>103.8</ele>
        <time>2025-03-12T16:29:41.741Z</time>
      </trkpt>
      <trkpt lat="48.60156" lon="2.0869">
        <ele>103.6</ele>
        <time>2025-03-12T16:29:45.449Z</time>
      </trkpt>
      <trkpt lat="48.6015" lon="2.08692">
        <ele>103.4</ele>
        <time>2025-03-12T16:29:49.157Z</time>
      </trkpt>
      <trkpt lat="48.60144" lon="2.08694">
        <ele>103.2</ele>
        <time>2025-03-12T16:29:52.866Z</time>
      </trkpt>
      <trkpt lat="48.60138" lon="2.08696">
        <ele>103.1</ele>
        <time>2025-03-12T16:29:56.575Z</time>
      </trkpt>
      <trkpt lat="48.60134" lon="2.08702">
        <ele>103.2</ele>
        <time>2025-03-12T16:30:00.342Z</time>
      </trkpt>
      <trkpt lat="48.6013" lon="2.08707">
        <ele>103.3</ele>
        <time>2025-03-12T16:30:04.111Z</time>
      </trkpt>
      <trkpt lat="48.60129" lon="2.08714">
        <ele>103.4</ele>
        <time>2025-03-12T16:30:07.183Z</time>
      </trkpt>
      <trkpt lat="48.60127" lon="2.08721">
        <ele>103.5</ele>
        <time>2025-03-12T16:30:10.255Z</time>
      </trkpt>
      <trkpt lat="48.60126" lon="2.08727">
        <ele>103.5</ele>
        <time>2025-03-12T16:30:13.328Z</time>
      </trkpt>
      <trkpt lat="48.60124" lon="2.08734">
        <ele>103.5</ele>
        <time>2025-03-12T16:30:16.401Z</time>
      </trkpt>
      <trkpt lat="48.60123" lon="2.08741">
        <ele>103.4</ele>
        <time>2025-03-12T16:30:19.474Z</time>
      </trkpt>
      <trkpt lat="48.60121" lon="2.08748">
        <ele>103.4</ele>
        <time>2025-03-12T16:30:22.547Z</time>
      </trkpt>
      <trkpt lat="48.6012" lon="2.08754">
        <ele>103.3</ele>
        <time>2025-03-12T16:30:25.620Z</time>
      </trkpt>
      <trkpt lat="48.60118" lon="2.08761">
        <ele>103.2</ele>
        <time>2025-03-12T16:30:28.694Z</time>
      </trkpt>
      <trkpt lat="48.60118" lon="2.08771">
        <ele>103.2</ele>
        <time>2025-03-12T16:30:32.820Z</time>
      </trkpt>
      <trkpt lat="48.60118" lon="2.08782">
        <ele>103.1</ele>
        <time>2025-03-12T16:30:36.947Z</time>
      </trkpt>
      <trkpt lat="48.60117" lon="2.08792">
        <ele>102.8</ele>
        <time>2025-03-12T16:30:41.074Z</time>
      </trkpt>
      <trkpt lat="48.60117" lon="2.08802">
        <ele>102.5</ele>
        <time>2025-03-12T16:30:45.202Z</time>
      </trkpt>
      <trkpt lat="48.60117" lon="2.08813">
        <ele>102.6</ele>
        <time>2025-03-12T16:30:50.089Z</time>
      </trkpt>
      <trkpt lat="48.60117" lon="2.08823">
        <ele>102.8</ele>
        <time>2025-03-12T16:30:54.976Z</time>
      </trkpt>
      <trkpt lat="48.60118" lon="2.08836">
        <ele>103</ele>
        <time>2025-03-12T16:31:00.556Z</time>
      </trkpt>
      <trkpt lat="48.60119" lon="2.08848">
        <ele>103</ele>
        <time>2025-03-12T16:31:06.136Z</time>
      </trkpt>
      <trkpt lat="48.6012" lon="2.08861">
        <ele>103</ele>
        <time>2025-03-12T16:31:11.717Z</time>
      </trkpt>
      <trkpt lat="48.60121" lon="2.08873">
        <ele>103</ele>
        <time>2025-03-12T16:31:17.298Z</time>
      </trkpt>
      <trkpt lat="48.60123" lon="2.08885">
        <ele>103</ele>
        <time>2025-03-12T16:31:22.787Z</time>
      </trkpt>
      <trkpt lat="48.60125" lon="2.08898">
        <ele>103</ele>
        <time>2025-03-12T16:31:28.277Z</time>
      </trkpt>
      <trkpt lat="48.60127" lon="2.0891">
        <ele>103</ele>
        <time>2025-03-12T16:31:33.767Z</time>
      </trkpt>
      <trkpt lat="48.60129" lon="2.08922">
        <ele>103</ele>
        <time>2025-03-12T16:31:39.257Z</time>
      </trkpt>
      <trkpt lat="48.6013" lon="2.08929">
        <ele>103</ele>
        <time>2025-03-12T16:31:42.518Z</time>
      </trkpt>
      <trkpt lat="48.60131" lon="2.08936">
        <ele>103</ele>
        <time>2025-03-12T16:31:45.779Z</time>
      </trkpt>
      <trkpt lat="48.60132" lon="2.08942">
        <ele>103</ele>
        <time>2025-03-12T16:31:49.040Z</time>
      </trkpt>
      <trkpt lat="48.60133" lon="2.08949">
        <ele>103.2</ele>
        <time>2025-03-12T16:31:52.301Z</time>
      </trkpt>
      <trkpt lat="48.60133" lon="2.08956">
        <ele>103.4</ele>
        <time>2025-03-12T16:31:55.563Z</time>
      </trkpt>
      <trkpt lat="48.60134" lon="2.08963">
        <ele>103.6</ele>
        <time>2025-03-12T16:31:58.825Z</time>
      </trkpt>
      <trkpt lat="48.60135" lon="2.08969">
        <ele>103.9</ele>
        <time>2025-03-12T16:32:02.087Z</time>
      </trkpt>
      <trkpt lat="48.60136" lon="2.08976">
        <ele>104</ele>
        <time>2025-03-12T16:32:05.349Z</time>
      </trkpt>
      <trkpt lat="48.60137" lon="2.0899">
        <ele>104</ele>
        <time>2025-03-12T16:32:11.259Z</time>
      </trkpt>
      <trkpt lat="48.60138" lon="2.09003">
        <ele>104</ele>
        <time>2025-03-12T16:32:17.169Z</time>
      </trkpt>
      <trkpt lat="48.60134" lon="2.09013">
        <ele>104</ele>
        <time>2025-03-12T16:32:22.254Z</time>
      </trkpt>
      <trkpt lat="48.60128" lon="2.09018">
        <ele>104</ele>
        <time>2025-03-12T16:32:26.956Z</time>
      </trkpt>
      <trkpt lat="48.60121" lon="2.09022">
        <ele>104</ele>
        <time>2025-03-12T16:32:31.660Z</time>
      </trkpt>
      <trkpt lat="48.60114" lon="2.09023">
        <ele>104</ele>
        <time>2025-03-12T16:32:36.599Z</time>
      </trkpt>
      <trkpt lat="48.60106" lon="2.09023">
        <ele>104</ele>
        <time>2025-03-12T16:32:41.538Z</time>
      </trkpt>
      <trkpt lat="48.60099" lon="2.09024">
        <ele>104</ele>
        <time>2025-03-12T16:32:46.477Z</time>
      </trkpt>
      <trkpt lat="48.60091" lon="2.09024">
        <ele>104</ele>
        <time>2025-03-12T16:32:51.416Z</time>
      </trkpt>
      <trkpt lat="48.60084" lon="2.09025">
        <ele>104</ele>
        <time>2025-03-12T16:32:56.355Z</time>
      </trkpt>
      <trkpt lat="48.60076" lon="2.09025">
        <ele>104</ele>
        <time>2025-03-12T16:33:01.294Z</time>
      </trkpt>
      <trkpt lat="48.60069" lon="2.09026">
        <ele>104</ele>
        <time>2025-03-12T16:33:06.233Z</time>
      </trkpt>
      <trkpt lat="48.60061" lon="2.09026">
        <ele>104</ele>
        <time>2025-03-12T16:33:11.173Z</time>
      </trkpt>
      <trkpt lat="48.60056" lon="2.09026">
        <ele>104</ele>
        <time>2025-03-12T16:33:14.628Z</time>
      </trkpt>
      <trkpt lat="48.60051" lon="2.09027">
        <ele>104</ele>
        <time>2025-03-12T16:33:18.083Z</time>
      </trkpt>
      <trkpt lat="48.60045" lon="2.09027">
        <ele>104</ele>
        <time>2025-03-12T16:33:21.539Z</time>
      </trkpt>
      <trkpt lat="48.6004" lon="2.09027">
        <ele>104</ele>
        <time>2025-03-12T16:33:24.995Z</time>
      </trkpt>
      <trkpt lat="48.60035" lon="2.09027">
        <ele>104</ele>
        <time>2025-03-12T16:33:28.451Z</time>
      </trkpt>
      <trkpt lat="48.6003" lon="2.09028">
        <ele>104</ele>
        <time>2025-03-12T16:33:31.907Z</time>
      </trkpt>
      <trkpt lat="48.60024" lon="2.09028">
        <ele>104</ele>
        <time>2025-03-12T16:33:35.363Z</time>
      </trkpt>
      <trkpt lat="48.60019" lon="2.09028">
        <ele>104</ele>
        <time>2025-03-12T16:33:38.819Z</time>
      </trkpt>
      <trkpt lat="48.60014" lon="2.0903">
        <ele>104</ele>
        <time>2025-03-12T16:33:42.307Z</time>
      </trkpt>
      <trkpt lat="48.60009" lon="2.09032">
        <ele>104</ele>
        <time>2025-03-12T16:33:45.795Z</time>
      </trkpt>
      <trkpt lat="48.60004" lon="2.09034">
        <ele>104</ele>
        <time>2025-03-12T16:33:49.283Z</time>
      </trkpt>
      <trkpt lat="48.59999" lon="2.09036">
        <ele>104</ele>
        <time>2025-03-12T16:33:52.771Z</time>
      </trkpt>
      <trkpt lat="48.59993" lon="2.09038">
        <ele>104</ele>
        <time>2025-03-12T16:33:56.259Z</time>
      </trkpt>
      <trkpt lat="48.59988" lon="2.0904">
        <ele>104</ele>
        <time>2025-03-12T16:33:59.747Z</time>
      </trkpt>
      <trkpt lat="48.59983" lon="2.09042">
        <ele>104</ele>
        <time>2025-03-12T16:34:03.235Z</time>
      </trkpt>
      <trkpt lat="48.59978" lon="2.09044">
        <ele>104</ele>
        <time>2025-03-12T16:34:06.723Z</time>
      </trkpt>
      <trkpt lat="48.59973" lon="2.09045">
        <ele>104</ele>
        <time>2025-03-12T16:34:10.211Z</time>
      </trkpt>
      <trkpt lat="48.59968" lon="2.09047">
        <ele>104</ele>
        <time>2025-03-12T16:34:13.699Z</time>
      </trkpt>
      <trkpt lat="48.59963" lon="2.09049">
        <ele>104</ele>
        <time>2025-03-12T16:34:17.187Z</time>
      </trkpt>
      <trkpt lat="48.59958" lon="2.09051">
        <ele>104</ele>
        <time>2025-03-12T16:34:20.675Z</time>
      </trkpt>
      <trkpt lat="48.59952" lon="2.09053">
        <ele>104</ele>
        <time>2025-03-12T16:34:24.163Z</time>
      </trkpt>
      <trkpt lat="48.59947" lon="2.09055">
        <ele>104</ele>
        <time>2025-03-12T16:34:27.651Z</time>
      </trkpt>
      <trkpt lat="48.59942" lon="2.09057">
        <ele>104.1</ele>
        <time>2025-03-12T16:34:31.140Z</time>
      </trkpt>
      <trkpt lat="48.59937" lon="2.09059">
        <ele>104.1</ele>
        <time>2025-03-12T16:34:34.630Z</time>
      </trkpt>
      <trkpt lat="48.59933" lon="2.09063">
        <ele>104.3</ele>
        <time>2025-03-12T16:34:37.871Z</time>
      </trkpt>
      <trkpt lat="48.59929" lon="2.09067">
        <ele>104.4</ele>
        <time>2025-03-12T16:34:41.112Z</time>
      </trkpt>
      <trkpt lat="48.59924" lon="2.09071">
        <ele>104.5</ele>
        <time>2025-03-12T16:34:44.353Z</time>
      </trkpt>
      <trkpt lat="48.5992" lon="2.09075">
        <ele>104.7</ele>
        <time>2025-03-12T16:34:47.595Z</time>
      </trkpt>
      <trkpt lat="48.59916" lon="2.09079">
        <ele>104.8</ele>
        <time>2025-03-12T16:34:50.837Z</time>
      </trkpt>
      <trkpt lat="48.59912" lon="2.09082">
        <ele>105</ele>
        <time>2025-03-12T16:34:54.079Z</time>
      </trkpt>
      <trkpt lat="48.59908" lon="2.09086">
        <ele>105</ele>
        <time>2025-03-12T16:34:57.321Z</time>
      </trkpt>
      <trkpt lat="48.59903" lon="2.0909">
        <ele>105</ele>
        <time>2025-03-12T16:35:00.563Z</time>
      </trkpt>
      <trkpt lat="48.59899" lon="2.09094">
        <ele>105</ele>
        <time>2025-03-12T16:35:03.805Z</time>
      </trkpt>
      <trkpt lat="48.59895" lon="2.09098">
        <ele>105</ele>
        <time>2025-03-12T16:35:07.047Z</time>
      </trkpt>
      <trkpt lat="48.59891" lon="2.09102">
        <ele>105</ele>
        <time>2025-03-12T16:35:10.289Z</time>
      </trkpt>
      <trkpt lat="48.59886" lon="2.09106">
        <ele>105</ele>
        <time>2025-03-12T16:35:13.531Z</time>
      </trkpt>
      <trkpt lat="48.59882" lon="2.0911">
        <ele>105</ele>
        <time>2025-03-12T16:35:16.773Z</time>
      </trkpt>
      <trkpt lat="48.59878" lon="2.09114">
        <ele>105</ele>
        <time>2025-03-12T16:35:20.015Z</time>
      </trkpt>
      <trkpt lat="48.59874" lon="2.09118">
        <ele>105</ele>
        <time>2025-03-12T16:35:23.257Z</time>
      </trkpt>
      <trkpt lat="48.5987" lon="2.09122">
        <ele>105</ele>
        <time>2025-03-12T16:35:26.499Z</time>
      </trkpt>
      <trkpt lat="48.59865" lon="2.09125">
        <ele>105</ele>
        <time>2025-03-12T16:35:29.741Z</time>
      </trkpt>
      <trkpt lat="48.59861" lon="2.09129">
        <ele>105</ele>
        <time>2025-03-12T16:35:32.983Z</time>
      </trkpt>
      <trkpt lat="48.59857" lon="2.09133">
        <ele>105</ele>
        <time>2025-03-12T16:35:36.225Z</time>
      </trkpt>
      <trkpt lat="48.59853" lon="2.09137">
        <ele>105</ele>
        <time>2025-03-12T16:35:39.467Z</time>
      </trkpt>
      <trkpt lat="48.59848" lon="2.09141">
        <ele>105</ele>
        <time>2025-03-12T16:35:42.709Z</time>
      </trkpt>
      <trkpt lat="48.59844" lon="2.09145">
        <ele>105</ele>
        <time>2025-03-12T16:35:45.951Z</time>
      </trkpt>
      <trkpt lat="48.5984" lon="2.09149">
        <ele>105</ele>
        <time>2025-03-12T16:35:49.193Z</time>
      </trkpt>
      <trkpt lat="48.59836" lon="2.09153">
        <ele>105</ele>
        <time>2025-03-12T16:35:52.435Z</time>
      </trkpt>
      <trkpt lat="48.59832" lon="2.09157">
        <ele>105</ele>
        <time>2025-03-12T16:35:55.677Z</time>
      </trkpt>
      <trkpt lat="48.59827" lon="2.09161">
        <ele>104.8</ele>
        <time>2025-03-12T16:35:58.919Z</time>
      </trkpt>
      <trkpt lat="48.59823" lon="2.09165">
        <ele>104.7</ele>
        <time>2025-03-12T16:36:02.161Z</time>
      </trkpt>
      <trkpt lat="48.59819" lon="2.09168">
        <ele>104.5</ele>
        <time>2025-03-12T16:36:05.403Z</time>
      </trkpt>
      <trkpt lat="48.59815" lon="2.09172">
        <ele>104.3</ele>
        <time>2025-03-12T16:36:08.645Z</time>
      </trkpt>
      <trkpt lat="48.5981" lon="2.09176">
        <ele>104.1</ele>
        <time>2025-03-12T16:36:11.887Z</time>
      </trkpt>
      <trkpt lat="48.59806" lon="2.0918">
        <ele>104</ele>
        <time>2025-03-12T16:36:15.129Z</time>
      </trkpt>
      <trkpt lat="48.59802" lon="2.09184">
        <ele>103.9</ele>
        <time>2025-03-12T16:36:18.372Z</time>
      </trkpt>
      <trkpt lat="48.59797" lon="2.09188">
        <ele>103.8</ele>
        <time>2025-03-12T16:36:22.000Z</time>
      </trkpt>
      <trkpt lat="48.59792" lon="2.09192">
        <ele>103.6</ele>
        <time>2025-03-12T16:36:25.628Z</time>
      </trkpt>
      <trkpt lat="48.59787" lon="2.09196">
        <ele>103.3</ele>
        <time>2025-03-12T16:36:29.256Z</time>
      </trkpt>
      <trkpt lat="48.59782" lon="2.092">
        <ele>103.2</ele>
        <time>2025-03-12T16:36:32.884Z</time>
      </trkpt>
      <trkpt lat="48.59777" lon="2.09204">
        <ele>103</ele>
        <time>2025-03-12T16:36:36.512Z</time>
      </trkpt>
      <trkpt lat="48.59772" lon="2.09208">
        <ele>103</ele>
        <time>2025-03-12T16:36:40.140Z</time>
      </trkpt>
      <trkpt lat="48.59767" lon="2.09212">
        <ele>103</ele>
        <time>2025-03-12T16:36:43.768Z</time>
      </trkpt>
      <trkpt lat="48.59762" lon="2.09216">
        <ele>103</ele>
        <time>2025-03-12T16:36:47.396Z</time>
      </trkpt>
      <trkpt lat="48.59757" lon="2.09219">
        <ele>103</ele>
        <time>2025-03-12T16:36:51.024Z</time>
      </trkpt>
      <trkpt lat="48.59752" lon="2.09223">
        <ele>103</ele>
        <time>2025-03-12T16:36:54.652Z</time>
      </trkpt>
      <trkpt lat="48.59747" lon="2.09227">
        <ele>103</ele>
        <time>2025-03-12T16:36:58.280Z</time>
      </trkpt>
      <trkpt lat="48.59742" lon="2.09231">
        <ele>103</ele>
        <time>2025-03-12T16:37:01.908Z</time>
      </trkpt>
      <trkpt lat="48.59737" lon="2.09235">
        <ele>103</ele>
        <time>2025-03-12T16:37:05.536Z</time>
      </trkpt>
      <trkpt lat="48.59732" lon="2.09239">
        <ele>103</ele>
        <time>2025-03-12T16:37:09.164Z</time>
      </trkpt>
      <trkpt lat="48.59728" lon="2.09243">
        <ele>103</ele>
        <time>2025-03-12T16:37:12.792Z</time>
      </trkpt>
      <trkpt lat="48.59723" lon="2.09247">
        <ele>103</ele>
        <time>2025-03-12T16:37:16.420Z</time>
      </trkpt>
      <trkpt lat="48.59718" lon="2.09251">
        <ele>102.8</ele>
        <time>2025-03-12T16:37:20.048Z</time>
      </trkpt>
      <trkpt lat="48.59713" lon="2.09255">
        <ele>102.7</ele>
        <time>2025-03-12T16:37:23.676Z</time>
      </trkpt>
      <trkpt lat="48.59708" lon="2.09259">
        <ele>102.5</ele>
        <time>2025-03-12T16:37:27.304Z</time>
      </trkpt>
      <trkpt lat="48.59703" lon="2.09263">
        <ele>102.3</ele>
        <time>2025-03-12T16:37:30.932Z</time>
      </trkpt>
      <trkpt lat="48.59698" lon="2.09267">
        <ele>102.1</ele>
        <time>2025-03-12T16:37:34.560Z</time>
      </trkpt>
      <trkpt lat="48.59693" lon="2.09271">
        <ele>102</ele>
        <time>2025-03-12T16:37:38.188Z</time>
      </trkpt>
      <trkpt lat="48.59688" lon="2.09275">
        <ele>102</ele>
        <time>2025-03-12T16:37:41.816Z</time>
      </trkpt>
      <trkpt lat="48.59683" lon="2.09279">
        <ele>102</ele>
        <time>2025-03-12T16:37:45.444Z</time>
      </trkpt>
      <trkpt lat="48.59678" lon="2.09282">
        <ele>102.1</ele>
        <time>2025-03-12T16:37:49.072Z</time>
      </trkpt>
      <trkpt lat="48.59673" lon="2.09286">
        <ele>102.1</ele>
        <time>2025-03-12T16:37:52.700Z</time>
      </trkpt>
      <trkpt lat="48.59668" lon="2.0929">
        <ele>102</ele>
        <time>2025-03-12T16:37:56.328Z</time>
      </trkpt>
      <trkpt lat="48.59663" lon="2.09294">
        <ele>102.1</ele>
        <time>2025-03-12T16:37:59.957Z</time>
      </trkpt>
      <trkpt lat="48.59658" lon="2.09298">
        <ele>102.2</ele>
        <time>2025-03-12T16:38:03.586Z</time>
      </trkpt>
      <trkpt lat="48.59653" lon="2.09302">
        <ele>102.4</ele>
        <time>2025-03-12T16:38:07.215Z</time>
      </trkpt>
      <trkpt lat="48.59648" lon="2.09306">
        <ele>102.7</ele>
        <time>2025-03-12T16:38:10.844Z</time>
      </trkpt>
      <trkpt lat="48.59643" lon="2.0931">
        <ele>102.9</ele>
        <time>2025-03-12T16:38:14.474Z</time>
      </trkpt>
      <trkpt lat="48.59637" lon="2.09309">
        <ele>103</ele>
        <time>2025-03-12T16:38:18.596Z</time>
      </trkpt>
      <trkpt lat="48.59631" lon="2.09308">
        <ele>103</ele>
        <time>2025-03-12T16:38:22.718Z</time>
      </trkpt>
      <trkpt lat="48.59625" lon="2.09307">
        <ele>103</ele>
        <time>2025-03-12T16:38:26.840Z</time>
      </trkpt>
      <trkpt lat="48.59619" lon="2.09307">
        <ele>103</ele>
        <time>2025-03-12T16:38:30.962Z</time>
      </trkpt>
      <trkpt lat="48.59613" lon="2.09306">
        <ele>103</ele>
        <time>2025-03-12T16:38:35.084Z</time>
      </trkpt>
      <trkpt lat="48.59607" lon="2.09305">
        <ele>103</ele>
        <time>2025-03-12T16:38:39.206Z</time>
      </trkpt>
      <trkpt lat="48.59601" lon="2.09304">
        <ele>103</ele>
        <time>2025-03-12T16:38:43.328Z</time>
      </trkpt>
      <trkpt lat="48.59595" lon="2.09303">
        <ele>103</ele>
        <time>2025-03-12T16:38:47.450Z</time>
      </trkpt>
      <trkpt lat="48.59589" lon="2.09302">
        <ele>103</ele>
        <time>2025-03-12T16:38:51.572Z</time>
      </trkpt>
      <trkpt lat="48.59583" lon="2.09301">
        <ele>103</ele>
        <time>2025-03-12T16:38:55.694Z</time>
      </trkpt>
      <trkpt lat="48.59577" lon="2.093">
        <ele>103</ele>
        <time>2025-03-12T16:38:59.816Z</time>
      </trkpt>
      <trkpt lat="48.59571" lon="2.093">
        <ele>103</ele>
        <time>2025-03-12T16:39:03.938Z</time>
      </trkpt>
      <trkpt lat="48.59565" lon="2.09299">
        <ele>103</ele>
        <time>2025-03-12T16:39:08.060Z</time>
      </trkpt>
      <trkpt lat="48.59559" lon="2.09298">
        <ele>103</ele>
        <time>2025-03-12T16:39:12.182Z</time>
      </trkpt>
      <trkpt lat="48.59553" lon="2.09297">
        <ele>103.1</ele>
        <time>2025-03-12T16:39:16.304Z</time>
      </trkpt>
      <trkpt lat="48.59547" lon="2.09296">
        <ele>103.2</ele>
        <time>2025-03-12T16:39:20.426Z</time>
      </trkpt>
      <trkpt lat="48.59541" lon="2.09295">
        <ele>103.3</ele>
        <time>2025-03-12T16:39:24.548Z</time>
      </trkpt>
      <trkpt lat="48.59534" lon="2.09294">
        <ele>103.5</ele>
        <time>2025-03-12T16:39:28.670Z</time>
      </trkpt>
      <trkpt lat="48.59528" lon="2.09293">
        <ele>103.5</ele>
        <time>2025-03-12T16:39:32.792Z</time>
      </trkpt>
      <trkpt lat="48.59522" lon="2.09293">
        <ele>103.6</ele>
        <time>2025-03-12T16:39:36.914Z</time>
      </trkpt>
      <trkpt lat="48.59516" lon="2.09292">
        <ele>103.7</ele>
        <time>2025-03-12T16:39:41.036Z</time>
      </trkpt>
      <trkpt lat="48.5951" lon="2.09291">
        <ele>103.8</ele>
        <time>2025-03-12T16:39:45.158Z</time>
      </trkpt>
      <trkpt lat="48.59504" lon="2.0929">
        <ele>103.9</ele>
        <time>2025-03-12T16:39:49.280Z</time>
      </trkpt>
      <trkpt lat="48.59498" lon="2.09289">
        <ele>104.1</ele>
        <time>2025-03-12T16:39:53.402Z</time>
      </trkpt>
      <trkpt lat="48.59492" lon="2.09288">
        <ele>104.3</ele>
        <time>2025-03-12T16:39:57.525Z</time>
      </trkpt>
      <trkpt lat="48.59486" lon="2.09287">
        <ele>104.5</ele>
        <time>2025-03-12T16:40:01.648Z</time>
      </trkpt>
      <trkpt lat="48.5948" lon="2.09286">
        <ele>104.7</ele>
        <time>2025-03-12T16:40:05.771Z</time>
      </trkpt>
      <trkpt lat="48.59474" lon="2.09286">
        <ele>104.9</ele>
        <time>2025-03-12T16:40:09.894Z</time>
      </trkpt>
      <trkpt lat="48.59468" lon="2.09285">
        <ele>105</ele>
        <time>2025-03-12T16:40:14.017Z</time>
      </trkpt>
      <trkpt lat="48.59462" lon="2.09284">
        <ele>105</ele>
        <time>2025-03-12T16:40:18.140Z</time>
      </trkpt>
      <trkpt lat="48.59456" lon="2.09283">
        <ele>105</ele>
        <time>2025-03-12T16:40:22.263Z</time>
      </trkpt>
      <trkpt lat="48.5945" lon="2.09282">
        <ele>105</ele>
        <time>2025-03-12T16:40:26.387Z</time>
      </trkpt>
      <trkpt lat="48.59445" lon="2.09282">
        <ele>105</ele>
        <time>2025-03-12T16:40:30.002Z</time>
      </trkpt>
      <trkpt lat="48.5944" lon="2.09282">
        <ele>105.2</ele>
        <time>2025-03-12T16:40:33.618Z</time>
      </trkpt>
      <trkpt lat="48.59435" lon="2.09281">
        <ele>105.3</ele>
        <time>2025-03-12T16:40:37.234Z</time>
      </trkpt>
      <trkpt lat="48.5943" lon="2.09281">
        <ele>105.5</ele>
        <time>2025-03-12T16:40:40.850Z</time>
      </trkpt>
      <trkpt lat="48.59425" lon="2.09281">
        <ele>105.7</ele>
        <time>2025-03-12T16:40:44.466Z</time>
      </trkpt>
      <trkpt lat="48.5942" lon="2.09281">
        <ele>105.9</ele>
        <time>2025-03-12T16:40:48.082Z</time>
      </trkpt>
      <trkpt lat="48.59415" lon="2.0928">
        <ele>106.1</ele>
        <time>2025-03-12T16:40:51.698Z</time>
      </trkpt>
      <trkpt lat="48.5941" lon="2.0928">
        <ele>106.2</ele>
        <time>2025-03-12T16:40:55.314Z</time>
      </trkpt>
      <trkpt lat="48.59402" lon="2.09278">
        <ele>106.5</ele>
        <time>2025-03-12T16:41:00.805Z</time>
      </trkpt>
      <trkpt lat="48.59395" lon="2.09276">
        <ele>106.7</ele>
        <time>2025-03-12T16:41:06.296Z</time>
      </trkpt>
      <trkpt lat="48.59387" lon="2.09274">
        <ele>106.9</ele>
        <time>2025-03-12T16:41:11.788Z</time>
      </trkpt>
      <trkpt lat="48.5938" lon="2.09272">
        <ele>107.1</ele>
        <time>2025-03-12T16:41:17.280Z</time>
      </trkpt>
      <trkpt lat="48.59372" lon="2.0927">
        <ele>107.3</ele>
        <time>2025-03-12T16:41:22.772Z</time>
      </trkpt>
      <trkpt lat="48.59364" lon="2.09268">
        <ele>107.5</ele>
        <time>2025-03-12T16:41:28.264Z</time>
      </trkpt>
      <trkpt lat="48.59357" lon="2.09266">
        <ele>107.6</ele>
        <time>2025-03-12T16:41:33.756Z</time>
      </trkpt>
      <trkpt lat="48.59349" lon="2.09264">
        <ele>107.7</ele>
        <time>2025-03-12T16:41:39.249Z</time>
      </trkpt>
      <trkpt lat="48.59342" lon="2.09263">
        <ele>107.8</ele>
        <time>2025-03-12T16:41:43.852Z</time>
      </trkpt>
      <trkpt lat="48.59336" lon="2.09263">
        <ele>108</ele>
        <time>2025-03-12T16:41:48.455Z</time>
      </trkpt>
      <trkpt lat="48.59329" lon="2.09262">
        <ele>108.1</ele>
        <time>2025-03-12T16:41:53.058Z</time>
      </trkpt>
      <trkpt lat="48.59323" lon="2.09262">
        <ele>108.2</ele>
        <time>2025-03-12T16:41:57.662Z</time>
      </trkpt>
      <trkpt lat="48.59316" lon="2.09261">
        <ele>108.2</ele>
        <time>2025-03-12T16:42:02.266Z</time>
      </trkpt>
      <trkpt lat="48.59309" lon="2.0926">
        <ele>108.3</ele>
        <time>2025-03-12T16:42:06.870Z</time>
      </trkpt>
      <trkpt lat="48.59303" lon="2.0926">
        <ele>108.4</ele>
        <time>2025-03-12T16:42:11.474Z</time>
      </trkpt>
      <trkpt lat="48.59296" lon="2.09259">
        <ele>108.6</ele>
        <time>2025-03-12T16:42:16.078Z</time>
      </trkpt>
      <trkpt lat="48.59289" lon="2.09259">
        <ele>108.7</ele>
        <time>2025-03-12T16:42:20.735Z</time>
      </trkpt>
      <trkpt lat="48.59282" lon="2.0926">
        <ele>108.9</ele>
        <time>2025-03-12T16:42:25.392Z</time>
      </trkpt>
      <trkpt lat="48.59275" lon="2.0926">
        <ele>109</ele>
        <time>2025-03-12T16:42:30.049Z</time>
      </trkpt>
      <trkpt lat="48.59268" lon="2.0926">
        <ele>109</ele>
        <time>2025-03-12T16:42:34.706Z</time>
      </trkpt>
      <trkpt lat="48.59261" lon="2.0926">
        <ele>109</ele>
        <time>2025-03-12T16:42:39.363Z</time>
      </trkpt>
      <trkpt lat="48.59254" lon="2.09261">
        <ele>109</ele>
        <time>2025-03-12T16:42:44.020Z</time>
      </trkpt>
      <trkpt lat="48.59247" lon="2.09261">
        <ele>109</ele>
        <time>2025-03-12T16:42:48.678Z</time>
      </trkpt>
      <trkpt lat="48.5924" lon="2.09261">
        <ele>109</ele>
        <time>2025-03-12T16:42:53.336Z</time>
      </trkpt>
      <trkpt lat="48.59233" lon="2.09261">
        <ele>109</ele>
        <time>2025-03-12T16:42:57.994Z</time>
      </trkpt>
      <trkpt lat="48.59226" lon="2.09262">
        <ele>109</ele>
        <time>2025-03-12T16:43:02.652Z</time>
      </trkpt>
      <trkpt lat="48.59219" lon="2.09262">
        <ele>109</ele>
        <time>2025-03-12T16:43:07.310Z</time>
      </trkpt>
      <trkpt lat="48.59212" lon="2.09262">
        <ele>109</ele>
        <time>2025-03-12T16:43:11.968Z</time>
      </trkpt>
      <trkpt lat="48.59205" lon="2.09262">
        <ele>109</ele>
        <time>2025-03-12T16:43:16.626Z</time>
      </trkpt>
      <trkpt lat="48.59198" lon="2.09263">
        <ele>109</ele>
        <time>2025-03-12T16:43:21.284Z</time>
      </trkpt>
      <trkpt lat="48.59191" lon="2.09263">
        <ele>109</ele>
        <time>2025-03-12T16:43:25.942Z</time>
      </trkpt>
      <trkpt lat="48.59184" lon="2.09263">
        <ele>109</ele>
        <time>2025-03-12T16:43:30.600Z</time>
      </trkpt>
      <trkpt lat="48.59179" lon="2.09264">
        <ele>109</ele>
        <time>2025-03-12T16:43:34.023Z</time>
      </trkpt>
      <trkpt lat="48.59173" lon="2.09264">
        <ele>109</ele>
        <time>2025-03-12T16:43:37.446Z</time>
      </trkpt>
      <trkpt lat="48.59168" lon="2.09265">
        <ele>109</ele>
        <time>2025-03-12T16:43:40.869Z</time>
      </trkpt>
      <trkpt lat="48.59163" lon="2.09266">
        <ele>109</ele>
        <time>2025-03-12T16:43:44.292Z</time>
      </trkpt>
      <trkpt lat="48.59157" lon="2.09266">
        <ele>109</ele>
        <time>2025-03-12T16:43:47.715Z</time>
      </trkpt>
      <trkpt lat="48.59152" lon="2.09267">
        <ele>109</ele>
        <time>2025-03-12T16:43:51.138Z</time>
      </trkpt>
      <trkpt lat="48.59146" lon="2.09267">
        <ele>109</ele>
        <time>2025-03-12T16:43:54.561Z</time>
      </trkpt>
      <trkpt lat="48.59141" lon="2.09268">
        <ele>109</ele>
        <time>2025-03-12T16:43:57.984Z</time>
      </trkpt>
      <trkpt lat="48.59136" lon="2.09269">
        <ele>108.9</ele>
        <time>2025-03-12T16:44:01.407Z</time>
      </trkpt>
      <trkpt lat="48.5913" lon="2.09269">
        <ele>108.7</ele>
        <time>2025-03-12T16:44:04.830Z</time>
      </trkpt>
      <trkpt lat="48.59125" lon="2.0927">
        <ele>108.5</ele>
        <time>2025-03-12T16:44:08.253Z</time>
      </trkpt>
      <trkpt lat="48.5912" lon="2.09271">
        <ele>108.3</ele>
        <time>2025-03-12T16:44:11.676Z</time>
      </trkpt>
      <trkpt lat="48.59114" lon="2.09271">
        <ele>108.1</ele>
        <time>2025-03-12T16:44:15.099Z</time>
      </trkpt>
      <trkpt lat="48.59109" lon="2.09272">
        <ele>108</ele>
        <time>2025-03-12T16:44:18.523Z</time>
      </trkpt>
      <trkpt lat="48.59103" lon="2.09272">
        <ele>108</ele>
        <time>2025-03-12T16:44:21.947Z</time>
      </trkpt>
      <trkpt lat="48.59098" lon="2.09273">
        <ele>108</ele>
        <time>2025-03-12T16:44:25.371Z</time>
      </trkpt>
      <trkpt lat="48.59092" lon="2.09273">
        <ele>108</ele>
        <time>2025-03-12T16:44:29.647Z</time>
      </trkpt>
      <trkpt lat="48.59085" lon="2.09273">
        <ele>108</ele>
        <time>2025-03-12T16:44:33.923Z</time>
      </trkpt>
      <trkpt lat="48.59079" lon="2.09273">
        <ele>108</ele>
        <time>2025-03-12T16:44:38.200Z</time>
      </trkpt>
      <trkpt lat="48.59072" lon="2.09274">
        <ele>108</ele>
        <time>2025-03-12T16:44:42.477Z</time>
      </trkpt>
      <trkpt lat="48.59066" lon="2.09274">
        <ele>108</ele>
        <time>2025-03-12T16:44:46.754Z</time>
      </trkpt>
      <trkpt lat="48.59059" lon="2.09274">
        <ele>108</ele>
        <time>2025-03-12T16:44:51.031Z</time>
      </trkpt>
      <trkpt lat="48.59053" lon="2.09274">
        <ele>108</ele>
        <time>2025-03-12T16:44:55.308Z</time>
      </trkpt>
      <trkpt lat="48.59046" lon="2.09274">
        <ele>108</ele>
        <time>2025-03-12T16:44:59.585Z</time>
      </trkpt>
      <trkpt lat="48.59041" lon="2.09275">
        <ele>108</ele>
        <time>2025-03-12T16:45:02.692Z</time>
      </trkpt>
      <trkpt lat="48.59037" lon="2.09276">
        <ele>108</ele>
        <time>2025-03-12T16:45:05.799Z</time>
      </trkpt>
      <trkpt lat="48.59032" lon="2.09277">
        <ele>108</ele>
        <time>2025-03-12T16:45:08.906Z</time>
      </trkpt>
      <trkpt lat="48.59027" lon="2.09278">
        <ele>108</ele>
        <time>2025-03-12T16:45:12.013Z</time>
      </trkpt>
      <trkpt lat="48.59023" lon="2.09278">
        <ele>108</ele>
        <time>2025-03-12T16:45:15.120Z</time>
      </trkpt>
      <trkpt lat="48.59018" lon="2.09279">
        <ele>107.9</ele>
        <time>2025-03-12T16:45:18.227Z</time>
      </trkpt>
      <trkpt lat="48.59013" lon="2.0928">
        <ele>107.9</ele>
        <time>2025-03-12T16:45:21.334Z</time>
      </trkpt>
      <trkpt lat="48.59009" lon="2.09281">
        <ele>107.9</ele>
        <time>2025-03-12T16:45:24.441Z</time>
      </trkpt>
      <trkpt lat="48.59004" lon="2.09282">
        <ele>107.9</ele>
        <time>2025-03-12T16:45:27.548Z</time>
      </trkpt>
      <trkpt lat="48.58999" lon="2.09283">
        <ele>107.8</ele>
        <time>2025-03-12T16:45:30.655Z</time>
      </trkpt>
      <trkpt lat="48.58994" lon="2.09284">
        <ele>107.8</ele>
        <time>2025-03-12T16:45:33.763Z</time>
      </trkpt>
      <trkpt lat="48.5899" lon="2.09285">
        <ele>107.8</ele>
        <time>2025-03-12T16:45:36.871Z</time>
      </trkpt>
      <trkpt lat="48.58985" lon="2.09285">
        <ele>107.9</ele>
        <time>2025-03-12T16:45:39.979Z</time>
      </trkpt>
      <trkpt lat="48.5898" lon="2.09286">
        <ele>107.9</ele>
        <time>2025-03-12T16:45:43.087Z</time>
      </trkpt>
      <trkpt lat="48.58976" lon="2.09287">
        <ele>108</ele>
        <time>2025-03-12T16:45:46.195Z</time>
      </trkpt>
      <trkpt lat="48.58971" lon="2.09288">
        <ele>108</ele>
        <time>2025-03-12T16:45:49.303Z</time>
      </trkpt>
      <trkpt lat="48.58963" lon="2.09292">
        <ele>108</ele>
        <time>2025-03-12T16:45:54.713Z</time>
      </trkpt>
      <trkpt lat="48.58955" lon="2.09296">
        <ele>108</ele>
        <time>2025-03-12T16:46:00.123Z</time>
      </trkpt>
      <trkpt lat="48.58947" lon="2.09299">
        <ele>108</ele>
        <time>2025-03-12T16:46:05.533Z</time>
      </trkpt>
      <trkpt lat="48.58939" lon="2.09303">
        <ele>108</ele>
        <time>2025-03-12T16:46:10.943Z</time>
      </trkpt>
      <trkpt lat="48.58931" lon="2.09307">
        <ele>108</ele>
        <time>2025-03-12T16:46:16.353Z</time>
      </trkpt>
      <trkpt lat="48.58923" lon="2.09311">
        <ele>108</ele>
        <time>2025-03-12T16:46:21.763Z</time>
      </trkpt>
      <trkpt lat="48.58915" lon="2.09314">
        <ele>108</ele>
        <time>2025-03-12T16:46:27.173Z</time>
      </trkpt>
      <trkpt lat="48.58907" lon="2.09318">
        <ele>108</ele>
        <time>2025-03-12T16:46:32.583Z</time>
      </trkpt>
      <trkpt lat="48.58899" lon="2.09322">
        <ele>108</ele>
        <time>2025-03-12T16:46:37.993Z</time>
      </trkpt>
      <trkpt lat="48.58891" lon="2.09326">
        <ele>108</ele>
        <time>2025-03-12T16:46:43.403Z</time>
      </trkpt>
      <trkpt lat="48.58883" lon="2.09329">
        <ele>108</ele>
        <time>2025-03-12T16:46:48.814Z</time>
      </trkpt>
      <trkpt lat="48.58875" lon="2.09333">
        <ele>108</ele>
        <time>2025-03-12T16:46:54.225Z</time>
      </trkpt>
      <trkpt lat="48.58867" lon="2.09337">
        <ele>107.9</ele>
        <time>2025-03-12T16:46:59.636Z</time>
      </trkpt>
      <trkpt lat="48.58859" lon="2.09341">
        <ele>107.7</ele>
        <time>2025-03-12T16:47:05.047Z</time>
      </trkpt>
      <trkpt lat="48.58851" lon="2.09344">
        <ele>107.4</ele>
        <time>2025-03-12T16:47:10.458Z</time>
      </trkpt>
      <trkpt lat="48.58843" lon="2.09348">
        <ele>107.2</ele>
        <time>2025-03-12T16:47:15.870Z</time>
      </trkpt>
      <trkpt lat="48.58839" lon="2.09351">
        <ele>107.1</ele>
        <time>2025-03-12T16:47:18.743Z</time>
      </trkpt>
      <trkpt lat="48.58835" lon="2.09353">
        <ele>107</ele>
        <time>2025-03-12T16:47:21.616Z</time>
      </trkpt>
      <trkpt lat="48.5883" lon="2.09356">
        <ele>107</ele>
        <time>2025-03-12T16:47:24.489Z</time>
      </trkpt>
      <trkpt lat="48.58826" lon="2.09359">
        <ele>107</ele>
        <time>2025-03-12T16:47:27.362Z</time>
      </trkpt>
      <trkpt lat="48.58822" lon="2.09361">
        <ele>107</ele>
        <time>2025-03-12T16:47:30.235Z</time>
      </trkpt>
      <trkpt lat="48.58818" lon="2.09364">
        <ele>107</ele>
        <time>2025-03-12T16:47:33.108Z</time>
      </trkpt>
      <trkpt lat="48.58813" lon="2.09367">
        <ele>107</ele>
        <time>2025-03-12T16:47:35.981Z</time>
      </trkpt>
      <trkpt lat="48.58809" lon="2.09369">
        <ele>107</ele>
        <time>2025-03-12T16:47:38.854Z</time>
      </trkpt>
      <trkpt lat="48.58805" lon="2.09372">
        <ele>107</ele>
        <time>2025-03-12T16:47:41.727Z</time>
      </trkpt>
      <trkpt lat="48.58801" lon="2.09375">
        <ele>106.9</ele>
        <time>2025-03-12T16:47:44.600Z</time>
      </trkpt>
      <trkpt lat="48.58796" lon="2.09377">
        <ele>106.8</ele>
        <time>2025-03-12T16:47:47.473Z</time>
      </trkpt>
      <trkpt lat="48.58792" lon="2.0938">
        <ele>106.7</ele>
        <time>2025-03-12T16:47:50.346Z</time>
      </trkpt>
      <trkpt lat="48.58788" lon="2.09383">
        <ele>106.5</ele>
        <time>2025-03-12T16:47:53.219Z</time>
      </trkpt>
      <trkpt lat="48.58784" lon="2.09385">
        <ele>106.3</ele>
        <time>2025-03-12T16:47:56.092Z</time>
      </trkpt>
      <trkpt lat="48.58779" lon="2.09388">
        <ele>106.1</ele>
        <time>2025-03-12T16:47:58.965Z</time>
      </trkpt>
      <trkpt lat="48.58775" lon="2.09391">
        <ele>106</ele>
        <time>2025-03-12T16:48:01.838Z</time>
      </trkpt>
      <trkpt lat="48.58771" lon="2.09393">
        <ele>106</ele>
        <time>2025-03-12T16:48:04.711Z</time>
      </trkpt>
      <trkpt lat="48.58767" lon="2.09396">
        <ele>106</ele>
        <time>2025-03-12T16:48:07.584Z</time>
      </trkpt>
      <trkpt lat="48.58762" lon="2.09399">
        <ele>106</ele>
        <time>2025-03-12T16:48:10.457Z</time>
      </trkpt>
      <trkpt lat="48.58758" lon="2.09401">
        <ele>106</ele>
        <time>2025-03-12T16:48:13.330Z</time>
      </trkpt>
      <trkpt lat="48.58754" lon="2.09404">
        <ele>106</ele>
        <time>2025-03-12T16:48:16.203Z</time>
      </trkpt>
      <trkpt lat="48.5875" lon="2.09406">
        <ele>106</ele>
        <time>2025-03-12T16:48:19.076Z</time>
      </trkpt>
      <trkpt lat="48.58745" lon="2.09409">
        <ele>105.8</ele>
        <time>2025-03-12T16:48:21.949Z</time>
      </trkpt>
      <trkpt lat="48.58741" lon="2.09412">
        <ele>105.7</ele>
        <time>2025-03-12T16:48:24.822Z</time>
      </trkpt>
      <trkpt lat="48.58737" lon="2.09414">
        <ele>105.5</ele>
        <time>2025-03-12T16:48:27.695Z</time>
      </trkpt>
      <trkpt lat="48.58733" lon="2.09417">
        <ele>105.4</ele>
        <time>2025-03-12T16:48:30.568Z</time>
      </trkpt>
      <trkpt lat="48.58728" lon="2.0942">
        <ele>105.2</ele>
        <time>2025-03-12T16:48:33.441Z</time>
      </trkpt>
      <trkpt lat="48.58724" lon="2.09422">
        <ele>105.1</ele>
        <time>2025-03-12T16:48:36.314Z</time>
      </trkpt>
      <trkpt lat="48.5872" lon="2.09425">
        <ele>105</ele>
        <time>2025-03-12T16:48:39.187Z</time>
      </trkpt>
      <trkpt lat="48.58716" lon="2.09428">
        <ele>104.9</ele>
        <time>2025-03-12T16:48:42.060Z</time>
      </trkpt>
      <trkpt lat="48.58711" lon="2.0943">
        <ele>104.8</ele>
        <time>2025-03-12T16:48:44.933Z</time>
      </trkpt>
      <trkpt lat="48.58707" lon="2.09433">
        <ele>104.7</ele>
        <time>2025-03-12T16:48:47.807Z</time>
      </trkpt>
      <trkpt lat="48.58701" lon="2.09434">
        <ele>104.5</ele>
        <time>2025-03-12T16:48:51.401Z</time>
        <extensions>
          <visugpx:TrkExtension xmlns:visugpx="https://www.visugpx.com/editgpx/">
            <visugpx:node>1</visugpx:node>
            </visugpx:TrkExtension>
        </extensions>
      </trkpt>
      <trkpt lat="48.58701" lon="2.09434">
        <ele>104.5</ele>
        <time>2025-03-12T16:48:51.401Z</time>
      </trkpt>
      <trkpt lat="48.58693" lon="2.09436">
        <ele>104.3</ele>
        <time>2025-03-12T16:48:56.738Z</time>
      </trkpt>
      <trkpt lat="48.58684" lon="2.09437">
        <ele>104.2</ele>
        <time>2025-03-12T16:49:02.076Z</time>
      </trkpt>
      <trkpt lat="48.58676" lon="2.09437">
        <ele>104.1</ele>
        <time>2025-03-12T16:49:06.934Z</time>
      </trkpt>
      <trkpt lat="48.58669" lon="2.09436">
        <ele>104</ele>
        <time>2025-03-12T16:49:11.793Z</time>
      </trkpt>
      <trkpt lat="48.58661" lon="2.09436">
        <ele>103.9</ele>
        <time>2025-03-12T16:49:16.652Z</time>
      </trkpt>
      <trkpt lat="48.58653" lon="2.09435">
        <ele>103.7</ele>
        <time>2025-03-12T16:49:21.511Z</time>
      </trkpt>
      <trkpt lat="48.58645" lon="2.09433">
        <ele>103.5</ele>
        <time>2025-03-12T16:49:26.232Z</time>
      </trkpt>
      <trkpt lat="48.58637" lon="2.09431">
        <ele>103.3</ele>
        <time>2025-03-12T16:49:30.953Z</time>
      </trkpt>
      <trkpt lat="48.58629" lon="2.09429">
        <ele>102.8</ele>
        <time>2025-03-12T16:49:35.674Z</time>
      </trkpt>
      <trkpt lat="48.58621" lon="2.09428">
        <ele>102.3</ele>
        <time>2025-03-12T16:49:40.395Z</time>
      </trkpt>
      <trkpt lat="48.58613" lon="2.09426">
        <ele>101.8</ele>
        <time>2025-03-12T16:49:45.116Z</time>
      </trkpt>
      <trkpt lat="48.58605" lon="2.09424">
        <ele>101.5</ele>
        <time>2025-03-12T16:49:49.837Z</time>
      </trkpt>
      <trkpt lat="48.58597" lon="2.09422">
        <ele>101.3</ele>
        <time>2025-03-12T16:49:54.559Z</time>
      </trkpt>
      <trkpt lat="48.58589" lon="2.0942">
        <ele>101.1</ele>
        <time>2025-03-12T16:49:59.281Z</time>
      </trkpt>
      <trkpt lat="48.58583" lon="2.09419">
        <ele>100.9</ele>
        <time>2025-03-12T16:50:02.553Z</time>
      </trkpt>
      <trkpt lat="48.58578" lon="2.09418">
        <ele>100.4</ele>
        <time>2025-03-12T16:50:05.825Z</time>
      </trkpt>
      <trkpt lat="48.58572" lon="2.09416">
        <ele>99.8</ele>
        <time>2025-03-12T16:50:09.098Z</time>
      </trkpt>
      <trkpt lat="48.58567" lon="2.09415">
        <ele>99.3</ele>
        <time>2025-03-12T16:50:12.371Z</time>
      </trkpt>
      <trkpt lat="48.58561" lon="2.09414">
        <ele>98.8</ele>
        <time>2025-03-12T16:50:15.644Z</time>
      </trkpt>
      <trkpt lat="48.58555" lon="2.09413">
        <ele>98.3</ele>
        <time>2025-03-12T16:50:18.917Z</time>
      </trkpt>
      <trkpt lat="48.5855" lon="2.09411">
        <ele>97.9</ele>
        <time>2025-03-12T16:50:22.190Z</time>
      </trkpt>
      <trkpt lat="48.58544" lon="2.0941">
        <ele>97.5</ele>
        <time>2025-03-12T16:50:25.463Z</time>
      </trkpt>
      <trkpt lat="48.58538" lon="2.09409">
        <ele>97.2</ele>
        <time>2025-03-12T16:50:28.736Z</time>
      </trkpt>
      <trkpt lat="48.58533" lon="2.09408">
        <ele>96.7</ele>
        <time>2025-03-12T16:50:32.009Z</time>
      </trkpt>
      <trkpt lat="48.58527" lon="2.09406">
        <ele>96.3</ele>
        <time>2025-03-12T16:50:35.282Z</time>
      </trkpt>
      <trkpt lat="48.58522" lon="2.09405">
        <ele>95.9</ele>
        <time>2025-03-12T16:50:38.555Z</time>
      </trkpt>
      <trkpt lat="48.58516" lon="2.09404">
        <ele>95.4</ele>
        <time>2025-03-12T16:50:41.828Z</time>
      </trkpt>
      <trkpt lat="48.5851" lon="2.09403">
        <ele>94.9</ele>
        <time>2025-03-12T16:50:45.101Z</time>
      </trkpt>
      <trkpt lat="48.58505" lon="2.09401">
        <ele>94.4</ele>
        <time>2025-03-12T16:50:48.374Z</time>
      </trkpt>
      <trkpt lat="48.58499" lon="2.094">
        <ele>93.9</ele>
        <time>2025-03-12T16:50:51.648Z</time>
      </trkpt>
      <trkpt lat="48.58492" lon="2.09398">
        <ele>93.4</ele>
        <time>2025-03-12T16:50:55.586Z</time>
      </trkpt>
      <trkpt lat="48.58486" lon="2.09397">
        <ele>92.8</ele>
        <time>2025-03-12T16:50:59.524Z</time>
      </trkpt>
      <trkpt lat="48.58479" lon="2.09395">
        <ele>92.3</ele>
        <time>2025-03-12T16:51:03.462Z</time>
      </trkpt>
      <trkpt lat="48.58472" lon="2.09393">
        <ele>91.8</ele>
        <time>2025-03-12T16:51:07.400Z</time>
      </trkpt>
      <trkpt lat="48.58465" lon="2.09392">
        <ele>91.2</ele>
        <time>2025-03-12T16:51:11.338Z</time>
      </trkpt>
      <trkpt lat="48.58459" lon="2.0939">
        <ele>90.5</ele>
        <time>2025-03-12T16:51:15.276Z</time>
      </trkpt>
      <trkpt lat="48.58452" lon="2.09388">
        <ele>89.8</ele>
        <time>2025-03-12T16:51:19.214Z</time>
      </trkpt>
      <trkpt lat="48.58445" lon="2.09387">
        <ele>89.1</ele>
        <time>2025-03-12T16:51:23.152Z</time>
      </trkpt>
      <trkpt lat="48.58438" lon="2.09385">
        <ele>88.6</ele>
        <time>2025-03-12T16:51:27.090Z</time>
      </trkpt>
      <trkpt lat="48.58432" lon="2.09383">
        <ele>88.1</ele>
        <time>2025-03-12T16:51:31.029Z</time>
      </trkpt>
      <trkpt lat="48.58425" lon="2.09381">
        <ele>87.6</ele>
        <time>2025-03-12T16:51:34.968Z</time>
      </trkpt>
      <trkpt lat="48.58418" lon="2.0938">
        <ele>87.1</ele>
        <time>2025-03-12T16:51:38.907Z</time>
      </trkpt>
      <trkpt lat="48.58411" lon="2.09378">
        <ele>86.6</ele>
        <time>2025-03-12T16:51:42.846Z</time>
      </trkpt>
      <trkpt lat="48.58405" lon="2.09376">
        <ele>86.1</ele>
        <time>2025-03-12T16:51:46.785Z</time>
      </trkpt>
      <trkpt lat="48.58398" lon="2.09375">
        <ele>85.6</ele>
        <time>2025-03-12T16:51:50.724Z</time>
      </trkpt>
      <trkpt lat="48.58391" lon="2.09373">
        <ele>85.2</ele>
        <time>2025-03-12T16:51:54.664Z</time>
      </trkpt>
      <trkpt lat="48.58386" lon="2.09372">
        <ele>84.8</ele>
        <time>2025-03-12T16:51:57.406Z</time>
      </trkpt>
      <trkpt lat="48.58382" lon="2.09372">
        <ele>84.5</ele>
        <time>2025-03-12T16:52:00.148Z</time>
      </trkpt>
      <trkpt lat="48.58377" lon="2.09371">
        <ele>84.1</ele>
        <time>2025-03-12T16:52:02.890Z</time>
      </trkpt>
      <trkpt lat="48.58372" lon="2.09371">
        <ele>83.8</ele>
        <time>2025-03-12T16:52:05.633Z</time>
      </trkpt>
      <trkpt lat="48.58367" lon="2.0937">
        <ele>83.4</ele>
        <time>2025-03-12T16:52:08.376Z</time>
      </trkpt>
      <trkpt lat="48.58363" lon="2.0937">
        <ele>83.1</ele>
        <time>2025-03-12T16:52:11.119Z</time>
      </trkpt>
      <trkpt lat="48.58358" lon="2.09369">
        <ele>82.8</ele>
        <time>2025-03-12T16:52:13.862Z</time>
      </trkpt>
      <trkpt lat="48.58353" lon="2.09369">
        <ele>82.4</ele>
        <time>2025-03-12T16:52:16.605Z</time>
      </trkpt>
      <trkpt lat="48.58348" lon="2.09368">
        <ele>82.1</ele>
        <time>2025-03-12T16:52:19.348Z</time>
      </trkpt>
      <trkpt lat="48.58344" lon="2.09367">
        <ele>81.7</ele>
        <time>2025-03-12T16:52:22.091Z</time>
      </trkpt>
      <trkpt lat="48.58339" lon="2.09367">
        <ele>81.4</ele>
        <time>2025-03-12T16:52:24.834Z</time>
      </trkpt>
      <trkpt lat="48.58334" lon="2.09366">
        <ele>81</ele>
        <time>2025-03-12T16:52:27.577Z</time>
      </trkpt>
      <trkpt lat="48.58329" lon="2.09366">
        <ele>80.6</ele>
        <time>2025-03-12T16:52:30.320Z</time>
      </trkpt>
      <trkpt lat="48.58325" lon="2.09365">
        <ele>80.1</ele>
        <time>2025-03-12T16:52:33.063Z</time>
      </trkpt>
      <trkpt lat="48.5832" lon="2.09365">
        <ele>79.6</ele>
        <time>2025-03-12T16:52:35.806Z</time>
      </trkpt>
      <trkpt lat="48.58315" lon="2.09364">
        <ele>79.1</ele>
        <time>2025-03-12T16:52:38.549Z</time>
      </trkpt>
      <trkpt lat="48.58309" lon="2.09365">
        <ele>78.5</ele>
        <time>2025-03-12T16:52:42.092Z</time>
      </trkpt>
      <trkpt lat="48.58303" lon="2.09366">
        <ele>78</ele>
        <time>2025-03-12T16:52:45.636Z</time>
      </trkpt>
      <trkpt lat="48.58297" lon="2.09367">
        <ele>77.6</ele>
        <time>2025-03-12T16:52:49.180Z</time>
      </trkpt>
      <trkpt lat="48.58291" lon="2.09368">
        <ele>77.2</ele>
        <time>2025-03-12T16:52:52.724Z</time>
      </trkpt>
      <trkpt lat="48.58284" lon="2.09369">
        <ele>76.8</ele>
        <time>2025-03-12T16:52:56.268Z</time>
      </trkpt>
      <trkpt lat="48.58278" lon="2.0937">
        <ele>76.3</ele>
        <time>2025-03-12T16:52:59.812Z</time>
      </trkpt>
      <trkpt lat="48.58272" lon="2.09371">
        <ele>76.1</ele>
        <time>2025-03-12T16:53:03.356Z</time>
      </trkpt>
      <trkpt lat="48.58266" lon="2.09372">
        <ele>75.8</ele>
        <time>2025-03-12T16:53:06.900Z</time>
      </trkpt>
      <trkpt lat="48.5826" lon="2.09372">
        <ele>75.5</ele>
        <time>2025-03-12T16:53:10.444Z</time>
      </trkpt>
      <trkpt lat="48.58254" lon="2.09373">
        <ele>75.2</ele>
        <time>2025-03-12T16:53:13.988Z</time>
      </trkpt>
      <trkpt lat="48.58248" lon="2.09374">
        <ele>74.9</ele>
        <time>2025-03-12T16:53:17.532Z</time>
      </trkpt>
      <trkpt lat="48.58242" lon="2.09375">
        <ele>74.5</ele>
        <time>2025-03-12T16:53:21.076Z</time>
      </trkpt>
      <trkpt lat="48.58235" lon="2.09376">
        <ele>74.2</ele>
        <time>2025-03-12T16:53:24.620Z</time>
      </trkpt>
      <trkpt lat="48.58229" lon="2.09377">
        <ele>73.9</ele>
        <time>2025-03-12T16:53:28.164Z</time>
      </trkpt>
      <trkpt lat="48.58223" lon="2.09378">
        <ele>73.7</ele>
        <time>2025-03-12T16:53:31.708Z</time>
      </trkpt>
      <trkpt lat="48.58217" lon="2.09379">
        <ele>73.5</ele>
        <time>2025-03-12T16:53:35.253Z</time>
      </trkpt>
      <trkpt lat="48.58212" lon="2.09379">
        <ele>73.4</ele>
        <time>2025-03-12T16:53:38.631Z</time>
      </trkpt>
      <trkpt lat="48.58206" lon="2.0938">
        <ele>73.3</ele>
        <time>2025-03-12T16:53:42.010Z</time>
      </trkpt>
      <trkpt lat="48.58201" lon="2.0938">
        <ele>73.1</ele>
        <time>2025-03-12T16:53:45.389Z</time>
      </trkpt>
      <trkpt lat="48.58195" lon="2.0938">
        <ele>73</ele>
        <time>2025-03-12T16:53:48.768Z</time>
      </trkpt>
      <trkpt lat="48.5819" lon="2.0938">
        <ele>73</ele>
        <time>2025-03-12T16:53:52.386Z</time>
      </trkpt>
      <trkpt lat="48.58184" lon="2.0938">
        <ele>73</ele>
        <time>2025-03-12T16:53:56.005Z</time>
      </trkpt>
      <trkpt lat="48.58178" lon="2.0938">
        <ele>73</ele>
        <time>2025-03-12T16:53:59.891Z</time>
      </trkpt>
      <trkpt lat="48.58173" lon="2.0938">
        <ele>73</ele>
        <time>2025-03-12T16:54:03.777Z</time>
      </trkpt>
      <trkpt lat="48.58167" lon="2.0938">
        <ele>73</ele>
        <time>2025-03-12T16:54:07.663Z</time>
      </trkpt>
      <trkpt lat="48.58161" lon="2.0938">
        <ele>73.2</ele>
        <time>2025-03-12T16:54:11.550Z</time>
      </trkpt>
      <trkpt lat="48.58153" lon="2.09379">
        <ele>73.5</ele>
        <time>2025-03-12T16:54:17.390Z</time>
      </trkpt>
      <trkpt lat="48.58146" lon="2.09378">
        <ele>73.8</ele>
        <time>2025-03-12T16:54:23.230Z</time>
      </trkpt>
      <trkpt lat="48.58138" lon="2.09376">
        <ele>74</ele>
        <time>2025-03-12T16:54:29.070Z</time>
      </trkpt>
      <trkpt lat="48.5813" lon="2.09375">
        <ele>74.3</ele>
        <time>2025-03-12T16:54:34.910Z</time>
      </trkpt>
      <trkpt lat="48.58123" lon="2.09374">
        <ele>74.6</ele>
        <time>2025-03-12T16:54:40.750Z</time>
      </trkpt>
      <trkpt lat="48.58115" lon="2.09373">
        <ele>74.9</ele>
        <time>2025-03-12T16:54:46.590Z</time>
      </trkpt>
      <trkpt lat="48.58107" lon="2.09371">
        <ele>75.2</ele>
        <time>2025-03-12T16:54:52.430Z</time>
      </trkpt>
      <trkpt lat="48.581" lon="2.0937">
        <ele>75.6</ele>
        <time>2025-03-12T16:54:58.270Z</time>
      </trkpt>
      <trkpt lat="48.58092" lon="2.09369">
        <ele>75.9</ele>
        <time>2025-03-12T16:55:04.110Z</time>
      </trkpt>
      <trkpt lat="48.58084" lon="2.09368">
        <ele>76.2</ele>
        <time>2025-03-12T16:55:09.950Z</time>
      </trkpt>
      <trkpt lat="48.58076" lon="2.09366">
        <ele>76.6</ele>
        <time>2025-03-12T16:55:15.790Z</time>
      </trkpt>
      <trkpt lat="48.58069" lon="2.09365">
        <ele>77.1</ele>
        <time>2025-03-12T16:55:21.630Z</time>
      </trkpt>
      <trkpt lat="48.58061" lon="2.09364">
        <ele>77.6</ele>
        <time>2025-03-12T16:55:27.470Z</time>
      </trkpt>
      <trkpt lat="48.58053" lon="2.09363">
        <ele>78.1</ele>
        <time>2025-03-12T16:55:33.310Z</time>
      </trkpt>
      <trkpt lat="48.58046" lon="2.09361">
        <ele>78.4</ele>
        <time>2025-03-12T16:55:39.150Z</time>
      </trkpt>
      <trkpt lat="48.58038" lon="2.0936">
        <ele>78.6</ele>
        <time>2025-03-12T16:55:44.991Z</time>
      </trkpt>
      <trkpt lat="48.58033" lon="2.09359">
        <ele>78.8</ele>
        <time>2025-03-12T16:55:48.845Z</time>
      </trkpt>
      <trkpt lat="48.58028" lon="2.09359">
        <ele>79</ele>
        <time>2025-03-12T16:55:52.699Z</time>
      </trkpt>
      <trkpt lat="48.58023" lon="2.09358">
        <ele>79.2</ele>
        <time>2025-03-12T16:55:56.553Z</time>
      </trkpt>
      <trkpt lat="48.58018" lon="2.09358">
        <ele>79.4</ele>
        <time>2025-03-12T16:56:00.407Z</time>
      </trkpt>
      <trkpt lat="48.58012" lon="2.09357">
        <ele>79.6</ele>
        <time>2025-03-12T16:56:04.262Z</time>
      </trkpt>
      <trkpt lat="48.58007" lon="2.09356">
        <ele>79.9</ele>
        <time>2025-03-12T16:56:08.117Z</time>
      </trkpt>
      <trkpt lat="48.58002" lon="2.09356">
        <ele>80.1</ele>
        <time>2025-03-12T16:56:11.972Z</time>
      </trkpt>
      <trkpt lat="48.57997" lon="2.09355">
        <ele>80.3</ele>
        <time>2025-03-12T16:56:15.827Z</time>
      </trkpt>
      <trkpt lat="48.57993" lon="2.09353">
        <ele>80.5</ele>
        <time>2025-03-12T16:56:19.306Z</time>
      </trkpt>
      <trkpt lat="48.57988" lon="2.0935">
        <ele>80.7</ele>
        <time>2025-03-12T16:56:22.785Z</time>
      </trkpt>
      <trkpt lat="48.57984" lon="2.09348">
        <ele>80.8</ele>
        <time>2025-03-12T16:56:26.265Z</time>
      </trkpt>
      <trkpt lat="48.57979" lon="2.09345">
        <ele>80.9</ele>
        <time>2025-03-12T16:56:29.746Z</time>
      </trkpt>
      <trkpt lat="48.57975" lon="2.09341">
        <ele>81</ele>
        <time>2025-03-12T16:56:33.690Z</time>
      </trkpt>
      <trkpt lat="48.5797" lon="2.09338">
        <ele>81.2</ele>
        <time>2025-03-12T16:56:37.635Z</time>
      </trkpt>
      <trkpt lat="48.57966" lon="2.09334">
        <ele>81.5</ele>
        <time>2025-03-12T16:56:41.580Z</time>
      </trkpt>
      <trkpt lat="48.57961" lon="2.0933">
        <ele>81.9</ele>
        <time>2025-03-12T16:56:45.526Z</time>
      </trkpt>
      <trkpt lat="48.57957" lon="2.09325">
        <ele>82.2</ele>
        <time>2025-03-12T16:56:49.350Z</time>
      </trkpt>
      <trkpt lat="48.57954" lon="2.0932">
        <ele>82.5</ele>
        <time>2025-03-12T16:56:53.174Z</time>
      </trkpt>
      <trkpt lat="48.5795" lon="2.09315">
        <ele>82.7</ele>
        <time>2025-03-12T16:56:56.998Z</time>
      </trkpt>
      <trkpt lat="48.57946" lon="2.0931">
        <ele>82.9</ele>
        <time>2025-03-12T16:57:00.822Z</time>
      </trkpt>
      <trkpt lat="48.57942" lon="2.09305">
        <ele>83.1</ele>
        <time>2025-03-12T16:57:04.647Z</time>
      </trkpt>
      <trkpt lat="48.57939" lon="2.093">
        <ele>83.4</ele>
        <time>2025-03-12T16:57:08.472Z</time>
      </trkpt>
      <trkpt lat="48.57935" lon="2.09295">
        <ele>83.6</ele>
        <time>2025-03-12T16:57:12.297Z</time>
      </trkpt>
      <trkpt lat="48.57931" lon="2.0929">
        <ele>83.8</ele>
        <time>2025-03-12T16:57:16.123Z</time>
      </trkpt>
      <trkpt lat="48.57926" lon="2.09287">
        <ele>83.9</ele>
        <time>2025-03-12T16:57:19.721Z</time>
      </trkpt>
      <trkpt lat="48.57922" lon="2.09284">
        <ele>84</ele>
        <time>2025-03-12T16:57:23.319Z</time>
      </trkpt>
      <trkpt lat="48.57917" lon="2.09281">
        <ele>84</ele>
        <time>2025-03-12T16:57:26.917Z</time>
      </trkpt>
      <trkpt lat="48.57912" lon="2.09278">
        <ele>84.2</ele>
        <time>2025-03-12T16:57:30.516Z</time>
      </trkpt>
      <trkpt lat="48.57907" lon="2.09277">
        <ele>84.3</ele>
        <time>2025-03-12T16:57:33.686Z</time>
      </trkpt>
      <trkpt lat="48.57903" lon="2.09276">
        <ele>84.5</ele>
        <time>2025-03-12T16:57:36.856Z</time>
      </trkpt>
      <trkpt lat="48.57898" lon="2.09275">
        <ele>84.7</ele>
        <time>2025-03-12T16:57:40.026Z</time>
      </trkpt>
      <trkpt lat="48.57894" lon="2.09275">
        <ele>84.9</ele>
        <time>2025-03-12T16:57:43.196Z</time>
      </trkpt>
      <trkpt lat="48.57889" lon="2.09274">
        <ele>85</ele>
        <time>2025-03-12T16:57:46.366Z</time>
      </trkpt>
      <trkpt lat="48.57884" lon="2.09273">
        <ele>84.9</ele>
        <time>2025-03-12T16:57:49.536Z</time>
      </trkpt>
      <trkpt lat="48.5788" lon="2.09272">
        <ele>84.7</ele>
        <time>2025-03-12T16:57:52.707Z</time>
      </trkpt>
      <trkpt lat="48.57875" lon="2.09271">
        <ele>84.6</ele>
        <time>2025-03-12T16:57:55.878Z</time>
      </trkpt>
      <trkpt lat="48.57868" lon="2.0927">
        <ele>84.5</ele>
        <time>2025-03-12T16:57:59.984Z</time>
      </trkpt>
      <trkpt lat="48.57862" lon="2.09269">
        <ele>84.3</ele>
        <time>2025-03-12T16:58:04.090Z</time>
      </trkpt>
      <trkpt lat="48.57855" lon="2.09268">
        <ele>84.3</ele>
        <time>2025-03-12T16:58:08.196Z</time>
      </trkpt>
      <trkpt lat="48.57848" lon="2.09267">
        <ele>84.2</ele>
        <time>2025-03-12T16:58:12.302Z</time>
      </trkpt>
      <trkpt lat="48.57841" lon="2.09266">
        <ele>84.1</ele>
        <time>2025-03-12T16:58:16.408Z</time>
      </trkpt>
      <trkpt lat="48.57835" lon="2.09265">
        <ele>84</ele>
        <time>2025-03-12T16:58:20.515Z</time>
      </trkpt>
      <trkpt lat="48.57828" lon="2.09264">
        <ele>83.8</ele>
        <time>2025-03-12T16:58:24.622Z</time>
      </trkpt>
      <trkpt lat="48.57821" lon="2.09263">
        <ele>83.6</ele>
        <time>2025-03-12T16:58:28.729Z</time>
      </trkpt>
      <trkpt lat="48.57814" lon="2.09261">
        <ele>83.3</ele>
        <time>2025-03-12T16:58:32.836Z</time>
      </trkpt>
      <trkpt lat="48.57808" lon="2.0926">
        <ele>83.1</ele>
        <time>2025-03-12T16:58:36.943Z</time>
      </trkpt>
      <trkpt lat="48.57801" lon="2.09259">
        <ele>82.8</ele>
        <time>2025-03-12T16:58:41.050Z</time>
      </trkpt>
      <trkpt lat="48.57794" lon="2.09258">
        <ele>82.6</ele>
        <time>2025-03-12T16:58:45.157Z</time>
      </trkpt>
      <trkpt lat="48.57787" lon="2.09257">
        <ele>82.3</ele>
        <time>2025-03-12T16:58:49.264Z</time>
      </trkpt>
      <trkpt lat="48.57781" lon="2.09256">
        <ele>82.1</ele>
        <time>2025-03-12T16:58:53.371Z</time>
      </trkpt>
      <trkpt lat="48.57774" lon="2.09255">
        <ele>81.8</ele>
        <time>2025-03-12T16:58:57.478Z</time>
      </trkpt>
      <trkpt lat="48.57767" lon="2.09254">
        <ele>81.6</ele>
        <time>2025-03-12T16:59:01.586Z</time>
      </trkpt>
      <trkpt lat="48.57759" lon="2.09254">
        <ele>81.2</ele>
        <time>2025-03-12T16:59:05.977Z</time>
      </trkpt>
      <trkpt lat="48.57752" lon="2.09255">
        <ele>80.9</ele>
        <time>2025-03-12T16:59:10.368Z</time>
      </trkpt>
      <trkpt lat="48.57744" lon="2.09255">
        <ele>80.4</ele>
        <time>2025-03-12T16:59:14.760Z</time>
      </trkpt>
      <trkpt lat="48.57737" lon="2.09256">
        <ele>79.8</ele>
        <time>2025-03-12T16:59:19.152Z</time>
      </trkpt>
      <trkpt lat="48.57729" lon="2.09256">
        <ele>79.3</ele>
        <time>2025-03-12T16:59:23.544Z</time>
      </trkpt>
      <trkpt lat="48.57721" lon="2.09256">
        <ele>78.7</ele>
        <time>2025-03-12T16:59:27.936Z</time>
      </trkpt>
      <trkpt lat="48.57714" lon="2.09257">
        <ele>78.2</ele>
        <time>2025-03-12T16:59:32.328Z</time>
      </trkpt>
      <trkpt lat="48.57706" lon="2.09257">
        <ele>77.7</ele>
        <time>2025-03-12T16:59:36.720Z</time>
      </trkpt>
      <trkpt lat="48.57701" lon="2.09258">
        <ele>77.4</ele>
        <time>2025-03-12T16:59:39.716Z</time>
      </trkpt>
      <trkpt lat="48.57696" lon="2.0926">
        <ele>77.1</ele>
        <time>2025-03-12T16:59:42.712Z</time>
      </trkpt>
      <trkpt lat="48.57691" lon="2.09261">
        <ele>76.8</ele>
        <time>2025-03-12T16:59:45.708Z</time>
      </trkpt>
      <trkpt lat="48.57686" lon="2.09263">
        <ele>76.5</ele>
        <time>2025-03-12T16:59:48.704Z</time>
      </trkpt>
      <trkpt lat="48.5768" lon="2.09264">
        <ele>76.2</ele>
        <time>2025-03-12T16:59:51.700Z</time>
      </trkpt>
      <trkpt lat="48.57675" lon="2.09265">
        <ele>75.9</ele>
        <time>2025-03-12T16:59:54.697Z</time>
      </trkpt>
      <trkpt lat="48.5767" lon="2.09267">
        <ele>75.6</ele>
        <time>2025-03-12T16:59:57.694Z</time>
      </trkpt>
      <trkpt lat="48.57665" lon="2.09268">
        <ele>75.3</ele>
        <time>2025-03-12T17:00:00.691Z</time>
      </trkpt>
      <trkpt lat="48.57659" lon="2.09271">
        <ele>74.9</ele>
        <time>2025-03-12T17:00:04.307Z</time>
      </trkpt>
      <trkpt lat="48.57653" lon="2.09274">
        <ele>74.6</ele>
        <time>2025-03-12T17:00:07.923Z</time>
      </trkpt>
      <trkpt lat="48.57647" lon="2.09276">
        <ele>74.3</ele>
        <time>2025-03-12T17:00:11.539Z</time>
      </trkpt>
      <trkpt lat="48.57641" lon="2.09279">
        <ele>74</ele>
        <time>2025-03-12T17:00:15.155Z</time>
      </trkpt>
      <trkpt lat="48.57635" lon="2.09282">
        <ele>73.6</ele>
        <time>2025-03-12T17:00:18.771Z</time>
      </trkpt>
      <trkpt lat="48.57629" lon="2.09285">
        <ele>73</ele>
        <time>2025-03-12T17:00:22.387Z</time>
      </trkpt>
      <trkpt lat="48.57623" lon="2.09288">
        <ele>72.5</ele>
        <time>2025-03-12T17:00:26.003Z</time>
      </trkpt>
      <trkpt lat="48.57617" lon="2.09291">
        <ele>72</ele>
        <time>2025-03-12T17:00:29.619Z</time>
      </trkpt>
      <trkpt lat="48.57611" lon="2.09293">
        <ele>71.4</ele>
        <time>2025-03-12T17:00:33.235Z</time>
      </trkpt>
      <trkpt lat="48.57605" lon="2.09296">
        <ele>71.1</ele>
        <time>2025-03-12T17:00:36.851Z</time>
      </trkpt>
      <trkpt lat="48.57599" lon="2.09299">
        <ele>70.8</ele>
        <time>2025-03-12T17:00:40.467Z</time>
      </trkpt>
      <trkpt lat="48.57593" lon="2.09302">
        <ele>70.5</ele>
        <time>2025-03-12T17:00:44.083Z</time>
      </trkpt>
      <trkpt lat="48.57587" lon="2.09305">
        <ele>70.2</ele>
        <time>2025-03-12T17:00:47.700Z</time>
      </trkpt>
      <trkpt lat="48.57581" lon="2.09307">
        <ele>69.9</ele>
        <time>2025-03-12T17:00:51.317Z</time>
      </trkpt>
      <trkpt lat="48.57575" lon="2.0931">
        <ele>69.7</ele>
        <time>2025-03-12T17:00:54.934Z</time>
      </trkpt>
      <trkpt lat="48.57569" lon="2.09313">
        <ele>69.5</ele>
        <time>2025-03-12T17:00:58.552Z</time>
        <extensions>
          <visugpx:TrkExtension xmlns:visugpx="https://www.visugpx.com/editgpx/">
            <visugpx:node>2</visugpx:node>
            </visugpx:TrkExtension>
        </extensions>
      </trkpt>
      <trkpt lat="48.57564" lon="2.09315">
        <ele>69.3</ele>
        <time>2025-03-12T17:01:01.581Z</time>
      </trkpt>
      <trkpt lat="48.57567" lon="2.09326">
        <ele>69.4</ele>
        <time>2025-03-12T17:01:06.695Z</time>
      </trkpt>
      <trkpt lat="48.57569" lon="2.09337">
        <ele>69.4</ele>
        <time>2025-03-12T17:01:11.809Z</time>
      </trkpt>
      <trkpt lat="48.57572" lon="2.09348">
        <ele>69.3</ele>
        <time>2025-03-12T17:01:16.923Z</time>
      </trkpt>
      <trkpt lat="48.57574" lon="2.09359">
        <ele>69.4</ele>
        <time>2025-03-12T17:01:22.037Z</time>
      </trkpt>
      <trkpt lat="48.57576" lon="2.09368">
        <ele>69.4</ele>
        <time>2025-03-12T17:01:26.155Z</time>
      </trkpt>
      <trkpt lat="48.57577" lon="2.09377">
        <ele>69.5</ele>
        <time>2025-03-12T17:01:30.273Z</time>
      </trkpt>
      <trkpt lat="48.57579" lon="2.09386">
        <ele>69.7</ele>
        <time>2025-03-12T17:01:34.391Z</time>
      </trkpt>
      <trkpt lat="48.5758" lon="2.09396">
        <ele>69.8</ele>
        <time>2025-03-12T17:01:38.509Z</time>
      </trkpt>
      <trkpt lat="48.57582" lon="2.09405">
        <ele>69.9</ele>
        <time>2025-03-12T17:01:42.627Z</time>
      </trkpt>
      <trkpt lat="48.57583" lon="2.09414">
        <ele>70</ele>
        <time>2025-03-12T17:01:46.745Z</time>
      </trkpt>
      <trkpt lat="48.57585" lon="2.09423">
        <ele>69.8</ele>
        <time>2025-03-12T17:01:50.863Z</time>
      </trkpt>
      <trkpt lat="48.57586" lon="2.09432">
        <ele>69.5</ele>
        <time>2025-03-12T17:01:54.982Z</time>
      </trkpt>
      <trkpt lat="48.57587" lon="2.09439">
        <ele>69.3</ele>
        <time>2025-03-12T17:01:57.995Z</time>
      </trkpt>
      <trkpt lat="48.57588" lon="2.09446">
        <ele>69.2</ele>
        <time>2025-03-12T17:02:01.008Z</time>
      </trkpt>
      <trkpt lat="48.57589" lon="2.09452">
        <ele>69.2</ele>
        <time>2025-03-12T17:02:04.021Z</time>
      </trkpt>
      <trkpt lat="48.5759" lon="2.09459">
        <ele>69.2</ele>
        <time>2025-03-12T17:02:07.034Z</time>
      </trkpt>
      <trkpt lat="48.5759" lon="2.09466">
        <ele>69.3</ele>
        <time>2025-03-12T17:02:10.047Z</time>
      </trkpt>
      <trkpt lat="48.57591" lon="2.09473">
        <ele>69.3</ele>
        <time>2025-03-12T17:02:13.060Z</time>
      </trkpt>
      <trkpt lat="48.57592" lon="2.09479">
        <ele>69.3</ele>
        <time>2025-03-12T17:02:16.073Z</time>
      </trkpt>
      <trkpt lat="48.57593" lon="2.09486">
        <ele>69.3</ele>
        <time>2025-03-12T17:02:19.086Z</time>
      </trkpt>
      <trkpt lat="48.57594" lon="2.09493">
        <ele>69.4</ele>
        <time>2025-03-12T17:02:22.099Z</time>
      </trkpt>
      <trkpt lat="48.57595" lon="2.095">
        <ele>69.4</ele>
        <time>2025-03-12T17:02:25.112Z</time>
      </trkpt>
      <trkpt lat="48.57596" lon="2.09506">
        <ele>69.3</ele>
        <time>2025-03-12T17:02:28.125Z</time>
      </trkpt>
      <trkpt lat="48.57597" lon="2.09513">
        <ele>69.2</ele>
        <time>2025-03-12T17:02:31.138Z</time>
      </trkpt>
      <trkpt lat="48.57597" lon="2.0952">
        <ele>69.2</ele>
        <time>2025-03-12T17:02:34.151Z</time>
      </trkpt>
      <trkpt lat="48.57598" lon="2.09527">
        <ele>69.1</ele>
        <time>2025-03-12T17:02:37.164Z</time>
      </trkpt>
      <trkpt lat="48.57599" lon="2.09533">
        <ele>69.1</ele>
        <time>2025-03-12T17:02:40.177Z</time>
      </trkpt>
      <trkpt lat="48.576" lon="2.0954">
        <ele>69.2</ele>
        <time>2025-03-12T17:02:43.190Z</time>
      </trkpt>
      <trkpt lat="48.57601" lon="2.09547">
        <ele>69.3</ele>
        <time>2025-03-12T17:02:46.203Z</time>
      </trkpt>
      <trkpt lat="48.57602" lon="2.09554">
        <ele>69.3</ele>
        <time>2025-03-12T17:02:49.216Z</time>
      </trkpt>
      <trkpt lat="48.57603" lon="2.0956">
        <ele>69.4</ele>
        <time>2025-03-12T17:02:52.229Z</time>
      </trkpt>
      <trkpt lat="48.57604" lon="2.09567">
        <ele>69.5</ele>
        <time>2025-03-12T17:02:55.242Z</time>
      </trkpt>
      <trkpt lat="48.57604" lon="2.09574">
        <ele>69.5</ele>
        <time>2025-03-12T17:02:58.255Z</time>
      </trkpt>
      <trkpt lat="48.57605" lon="2.09581">
        <ele>69.6</ele>
        <time>2025-03-12T17:03:01.268Z</time>
      </trkpt>
      <trkpt lat="48.57606" lon="2.09587">
        <ele>69.6</ele>
        <time>2025-03-12T17:03:04.281Z</time>
      </trkpt>
      <trkpt lat="48.57607" lon="2.09594">
        <ele>69.7</ele>
        <time>2025-03-12T17:03:07.294Z</time>
      </trkpt>
      <trkpt lat="48.57608" lon="2.09601">
        <ele>69.8</ele>
        <time>2025-03-12T17:03:10.307Z</time>
      </trkpt>
      <trkpt lat="48.57609" lon="2.09608">
        <ele>69.8</ele>
        <time>2025-03-12T17:03:13.320Z</time>
      </trkpt>
      <trkpt lat="48.5761" lon="2.09614">
        <ele>69.9</ele>
        <time>2025-03-12T17:03:16.333Z</time>
      </trkpt>
      <trkpt lat="48.57611" lon="2.09621">
        <ele>70</ele>
        <time>2025-03-12T17:03:19.346Z</time>
      </trkpt>
      <trkpt lat="48.57611" lon="2.09628">
        <ele>70</ele>
        <time>2025-03-12T17:03:22.360Z</time>
      </trkpt>
      <trkpt lat="48.57612" lon="2.09635">
        <ele>70</ele>
        <time>2025-03-12T17:03:25.374Z</time>
      </trkpt>
      <trkpt lat="48.57613" lon="2.09641">
        <ele>70</ele>
        <time>2025-03-12T17:03:28.388Z</time>
      </trkpt>
      <trkpt lat="48.57614" lon="2.09648">
        <ele>69.8</ele>
        <time>2025-03-12T17:03:31.402Z</time>
      </trkpt>
      <trkpt lat="48.57615" lon="2.09658">
        <ele>69.5</ele>
        <time>2025-03-12T17:03:35.570Z</time>
      </trkpt>
      <trkpt lat="48.57616" lon="2.09667">
        <ele>69.3</ele>
        <time>2025-03-12T17:03:39.738Z</time>
      </trkpt>
      <trkpt lat="48.57616" lon="2.09677">
        <ele>69.4</ele>
        <time>2025-03-12T17:03:43.906Z</time>
      </trkpt>
      <trkpt lat="48.57617" lon="2.09687">
        <ele>69.4</ele>
        <time>2025-03-12T17:03:48.074Z</time>
      </trkpt>
      <trkpt lat="48.57618" lon="2.09696">
        <ele>69.5</ele>
        <time>2025-03-12T17:03:52.242Z</time>
      </trkpt>
      <trkpt lat="48.57619" lon="2.09706">
        <ele>69.5</ele>
        <time>2025-03-12T17:03:56.411Z</time>
      </trkpt>
      <trkpt lat="48.57619" lon="2.09715">
        <ele>69.6</ele>
        <time>2025-03-12T17:04:00.580Z</time>
      </trkpt>
      <trkpt lat="48.5762" lon="2.09725">
        <ele>69.6</ele>
        <time>2025-03-12T17:04:04.749Z</time>
      </trkpt>
      <trkpt lat="48.5762" lon="2.09736">
        <ele>69.5</ele>
        <time>2025-03-12T17:04:09.245Z</time>
      </trkpt>
      <trkpt lat="48.5762" lon="2.09746">
        <ele>69.4</ele>
        <time>2025-03-12T17:04:13.741Z</time>
      </trkpt>
      <trkpt lat="48.5762" lon="2.09757">
        <ele>69.3</ele>
        <time>2025-03-12T17:04:18.237Z</time>
      </trkpt>
      <trkpt lat="48.57621" lon="2.09767">
        <ele>69.3</ele>
        <time>2025-03-12T17:04:22.733Z</time>
      </trkpt>
      <trkpt lat="48.57621" lon="2.09778">
        <ele>69.3</ele>
        <time>2025-03-12T17:04:27.229Z</time>
      </trkpt>
      <trkpt lat="48.57621" lon="2.09788">
        <ele>69.3</ele>
        <time>2025-03-12T17:04:31.725Z</time>
      </trkpt>
      <trkpt lat="48.57621" lon="2.09799">
        <ele>69.4</ele>
        <time>2025-03-12T17:04:36.221Z</time>
      </trkpt>
      <trkpt lat="48.57621" lon="2.09809">
        <ele>69.3</ele>
        <time>2025-03-12T17:04:40.718Z</time>
      </trkpt>
      <trkpt lat="48.5762" lon="2.09823">
        <ele>68.9</ele>
        <time>2025-03-12T17:04:45.977Z</time>
      </trkpt>
      <trkpt lat="48.57619" lon="2.09836">
        <ele>68.6</ele>
        <time>2025-03-12T17:04:51.238Z</time>
      </trkpt>
      <trkpt lat="48.5762" lon="2.09843">
        <ele>68.6</ele>
        <time>2025-03-12T17:04:54.644Z</time>
      </trkpt>
      <trkpt lat="48.57621" lon="2.09851">
        <ele>68.7</ele>
        <time>2025-03-12T17:04:58.050Z</time>
      </trkpt>
      <trkpt lat="48.57621" lon="2.09858">
        <ele>68.7</ele>
        <time>2025-03-12T17:05:01.456Z</time>
      </trkpt>
      <trkpt lat="48.57622" lon="2.09865">
        <ele>68.9</ele>
        <time>2025-03-12T17:05:04.862Z</time>
      </trkpt>
      <trkpt lat="48.57623" lon="2.09872">
        <ele>69.1</ele>
        <time>2025-03-12T17:05:08.268Z</time>
      </trkpt>
      <trkpt lat="48.57624" lon="2.0988">
        <ele>69.3</ele>
        <time>2025-03-12T17:05:11.674Z</time>
      </trkpt>
      <trkpt lat="48.57624" lon="2.09887">
        <ele>69.4</ele>
        <time>2025-03-12T17:05:15.080Z</time>
      </trkpt>
      <trkpt lat="48.57625" lon="2.09894">
        <ele>69.4</ele>
        <time>2025-03-12T17:05:18.487Z</time>
      </trkpt>
      <trkpt lat="48.57626" lon="2.09905">
        <ele>69.3</ele>
        <time>2025-03-12T17:05:22.908Z</time>
      </trkpt>
      <trkpt lat="48.57627" lon="2.09915">
        <ele>69.2</ele>
        <time>2025-03-12T17:05:27.329Z</time>
      </trkpt>
      <trkpt lat="48.57628" lon="2.09926">
        <ele>69</ele>
        <time>2025-03-12T17:05:31.750Z</time>
      </trkpt>
      <trkpt lat="48.57629" lon="2.09936">
        <ele>68.8</ele>
        <time>2025-03-12T17:05:36.171Z</time>
      </trkpt>
      <trkpt lat="48.5763" lon="2.09947">
        <ele>68.7</ele>
        <time>2025-03-12T17:05:40.592Z</time>
      </trkpt>
      <trkpt lat="48.57631" lon="2.09957">
        <ele>68.7</ele>
        <time>2025-03-12T17:05:45.013Z</time>
      </trkpt>
      <trkpt lat="48.57632" lon="2.09968">
        <ele>68.8</ele>
        <time>2025-03-12T17:05:49.434Z</time>
      </trkpt>
      <trkpt lat="48.57633" lon="2.09978">
        <ele>68.6</ele>
        <time>2025-03-12T17:05:53.856Z</time>
      </trkpt>
      <trkpt lat="48.57634" lon="2.09988">
        <ele>68.2</ele>
        <time>2025-03-12T17:05:58.164Z</time>
      </trkpt>
      <trkpt lat="48.57634" lon="2.09999">
        <ele>67.9</ele>
        <time>2025-03-12T17:06:02.472Z</time>
      </trkpt>
      <trkpt lat="48.57635" lon="2.10009">
        <ele>67.8</ele>
        <time>2025-03-12T17:06:06.780Z</time>
      </trkpt>
      <trkpt lat="48.57635" lon="2.1002">
        <ele>67.9</ele>
        <time>2025-03-12T17:06:11.088Z</time>
      </trkpt>
      <trkpt lat="48.57636" lon="2.1003">
        <ele>67.9</ele>
        <time>2025-03-12T17:06:15.396Z</time>
      </trkpt>
      <trkpt lat="48.57636" lon="2.1004">
        <ele>67.9</ele>
        <time>2025-03-12T17:06:19.704Z</time>
      </trkpt>
      <trkpt lat="48.57637" lon="2.10051">
        <ele>67.9</ele>
        <time>2025-03-12T17:06:24.012Z</time>
      </trkpt>
      <trkpt lat="48.57637" lon="2.10061">
        <ele>67.7</ele>
        <time>2025-03-12T17:06:28.320Z</time>
      </trkpt>
      <trkpt lat="48.57637" lon="2.10069">
        <ele>67.4</ele>
        <time>2025-03-12T17:06:31.428Z</time>
      </trkpt>
      <trkpt lat="48.57637" lon="2.10077">
        <ele>67.2</ele>
        <time>2025-03-12T17:06:34.536Z</time>
      </trkpt>
      <trkpt lat="48.57637" lon="2.10085">
        <ele>66.9</ele>
        <time>2025-03-12T17:06:37.644Z</time>
      </trkpt>
      <trkpt lat="48.57637" lon="2.10093">
        <ele>66.9</ele>
        <time>2025-03-12T17:06:40.753Z</time>
      </trkpt>
      <trkpt lat="48.57635" lon="2.10106">
        <ele>66.9</ele>
        <time>2025-03-12T17:06:46.462Z</time>
      </trkpt>
      <trkpt lat="48.57633" lon="2.10119">
        <ele>66.8</ele>
        <time>2025-03-12T17:06:52.172Z</time>
      </trkpt>
      <trkpt lat="48.57627" lon="2.10117">
        <ele>66.6</ele>
        <time>2025-03-12T17:06:55.861Z</time>
      </trkpt>
      <trkpt lat="48.57621" lon="2.10115">
        <ele>66.3</ele>
        <time>2025-03-12T17:06:59.550Z</time>
      </trkpt>
      <trkpt lat="48.57615" lon="2.10113">
        <ele>66.1</ele>
        <time>2025-03-12T17:07:03.239Z</time>
      </trkpt>
      <trkpt lat="48.57609" lon="2.10112">
        <ele>65.9</ele>
        <time>2025-03-12T17:07:06.928Z</time>
      </trkpt>
      <trkpt lat="48.57602" lon="2.1011">
        <ele>65.7</ele>
        <time>2025-03-12T17:07:10.617Z</time>
      </trkpt>
      <trkpt lat="48.57596" lon="2.10108">
        <ele>65.5</ele>
        <time>2025-03-12T17:07:14.306Z</time>
      </trkpt>
      <trkpt lat="48.5759" lon="2.10106">
        <ele>65.2</ele>
        <time>2025-03-12T17:07:17.995Z</time>
      </trkpt>
      <trkpt lat="48.57584" lon="2.10104">
        <ele>65</ele>
        <time>2025-03-12T17:07:21.685Z</time>
      </trkpt>
      <trkpt lat="48.57584" lon="2.10111">
        <ele>65</ele>
        <time>2025-03-12T17:07:24.732Z</time>
      </trkpt>
      <trkpt lat="48.57584" lon="2.10118">
        <ele>65</ele>
        <time>2025-03-12T17:07:27.779Z</time>
      </trkpt>
      <trkpt lat="48.57584" lon="2.10125">
        <ele>65</ele>
        <time>2025-03-12T17:07:30.826Z</time>
      </trkpt>
      <trkpt lat="48.57584" lon="2.10132">
        <ele>65</ele>
        <time>2025-03-12T17:07:33.873Z</time>
      </trkpt>
      <trkpt lat="48.57583" lon="2.10142">
        <ele>65</ele>
        <time>2025-03-12T17:07:38.361Z</time>
      </trkpt>
      <trkpt lat="48.57583" lon="2.10153">
        <ele>65</ele>
        <time>2025-03-12T17:07:42.850Z</time>
      </trkpt>
      <trkpt lat="48.57582" lon="2.10163">
        <ele>65</ele>
        <time>2025-03-12T17:07:47.339Z</time>
      </trkpt>
      <trkpt lat="48.57581" lon="2.10173">
        <ele>65</ele>
        <time>2025-03-12T17:07:51.829Z</time>
      </trkpt>
      <trkpt lat="48.5758" lon="2.10185">
        <ele>65</ele>
        <time>2025-03-12T17:07:56.985Z</time>
      </trkpt>
      <trkpt lat="48.57579" lon="2.10197">
        <ele>65</ele>
        <time>2025-03-12T17:08:02.141Z</time>
      </trkpt>
      <trkpt lat="48.57578" lon="2.10208">
        <ele>65</ele>
        <time>2025-03-12T17:08:07.297Z</time>
      </trkpt>
      <trkpt lat="48.57577" lon="2.1022">
        <ele>65</ele>
        <time>2025-03-12T17:08:12.454Z</time>
      </trkpt>
      <trkpt lat="48.57576" lon="2.10232">
        <ele>65</ele>
        <time>2025-03-12T17:08:17.611Z</time>
      </trkpt>
      <trkpt lat="48.57575" lon="2.10244">
        <ele>65</ele>
        <time>2025-03-12T17:08:22.768Z</time>
      </trkpt>
      <trkpt lat="48.57574" lon="2.10255">
        <ele>65</ele>
        <time>2025-03-12T17:08:27.925Z</time>
      </trkpt>
      <trkpt lat="48.57573" lon="2.10267">
        <ele>65</ele>
        <time>2025-03-12T17:08:33.083Z</time>
      </trkpt>
      <trkpt lat="48.57573" lon="2.10274">
        <ele>65</ele>
        <time>2025-03-12T17:08:36.255Z</time>
      </trkpt>
      <trkpt lat="48.57572" lon="2.10282">
        <ele>65</ele>
        <time>2025-03-12T17:08:39.428Z</time>
      </trkpt>
      <trkpt lat="48.57572" lon="2.10289">
        <ele>65</ele>
        <time>2025-03-12T17:08:42.601Z</time>
      </trkpt>
      <trkpt lat="48.57571" lon="2.10296">
        <ele>65</ele>
        <time>2025-03-12T17:08:45.775Z</time>
      </trkpt>
      <trkpt lat="48.57571" lon="2.10303">
        <ele>65</ele>
        <time>2025-03-12T17:08:48.876Z</time>
      </trkpt>
      <trkpt lat="48.57571" lon="2.1031">
        <ele>65</ele>
        <time>2025-03-12T17:08:51.977Z</time>
      </trkpt>
      <trkpt lat="48.57571" lon="2.10317">
        <ele>65</ele>
        <time>2025-03-12T17:08:55.078Z</time>
      </trkpt>
      <trkpt lat="48.57571" lon="2.10325">
        <ele>65</ele>
        <time>2025-03-12T17:08:58.179Z</time>
      </trkpt>
      <trkpt lat="48.57571" lon="2.10332">
        <ele>65</ele>
        <time>2025-03-12T17:09:01.280Z</time>
      </trkpt>
      <trkpt lat="48.57571" lon="2.10339">
        <ele>65</ele>
        <time>2025-03-12T17:09:04.382Z</time>
      </trkpt>
      <trkpt lat="48.57571" lon="2.10346">
        <ele>65</ele>
        <time>2025-03-12T17:09:07.484Z</time>
      </trkpt>
      <trkpt lat="48.57571" lon="2.10353">
        <ele>65</ele>
        <time>2025-03-12T17:09:10.586Z</time>
      </trkpt>
      <trkpt lat="48.57572" lon="2.10361">
        <ele>65</ele>
        <time>2025-03-12T17:09:13.986Z</time>
      </trkpt>
      <trkpt lat="48.57573" lon="2.10368">
        <ele>65</ele>
        <time>2025-03-12T17:09:17.386Z</time>
      </trkpt>
      <trkpt lat="48.57574" lon="2.10376">
        <ele>65</ele>
        <time>2025-03-12T17:09:20.786Z</time>
      </trkpt>
      <trkpt lat="48.57576" lon="2.10384">
        <ele>65</ele>
        <time>2025-03-12T17:09:24.187Z</time>
      </trkpt>
      <trkpt lat="48.57577" lon="2.10391">
        <ele>65</ele>
        <time>2025-03-12T17:09:27.588Z</time>
      </trkpt>
      <trkpt lat="48.57578" lon="2.10399">
        <ele>65</ele>
        <time>2025-03-12T17:09:30.989Z</time>
      </trkpt>
      <trkpt lat="48.57579" lon="2.10406">
        <ele>65</ele>
        <time>2025-03-12T17:09:34.390Z</time>
      </trkpt>
      <trkpt lat="48.5758" lon="2.10414">
        <ele>65</ele>
        <time>2025-03-12T17:09:37.791Z</time>
      </trkpt>
      <trkpt lat="48.57583" lon="2.10424">
        <ele>65</ele>
        <time>2025-03-12T17:09:42.552Z</time>
      </trkpt>
      <trkpt lat="48.57585" lon="2.10434">
        <ele>65</ele>
        <time>2025-03-12T17:09:47.313Z</time>
      </trkpt>
      <trkpt lat="48.57588" lon="2.10444">
        <ele>65</ele>
        <time>2025-03-12T17:09:52.074Z</time>
      </trkpt>
      <trkpt lat="48.57591" lon="2.10454">
        <ele>65</ele>
        <time>2025-03-12T17:09:56.835Z</time>
      </trkpt>
      <trkpt lat="48.57593" lon="2.10463">
        <ele>65</ele>
        <time>2025-03-12T17:10:01.597Z</time>
      </trkpt>
      <trkpt lat="48.57596" lon="2.10473">
        <ele>65</ele>
        <time>2025-03-12T17:10:06.359Z</time>
      </trkpt>
      <trkpt lat="48.57598" lon="2.10483">
        <ele>65.2</ele>
        <time>2025-03-12T17:10:11.121Z</time>
      </trkpt>
      <trkpt lat="48.57601" lon="2.10493">
        <ele>65.5</ele>
        <time>2025-03-12T17:10:15.883Z</time>
      </trkpt>
      <trkpt lat="48.57602" lon="2.10501">
        <ele>65.7</ele>
        <time>2025-03-12T17:10:19.055Z</time>
      </trkpt>
      <trkpt lat="48.57604" lon="2.10508">
        <ele>65.5</ele>
        <time>2025-03-12T17:10:22.227Z</time>
      </trkpt>
      <trkpt lat="48.57605" lon="2.10516">
        <ele>65.3</ele>
        <time>2025-03-12T17:10:25.399Z</time>
      </trkpt>
      <trkpt lat="48.57606" lon="2.10523">
        <ele>65.1</ele>
        <time>2025-03-12T17:10:28.572Z</time>
      </trkpt>
      <trkpt lat="48.57606" lon="2.10533">
        <ele>65</ele>
        <time>2025-03-12T17:10:32.768Z</time>
      </trkpt>
      <trkpt lat="48.57606" lon="2.10543">
        <ele>65</ele>
        <time>2025-03-12T17:10:36.965Z</time>
      </trkpt>
      <trkpt lat="48.57605" lon="2.10552">
        <ele>65</ele>
        <time>2025-03-12T17:10:41.162Z</time>
      </trkpt>
      <trkpt lat="48.57605" lon="2.10562">
        <ele>65</ele>
        <time>2025-03-12T17:10:45.360Z</time>
      </trkpt>
      <trkpt lat="48.57607" lon="2.1057">
        <ele>65</ele>
        <time>2025-03-12T17:10:48.981Z</time>
      </trkpt>
      <trkpt lat="48.57609" lon="2.10578">
        <ele>65</ele>
        <time>2025-03-12T17:10:52.602Z</time>
      </trkpt>
      <trkpt lat="48.57611" lon="2.10585">
        <ele>65</ele>
        <time>2025-03-12T17:10:56.223Z</time>
      </trkpt>
      <trkpt lat="48.57613" lon="2.10593">
        <ele>65</ele>
        <time>2025-03-12T17:10:59.844Z</time>
      </trkpt>
      <trkpt lat="48.57614" lon="2.10604">
        <ele>65</ele>
        <time>2025-03-12T17:11:04.678Z</time>
      </trkpt>
      <trkpt lat="48.57614" lon="2.10614">
        <ele>65.2</ele>
        <time>2025-03-12T17:11:09.463Z</time>
      </trkpt>
      <trkpt lat="48.57616" lon="2.10625">
        <ele>66</ele>
        <time>2025-03-12T17:11:16.502Z</time>
      </trkpt>
      <trkpt lat="48.57616" lon="2.10625">
        <ele>66</ele>
        <time>2025-03-12T17:11:16.502Z</time>
        <extensions>
          <visugpx:TrkExtension xmlns:visugpx="https://www.visugpx.com/editgpx/">
            <visugpx:node>3</visugpx:node>
            </visugpx:TrkExtension>
        </extensions>
      </trkpt>
      <trkpt lat="48.57616" lon="2.10625">
        <ele>66</ele>
        <time>2025-03-12T17:11:16.502Z</time>
      </trkpt>
      <trkpt lat="48.57618" lon="2.10633">
        <ele>66.6</ele>
        <time>2025-03-12T17:11:21.779Z</time>
      </trkpt>
      <trkpt lat="48.57622" lon="2.10636">
        <ele>66.8</ele>
        <time>2025-03-12T17:11:25.165Z</time>
      </trkpt>
      <trkpt lat="48.5763" lon="2.10633">
        <ele>66.6</ele>
        <time>2025-03-12T17:11:30.027Z</time>
      </trkpt>
      <trkpt lat="48.57638" lon="2.1063">
        <ele>66.3</ele>
        <time>2025-03-12T17:11:34.889Z</time>
      </trkpt>
      <trkpt lat="48.57645" lon="2.10626">
        <ele>66.1</ele>
        <time>2025-03-12T17:11:39.751Z</time>
      </trkpt>
      <trkpt lat="48.57653" lon="2.10623">
        <ele>65.9</ele>
        <time>2025-03-12T17:11:44.613Z</time>
      </trkpt>
      <trkpt lat="48.57658" lon="2.10622">
        <ele>65.8</ele>
        <time>2025-03-12T17:11:47.733Z</time>
      </trkpt>
      <trkpt lat="48.57662" lon="2.1062">
        <ele>65.7</ele>
        <time>2025-03-12T17:11:50.853Z</time>
      </trkpt>
      <trkpt lat="48.57667" lon="2.10619">
        <ele>65.6</ele>
        <time>2025-03-12T17:11:53.973Z</time>
      </trkpt>
      <trkpt lat="48.57672" lon="2.10618">
        <ele>65.7</ele>
        <time>2025-03-12T17:11:57.093Z</time>
      </trkpt>
      <trkpt lat="48.57676" lon="2.10617">
        <ele>65.7</ele>
        <time>2025-03-12T17:12:00.213Z</time>
      </trkpt>
      <trkpt lat="48.57681" lon="2.10615">
        <ele>65.8</ele>
        <time>2025-03-12T17:12:03.333Z</time>
      </trkpt>
      <trkpt lat="48.57686" lon="2.10614">
        <ele>65.9</ele>
        <time>2025-03-12T17:12:06.453Z</time>
      </trkpt>
      <trkpt lat="48.5769" lon="2.10613">
        <ele>66</ele>
        <time>2025-03-12T17:12:09.573Z</time>
      </trkpt>
      <trkpt lat="48.57695" lon="2.10612">
        <ele>66</ele>
        <time>2025-03-12T17:12:12.693Z</time>
      </trkpt>
      <trkpt lat="48.577" lon="2.1061">
        <ele>66</ele>
        <time>2025-03-12T17:12:15.813Z</time>
      </trkpt>
      <trkpt lat="48.57704" lon="2.10609">
        <ele>65.9</ele>
        <time>2025-03-12T17:12:18.933Z</time>
      </trkpt>
      <trkpt lat="48.57709" lon="2.10608">
        <ele>65.9</ele>
        <time>2025-03-12T17:12:22.053Z</time>
      </trkpt>
      <trkpt lat="48.57714" lon="2.10606">
        <ele>65.8</ele>
        <time>2025-03-12T17:12:25.173Z</time>
      </trkpt>
      <trkpt lat="48.57718" lon="2.10605">
        <ele>65.8</ele>
        <time>2025-03-12T17:12:28.293Z</time>
      </trkpt>
      <trkpt lat="48.57723" lon="2.10604">
        <ele>65.8</ele>
        <time>2025-03-12T17:12:31.413Z</time>
      </trkpt>
      <trkpt lat="48.57728" lon="2.10603">
        <ele>65.8</ele>
        <time>2025-03-12T17:12:34.533Z</time>
      </trkpt>
      <trkpt lat="48.57732" lon="2.10601">
        <ele>65.9</ele>
        <time>2025-03-12T17:12:37.653Z</time>
      </trkpt>
      <trkpt lat="48.57737" lon="2.106">
        <ele>65.9</ele>
        <time>2025-03-12T17:12:40.773Z</time>
      </trkpt>
      <trkpt lat="48.57742" lon="2.10599">
        <ele>65.9</ele>
        <time>2025-03-12T17:12:43.893Z</time>
      </trkpt>
      <trkpt lat="48.57746" lon="2.10597">
        <ele>65.9</ele>
        <time>2025-03-12T17:12:47.013Z</time>
      </trkpt>
      <trkpt lat="48.57751" lon="2.10596">
        <ele>65.9</ele>
        <time>2025-03-12T17:12:50.133Z</time>
      </trkpt>
      <trkpt lat="48.57755" lon="2.10595">
        <ele>65.9</ele>
        <time>2025-03-12T17:12:53.253Z</time>
      </trkpt>
      <trkpt lat="48.5776" lon="2.10594">
        <ele>66</ele>
        <time>2025-03-12T17:12:56.373Z</time>
      </trkpt>
      <trkpt lat="48.57765" lon="2.10592">
        <ele>66</ele>
        <time>2025-03-12T17:12:59.493Z</time>
      </trkpt>
      <trkpt lat="48.57769" lon="2.10591">
        <ele>66.1</ele>
        <time>2025-03-12T17:13:02.613Z</time>
      </trkpt>
      <trkpt lat="48.57774" lon="2.1059">
        <ele>66.1</ele>
        <time>2025-03-12T17:13:05.733Z</time>
      </trkpt>
      <trkpt lat="48.57779" lon="2.10588">
        <ele>66.2</ele>
        <time>2025-03-12T17:13:08.853Z</time>
      </trkpt>
      <trkpt lat="48.57783" lon="2.10587">
        <ele>66.2</ele>
        <time>2025-03-12T17:13:11.973Z</time>
      </trkpt>
      <trkpt lat="48.57788" lon="2.10586">
        <ele>66.1</ele>
        <time>2025-03-12T17:13:15.093Z</time>
      </trkpt>
      <trkpt lat="48.57793" lon="2.10585">
        <ele>66.1</ele>
        <time>2025-03-12T17:13:18.213Z</time>
      </trkpt>
      <trkpt lat="48.57797" lon="2.10583">
        <ele>66</ele>
        <time>2025-03-12T17:13:21.333Z</time>
      </trkpt>
      <trkpt lat="48.57802" lon="2.10582">
        <ele>66</ele>
        <time>2025-03-12T17:13:24.454Z</time>
      </trkpt>
      <trkpt lat="48.57808" lon="2.10581">
        <ele>66</ele>
        <time>2025-03-12T17:13:28.350Z</time>
      </trkpt>
      <trkpt lat="48.57813" lon="2.1058">
        <ele>66.1</ele>
        <time>2025-03-12T17:13:32.247Z</time>
      </trkpt>
      <trkpt lat="48.57819" lon="2.10578">
        <ele>66.3</ele>
        <time>2025-03-12T17:13:36.144Z</time>
      </trkpt>
      <trkpt lat="48.57825" lon="2.10577">
        <ele>66.5</ele>
        <time>2025-03-12T17:13:40.041Z</time>
      </trkpt>
      <trkpt lat="48.5783" lon="2.10576">
        <ele>66.6</ele>
        <time>2025-03-12T17:13:43.938Z</time>
      </trkpt>
      <trkpt lat="48.57836" lon="2.10575">
        <ele>66.7</ele>
        <time>2025-03-12T17:13:47.835Z</time>
      </trkpt>
      <trkpt lat="48.57841" lon="2.10573">
        <ele>66.6</ele>
        <time>2025-03-12T17:13:51.732Z</time>
      </trkpt>
      <trkpt lat="48.57847" lon="2.10572">
        <ele>66.6</ele>
        <time>2025-03-12T17:13:55.629Z</time>
      </trkpt>
      <trkpt lat="48.57853" lon="2.10571">
        <ele>66.6</ele>
        <time>2025-03-12T17:13:59.255Z</time>
      </trkpt>
      <trkpt lat="48.57858" lon="2.1057">
        <ele>66.5</ele>
        <time>2025-03-12T17:14:02.881Z</time>
      </trkpt>
      <trkpt lat="48.57864" lon="2.1057">
        <ele>66.5</ele>
        <time>2025-03-12T17:14:06.507Z</time>
      </trkpt>
      <trkpt lat="48.57869" lon="2.10569">
        <ele>66.5</ele>
        <time>2025-03-12T17:14:10.133Z</time>
      </trkpt>
      <trkpt lat="48.57875" lon="2.10568">
        <ele>66.4</ele>
        <time>2025-03-12T17:14:13.759Z</time>
      </trkpt>
      <trkpt lat="48.5788" lon="2.10567">
        <ele>66.4</ele>
        <time>2025-03-12T17:14:17.385Z</time>
      </trkpt>
      <trkpt lat="48.57886" lon="2.10566">
        <ele>66.4</ele>
        <time>2025-03-12T17:14:21.011Z</time>
      </trkpt>
      <trkpt lat="48.57892" lon="2.10566">
        <ele>66.4</ele>
        <time>2025-03-12T17:14:24.637Z</time>
      </trkpt>
      <trkpt lat="48.57897" lon="2.10565">
        <ele>66.3</ele>
        <time>2025-03-12T17:14:28.264Z</time>
      </trkpt>
      <trkpt lat="48.57903" lon="2.10564">
        <ele>66.3</ele>
        <time>2025-03-12T17:14:31.891Z</time>
      </trkpt>
      <trkpt lat="48.57908" lon="2.10563">
        <ele>66.3</ele>
        <time>2025-03-12T17:14:35.518Z</time>
      </trkpt>
      <trkpt lat="48.57914" lon="2.10562">
        <ele>66.2</ele>
        <time>2025-03-12T17:14:39.145Z</time>
      </trkpt>
      <trkpt lat="48.57919" lon="2.10561">
        <ele>66.2</ele>
        <time>2025-03-12T17:14:42.772Z</time>
      </trkpt>
      <trkpt lat="48.57925" lon="2.10561">
        <ele>66.2</ele>
        <time>2025-03-12T17:14:46.399Z</time>
      </trkpt>
      <trkpt lat="48.5793" lon="2.1056">
        <ele>66.2</ele>
        <time>2025-03-12T17:14:50.026Z</time>
      </trkpt>
      <trkpt lat="48.57936" lon="2.10559">
        <ele>66.2</ele>
        <time>2025-03-12T17:14:53.653Z</time>
      </trkpt>
      <trkpt lat="48.57942" lon="2.10559">
        <ele>66.2</ele>
        <time>2025-03-12T17:14:57.392Z</time>
      </trkpt>
      <trkpt lat="48.57948" lon="2.10558">
        <ele>66.2</ele>
        <time>2025-03-12T17:15:01.131Z</time>
      </trkpt>
      <trkpt lat="48.57953" lon="2.10558">
        <ele>66.1</ele>
        <time>2025-03-12T17:15:04.870Z</time>
      </trkpt>
      <trkpt lat="48.57959" lon="2.10557">
        <ele>66.1</ele>
        <time>2025-03-12T17:15:08.609Z</time>
      </trkpt>
      <trkpt lat="48.57965" lon="2.10558">
        <ele>66.1</ele>
        <time>2025-03-12T17:15:12.285Z</time>
      </trkpt>
      <trkpt lat="48.5797" lon="2.10558">
        <ele>66.2</ele>
        <time>2025-03-12T17:15:15.961Z</time>
      </trkpt>
      <trkpt lat="48.57976" lon="2.10559">
        <ele>66.2</ele>
        <time>2025-03-12T17:15:19.637Z</time>
      </trkpt>
      <trkpt lat="48.57981" lon="2.10559">
        <ele>66.2</ele>
        <time>2025-03-12T17:15:23.314Z</time>
      </trkpt>
      <trkpt lat="48.57986" lon="2.10561">
        <ele>66.3</ele>
        <time>2025-03-12T17:15:26.794Z</time>
      </trkpt>
      <trkpt lat="48.57991" lon="2.10563">
        <ele>66.3</ele>
        <time>2025-03-12T17:15:30.274Z</time>
      </trkpt>
      <trkpt lat="48.57996" lon="2.10564">
        <ele>66.4</ele>
        <time>2025-03-12T17:15:33.754Z</time>
      </trkpt>
      <trkpt lat="48.58001" lon="2.10566">
        <ele>66.4</ele>
        <time>2025-03-12T17:15:37.234Z</time>
      </trkpt>
      <trkpt lat="48.58007" lon="2.10569">
        <ele>66.4</ele>
        <time>2025-03-12T17:15:41.124Z</time>
      </trkpt>
      <trkpt lat="48.58013" lon="2.10573">
        <ele>66.3</ele>
        <time>2025-03-12T17:15:45.015Z</time>
      </trkpt>
      <trkpt lat="48.58018" lon="2.10576">
        <ele>66.2</ele>
        <time>2025-03-12T17:15:48.906Z</time>
      </trkpt>
      <trkpt lat="48.58024" lon="2.10579">
        <ele>66.1</ele>
        <time>2025-03-12T17:15:52.797Z</time>
      </trkpt>
      <trkpt lat="48.58029" lon="2.10583">
        <ele>66</ele>
        <time>2025-03-12T17:15:56.338Z</time>
      </trkpt>
      <trkpt lat="48.58033" lon="2.10586">
        <ele>66.2</ele>
        <time>2025-03-12T17:15:59.879Z</time>
      </trkpt>
      <trkpt lat="48.58038" lon="2.1059">
        <ele>66.4</ele>
        <time>2025-03-12T17:16:03.420Z</time>
      </trkpt>
      <trkpt lat="48.58042" lon="2.10593">
        <ele>66.5</ele>
        <time>2025-03-12T17:16:06.961Z</time>
      </trkpt>
      <trkpt lat="48.58046" lon="2.10598">
        <ele>66.7</ele>
        <time>2025-03-12T17:16:10.641Z</time>
      </trkpt>
      <trkpt lat="48.58051" lon="2.10602">
        <ele>66.8</ele>
        <time>2025-03-12T17:16:14.322Z</time>
      </trkpt>
      <trkpt lat="48.58055" lon="2.10607">
        <ele>66.9</ele>
        <time>2025-03-12T17:16:18.003Z</time>
      </trkpt>
      <trkpt lat="48.58059" lon="2.10611">
        <ele>67</ele>
        <time>2025-03-12T17:16:21.684Z</time>
      </trkpt>
      <trkpt lat="48.58063" lon="2.10616">
        <ele>67.1</ele>
        <time>2025-03-12T17:16:24.889Z</time>
      </trkpt>
      <trkpt lat="48.58066" lon="2.10621">
        <ele>67.2</ele>
        <time>2025-03-12T17:16:28.094Z</time>
      </trkpt>
      <trkpt lat="48.5807" lon="2.10625">
        <ele>67.2</ele>
        <time>2025-03-12T17:16:31.299Z</time>
      </trkpt>
      <trkpt lat="48.58074" lon="2.1063">
        <ele>67.2</ele>
        <time>2025-03-12T17:16:34.504Z</time>
      </trkpt>
      <trkpt lat="48.58077" lon="2.10635">
        <ele>67.2</ele>
        <time>2025-03-12T17:16:37.709Z</time>
      </trkpt>
      <trkpt lat="48.58081" lon="2.1064">
        <ele>67.1</ele>
        <time>2025-03-12T17:16:40.914Z</time>
      </trkpt>
      <trkpt lat="48.58085" lon="2.10645">
        <ele>67</ele>
        <time>2025-03-12T17:16:44.119Z</time>
      </trkpt>
      <trkpt lat="48.58089" lon="2.1065">
        <ele>67</ele>
        <time>2025-03-12T17:16:47.324Z</time>
      </trkpt>
      <trkpt lat="48.58092" lon="2.10654">
        <ele>67</ele>
        <time>2025-03-12T17:16:50.529Z</time>
      </trkpt>
      <trkpt lat="48.58096" lon="2.10659">
        <ele>67</ele>
        <time>2025-03-12T17:16:53.734Z</time>
      </trkpt>
      <trkpt lat="48.581" lon="2.10664">
        <ele>67</ele>
        <time>2025-03-12T17:16:56.939Z</time>
      </trkpt>
      <trkpt lat="48.58103" lon="2.10669">
        <ele>67</ele>
        <time>2025-03-12T17:17:00.144Z</time>
      </trkpt>
      <trkpt lat="48.58107" lon="2.10674">
        <ele>67.1</ele>
        <time>2025-03-12T17:17:03.349Z</time>
      </trkpt>
      <trkpt lat="48.58111" lon="2.10678">
        <ele>67</ele>
        <time>2025-03-12T17:17:06.554Z</time>
      </trkpt>
      <trkpt lat="48.58114" lon="2.10683">
        <ele>67</ele>
        <time>2025-03-12T17:17:09.760Z</time>
      </trkpt>
      <trkpt lat="48.58118" lon="2.10688">
        <ele>67</ele>
        <time>2025-03-12T17:17:12.966Z</time>
      </trkpt>
      <trkpt lat="48.58124" lon="2.10696">
        <ele>67</ele>
        <time>2025-03-12T17:17:18.251Z</time>
      </trkpt>
      <trkpt lat="48.5813" lon="2.10703">
        <ele>67.1</ele>
        <time>2025-03-12T17:17:23.537Z</time>
      </trkpt>
      <trkpt lat="48.58136" lon="2.10711">
        <ele>67.1</ele>
        <time>2025-03-12T17:17:28.823Z</time>
      </trkpt>
      <trkpt lat="48.58142" lon="2.10719">
        <ele>67</ele>
        <time>2025-03-12T17:17:34.109Z</time>
      </trkpt>
      <trkpt lat="48.58148" lon="2.10726">
        <ele>67.1</ele>
        <time>2025-03-12T17:17:39.395Z</time>
      </trkpt>
      <trkpt lat="48.58154" lon="2.10734">
        <ele>67.2</ele>
        <time>2025-03-12T17:17:44.681Z</time>
      </trkpt>
      <trkpt lat="48.5816" lon="2.10741">
        <ele>67.2</ele>
        <time>2025-03-12T17:17:49.967Z</time>
      </trkpt>
      <trkpt lat="48.58166" lon="2.10749">
        <ele>67</ele>
        <time>2025-03-12T17:17:55.253Z</time>
      </trkpt>
      <trkpt lat="48.58172" lon="2.10757">
        <ele>67.4</ele>
        <time>2025-03-12T17:18:00.539Z</time>
      </trkpt>
      <trkpt lat="48.58178" lon="2.10764">
        <ele>67.7</ele>
        <time>2025-03-12T17:18:05.825Z</time>
      </trkpt>
      <trkpt lat="48.58184" lon="2.10772">
        <ele>67.9</ele>
        <time>2025-03-12T17:18:11.111Z</time>
      </trkpt>
      <trkpt lat="48.5819" lon="2.1078">
        <ele>68</ele>
        <time>2025-03-12T17:18:16.397Z</time>
      </trkpt>
      <trkpt lat="48.58196" lon="2.10787">
        <ele>68</ele>
        <time>2025-03-12T17:18:21.683Z</time>
      </trkpt>
      <trkpt lat="48.58202" lon="2.10795">
        <ele>68</ele>
        <time>2025-03-12T17:18:26.969Z</time>
      </trkpt>
      <trkpt lat="48.58208" lon="2.10802">
        <ele>68</ele>
        <time>2025-03-12T17:18:32.255Z</time>
      </trkpt>
      <trkpt lat="48.58214" lon="2.1081">
        <ele>68</ele>
        <time>2025-03-12T17:18:37.541Z</time>
      </trkpt>
      <trkpt lat="48.58219" lon="2.10815">
        <ele>68</ele>
        <time>2025-03-12T17:18:41.485Z</time>
      </trkpt>
      <trkpt lat="48.58224" lon="2.1082">
        <ele>68</ele>
        <time>2025-03-12T17:18:45.429Z</time>
      </trkpt>
      <trkpt lat="48.58229" lon="2.10825">
        <ele>68</ele>
        <time>2025-03-12T17:18:49.373Z</time>
      </trkpt>
      <trkpt lat="48.58234" lon="2.1083">
        <ele>68</ele>
        <time>2025-03-12T17:18:53.318Z</time>
      </trkpt>
      <trkpt lat="48.5824" lon="2.10834">
        <ele>68</ele>
        <time>2025-03-12T17:18:57.333Z</time>
      </trkpt>
      <trkpt lat="48.58245" lon="2.10838">
        <ele>68</ele>
        <time>2025-03-12T17:19:01.348Z</time>
      </trkpt>
      <trkpt lat="48.58251" lon="2.10842">
        <ele>68</ele>
        <time>2025-03-12T17:19:05.364Z</time>
      </trkpt>
      <trkpt lat="48.58256" lon="2.10846">
        <ele>68</ele>
        <time>2025-03-12T17:19:09.380Z</time>
      </trkpt>
      <trkpt lat="48.58262" lon="2.10849">
        <ele>68</ele>
        <time>2025-03-12T17:19:13.265Z</time>
      </trkpt>
      <trkpt lat="48.58267" lon="2.10853">
        <ele>68</ele>
        <time>2025-03-12T17:19:17.150Z</time>
      </trkpt>
      <trkpt lat="48.58273" lon="2.10856">
        <ele>68</ele>
        <time>2025-03-12T17:19:21.035Z</time>
      </trkpt>
      <trkpt lat="48.58278" lon="2.10859">
        <ele>68</ele>
        <time>2025-03-12T17:19:24.920Z</time>
      </trkpt>
      <trkpt lat="48.58284" lon="2.10862">
        <ele>68</ele>
        <time>2025-03-12T17:19:29.329Z</time>
      </trkpt>
      <trkpt lat="48.58291" lon="2.10864">
        <ele>68.1</ele>
        <time>2025-03-12T17:19:33.738Z</time>
      </trkpt>
      <trkpt lat="48.58297" lon="2.10867">
        <ele>68.2</ele>
        <time>2025-03-12T17:19:38.147Z</time>
      </trkpt>
      <trkpt lat="48.58303" lon="2.10869">
        <ele>68.3</ele>
        <time>2025-03-12T17:19:42.557Z</time>
      </trkpt>
      <trkpt lat="48.58309" lon="2.10871">
        <ele>68.4</ele>
        <time>2025-03-12T17:19:47.040Z</time>
      </trkpt>
      <trkpt lat="48.58316" lon="2.10872">
        <ele>68.6</ele>
        <time>2025-03-12T17:19:51.523Z</time>
      </trkpt>
      <trkpt lat="48.58322" lon="2.10874">
        <ele>68.8</ele>
        <time>2025-03-12T17:19:56.007Z</time>
      </trkpt>
      <trkpt lat="48.58328" lon="2.10875">
        <ele>68.9</ele>
        <time>2025-03-12T17:20:00.491Z</time>
      </trkpt>
      <trkpt lat="48.58335" lon="2.10876">
        <ele>69</ele>
        <time>2025-03-12T17:20:04.798Z</time>
      </trkpt>
      <trkpt lat="48.58341" lon="2.10876">
        <ele>69</ele>
        <time>2025-03-12T17:20:09.105Z</time>
      </trkpt>
      <trkpt lat="48.58348" lon="2.10877">
        <ele>69</ele>
        <time>2025-03-12T17:20:13.412Z</time>
      </trkpt>
      <trkpt lat="48.58354" lon="2.10877">
        <ele>69</ele>
        <time>2025-03-12T17:20:17.719Z</time>
      </trkpt>
      <trkpt lat="48.58361" lon="2.10878">
        <ele>69</ele>
        <time>2025-03-12T17:20:22.026Z</time>
      </trkpt>
      <trkpt lat="48.58367" lon="2.10878">
        <ele>69</ele>
        <time>2025-03-12T17:20:26.333Z</time>
      </trkpt>
      <trkpt lat="48.58374" lon="2.10879">
        <ele>69</ele>
        <time>2025-03-12T17:20:30.641Z</time>
      </trkpt>
      <trkpt lat="48.5838" lon="2.10879">
        <ele>69</ele>
        <time>2025-03-12T17:20:34.949Z</time>
      </trkpt>
      <trkpt lat="48.58385" lon="2.10884">
        <ele>69</ele>
        <time>2025-03-12T17:20:38.777Z</time>
      </trkpt>
      <trkpt lat="48.5839" lon="2.10888">
        <ele>69</ele>
        <time>2025-03-12T17:20:42.606Z</time>
      </trkpt>
      <trkpt lat="48.5839" lon="2.109">
        <ele>69.4</ele>
        <time>2025-03-12T17:20:48.735Z</time>
      </trkpt>
      <trkpt lat="48.5839" lon="2.10912">
        <ele>69.8</ele>
        <time>2025-03-12T17:20:54.865Z</time>
      </trkpt>
      <trkpt lat="48.58388" lon="2.10921">
        <ele>70</ele>
        <time>2025-03-12T17:20:59.233Z</time>
      </trkpt>
      <trkpt lat="48.58385" lon="2.10929">
        <ele>70.1</ele>
        <time>2025-03-12T17:21:03.603Z</time>
        <extensions>
          <visugpx:TrkExtension xmlns:visugpx="https://www.visugpx.com/editgpx/">
            <visugpx:node>4</visugpx:node>
            </visugpx:TrkExtension>
        </extensions>
      </trkpt>
      <trkpt lat="48.58381" lon="2.1094">
        <ele>70.2</ele>
        <time>2025-03-12T17:21:09.274Z</time>
      </trkpt>
      <trkpt lat="48.5838" lon="2.10951">
        <ele>70.5</ele>
        <time>2025-03-12T17:21:14.811Z</time>
      </trkpt>
      <trkpt lat="48.58379" lon="2.10961">
        <ele>71</ele>
        <time>2025-03-12T17:21:20.349Z</time>
      </trkpt>
      <trkpt lat="48.5838" lon="2.1097">
        <ele>71.2</ele>
        <time>2025-03-12T17:21:25.156Z</time>
      </trkpt>
      <trkpt lat="48.58382" lon="2.10978">
        <ele>71.6</ele>
        <time>2025-03-12T17:21:29.964Z</time>
      </trkpt>
      <trkpt lat="48.58383" lon="2.10987">
        <ele>72.1</ele>
        <time>2025-03-12T17:21:34.772Z</time>
      </trkpt>
      <trkpt lat="48.58384" lon="2.10995">
        <ele>72.7</ele>
        <time>2025-03-12T17:21:39.580Z</time>
      </trkpt>
      <trkpt lat="48.58387" lon="2.11004">
        <ele>73.1</ele>
        <time>2025-03-12T17:21:44.745Z</time>
      </trkpt>
      <trkpt lat="48.58391" lon="2.11013">
        <ele>73.4</ele>
        <time>2025-03-12T17:21:49.910Z</time>
      </trkpt>
      <trkpt lat="48.58394" lon="2.11021">
        <ele>73.7</ele>
        <time>2025-03-12T17:21:55.075Z</time>
      </trkpt>
      <trkpt lat="48.58397" lon="2.1103">
        <ele>74.1</ele>
        <time>2025-03-12T17:22:00.240Z</time>
      </trkpt>
      <trkpt lat="48.584" lon="2.11039">
        <ele>74.6</ele>
        <time>2025-03-12T17:22:05.507Z</time>
      </trkpt>
      <trkpt lat="48.58402" lon="2.11047">
        <ele>75.1</ele>
        <time>2025-03-12T17:22:10.775Z</time>
      </trkpt>
      <trkpt lat="48.58402" lon="2.11056">
        <ele>75.6</ele>
        <time>2025-03-12T17:22:16.401Z</time>
      </trkpt>
      <trkpt lat="48.58401" lon="2.11065">
        <ele>76.4</ele>
        <time>2025-03-12T17:22:22.029Z</time>
      </trkpt>
      <trkpt lat="48.58399" lon="2.11077">
        <ele>77.7</ele>
        <time>2025-03-12T17:22:30.578Z</time>
      </trkpt>
      <trkpt lat="48.58396" lon="2.11088">
        <ele>78.7</ele>
        <time>2025-03-12T17:22:39.128Z</time>
      </trkpt>
      <trkpt lat="48.58396" lon="2.11099">
        <ele>79.2</ele>
        <time>2025-03-12T17:22:45.542Z</time>
      </trkpt>
      <trkpt lat="48.58395" lon="2.1111">
        <ele>79.7</ele>
        <time>2025-03-12T17:22:51.956Z</time>
      </trkpt>
      <trkpt lat="48.58395" lon="2.11121">
        <ele>80.5</ele>
        <time>2025-03-12T17:22:58.370Z</time>
      </trkpt>
      <trkpt lat="48.58394" lon="2.11132">
        <ele>81.3</ele>
        <time>2025-03-12T17:23:04.785Z</time>
      </trkpt>
      <trkpt lat="48.58395" lon="2.1114">
        <ele>81.8</ele>
        <time>2025-03-12T17:23:09.563Z</time>
      </trkpt>
      <trkpt lat="48.58396" lon="2.11148">
        <ele>82.4</ele>
        <time>2025-03-12T17:23:14.341Z</time>
      </trkpt>
      <trkpt lat="48.58397" lon="2.11155">
        <ele>82.9</ele>
        <time>2025-03-12T17:23:19.120Z</time>
      </trkpt>
      <trkpt lat="48.58398" lon="2.11163">
        <ele>83.4</ele>
        <time>2025-03-12T17:23:23.899Z</time>
      </trkpt>
      <trkpt lat="48.58402" lon="2.11173">
        <ele>83.9</ele>
        <time>2025-03-12T17:23:30.375Z</time>
      </trkpt>
      <trkpt lat="48.58406" lon="2.11184">
        <ele>84.4</ele>
        <time>2025-03-12T17:23:36.851Z</time>
      </trkpt>
      <trkpt lat="48.58409" lon="2.11194">
        <ele>85</ele>
        <time>2025-03-12T17:23:43.327Z</time>
      </trkpt>
      <trkpt lat="48.58413" lon="2.11204">
        <ele>85.7</ele>
        <time>2025-03-12T17:23:49.804Z</time>
      </trkpt>
      <trkpt lat="48.58415" lon="2.11215">
        <ele>86.5</ele>
        <time>2025-03-12T17:23:56.712Z</time>
      </trkpt>
      <trkpt lat="48.58417" lon="2.11226">
        <ele>87.2</ele>
        <time>2025-03-12T17:24:03.620Z</time>
      </trkpt>
      <trkpt lat="48.58418" lon="2.11236">
        <ele>88.1</ele>
        <time>2025-03-12T17:24:10.528Z</time>
      </trkpt>
      <trkpt lat="48.5842" lon="2.11247">
        <ele>88.9</ele>
        <time>2025-03-12T17:24:17.436Z</time>
      </trkpt>
      <trkpt lat="48.5842" lon="2.11257">
        <ele>89.6</ele>
        <time>2025-03-12T17:24:23.421Z</time>
      </trkpt>
      <trkpt lat="48.58421" lon="2.11266">
        <ele>90.3</ele>
        <time>2025-03-12T17:24:29.406Z</time>
      </trkpt>
      <trkpt lat="48.58421" lon="2.11276">
        <ele>91</ele>
        <time>2025-03-12T17:24:35.392Z</time>
      </trkpt>
      <trkpt lat="48.58422" lon="2.11286">
        <ele>91.7</ele>
        <time>2025-03-12T17:24:41.378Z</time>
      </trkpt>
      <trkpt lat="48.58422" lon="2.11295">
        <ele>92.4</ele>
        <time>2025-03-12T17:24:47.364Z</time>
      </trkpt>
      <trkpt lat="48.58422" lon="2.11305">
        <ele>93.1</ele>
        <time>2025-03-12T17:24:53.350Z</time>
      </trkpt>
      <trkpt lat="48.58423" lon="2.11314">
        <ele>93.8</ele>
        <time>2025-03-12T17:24:59.336Z</time>
      </trkpt>
      <trkpt lat="48.58423" lon="2.11324">
        <ele>94.4</ele>
        <time>2025-03-12T17:25:05.322Z</time>
      </trkpt>
      <trkpt lat="48.58422" lon="2.11334">
        <ele>95</ele>
        <time>2025-03-12T17:25:09.909Z</time>
      </trkpt>
      <trkpt lat="48.58421" lon="2.11344">
        <ele>95.4</ele>
        <time>2025-03-12T17:25:14.496Z</time>
      </trkpt>
      <trkpt lat="48.58419" lon="2.11354">
        <ele>95.7</ele>
        <time>2025-03-12T17:25:19.083Z</time>
      </trkpt>
      <trkpt lat="48.58418" lon="2.11364">
        <ele>96.1</ele>
        <time>2025-03-12T17:25:23.671Z</time>
      </trkpt>
      <trkpt lat="48.58417" lon="2.11373">
        <ele>96.4</ele>
        <time>2025-03-12T17:25:28.259Z</time>
      </trkpt>
      <trkpt lat="48.58416" lon="2.11383">
        <ele>96.8</ele>
        <time>2025-03-12T17:25:32.847Z</time>
      </trkpt>
      <trkpt lat="48.58415" lon="2.11393">
        <ele>97.2</ele>
        <time>2025-03-12T17:25:37.435Z</time>
      </trkpt>
      <trkpt lat="48.58413" lon="2.11403">
        <ele>97.5</ele>
        <time>2025-03-12T17:25:42.023Z</time>
      </trkpt>
      <trkpt lat="48.58412" lon="2.11413">
        <ele>97.9</ele>
        <time>2025-03-12T17:25:46.611Z</time>
      </trkpt>
      <trkpt lat="48.58411" lon="2.11423">
        <ele>98</ele>
        <time>2025-03-12T17:25:51.199Z</time>
      </trkpt>
      <trkpt lat="48.5841" lon="2.11433">
        <ele>98</ele>
        <time>2025-03-12T17:25:55.787Z</time>
      </trkpt>
      <trkpt lat="48.58408" lon="2.11443">
        <ele>98</ele>
        <time>2025-03-12T17:26:00.375Z</time>
      </trkpt>
      <trkpt lat="48.58407" lon="2.11452">
        <ele>98.3</ele>
        <time>2025-03-12T17:26:04.963Z</time>
      </trkpt>
      <trkpt lat="48.58406" lon="2.11462">
        <ele>98.6</ele>
        <time>2025-03-12T17:26:09.551Z</time>
      </trkpt>
      <trkpt lat="48.58405" lon="2.11472">
        <ele>99</ele>
        <time>2025-03-12T17:26:14.139Z</time>
      </trkpt>
      <trkpt lat="48.58404" lon="2.11482">
        <ele>99</ele>
        <time>2025-03-12T17:26:18.727Z</time>
      </trkpt>
      <trkpt lat="48.58402" lon="2.11492">
        <ele>99</ele>
        <time>2025-03-12T17:26:23.315Z</time>
      </trkpt>
      <trkpt lat="48.58401" lon="2.11502">
        <ele>99</ele>
        <time>2025-03-12T17:26:27.903Z</time>
      </trkpt>
      <trkpt lat="48.584" lon="2.11512">
        <ele>99</ele>
        <time>2025-03-12T17:26:32.491Z</time>
      </trkpt>
      <trkpt lat="48.58399" lon="2.11522">
        <ele>99</ele>
        <time>2025-03-12T17:26:37.079Z</time>
      </trkpt>
      <trkpt lat="48.58397" lon="2.11531">
        <ele>99.1</ele>
        <time>2025-03-12T17:26:41.667Z</time>
      </trkpt>
      <trkpt lat="48.58396" lon="2.11541">
        <ele>99.5</ele>
        <time>2025-03-12T17:26:46.255Z</time>
      </trkpt>
      <trkpt lat="48.58395" lon="2.11551">
        <ele>99.8</ele>
        <time>2025-03-12T17:26:50.843Z</time>
      </trkpt>
      <trkpt lat="48.58394" lon="2.11561">
        <ele>100</ele>
        <time>2025-03-12T17:26:55.431Z</time>
      </trkpt>
      <trkpt lat="48.58393" lon="2.11571">
        <ele>100</ele>
        <time>2025-03-12T17:27:00.019Z</time>
      </trkpt>
      <trkpt lat="48.58391" lon="2.11581">
        <ele>100</ele>
        <time>2025-03-12T17:27:04.607Z</time>
      </trkpt>
      <trkpt lat="48.5839" lon="2.11591">
        <ele>100</ele>
        <time>2025-03-12T17:27:09.195Z</time>
      </trkpt>
      <trkpt lat="48.58389" lon="2.11601">
        <ele>100</ele>
        <time>2025-03-12T17:27:13.783Z</time>
      </trkpt>
      <trkpt lat="48.58388" lon="2.1161">
        <ele>100</ele>
        <time>2025-03-12T17:27:18.371Z</time>
      </trkpt>
      <trkpt lat="48.58386" lon="2.1162">
        <ele>100</ele>
        <time>2025-03-12T17:27:22.959Z</time>
      </trkpt>
      <trkpt lat="48.58385" lon="2.1163">
        <ele>100</ele>
        <time>2025-03-12T17:27:27.547Z</time>
      </trkpt>
      <trkpt lat="48.58384" lon="2.1164">
        <ele>100</ele>
        <time>2025-03-12T17:27:32.135Z</time>
      </trkpt>
      <trkpt lat="48.58383" lon="2.1165">
        <ele>100</ele>
        <time>2025-03-12T17:27:36.723Z</time>
      </trkpt>
      <trkpt lat="48.58382" lon="2.1166">
        <ele>100</ele>
        <time>2025-03-12T17:27:41.311Z</time>
      </trkpt>
      <trkpt lat="48.5838" lon="2.1167">
        <ele>100</ele>
        <time>2025-03-12T17:27:45.899Z</time>
      </trkpt>
      <trkpt lat="48.58379" lon="2.1168">
        <ele>100.2</ele>
        <time>2025-03-12T17:27:50.487Z</time>
      </trkpt>
      <trkpt lat="48.58378" lon="2.11689">
        <ele>100.3</ele>
        <time>2025-03-12T17:27:55.075Z</time>
      </trkpt>
      <trkpt lat="48.58377" lon="2.11699">
        <ele>100.5</ele>
        <time>2025-03-12T17:27:59.663Z</time>
      </trkpt>
      <trkpt lat="48.58376" lon="2.11709">
        <ele>100.8</ele>
        <time>2025-03-12T17:28:04.251Z</time>
      </trkpt>
      <trkpt lat="48.58374" lon="2.11719">
        <ele>100.9</ele>
        <time>2025-03-12T17:28:08.839Z</time>
      </trkpt>
      <trkpt lat="48.58373" lon="2.11729">
        <ele>101</ele>
        <time>2025-03-12T17:28:13.427Z</time>
      </trkpt>
      <trkpt lat="48.58372" lon="2.11739">
        <ele>101</ele>
        <time>2025-03-12T17:28:18.015Z</time>
      </trkpt>
      <trkpt lat="48.58371" lon="2.11749">
        <ele>101</ele>
        <time>2025-03-12T17:28:22.603Z</time>
      </trkpt>
      <trkpt lat="48.58369" lon="2.11759">
        <ele>101</ele>
        <time>2025-03-12T17:28:27.191Z</time>
      </trkpt>
      <trkpt lat="48.58368" lon="2.11768">
        <ele>101</ele>
        <time>2025-03-12T17:28:31.779Z</time>
      </trkpt>
      <trkpt lat="48.58367" lon="2.11778">
        <ele>101</ele>
        <time>2025-03-12T17:28:36.367Z</time>
      </trkpt>
      <trkpt lat="48.58366" lon="2.11788">
        <ele>101</ele>
        <time>2025-03-12T17:28:40.955Z</time>
      </trkpt>
      <trkpt lat="48.58365" lon="2.11798">
        <ele>101</ele>
        <time>2025-03-12T17:28:45.543Z</time>
      </trkpt>
      <trkpt lat="48.58363" lon="2.11808">
        <ele>101</ele>
        <time>2025-03-12T17:28:50.131Z</time>
      </trkpt>
      <trkpt lat="48.58362" lon="2.11818">
        <ele>101</ele>
        <time>2025-03-12T17:28:54.719Z</time>
      </trkpt>
      <trkpt lat="48.58361" lon="2.11828">
        <ele>101</ele>
        <time>2025-03-12T17:28:59.307Z</time>
      </trkpt>
      <trkpt lat="48.5836" lon="2.11838">
        <ele>101</ele>
        <time>2025-03-12T17:29:03.895Z</time>
      </trkpt>
      <trkpt lat="48.58358" lon="2.11847">
        <ele>101</ele>
        <time>2025-03-12T17:29:08.483Z</time>
      </trkpt>
      <trkpt lat="48.58357" lon="2.11857">
        <ele>101</ele>
        <time>2025-03-12T17:29:13.071Z</time>
      </trkpt>
      <trkpt lat="48.58356" lon="2.11867">
        <ele>101</ele>
        <time>2025-03-12T17:29:17.659Z</time>
      </trkpt>
      <trkpt lat="48.58355" lon="2.11877">
        <ele>101</ele>
        <time>2025-03-12T17:29:22.247Z</time>
      </trkpt>
      <trkpt lat="48.58354" lon="2.11887">
        <ele>101</ele>
        <time>2025-03-12T17:29:26.835Z</time>
      </trkpt>
      <trkpt lat="48.58352" lon="2.11897">
        <ele>101</ele>
        <time>2025-03-12T17:29:31.423Z</time>
      </trkpt>
      <trkpt lat="48.58351" lon="2.11907">
        <ele>101</ele>
        <time>2025-03-12T17:29:36.011Z</time>
      </trkpt>
      <trkpt lat="48.5835" lon="2.11917">
        <ele>101</ele>
        <time>2025-03-12T17:29:40.599Z</time>
      </trkpt>
      <trkpt lat="48.58349" lon="2.11926">
        <ele>101</ele>
        <time>2025-03-12T17:29:45.187Z</time>
      </trkpt>
      <trkpt lat="48.58347" lon="2.11936">
        <ele>101</ele>
        <time>2025-03-12T17:29:49.775Z</time>
      </trkpt>
      <trkpt lat="48.58346" lon="2.11946">
        <ele>101</ele>
        <time>2025-03-12T17:29:54.363Z</time>
      </trkpt>
      <trkpt lat="48.58345" lon="2.11956">
        <ele>101</ele>
        <time>2025-03-12T17:29:58.953Z</time>
      </trkpt>
      <trkpt lat="48.58345" lon="2.11956">
        <ele>101</ele>
        <time>2025-03-12T17:29:58.953Z</time>
      </trkpt>
      <trkpt lat="48.58349" lon="2.1195">
        <ele>101</ele>
        <time>2025-03-12T17:30:02.817Z</time>
      </trkpt>
      <trkpt lat="48.58353" lon="2.11943">
        <ele>101</ele>
        <time>2025-03-12T17:30:06.681Z</time>
      </trkpt>
      <trkpt lat="48.5836" lon="2.11938">
        <ele>101</ele>
        <time>2025-03-12T17:30:11.531Z</time>
      </trkpt>
      <trkpt lat="48.58366" lon="2.11932">
        <ele>101</ele>
        <time>2025-03-12T17:30:16.381Z</time>
      </trkpt>
      <trkpt lat="48.58373" lon="2.11927">
        <ele>101</ele>
        <time>2025-03-12T17:30:21.231Z</time>
      </trkpt>
      <trkpt lat="48.58379" lon="2.11921">
        <ele>101</ele>
        <time>2025-03-12T17:30:26.081Z</time>
      </trkpt>
      <trkpt lat="48.58386" lon="2.11916">
        <ele>101</ele>
        <time>2025-03-12T17:30:30.932Z</time>
      </trkpt>
      <trkpt lat="48.58392" lon="2.1191">
        <ele>100.9</ele>
        <time>2025-03-12T17:30:35.783Z</time>
      </trkpt>
      <trkpt lat="48.58399" lon="2.11905">
        <ele>100.8</ele>
        <time>2025-03-12T17:30:40.634Z</time>
      </trkpt>
      <trkpt lat="48.58405" lon="2.11899">
        <ele>100.8</ele>
        <time>2025-03-12T17:30:45.485Z</time>
      </trkpt>
      <trkpt lat="48.58411" lon="2.11893">
        <ele>100.9</ele>
        <time>2025-03-12T17:30:49.888Z</time>
      </trkpt>
      <trkpt lat="48.58417" lon="2.11888">
        <ele>101</ele>
        <time>2025-03-12T17:30:54.291Z</time>
      </trkpt>
      <trkpt lat="48.58422" lon="2.11882">
        <ele>100.8</ele>
        <time>2025-03-12T17:30:58.695Z</time>
      </trkpt>
      <trkpt lat="48.58428" lon="2.11877">
        <ele>100.8</ele>
        <time>2025-03-12T17:31:03.099Z</time>
      </trkpt>
      <trkpt lat="48.58434" lon="2.11871">
        <ele>100.8</ele>
        <time>2025-03-12T17:31:07.503Z</time>
      </trkpt>
      <trkpt lat="48.5844" lon="2.11866">
        <ele>100.9</ele>
        <time>2025-03-12T17:31:11.907Z</time>
      </trkpt>
      <trkpt lat="48.58445" lon="2.1186">
        <ele>101</ele>
        <time>2025-03-12T17:31:16.311Z</time>
      </trkpt>
      <trkpt lat="48.58451" lon="2.11855">
        <ele>100.8</ele>
        <time>2025-03-12T17:31:20.715Z</time>
      </trkpt>
      <trkpt lat="48.58457" lon="2.11849">
        <ele>100.8</ele>
        <time>2025-03-12T17:31:25.119Z</time>
      </trkpt>
      <trkpt lat="48.58463" lon="2.11843">
        <ele>100.8</ele>
        <time>2025-03-12T17:31:29.523Z</time>
      </trkpt>
      <trkpt lat="48.58468" lon="2.11838">
        <ele>100.9</ele>
        <time>2025-03-12T17:31:33.927Z</time>
      </trkpt>
      <trkpt lat="48.58474" lon="2.11832">
        <ele>100.9</ele>
        <time>2025-03-12T17:31:38.331Z</time>
      </trkpt>
      <trkpt lat="48.5848" lon="2.11827">
        <ele>100.7</ele>
        <time>2025-03-12T17:31:42.735Z</time>
      </trkpt>
      <trkpt lat="48.58486" lon="2.11821">
        <ele>100.5</ele>
        <time>2025-03-12T17:31:47.139Z</time>
      </trkpt>
      <trkpt lat="48.58491" lon="2.11816">
        <ele>100.3</ele>
        <time>2025-03-12T17:31:51.543Z</time>
      </trkpt>
      <trkpt lat="48.58497" lon="2.1181">
        <ele>100.1</ele>
        <time>2025-03-12T17:31:55.947Z</time>
      </trkpt>
      <trkpt lat="48.58502" lon="2.11806">
        <ele>100</ele>
        <time>2025-03-12T17:31:59.349Z</time>
      </trkpt>
      <trkpt lat="48.58506" lon="2.11803">
        <ele>100</ele>
        <time>2025-03-12T17:32:02.751Z</time>
      </trkpt>
      <trkpt lat="48.58511" lon="2.11799">
        <ele>100</ele>
        <time>2025-03-12T17:32:06.153Z</time>
      </trkpt>
      <trkpt lat="48.58516" lon="2.11796">
        <ele>100</ele>
        <time>2025-03-12T17:32:09.555Z</time>
      </trkpt>
      <trkpt lat="48.5852" lon="2.11792">
        <ele>100</ele>
        <time>2025-03-12T17:32:12.957Z</time>
      </trkpt>
      <trkpt lat="48.58525" lon="2.11788">
        <ele>100</ele>
        <time>2025-03-12T17:32:16.359Z</time>
      </trkpt>
      <trkpt lat="48.58529" lon="2.11785">
        <ele>100</ele>
        <time>2025-03-12T17:32:19.762Z</time>
      </trkpt>
      <trkpt lat="48.58534" lon="2.11781">
        <ele>100</ele>
        <time>2025-03-12T17:32:23.165Z</time>
      </trkpt>
      <trkpt lat="48.58542" lon="2.11774">
        <ele>99.9</ele>
        <time>2025-03-12T17:32:28.907Z</time>
      </trkpt>
      <trkpt lat="48.58549" lon="2.11768">
        <ele>99.9</ele>
        <time>2025-03-12T17:32:34.649Z</time>
      </trkpt>
      <trkpt lat="48.58557" lon="2.11761">
        <ele>100</ele>
        <time>2025-03-12T17:32:40.392Z</time>
      </trkpt>
      <trkpt lat="48.58564" lon="2.11754">
        <ele>100</ele>
        <time>2025-03-12T17:32:46.135Z</time>
      </trkpt>
      <trkpt lat="48.5857" lon="2.11744">
        <ele>100</ele>
        <time>2025-03-12T17:32:52.037Z</time>
      </trkpt>
      <trkpt lat="48.58576" lon="2.11734">
        <ele>100</ele>
        <time>2025-03-12T17:32:57.939Z</time>
      </trkpt>
      <trkpt lat="48.58582" lon="2.11723">
        <ele>100</ele>
        <time>2025-03-12T17:33:03.841Z</time>
      </trkpt>
      <trkpt lat="48.58588" lon="2.11713">
        <ele>100</ele>
        <time>2025-03-12T17:33:09.743Z</time>
      </trkpt>
      <trkpt lat="48.58593" lon="2.11703">
        <ele>100</ele>
        <time>2025-03-12T17:33:15.646Z</time>
      </trkpt>
      <trkpt lat="48.58599" lon="2.11693">
        <ele>100</ele>
        <time>2025-03-12T17:33:21.549Z</time>
      </trkpt>
      <trkpt lat="48.58605" lon="2.11682">
        <ele>100</ele>
        <time>2025-03-12T17:33:27.452Z</time>
      </trkpt>
      <trkpt lat="48.58611" lon="2.11672">
        <ele>100</ele>
        <time>2025-03-12T17:33:33.355Z</time>
      </trkpt>
      <trkpt lat="48.58617" lon="2.11663">
        <ele>99.8</ele>
        <time>2025-03-12T17:33:38.651Z</time>
      </trkpt>
      <trkpt lat="48.58622" lon="2.11653">
        <ele>99.8</ele>
        <time>2025-03-12T17:33:43.948Z</time>
      </trkpt>
      <trkpt lat="48.58628" lon="2.11648">
        <ele>99.8</ele>
        <time>2025-03-12T17:33:48.405Z</time>
      </trkpt>
      <trkpt lat="48.58634" lon="2.11643">
        <ele>99.9</ele>
        <time>2025-03-12T17:33:52.862Z</time>
      </trkpt>
      <trkpt lat="48.5864" lon="2.11638">
        <ele>100</ele>
        <time>2025-03-12T17:33:57.319Z</time>
      </trkpt>
      <trkpt lat="48.58646" lon="2.11633">
        <ele>99.7</ele>
        <time>2025-03-12T17:34:01.777Z</time>
      </trkpt>
      <trkpt lat="48.58654" lon="2.11627">
        <ele>99.5</ele>
        <time>2025-03-12T17:34:07.175Z</time>
      </trkpt>
      <trkpt lat="48.58662" lon="2.11621">
        <ele>99.2</ele>
        <time>2025-03-12T17:34:12.574Z</time>
      </trkpt>
      <trkpt lat="48.58667" lon="2.11618">
        <ele>99</ele>
        <time>2025-03-12T17:34:15.615Z</time>
      </trkpt>
      <trkpt lat="48.58672" lon="2.11614">
        <ele>98.7</ele>
        <time>2025-03-12T17:34:18.657Z</time>
      </trkpt>
      <trkpt lat="48.58676" lon="2.11611">
        <ele>98.3</ele>
        <time>2025-03-12T17:34:21.699Z</time>
      </trkpt>
      <trkpt lat="48.58681" lon="2.11607">
        <ele>98</ele>
        <time>2025-03-12T17:34:24.741Z</time>
      </trkpt>
      <trkpt lat="48.58688" lon="2.11603">
        <ele>97.7</ele>
        <time>2025-03-12T17:34:29.063Z</time>
      </trkpt>
      <trkpt lat="48.58695" lon="2.11599">
        <ele>97.4</ele>
        <time>2025-03-12T17:34:33.385Z</time>
      </trkpt>
      <trkpt lat="48.58702" lon="2.11595">
        <ele>97</ele>
        <time>2025-03-12T17:34:37.708Z</time>
      </trkpt>
      <trkpt lat="48.58709" lon="2.11591">
        <ele>96.7</ele>
        <time>2025-03-12T17:34:42.031Z</time>
      </trkpt>
      <trkpt lat="48.58715" lon="2.11584">
        <ele>96.5</ele>
        <time>2025-03-12T17:34:46.624Z</time>
      </trkpt>
      <trkpt lat="48.58722" lon="2.11576">
        <ele>96</ele>
        <time>2025-03-12T17:34:51.218Z</time>
      </trkpt>
      <trkpt lat="48.58728" lon="2.11569">
        <ele>95.4</ele>
        <time>2025-03-12T17:34:55.812Z</time>
      </trkpt>
      <trkpt lat="48.58734" lon="2.11561">
        <ele>94.7</ele>
        <time>2025-03-12T17:35:00.406Z</time>
      </trkpt>
      <trkpt lat="48.58737" lon="2.11554">
        <ele>94.4</ele>
        <time>2025-03-12T17:35:03.585Z</time>
      </trkpt>
      <trkpt lat="48.58741" lon="2.11548">
        <ele>94</ele>
        <time>2025-03-12T17:35:06.764Z</time>
      </trkpt>
      <trkpt lat="48.58744" lon="2.11541">
        <ele>93.7</ele>
        <time>2025-03-12T17:35:09.943Z</time>
      </trkpt>
      <trkpt lat="48.58747" lon="2.11534">
        <ele>93.3</ele>
        <time>2025-03-12T17:35:13.122Z</time>
      </trkpt>
      <trkpt lat="48.58749" lon="2.11525">
        <ele>93</ele>
        <time>2025-03-12T17:35:16.696Z</time>
      </trkpt>
      <trkpt lat="48.58752" lon="2.11517">
        <ele>92.4</ele>
        <time>2025-03-12T17:35:20.271Z</time>
      </trkpt>
      <trkpt lat="48.58754" lon="2.11508">
        <ele>91.9</ele>
        <time>2025-03-12T17:35:23.846Z</time>
      </trkpt>
      <trkpt lat="48.58756" lon="2.11499">
        <ele>91.3</ele>
        <time>2025-03-12T17:35:27.421Z</time>
      </trkpt>
      <trkpt lat="48.58757" lon="2.1149">
        <ele>91.1</ele>
        <time>2025-03-12T17:35:31.049Z</time>
      </trkpt>
      <trkpt lat="48.58758" lon="2.1148">
        <ele>90.9</ele>
        <time>2025-03-12T17:35:34.677Z</time>
      </trkpt>
      <trkpt lat="48.58759" lon="2.11471">
        <ele>90.6</ele>
        <time>2025-03-12T17:35:38.305Z</time>
      </trkpt>
      <trkpt lat="48.58761" lon="2.11462">
        <ele>90.1</ele>
        <time>2025-03-12T17:35:41.933Z</time>
      </trkpt>
      <trkpt lat="48.58762" lon="2.11452">
        <ele>89.6</ele>
        <time>2025-03-12T17:35:45.561Z</time>
      </trkpt>
      <trkpt lat="48.58763" lon="2.11443">
        <ele>89.1</ele>
        <time>2025-03-12T17:35:49.189Z</time>
      </trkpt>
      <trkpt lat="48.58764" lon="2.11433">
        <ele>88.4</ele>
        <time>2025-03-12T17:35:52.817Z</time>
      </trkpt>
      <trkpt lat="48.58765" lon="2.11424">
        <ele>87.7</ele>
        <time>2025-03-12T17:35:56.445Z</time>
      </trkpt>
      <trkpt lat="48.58766" lon="2.11415">
        <ele>87</ele>
        <time>2025-03-12T17:36:00.073Z</time>
      </trkpt>
      <trkpt lat="48.58767" lon="2.11405">
        <ele>86.3</ele>
        <time>2025-03-12T17:36:03.701Z</time>
      </trkpt>
      <trkpt lat="48.58768" lon="2.11396">
        <ele>85.7</ele>
        <time>2025-03-12T17:36:07.329Z</time>
      </trkpt>
      <trkpt lat="48.5877" lon="2.11387">
        <ele>85</ele>
        <time>2025-03-12T17:36:10.957Z</time>
      </trkpt>
      <trkpt lat="48.58771" lon="2.11377">
        <ele>84.2</ele>
        <time>2025-03-12T17:36:14.585Z</time>
      </trkpt>
      <trkpt lat="48.58772" lon="2.11368">
        <ele>83.4</ele>
        <time>2025-03-12T17:36:18.214Z</time>
      </trkpt>
      <trkpt lat="48.58773" lon="2.11358">
        <ele>82.6</ele>
        <time>2025-03-12T17:36:21.843Z</time>
      </trkpt>
      <trkpt lat="48.58774" lon="2.11349">
        <ele>82</ele>
        <time>2025-03-12T17:36:25.472Z</time>
      </trkpt>
      <trkpt lat="48.58776" lon="2.11342">
        <ele>81.5</ele>
        <time>2025-03-12T17:36:28.578Z</time>
      </trkpt>
      <trkpt lat="48.58778" lon="2.11334">
        <ele>81</ele>
        <time>2025-03-12T17:36:31.685Z</time>
      </trkpt>
      <trkpt lat="48.5878" lon="2.11327">
        <ele>80.4</ele>
        <time>2025-03-12T17:36:34.792Z</time>
      </trkpt>
      <trkpt lat="48.58783" lon="2.11319">
        <ele>79.9</ele>
        <time>2025-03-12T17:36:37.899Z</time>
      </trkpt>
      <trkpt lat="48.58785" lon="2.11312">
        <ele>79.3</ele>
        <time>2025-03-12T17:36:41.006Z</time>
      </trkpt>
      <trkpt lat="48.58787" lon="2.11304">
        <ele>78.6</ele>
        <time>2025-03-12T17:36:44.113Z</time>
      </trkpt>
      <trkpt lat="48.58789" lon="2.11297">
        <ele>77.9</ele>
        <time>2025-03-12T17:36:47.220Z</time>
      </trkpt>
      <trkpt lat="48.58791" lon="2.11289">
        <ele>77.2</ele>
        <time>2025-03-12T17:36:50.327Z</time>
      </trkpt>
      <trkpt lat="48.58797" lon="2.11279">
        <ele>76</ele>
        <time>2025-03-12T17:36:55.468Z</time>
      </trkpt>
      <trkpt lat="48.58803" lon="2.11269">
        <ele>75</ele>
        <time>2025-03-12T17:37:00.609Z</time>
      </trkpt>
      <trkpt lat="48.58807" lon="2.11264">
        <ele>74.4</ele>
        <time>2025-03-12T17:37:03.798Z</time>
      </trkpt>
      <trkpt lat="48.58812" lon="2.11258">
        <ele>73.9</ele>
        <time>2025-03-12T17:37:06.987Z</time>
      </trkpt>
      <trkpt lat="48.58816" lon="2.11253">
        <ele>73.4</ele>
        <time>2025-03-12T17:37:10.177Z</time>
      </trkpt>
      <trkpt lat="48.5882" lon="2.11248">
        <ele>73</ele>
        <time>2025-03-12T17:37:13.367Z</time>
      </trkpt>
      <trkpt lat="48.58824" lon="2.11242">
        <ele>72.7</ele>
        <time>2025-03-12T17:37:16.557Z</time>
      </trkpt>
      <trkpt lat="48.58829" lon="2.11237">
        <ele>72.3</ele>
        <time>2025-03-12T17:37:19.747Z</time>
      </trkpt>
      <trkpt lat="48.58833" lon="2.11231">
        <ele>72</ele>
        <time>2025-03-12T17:37:22.937Z</time>
      </trkpt>
      <trkpt lat="48.58837" lon="2.11226">
        <ele>72</ele>
        <time>2025-03-12T17:37:26.127Z</time>
      </trkpt>
      <trkpt lat="48.58843" lon="2.11221">
        <ele>72</ele>
        <time>2025-03-12T17:37:30.743Z</time>
      </trkpt>
      <trkpt lat="48.58849" lon="2.11215">
        <ele>72</ele>
        <time>2025-03-12T17:37:35.359Z</time>
      </trkpt>
      <trkpt lat="48.58855" lon="2.1121">
        <ele>72</ele>
        <time>2025-03-12T17:37:39.976Z</time>
      </trkpt>
      <trkpt lat="48.58861" lon="2.11204">
        <ele>72</ele>
        <time>2025-03-12T17:37:44.593Z</time>
      </trkpt>
      <trkpt lat="48.58865" lon="2.11201">
        <ele>72</ele>
        <time>2025-03-12T17:37:47.584Z</time>
      </trkpt>
      <trkpt lat="48.5887" lon="2.11199">
        <ele>72</ele>
        <time>2025-03-12T17:37:50.575Z</time>
      </trkpt>
      <trkpt lat="48.58874" lon="2.11196">
        <ele>72</ele>
        <time>2025-03-12T17:37:53.566Z</time>
      </trkpt>
      <trkpt lat="48.58878" lon="2.11193">
        <ele>71.9</ele>
        <time>2025-03-12T17:37:56.558Z</time>
      </trkpt>
      <trkpt lat="48.58883" lon="2.11191">
        <ele>71.9</ele>
        <time>2025-03-12T17:37:59.948Z</time>
      </trkpt>
      <trkpt lat="48.58888" lon="2.1119">
        <ele>71.8</ele>
        <time>2025-03-12T17:38:03.338Z</time>
      </trkpt>
      <trkpt lat="48.58893" lon="2.11188">
        <ele>71.8</ele>
        <time>2025-03-12T17:38:06.728Z</time>
      </trkpt>
      <trkpt lat="48.58898" lon="2.11187">
        <ele>71.8</ele>
        <time>2025-03-12T17:38:10.118Z</time>
      </trkpt>
      <trkpt lat="48.58903" lon="2.11185">
        <ele>71.8</ele>
        <time>2025-03-12T17:38:13.508Z</time>
      </trkpt>
      <trkpt lat="48.58908" lon="2.11183">
        <ele>71.9</ele>
        <time>2025-03-12T17:38:16.898Z</time>
      </trkpt>
      <trkpt lat="48.58913" lon="2.11182">
        <ele>71.9</ele>
        <time>2025-03-12T17:38:20.288Z</time>
      </trkpt>
      <trkpt lat="48.58918" lon="2.1118">
        <ele>72</ele>
        <time>2025-03-12T17:38:23.679Z</time>
      </trkpt>
      <trkpt lat="48.58922" lon="2.11179">
        <ele>72.1</ele>
        <time>2025-03-12T17:38:26.561Z</time>
      </trkpt>
      <trkpt lat="48.58928" lon="2.11176">
        <ele>72.3</ele>
        <time>2025-03-12T17:38:31.153Z</time>
      </trkpt>
      <trkpt lat="48.58933" lon="2.11175">
        <ele>72.4</ele>
        <time>2025-03-12T17:38:35.108Z</time>
      </trkpt>
      <trkpt lat="48.58938" lon="2.11173">
        <ele>72.6</ele>
        <time>2025-03-12T17:38:39.063Z</time>
      </trkpt>
      <trkpt lat="48.58944" lon="2.11172">
        <ele>72.8</ele>
        <time>2025-03-12T17:38:43.018Z</time>
      </trkpt>
      <trkpt lat="48.58949" lon="2.1117">
        <ele>73</ele>
        <time>2025-03-12T17:38:46.973Z</time>
      </trkpt>
      <trkpt lat="48.58954" lon="2.11169">
        <ele>73.3</ele>
        <time>2025-03-12T17:38:50.928Z</time>
      </trkpt>
      <trkpt lat="48.58959" lon="2.11167">
        <ele>73.5</ele>
        <time>2025-03-12T17:38:54.883Z</time>
      </trkpt>
      <trkpt lat="48.58964" lon="2.11166">
        <ele>73.7</ele>
        <time>2025-03-12T17:38:58.838Z</time>
      </trkpt>
      <trkpt lat="48.5897" lon="2.11165">
        <ele>73.9</ele>
        <time>2025-03-12T17:39:02.793Z</time>
      </trkpt>
      <trkpt lat="48.58975" lon="2.11163">
        <ele>74.1</ele>
        <time>2025-03-12T17:39:06.749Z</time>
      </trkpt>
      <trkpt lat="48.5898" lon="2.11162">
        <ele>74.3</ele>
        <time>2025-03-12T17:39:10.705Z</time>
      </trkpt>
      <trkpt lat="48.58985" lon="2.1116">
        <ele>74.5</ele>
        <time>2025-03-12T17:39:14.661Z</time>
      </trkpt>
      <trkpt lat="48.5899" lon="2.11159">
        <ele>74.7</ele>
        <time>2025-03-12T17:39:18.617Z</time>
      </trkpt>
      <trkpt lat="48.58995" lon="2.11157">
        <ele>74.8</ele>
        <time>2025-03-12T17:39:22.573Z</time>
      </trkpt>
      <trkpt lat="48.59001" lon="2.11156">
        <ele>75</ele>
        <time>2025-03-12T17:39:26.529Z</time>
      </trkpt>
      <trkpt lat="48.59006" lon="2.11154">
        <ele>75.4</ele>
        <time>2025-03-12T17:39:30.485Z</time>
      </trkpt>
      <trkpt lat="48.59011" lon="2.11153">
        <ele>75.8</ele>
        <time>2025-03-12T17:39:34.441Z</time>
      </trkpt>
      <trkpt lat="48.59017" lon="2.11151">
        <ele>76.2</ele>
        <time>2025-03-12T17:39:38.888Z</time>
      </trkpt>
      <trkpt lat="48.59022" lon="2.11149">
        <ele>76.6</ele>
        <time>2025-03-12T17:39:43.335Z</time>
      </trkpt>
      <trkpt lat="48.59028" lon="2.11146">
        <ele>77</ele>
        <time>2025-03-12T17:39:47.782Z</time>
      </trkpt>
      <trkpt lat="48.59034" lon="2.11144">
        <ele>77.2</ele>
        <time>2025-03-12T17:39:52.229Z</time>
      </trkpt>
      <trkpt lat="48.59039" lon="2.11142">
        <ele>77.4</ele>
        <time>2025-03-12T17:39:56.676Z</time>
      </trkpt>
      <trkpt lat="48.59045" lon="2.1114">
        <ele>77.6</ele>
        <time>2025-03-12T17:40:01.123Z</time>
      </trkpt>
      <trkpt lat="48.5905" lon="2.11137">
        <ele>77.8</ele>
        <time>2025-03-12T17:40:05.570Z</time>
      </trkpt>
      <trkpt lat="48.59056" lon="2.11135">
        <ele>78</ele>
        <time>2025-03-12T17:40:10.017Z</time>
      </trkpt>
      <trkpt lat="48.59062" lon="2.11132">
        <ele>78.5</ele>
        <time>2025-03-12T17:40:15.316Z</time>
      </trkpt>
      <trkpt lat="48.59068" lon="2.11128">
        <ele>78.9</ele>
        <time>2025-03-12T17:40:20.615Z</time>
      </trkpt>
      <trkpt lat="48.59074" lon="2.11125">
        <ele>79.3</ele>
        <time>2025-03-12T17:40:25.914Z</time>
      </trkpt>
      <trkpt lat="48.5908" lon="2.11121">
        <ele>79.8</ele>
        <time>2025-03-12T17:40:31.213Z</time>
      </trkpt>
      <trkpt lat="48.59088" lon="2.11115">
        <ele>80.3</ele>
        <time>2025-03-12T17:40:38.103Z</time>
      </trkpt>
      <trkpt lat="48.59096" lon="2.11108">
        <ele>80.9</ele>
        <time>2025-03-12T17:40:44.994Z</time>
      </trkpt>
      <trkpt lat="48.59104" lon="2.11102">
        <ele>81.5</ele>
        <time>2025-03-12T17:40:51.885Z</time>
      </trkpt>
      <trkpt lat="48.59112" lon="2.11095">
        <ele>82</ele>
        <time>2025-03-12T17:40:58.776Z</time>
      </trkpt>
      <trkpt lat="48.59119" lon="2.11089">
        <ele>82.3</ele>
        <time>2025-03-12T17:41:05.667Z</time>
      </trkpt>
      <trkpt lat="48.59127" lon="2.11082">
        <ele>82.6</ele>
        <time>2025-03-12T17:41:12.558Z</time>
      </trkpt>
      <trkpt lat="48.59135" lon="2.11076">
        <ele>82.8</ele>
        <time>2025-03-12T17:41:19.449Z</time>
      </trkpt>
      <trkpt lat="48.59143" lon="2.11069">
        <ele>83.3</ele>
        <time>2025-03-12T17:41:26.340Z</time>
      </trkpt>
      <trkpt lat="48.59146" lon="2.11062">
        <ele>83.5</ele>
        <time>2025-03-12T17:41:30.591Z</time>
      </trkpt>
      <trkpt lat="48.59149" lon="2.11054">
        <ele>83.7</ele>
        <time>2025-03-12T17:41:34.842Z</time>
      </trkpt>
      <trkpt lat="48.59154" lon="2.11058">
        <ele>84.1</ele>
        <time>2025-03-12T17:41:39.379Z</time>
      </trkpt>
      <trkpt lat="48.59159" lon="2.11062">
        <ele>84.4</ele>
        <time>2025-03-12T17:41:43.916Z</time>
      </trkpt>
      <trkpt lat="48.59159" lon="2.11062">
        <ele>84.4</ele>
        <time>2025-03-12T17:41:43.916Z</time>
      </trkpt>
      <trkpt lat="48.59163" lon="2.1107">
        <ele>84.7</ele>
        <time>2025-03-12T17:41:48.436Z</time>
      </trkpt>
      <trkpt lat="48.59167" lon="2.11077">
        <ele>85</ele>
        <time>2025-03-12T17:41:52.956Z</time>
      </trkpt>
      <trkpt lat="48.59171" lon="2.11085">
        <ele>85.2</ele>
        <time>2025-03-12T17:41:57.476Z</time>
      </trkpt>
      <trkpt lat="48.59175" lon="2.11093">
        <ele>85.3</ele>
        <time>2025-03-12T17:42:01.996Z</time>
      </trkpt>
      <trkpt lat="48.59179" lon="2.111">
        <ele>85.4</ele>
        <time>2025-03-12T17:42:06.516Z</time>
      </trkpt>
      <trkpt lat="48.59183" lon="2.11108">
        <ele>85.6</ele>
        <time>2025-03-12T17:42:11.036Z</time>
      </trkpt>
      <trkpt lat="48.59187" lon="2.11116">
        <ele>85.7</ele>
        <time>2025-03-12T17:42:15.556Z</time>
      </trkpt>
      <trkpt lat="48.59191" lon="2.11124">
        <ele>85.8</ele>
        <time>2025-03-12T17:42:20.076Z</time>
      </trkpt>
      <trkpt lat="48.59195" lon="2.11131">
        <ele>86</ele>
        <time>2025-03-12T17:42:24.596Z</time>
      </trkpt>
      <trkpt lat="48.59199" lon="2.11139">
        <ele>86.2</ele>
        <time>2025-03-12T17:42:29.116Z</time>
      </trkpt>
      <trkpt lat="48.59203" lon="2.11147">
        <ele>86.1</ele>
        <time>2025-03-12T17:42:33.636Z</time>
      </trkpt>
      <trkpt lat="48.59207" lon="2.11154">
        <ele>86.1</ele>
        <time>2025-03-12T17:42:38.157Z</time>
      </trkpt>
      <trkpt lat="48.59211" lon="2.11162">
        <ele>86.3</ele>
        <time>2025-03-12T17:42:42.678Z</time>
      </trkpt>
      <trkpt lat="48.59215" lon="2.1117">
        <ele>86.4</ele>
        <time>2025-03-12T17:42:47.199Z</time>
      </trkpt>
      <trkpt lat="48.59219" lon="2.11177">
        <ele>86.4</ele>
        <time>2025-03-12T17:42:51.720Z</time>
      </trkpt>
      <trkpt lat="48.59223" lon="2.11185">
        <ele>86.4</ele>
        <time>2025-03-12T17:42:56.241Z</time>
      </trkpt>
      <trkpt lat="48.59227" lon="2.11191">
        <ele>86.4</ele>
        <time>2025-03-12T17:43:00.291Z</time>
      </trkpt>
      <trkpt lat="48.59231" lon="2.11198">
        <ele>86.6</ele>
        <time>2025-03-12T17:43:04.341Z</time>
      </trkpt>
      <trkpt lat="48.59235" lon="2.11204">
        <ele>86.8</ele>
        <time>2025-03-12T17:43:08.391Z</time>
      </trkpt>
      <trkpt lat="48.59239" lon="2.1121">
        <ele>86.9</ele>
        <time>2025-03-12T17:43:12.441Z</time>
      </trkpt>
      <trkpt lat="48.59245" lon="2.1122">
        <ele>86.9</ele>
        <time>2025-03-12T17:43:17.835Z</time>
      </trkpt>
      <trkpt lat="48.5925" lon="2.11229">
        <ele>86.8</ele>
        <time>2025-03-12T17:43:23.229Z</time>
      </trkpt>
      <trkpt lat="48.59256" lon="2.11236">
        <ele>86.9</ele>
        <time>2025-03-12T17:43:28.405Z</time>
      </trkpt>
      <trkpt lat="48.59262" lon="2.11244">
        <ele>87.1</ele>
        <time>2025-03-12T17:43:33.581Z</time>
      </trkpt>
      <trkpt lat="48.59268" lon="2.11251">
        <ele>87.3</ele>
        <time>2025-03-12T17:43:38.757Z</time>
      </trkpt>
      <trkpt lat="48.59274" lon="2.11258">
        <ele>87.5</ele>
        <time>2025-03-12T17:43:43.933Z</time>
      </trkpt>
      <trkpt lat="48.5928" lon="2.11265">
        <ele>87.5</ele>
        <time>2025-03-12T17:43:49.109Z</time>
      </trkpt>
      <trkpt lat="48.59286" lon="2.11273">
        <ele>87.5</ele>
        <time>2025-03-12T17:43:54.285Z</time>
      </trkpt>
      <trkpt lat="48.59292" lon="2.1128">
        <ele>87.5</ele>
        <time>2025-03-12T17:43:59.461Z</time>
      </trkpt>
      <trkpt lat="48.59298" lon="2.11287">
        <ele>87.7</ele>
        <time>2025-03-12T17:44:04.637Z</time>
      </trkpt>
      <trkpt lat="48.59303" lon="2.11294">
        <ele>87.9</ele>
        <time>2025-03-12T17:44:09.813Z</time>
      </trkpt>
      <trkpt lat="48.59309" lon="2.11302">
        <ele>88.1</ele>
        <time>2025-03-12T17:44:14.989Z</time>
      </trkpt>
      <trkpt lat="48.59315" lon="2.11309">
        <ele>88.2</ele>
        <time>2025-03-12T17:44:20.165Z</time>
      </trkpt>
      <trkpt lat="48.59321" lon="2.11316">
        <ele>88.2</ele>
        <time>2025-03-12T17:44:25.342Z</time>
      </trkpt>
      <trkpt lat="48.59327" lon="2.11323">
        <ele>88.1</ele>
        <time>2025-03-12T17:44:30.519Z</time>
      </trkpt>
      <trkpt lat="48.59333" lon="2.11331">
        <ele>88.1</ele>
        <time>2025-03-12T17:44:35.696Z</time>
      </trkpt>
      <trkpt lat="48.59339" lon="2.11338">
        <ele>88.1</ele>
        <time>2025-03-12T17:44:40.873Z</time>
      </trkpt>
      <trkpt lat="48.59345" lon="2.11345">
        <ele>88</ele>
        <time>2025-03-12T17:44:46.050Z</time>
      </trkpt>
      <trkpt lat="48.5934" lon="2.11352">
        <ele>87.6</ele>
        <time>2025-03-12T17:44:49.973Z</time>
      </trkpt>
      <trkpt lat="48.59344" lon="2.11357">
        <ele>87.5</ele>
        <time>2025-03-12T17:44:53.295Z</time>
      </trkpt>
      <trkpt lat="48.59348" lon="2.11362">
        <ele>87.5</ele>
        <time>2025-03-12T17:44:56.617Z</time>
      </trkpt>
      <trkpt lat="48.59352" lon="2.11367">
        <ele>87.7</ele>
        <time>2025-03-12T17:44:59.939Z</time>
      </trkpt>
      <trkpt lat="48.59356" lon="2.11372">
        <ele>87.8</ele>
        <time>2025-03-12T17:45:03.261Z</time>
      </trkpt>
      <trkpt lat="48.5936" lon="2.11376">
        <ele>87.9</ele>
        <time>2025-03-12T17:45:06.583Z</time>
      </trkpt>
      <trkpt lat="48.59363" lon="2.11381">
        <ele>88</ele>
        <time>2025-03-12T17:45:09.905Z</time>
      </trkpt>
      <trkpt lat="48.59367" lon="2.11386">
        <ele>88</ele>
        <time>2025-03-12T17:45:13.227Z</time>
      </trkpt>
      <trkpt lat="48.59371" lon="2.11391">
        <ele>88</ele>
        <time>2025-03-12T17:45:16.549Z</time>
      </trkpt>
      <trkpt lat="48.59375" lon="2.11396">
        <ele>87.9</ele>
        <time>2025-03-12T17:45:19.871Z</time>
      </trkpt>
      <trkpt lat="48.59379" lon="2.11401">
        <ele>87.9</ele>
        <time>2025-03-12T17:45:23.193Z</time>
      </trkpt>
      <trkpt lat="48.59383" lon="2.11406">
        <ele>87.9</ele>
        <time>2025-03-12T17:45:26.516Z</time>
      </trkpt>
      <trkpt lat="48.59387" lon="2.11411">
        <ele>87.9</ele>
        <time>2025-03-12T17:45:29.839Z</time>
      </trkpt>
      <trkpt lat="48.59391" lon="2.11415">
        <ele>88</ele>
        <time>2025-03-12T17:45:33.162Z</time>
      </trkpt>
      <trkpt lat="48.59395" lon="2.1142">
        <ele>87.9</ele>
        <time>2025-03-12T17:45:36.485Z</time>
      </trkpt>
      <trkpt lat="48.59399" lon="2.11425">
        <ele>87.8</ele>
        <time>2025-03-12T17:45:39.808Z</time>
      </trkpt>
      <trkpt lat="48.59403" lon="2.1143">
        <ele>87.8</ele>
        <time>2025-03-12T17:45:43.131Z</time>
      </trkpt>
      <trkpt lat="48.59406" lon="2.11435">
        <ele>87.8</ele>
        <time>2025-03-12T17:45:46.454Z</time>
      </trkpt>
      <trkpt lat="48.5941" lon="2.1144">
        <ele>87.8</ele>
        <time>2025-03-12T17:45:49.777Z</time>
      </trkpt>
      <trkpt lat="48.59414" lon="2.11445">
        <ele>87.9</ele>
        <time>2025-03-12T17:45:53.100Z</time>
      </trkpt>
      <trkpt lat="48.59418" lon="2.1145">
        <ele>87.8</ele>
        <time>2025-03-12T17:45:56.423Z</time>
      </trkpt>
      <trkpt lat="48.59422" lon="2.11454">
        <ele>87.7</ele>
        <time>2025-03-12T17:45:59.745Z</time>
      </trkpt>
      <trkpt lat="48.59426" lon="2.11459">
        <ele>87.6</ele>
        <time>2025-03-12T17:46:03.068Z</time>
      </trkpt>
      <trkpt lat="48.5943" lon="2.11464">
        <ele>87.6</ele>
        <time>2025-03-12T17:46:06.391Z</time>
      </trkpt>
      <trkpt lat="48.59434" lon="2.11469">
        <ele>87.7</ele>
        <time>2025-03-12T17:46:09.714Z</time>
      </trkpt>
      <trkpt lat="48.59438" lon="2.11474">
        <ele>87.7</ele>
        <time>2025-03-12T17:46:13.037Z</time>
      </trkpt>
      <trkpt lat="48.59442" lon="2.11479">
        <ele>87.7</ele>
        <time>2025-03-12T17:46:16.360Z</time>
      </trkpt>
      <trkpt lat="48.59446" lon="2.11484">
        <ele>87.6</ele>
        <time>2025-03-12T17:46:19.683Z</time>
      </trkpt>
      <trkpt lat="48.59449" lon="2.11489">
        <ele>87.5</ele>
        <time>2025-03-12T17:46:23.006Z</time>
      </trkpt>
      <trkpt lat="48.59453" lon="2.11493">
        <ele>87.5</ele>
        <time>2025-03-12T17:46:26.329Z</time>
      </trkpt>
      <trkpt lat="48.59457" lon="2.11498">
        <ele>87.5</ele>
        <time>2025-03-12T17:46:29.652Z</time>
      </trkpt>
      <trkpt lat="48.59461" lon="2.11503">
        <ele>87.6</ele>
        <time>2025-03-12T17:46:32.975Z</time>
      </trkpt>
      <trkpt lat="48.59465" lon="2.11508">
        <ele>87.7</ele>
        <time>2025-03-12T17:46:36.298Z</time>
      </trkpt>
      <trkpt lat="48.59469" lon="2.11513">
        <ele>87.9</ele>
        <time>2025-03-12T17:46:39.621Z</time>
      </trkpt>
      <trkpt lat="48.59473" lon="2.11518">
        <ele>88</ele>
        <time>2025-03-12T17:46:42.944Z</time>
      </trkpt>
      <trkpt lat="48.59477" lon="2.11523">
        <ele>88</ele>
        <time>2025-03-12T17:46:46.267Z</time>
      </trkpt>
      <trkpt lat="48.59481" lon="2.11528">
        <ele>88</ele>
        <time>2025-03-12T17:46:49.590Z</time>
      </trkpt>
      <trkpt lat="48.59485" lon="2.11532">
        <ele>87.9</ele>
        <time>2025-03-12T17:46:52.913Z</time>
      </trkpt>
      <trkpt lat="48.59488" lon="2.11537">
        <ele>87.9</ele>
        <time>2025-03-12T17:46:56.236Z</time>
      </trkpt>
      <trkpt lat="48.59492" lon="2.11542">
        <ele>87.9</ele>
        <time>2025-03-12T17:46:59.559Z</time>
      </trkpt>
      <trkpt lat="48.59496" lon="2.11547">
        <ele>87.9</ele>
        <time>2025-03-12T17:47:02.882Z</time>
      </trkpt>
      <trkpt lat="48.595" lon="2.11552">
        <ele>88</ele>
        <time>2025-03-12T17:47:06.205Z</time>
      </trkpt>
      <trkpt lat="48.59504" lon="2.11557">
        <ele>88</ele>
        <time>2025-03-12T17:47:09.528Z</time>
      </trkpt>
      <trkpt lat="48.59508" lon="2.11562">
        <ele>87.8</ele>
        <time>2025-03-12T17:47:12.851Z</time>
      </trkpt>
      <trkpt lat="48.59512" lon="2.11567">
        <ele>87.8</ele>
        <time>2025-03-12T17:47:16.174Z</time>
      </trkpt>
      <trkpt lat="48.59516" lon="2.11571">
        <ele>87.8</ele>
        <time>2025-03-12T17:47:19.497Z</time>
      </trkpt>
      <trkpt lat="48.5952" lon="2.11576">
        <ele>87.8</ele>
        <time>2025-03-12T17:47:22.820Z</time>
      </trkpt>
      <trkpt lat="48.59524" lon="2.11581">
        <ele>87.9</ele>
        <time>2025-03-12T17:47:26.143Z</time>
      </trkpt>
      <trkpt lat="48.59528" lon="2.11586">
        <ele>87.9</ele>
        <time>2025-03-12T17:47:29.466Z</time>
      </trkpt>
      <trkpt lat="48.59531" lon="2.11591">
        <ele>87.8</ele>
        <time>2025-03-12T17:47:32.789Z</time>
      </trkpt>
      <trkpt lat="48.59535" lon="2.11596">
        <ele>87.7</ele>
        <time>2025-03-12T17:47:36.112Z</time>
      </trkpt>
      <trkpt lat="48.59539" lon="2.11601">
        <ele>87.6</ele>
        <time>2025-03-12T17:47:39.435Z</time>
      </trkpt>
      <trkpt lat="48.59543" lon="2.11606">
        <ele>87.6</ele>
        <time>2025-03-12T17:47:42.758Z</time>
      </trkpt>
      <trkpt lat="48.59547" lon="2.1161">
        <ele>87.7</ele>
        <time>2025-03-12T17:47:46.081Z</time>
      </trkpt>
      <trkpt lat="48.59551" lon="2.11615">
        <ele>87.7</ele>
        <time>2025-03-12T17:47:49.404Z</time>
      </trkpt>
      <trkpt lat="48.59555" lon="2.1162">
        <ele>87.7</ele>
        <time>2025-03-12T17:47:52.727Z</time>
      </trkpt>
      <trkpt lat="48.59559" lon="2.11625">
        <ele>87.6</ele>
        <time>2025-03-12T17:47:56.050Z</time>
      </trkpt>
      <trkpt lat="48.59563" lon="2.1163">
        <ele>87.5</ele>
        <time>2025-03-12T17:47:59.373Z</time>
      </trkpt>
      <trkpt lat="48.59567" lon="2.11635">
        <ele>87.5</ele>
        <time>2025-03-12T17:48:02.696Z</time>
      </trkpt>
      <trkpt lat="48.59571" lon="2.1164">
        <ele>87.5</ele>
        <time>2025-03-12T17:48:06.019Z</time>
      </trkpt>
      <trkpt lat="48.59574" lon="2.11645">
        <ele>87.5</ele>
        <time>2025-03-12T17:48:09.342Z</time>
      </trkpt>
      <trkpt lat="48.59578" lon="2.11649">
        <ele>87.5</ele>
        <time>2025-03-12T17:48:12.665Z</time>
      </trkpt>
      <trkpt lat="48.59582" lon="2.11654">
        <ele>87.4</ele>
        <time>2025-03-12T17:48:15.988Z</time>
      </trkpt>
      <trkpt lat="48.59586" lon="2.11659">
        <ele>87.3</ele>
        <time>2025-03-12T17:48:19.311Z</time>
      </trkpt>
      <trkpt lat="48.5959" lon="2.11664">
        <ele>87.3</ele>
        <time>2025-03-12T17:48:22.634Z</time>
      </trkpt>
      <trkpt lat="48.59594" lon="2.1167">
        <ele>87.4</ele>
        <time>2025-03-12T17:48:26.387Z</time>
      </trkpt>
      <trkpt lat="48.59599" lon="2.11675">
        <ele>87.4</ele>
        <time>2025-03-12T17:48:30.140Z</time>
      </trkpt>
      <trkpt lat="48.59603" lon="2.11681">
        <ele>87.3</ele>
        <time>2025-03-12T17:48:33.893Z</time>
      </trkpt>
      <trkpt lat="48.59608" lon="2.11687">
        <ele>87.2</ele>
        <time>2025-03-12T17:48:37.646Z</time>
      </trkpt>
      <trkpt lat="48.59612" lon="2.11692">
        <ele>87.1</ele>
        <time>2025-03-12T17:48:41.399Z</time>
      </trkpt>
      <trkpt lat="48.59616" lon="2.11698">
        <ele>87.2</ele>
        <time>2025-03-12T17:48:45.152Z</time>
      </trkpt>
      <trkpt lat="48.59621" lon="2.11703">
        <ele>87.2</ele>
        <time>2025-03-12T17:48:48.905Z</time>
      </trkpt>
      <trkpt lat="48.59625" lon="2.11709">
        <ele>87.2</ele>
        <time>2025-03-12T17:48:52.658Z</time>
      </trkpt>
      <trkpt lat="48.59628" lon="2.11713">
        <ele>87.2</ele>
        <time>2025-03-12T17:48:55.290Z</time>
      </trkpt>
      <trkpt lat="48.5963" lon="2.11723">
        <ele>87</ele>
        <time>2025-03-12T17:48:59.432Z</time>
      </trkpt>
      <trkpt lat="48.59632" lon="2.11732">
        <ele>87</ele>
        <time>2025-03-12T17:49:03.574Z</time>
      </trkpt>
      <trkpt lat="48.59634" lon="2.11743">
        <ele>87</ele>
        <time>2025-03-12T17:49:08.361Z</time>
      </trkpt>
      <trkpt lat="48.59635" lon="2.11754">
        <ele>86.9</ele>
        <time>2025-03-12T17:49:13.148Z</time>
      </trkpt>
      <trkpt lat="48.5964" lon="2.11753">
        <ele>86.9</ele>
        <time>2025-03-12T17:49:16.177Z</time>
      </trkpt>
      <trkpt lat="48.59644" lon="2.11753">
        <ele>86.9</ele>
        <time>2025-03-12T17:49:19.207Z</time>
      </trkpt>
      <trkpt lat="48.59649" lon="2.11752">
        <ele>87</ele>
        <time>2025-03-12T17:49:22.237Z</time>
      </trkpt>
      <trkpt lat="48.59653" lon="2.11751">
        <ele>87</ele>
        <time>2025-03-12T17:49:25.267Z</time>
      </trkpt>
      <trkpt lat="48.59657" lon="2.11757">
        <ele>86.9</ele>
        <time>2025-03-12T17:49:28.779Z</time>
      </trkpt>
      <trkpt lat="48.5966" lon="2.11768">
        <ele>86.8</ele>
        <time>2025-03-12T17:49:33.575Z</time>
      </trkpt>
      <trkpt lat="48.59663" lon="2.11778">
        <ele>86.9</ele>
        <time>2025-03-12T17:49:38.371Z</time>
      </trkpt>
      <trkpt lat="48.59666" lon="2.11789">
        <ele>86.6</ele>
        <time>2025-03-12T17:49:43.167Z</time>
      </trkpt>
      <trkpt lat="48.59669" lon="2.11799">
        <ele>86.3</ele>
        <time>2025-03-12T17:49:47.963Z</time>
      </trkpt>
      <trkpt lat="48.59671" lon="2.1181">
        <ele>86.2</ele>
        <time>2025-03-12T17:49:52.759Z</time>
      </trkpt>
      <trkpt lat="48.59674" lon="2.1182">
        <ele>86.3</ele>
        <time>2025-03-12T17:49:57.555Z</time>
      </trkpt>
      <trkpt lat="48.59677" lon="2.11831">
        <ele>86.4</ele>
        <time>2025-03-12T17:50:02.351Z</time>
      </trkpt>
      <trkpt lat="48.5968" lon="2.11841">
        <ele>86.3</ele>
        <time>2025-03-12T17:50:07.147Z</time>
      </trkpt>
      <trkpt lat="48.59682" lon="2.1185">
        <ele>86.2</ele>
        <time>2025-03-12T17:50:10.897Z</time>
      </trkpt>
      <trkpt lat="48.59683" lon="2.11859">
        <ele>86</ele>
        <time>2025-03-12T17:50:14.647Z</time>
      </trkpt>
      <trkpt lat="48.59683" lon="2.11871">
        <ele>85.9</ele>
        <time>2025-03-12T17:50:19.378Z</time>
      </trkpt>
      <trkpt lat="48.59683" lon="2.11883">
        <ele>85.7</ele>
        <time>2025-03-12T17:50:24.109Z</time>
      </trkpt>
      <trkpt lat="48.59682" lon="2.11894">
        <ele>85.5</ele>
        <time>2025-03-12T17:50:28.841Z</time>
      </trkpt>
      <trkpt lat="48.59682" lon="2.11906">
        <ele>85.2</ele>
        <time>2025-03-12T17:50:33.573Z</time>
      </trkpt>
      <trkpt lat="48.59681" lon="2.11913">
        <ele>85.1</ele>
        <time>2025-03-12T17:50:36.603Z</time>
      </trkpt>
      <trkpt lat="48.5968" lon="2.11921">
        <ele>84.9</ele>
        <time>2025-03-12T17:50:39.633Z</time>
      </trkpt>
      <trkpt lat="48.59679" lon="2.11928">
        <ele>84.8</ele>
        <time>2025-03-12T17:50:42.663Z</time>
      </trkpt>
      <trkpt lat="48.59678" lon="2.11936">
        <ele>84.6</ele>
        <time>2025-03-12T17:50:45.693Z</time>
      </trkpt>
      <trkpt lat="48.59676" lon="2.11943">
        <ele>84.4</ele>
        <time>2025-03-12T17:50:48.723Z</time>
      </trkpt>
      <trkpt lat="48.59675" lon="2.1195">
        <ele>84.2</ele>
        <time>2025-03-12T17:50:51.754Z</time>
      </trkpt>
      <trkpt lat="48.59674" lon="2.11958">
        <ele>84.1</ele>
        <time>2025-03-12T17:50:54.785Z</time>
      </trkpt>
      <trkpt lat="48.59673" lon="2.11965">
        <ele>84.1</ele>
        <time>2025-03-12T17:50:57.817Z</time>
      </trkpt>
      <trkpt lat="48.59672" lon="2.11976">
        <ele>83.9</ele>
        <time>2025-03-12T17:51:02.006Z</time>
      </trkpt>
      <trkpt lat="48.59672" lon="2.11987">
        <ele>83.5</ele>
        <time>2025-03-12T17:51:06.195Z</time>
      </trkpt>
      <trkpt lat="48.59671" lon="2.11997">
        <ele>83.1</ele>
        <time>2025-03-12T17:51:10.385Z</time>
      </trkpt>
      <trkpt lat="48.5967" lon="2.12008">
        <ele>83</ele>
        <time>2025-03-12T17:51:14.576Z</time>
      </trkpt>
      <trkpt lat="48.59675" lon="2.12011">
        <ele>83</ele>
        <time>2025-03-12T17:51:18.115Z</time>
      </trkpt>
      <trkpt lat="48.5968" lon="2.12014">
        <ele>83</ele>
        <time>2025-03-12T17:51:21.654Z</time>
      </trkpt>
      <trkpt lat="48.59686" lon="2.1202">
        <ele>83</ele>
        <time>2025-03-12T17:51:25.992Z</time>
      </trkpt>
      <trkpt lat="48.59691" lon="2.12025">
        <ele>83</ele>
        <time>2025-03-12T17:51:30.331Z</time>
      </trkpt>
      <trkpt lat="48.59697" lon="2.12028">
        <ele>83</ele>
        <time>2025-03-12T17:51:34.389Z</time>
      </trkpt>
      <trkpt lat="48.59703" lon="2.12031">
        <ele>82.9</ele>
        <time>2025-03-12T17:51:38.447Z</time>
      </trkpt>
      <trkpt lat="48.59712" lon="2.12031">
        <ele>83</ele>
        <time>2025-03-12T17:51:44.329Z</time>
      </trkpt>
      <trkpt lat="48.5972" lon="2.12031">
        <ele>83</ele>
        <time>2025-03-12T17:51:50.211Z</time>
      </trkpt>
      <trkpt lat="48.59729" lon="2.12031">
        <ele>83</ele>
        <time>2025-03-12T17:51:56.093Z</time>
      </trkpt>
      <trkpt lat="48.59738" lon="2.12031">
        <ele>83</ele>
        <time>2025-03-12T17:52:01.975Z</time>
      </trkpt>
      <trkpt lat="48.59746" lon="2.12031">
        <ele>83</ele>
        <time>2025-03-12T17:52:07.857Z</time>
      </trkpt>
      <trkpt lat="48.59755" lon="2.12031">
        <ele>83.2</ele>
        <time>2025-03-12T17:52:13.739Z</time>
      </trkpt>
      <trkpt lat="48.59763" lon="2.12031">
        <ele>83.4</ele>
        <time>2025-03-12T17:52:19.621Z</time>
      </trkpt>
      <trkpt lat="48.59772" lon="2.12031">
        <ele>83.7</ele>
        <time>2025-03-12T17:52:25.504Z</time>
      </trkpt>
      <trkpt lat="48.5978" lon="2.12027">
        <ele>84</ele>
        <time>2025-03-12T17:52:31.363Z</time>
      </trkpt>
      <trkpt lat="48.59788" lon="2.12023">
        <ele>84</ele>
        <time>2025-03-12T17:52:37.223Z</time>
      </trkpt>
      <trkpt lat="48.59795" lon="2.12018">
        <ele>84</ele>
        <time>2025-03-12T17:52:42.413Z</time>
      </trkpt>
      <trkpt lat="48.59802" lon="2.12012">
        <ele>84</ele>
        <time>2025-03-12T17:52:47.603Z</time>
      </trkpt>
      <trkpt lat="48.59804" lon="2.12019">
        <ele>84</ele>
        <time>2025-03-12T17:52:50.722Z</time>
      </trkpt>
      <trkpt lat="48.59806" lon="2.12025">
        <ele>84</ele>
        <time>2025-03-12T17:52:53.841Z</time>
      </trkpt>
      <trkpt lat="48.59808" lon="2.12038">
        <ele>83.6</ele>
        <time>2025-03-12T17:52:58.912Z</time>
      </trkpt>
      <trkpt lat="48.59809" lon="2.12051">
        <ele>83.2</ele>
        <time>2025-03-12T17:53:03.983Z</time>
      </trkpt>
      <trkpt lat="48.59811" lon="2.12063">
        <ele>82.7</ele>
        <time>2025-03-12T17:53:09.054Z</time>
      </trkpt>
      <trkpt lat="48.59812" lon="2.12076">
        <ele>82.3</ele>
        <time>2025-03-12T17:53:14.125Z</time>
      </trkpt>
      <trkpt lat="48.59814" lon="2.12089">
        <ele>81.8</ele>
        <time>2025-03-12T17:53:19.196Z</time>
      </trkpt>
      <trkpt lat="48.59815" lon="2.12102">
        <ele>81.3</ele>
        <time>2025-03-12T17:53:24.267Z</time>
      </trkpt>
      <trkpt lat="48.59817" lon="2.12115">
        <ele>80.9</ele>
        <time>2025-03-12T17:53:29.338Z</time>
      </trkpt>
      <trkpt lat="48.59819" lon="2.12128">
        <ele>80.7</ele>
        <time>2025-03-12T17:53:34.409Z</time>
      </trkpt>
      <trkpt lat="48.5982" lon="2.1214">
        <ele>80.5</ele>
        <time>2025-03-12T17:53:39.481Z</time>
      </trkpt>
      <trkpt lat="48.59822" lon="2.12153">
        <ele>80.3</ele>
        <time>2025-03-12T17:53:44.553Z</time>
      </trkpt>
      <trkpt lat="48.59823" lon="2.12166">
        <ele>80</ele>
        <time>2025-03-12T17:53:49.625Z</time>
      </trkpt>
      <trkpt lat="48.59825" lon="2.12179">
        <ele>79.6</ele>
        <time>2025-03-12T17:53:54.697Z</time>
      </trkpt>
      <trkpt lat="48.59826" lon="2.12192">
        <ele>79.1</ele>
        <time>2025-03-12T17:53:59.769Z</time>
      </trkpt>
      <trkpt lat="48.59828" lon="2.12204">
        <ele>78.9</ele>
        <time>2025-03-12T17:54:04.841Z</time>
      </trkpt>
      <trkpt lat="48.59829" lon="2.12217">
        <ele>78.9</ele>
        <time>2025-03-12T17:54:09.913Z</time>
      </trkpt>
      <trkpt lat="48.59831" lon="2.1223">
        <ele>78.9</ele>
        <time>2025-03-12T17:54:14.985Z</time>
      </trkpt>
      <trkpt lat="48.59832" lon="2.12236">
        <ele>79</ele>
        <time>2025-03-12T17:54:17.891Z</time>
      </trkpt>
      <trkpt lat="48.59833" lon="2.12243">
        <ele>79</ele>
        <time>2025-03-12T17:54:21.007Z</time>
      </trkpt>
      <trkpt lat="48.59836" lon="2.12253">
        <ele>79</ele>
        <time>2025-03-12T17:54:25.615Z</time>
      </trkpt>
      <trkpt lat="48.59838" lon="2.12262">
        <ele>79</ele>
        <time>2025-03-12T17:54:30.223Z</time>
      </trkpt>
      <trkpt lat="48.59841" lon="2.12272">
        <ele>79</ele>
        <time>2025-03-12T17:54:34.832Z</time>
      </trkpt>
      <trkpt lat="48.59844" lon="2.12281">
        <ele>79</ele>
        <time>2025-03-12T17:54:39.441Z</time>
      </trkpt>
      <trkpt lat="48.59846" lon="2.12291">
        <ele>79</ele>
        <time>2025-03-12T17:54:44.050Z</time>
      </trkpt>
      <trkpt lat="48.59849" lon="2.123">
        <ele>79</ele>
        <time>2025-03-12T17:54:48.659Z</time>
      </trkpt>
      <trkpt lat="48.59851" lon="2.1231">
        <ele>79.1</ele>
        <time>2025-03-12T17:54:53.268Z</time>
      </trkpt>
      <trkpt lat="48.59854" lon="2.12319">
        <ele>79.5</ele>
        <time>2025-03-12T17:54:57.877Z</time>
      </trkpt>
      <trkpt lat="48.59858" lon="2.12323">
        <ele>79.6</ele>
        <time>2025-03-12T17:55:01.244Z</time>
      </trkpt>
      <trkpt lat="48.59861" lon="2.12327">
        <ele>79.8</ele>
        <time>2025-03-12T17:55:04.329Z</time>
      </trkpt>
      <trkpt lat="48.59866" lon="2.12326">
        <ele>79.9</ele>
        <time>2025-03-12T17:55:07.858Z</time>
      </trkpt>
      <trkpt lat="48.59871" lon="2.12323">
        <ele>80</ele>
        <time>2025-03-12T17:55:11.351Z</time>
      </trkpt>
      <trkpt lat="48.59876" lon="2.12321">
        <ele>80.1</ele>
        <time>2025-03-12T17:55:14.844Z</time>
      </trkpt>
      <trkpt lat="48.5988" lon="2.12318">
        <ele>80.1</ele>
        <time>2025-03-12T17:55:18.337Z</time>
      </trkpt>
      <trkpt lat="48.59885" lon="2.12315">
        <ele>80.2</ele>
        <time>2025-03-12T17:55:21.830Z</time>
      </trkpt>
      <trkpt lat="48.5989" lon="2.12313">
        <ele>80.3</ele>
        <time>2025-03-12T17:55:25.323Z</time>
      </trkpt>
      <trkpt lat="48.59895" lon="2.1231">
        <ele>80.4</ele>
        <time>2025-03-12T17:55:28.816Z</time>
      </trkpt>
      <trkpt lat="48.59899" lon="2.12307">
        <ele>80.4</ele>
        <time>2025-03-12T17:55:32.309Z</time>
      </trkpt>
      <trkpt lat="48.59904" lon="2.12305">
        <ele>80.5</ele>
        <time>2025-03-12T17:55:35.803Z</time>
      </trkpt>
      <trkpt lat="48.59909" lon="2.12302">
        <ele>80.6</ele>
        <time>2025-03-12T17:55:39.297Z</time>
      </trkpt>
      <trkpt lat="48.59914" lon="2.12299">
        <ele>80.7</ele>
        <time>2025-03-12T17:55:42.791Z</time>
      </trkpt>
      <trkpt lat="48.59918" lon="2.12296">
        <ele>80.7</ele>
        <time>2025-03-12T17:55:46.285Z</time>
      </trkpt>
      <trkpt lat="48.59923" lon="2.12294">
        <ele>80.8</ele>
        <time>2025-03-12T17:55:49.779Z</time>
      </trkpt>
      <trkpt lat="48.59928" lon="2.12291">
        <ele>80.9</ele>
        <time>2025-03-12T17:55:53.273Z</time>
      </trkpt>
      <trkpt lat="48.59933" lon="2.12288">
        <ele>81</ele>
        <time>2025-03-12T17:55:56.767Z</time>
      </trkpt>
      <trkpt lat="48.59937" lon="2.12286">
        <ele>81</ele>
        <time>2025-03-12T17:56:00.261Z</time>
      </trkpt>
      <trkpt lat="48.59942" lon="2.12283">
        <ele>81.1</ele>
        <time>2025-03-12T17:56:03.755Z</time>
      </trkpt>
      <trkpt lat="48.59947" lon="2.12281">
        <ele>81.1</ele>
        <time>2025-03-12T17:56:06.761Z</time>
      </trkpt>
      <trkpt lat="48.59951" lon="2.1228">
        <ele>81.1</ele>
        <time>2025-03-12T17:56:09.768Z</time>
      </trkpt>
      <trkpt lat="48.59956" lon="2.12278">
        <ele>81</ele>
        <time>2025-03-12T17:56:12.775Z</time>
      </trkpt>
      <trkpt lat="48.5996" lon="2.12276">
        <ele>81</ele>
        <time>2025-03-12T17:56:15.782Z</time>
      </trkpt>
      <trkpt lat="48.59966" lon="2.12276">
        <ele>80.9</ele>
        <time>2025-03-12T17:56:19.669Z</time>
      </trkpt>
      <trkpt lat="48.59972" lon="2.12276">
        <ele>80.9</ele>
        <time>2025-03-12T17:56:23.557Z</time>
      </trkpt>
      <trkpt lat="48.59977" lon="2.12275">
        <ele>81.1</ele>
        <time>2025-03-12T17:56:27.445Z</time>
      </trkpt>
      <trkpt lat="48.59983" lon="2.12275">
        <ele>81.2</ele>
        <time>2025-03-12T17:56:31.333Z</time>
      </trkpt>
      <trkpt lat="48.59988" lon="2.12274">
        <ele>81.3</ele>
        <time>2025-03-12T17:56:34.333Z</time>
      </trkpt>
      <trkpt lat="48.59992" lon="2.12273">
        <ele>81.4</ele>
        <time>2025-03-12T17:56:37.333Z</time>
      </trkpt>
      <trkpt lat="48.59997" lon="2.12272">
        <ele>81.5</ele>
        <time>2025-03-12T17:56:40.334Z</time>
      </trkpt>
      <trkpt lat="48.60001" lon="2.12271">
        <ele>81.5</ele>
        <time>2025-03-12T17:56:43.335Z</time>
      </trkpt>
      <trkpt lat="48.60006" lon="2.12269">
        <ele>81.4</ele>
        <time>2025-03-12T17:56:46.336Z</time>
      </trkpt>
      <trkpt lat="48.6001" lon="2.12268">
        <ele>81.3</ele>
        <time>2025-03-12T17:56:49.337Z</time>
      </trkpt>
      <trkpt lat="48.60015" lon="2.12267">
        <ele>81.2</ele>
        <time>2025-03-12T17:56:52.338Z</time>
      </trkpt>
      <trkpt lat="48.60019" lon="2.12266">
        <ele>81.2</ele>
        <time>2025-03-12T17:56:55.339Z</time>
      </trkpt>
      <trkpt lat="48.60025" lon="2.12266">
        <ele>81.1</ele>
        <time>2025-03-12T17:56:59.463Z</time>
      </trkpt>
      <trkpt lat="48.60032" lon="2.12265">
        <ele>81.1</ele>
        <time>2025-03-12T17:57:03.587Z</time>
      </trkpt>
      <trkpt lat="48.60038" lon="2.12265">
        <ele>81</ele>
        <time>2025-03-12T17:57:07.712Z</time>
      </trkpt>
      <trkpt lat="48.60045" lon="2.12264">
        <ele>81</ele>
        <time>2025-03-12T17:57:11.837Z</time>
      </trkpt>
      <trkpt lat="48.60051" lon="2.12264">
        <ele>81</ele>
        <time>2025-03-12T17:57:15.962Z</time>
      </trkpt>
      <trkpt lat="48.60057" lon="2.12263">
        <ele>80.9</ele>
        <time>2025-03-12T17:57:20.087Z</time>
      </trkpt>
      <trkpt lat="48.60064" lon="2.12263">
        <ele>80.9</ele>
        <time>2025-03-12T17:57:24.212Z</time>
      </trkpt>
      <trkpt lat="48.6007" lon="2.12262">
        <ele>80.9</ele>
        <time>2025-03-12T17:57:28.337Z</time>
      </trkpt>
      <trkpt lat="48.60077" lon="2.12261">
        <ele>80.8</ele>
        <time>2025-03-12T17:57:33.137Z</time>
      </trkpt>
      <trkpt lat="48.60085" lon="2.1226">
        <ele>80.7</ele>
        <time>2025-03-12T17:57:37.938Z</time>
      </trkpt>
      <trkpt lat="48.60092" lon="2.12258">
        <ele>80.8</ele>
        <time>2025-03-12T17:57:42.739Z</time>
      </trkpt>
      <trkpt lat="48.60099" lon="2.12257">
        <ele>80.9</ele>
        <time>2025-03-12T17:57:47.540Z</time>
      </trkpt>
      <trkpt lat="48.60107" lon="2.12255">
        <ele>81.1</ele>
        <time>2025-03-12T17:57:53.083Z</time>
      </trkpt>
      <trkpt lat="48.60115" lon="2.12253">
        <ele>81.1</ele>
        <time>2025-03-12T17:57:58.626Z</time>
      </trkpt>
      <trkpt lat="48.6012" lon="2.12252">
        <ele>81.1</ele>
        <time>2025-03-12T17:58:01.603Z</time>
      </trkpt>
      <trkpt lat="48.60125" lon="2.12251">
        <ele>81</ele>
        <time>2025-03-12T17:58:04.580Z</time>
      </trkpt>
      <trkpt lat="48.60129" lon="2.1225">
        <ele>81</ele>
        <time>2025-03-12T17:58:07.557Z</time>
      </trkpt>
      <trkpt lat="48.60134" lon="2.1225">
        <ele>81</ele>
        <time>2025-03-12T17:58:10.535Z</time>
      </trkpt>
      <trkpt lat="48.60139" lon="2.12249">
        <ele>80.9</ele>
        <time>2025-03-12T17:58:13.513Z</time>
      </trkpt>
      <trkpt lat="48.60144" lon="2.12248">
        <ele>80.8</ele>
        <time>2025-03-12T17:58:16.491Z</time>
      </trkpt>
      <trkpt lat="48.60148" lon="2.12247">
        <ele>80.6</ele>
        <time>2025-03-12T17:58:19.469Z</time>
      </trkpt>
      <trkpt lat="48.60153" lon="2.12246">
        <ele>80.4</ele>
        <time>2025-03-12T17:58:22.447Z</time>
      </trkpt>
      <trkpt lat="48.60152" lon="2.12254">
        <ele>80.7</ele>
        <time>2025-03-12T17:58:26.677Z</time>
      </trkpt>
      <trkpt lat="48.60151" lon="2.12262">
        <ele>81</ele>
        <time>2025-03-12T17:58:30.909Z</time>
      </trkpt>
      <trkpt lat="48.60153" lon="2.12273">
        <ele>81.3</ele>
        <time>2025-03-12T17:58:36.536Z</time>
      </trkpt>
      <trkpt lat="48.60155" lon="2.12284">
        <ele>81.6</ele>
        <time>2025-03-12T17:58:42.163Z</time>
      </trkpt>
      <trkpt lat="48.60155" lon="2.12284">
        <ele>81.6</ele>
        <time>2025-03-12T17:58:42.163Z</time>
        <extensions>
          <visugpx:TrkExtension xmlns:visugpx="https://www.visugpx.com/editgpx/">
            <visugpx:node>5</visugpx:node>
            </visugpx:TrkExtension>
        </extensions>
      </trkpt>
      <trkpt lat="48.60156" lon="2.12292">
        <ele>81.9</ele>
        <time>2025-03-12T17:58:46.057Z</time>
      </trkpt>
      <trkpt lat="48.60157" lon="2.12299">
        <ele>82.1</ele>
        <time>2025-03-12T17:58:49.951Z</time>
      </trkpt>
      <trkpt lat="48.60163" lon="2.12307">
        <ele>82.2</ele>
        <time>2025-03-12T17:58:55.253Z</time>
      </trkpt>
      <trkpt lat="48.60168" lon="2.12314">
        <ele>82.5</ele>
        <time>2025-03-12T17:59:00.556Z</time>
      </trkpt>
      <trkpt lat="48.60173" lon="2.1232">
        <ele>82.7</ele>
        <time>2025-03-12T17:59:05.222Z</time>
      </trkpt>
      <trkpt lat="48.60179" lon="2.12325">
        <ele>82.9</ele>
        <time>2025-03-12T17:59:09.889Z</time>
      </trkpt>
      <trkpt lat="48.60184" lon="2.12331">
        <ele>83.2</ele>
        <time>2025-03-12T17:59:14.556Z</time>
      </trkpt>
      <trkpt lat="48.60189" lon="2.12337">
        <ele>83.5</ele>
        <time>2025-03-12T17:59:19.223Z</time>
      </trkpt>
      <trkpt lat="48.60194" lon="2.12342">
        <ele>84</ele>
        <time>2025-03-12T17:59:23.890Z</time>
      </trkpt>
      <trkpt lat="48.602" lon="2.12348">
        <ele>84</ele>
        <time>2025-03-12T17:59:28.557Z</time>
      </trkpt>
      <trkpt lat="48.60205" lon="2.12353">
        <ele>84.1</ele>
        <time>2025-03-12T17:59:33.224Z</time>
      </trkpt>
      <trkpt lat="48.6021" lon="2.12359">
        <ele>84.1</ele>
        <time>2025-03-12T17:59:37.891Z</time>
      </trkpt>
      <trkpt lat="48.60218" lon="2.12362">
        <ele>83.6</ele>
        <time>2025-03-12T17:59:42.543Z</time>
      </trkpt>
      <trkpt lat="48.60225" lon="2.12365">
        <ele>83</ele>
        <time>2025-03-12T17:59:47.195Z</time>
      </trkpt>
      <trkpt lat="48.60233" lon="2.12368">
        <ele>82.7</ele>
        <time>2025-03-12T17:59:51.848Z</time>
      </trkpt>
      <trkpt lat="48.60241" lon="2.12371">
        <ele>82.4</ele>
        <time>2025-03-12T17:59:56.501Z</time>
      </trkpt>
      <trkpt lat="48.60248" lon="2.12373">
        <ele>82</ele>
        <time>2025-03-12T18:00:01.154Z</time>
      </trkpt>
      <trkpt lat="48.60256" lon="2.12376">
        <ele>82</ele>
        <time>2025-03-12T18:00:05.807Z</time>
      </trkpt>
      <trkpt lat="48.60263" lon="2.12379">
        <ele>82</ele>
        <time>2025-03-12T18:00:10.460Z</time>
      </trkpt>
      <trkpt lat="48.60271" lon="2.12382">
        <ele>81.9</ele>
        <time>2025-03-12T18:00:15.113Z</time>
      </trkpt>
      <trkpt lat="48.60276" lon="2.12381">
        <ele>81.8</ele>
        <time>2025-03-12T18:00:18.464Z</time>
      </trkpt>
      <trkpt lat="48.60281" lon="2.12381">
        <ele>81.8</ele>
        <time>2025-03-12T18:00:21.816Z</time>
      </trkpt>
      <trkpt lat="48.60286" lon="2.1238">
        <ele>81.9</ele>
        <time>2025-03-12T18:00:25.168Z</time>
      </trkpt>
      <trkpt lat="48.60291" lon="2.1238">
        <ele>82</ele>
        <time>2025-03-12T18:00:28.520Z</time>
      </trkpt>
      <trkpt lat="48.60296" lon="2.12379">
        <ele>82.1</ele>
        <time>2025-03-12T18:00:31.872Z</time>
      </trkpt>
      <trkpt lat="48.60301" lon="2.12378">
        <ele>82.1</ele>
        <time>2025-03-12T18:00:35.224Z</time>
      </trkpt>
      <trkpt lat="48.60306" lon="2.12378">
        <ele>82.2</ele>
        <time>2025-03-12T18:00:38.576Z</time>
      </trkpt>
      <trkpt lat="48.60311" lon="2.12377">
        <ele>82.1</ele>
        <time>2025-03-12T18:00:41.928Z</time>
      </trkpt>
      <trkpt lat="48.60319" lon="2.12378">
        <ele>82.2</ele>
        <time>2025-03-12T18:00:46.932Z</time>
      </trkpt>
      <trkpt lat="48.60326" lon="2.12379">
        <ele>82.3</ele>
        <time>2025-03-12T18:00:51.936Z</time>
      </trkpt>
      <trkpt lat="48.60334" lon="2.1238">
        <ele>82.4</ele>
        <time>2025-03-12T18:00:56.941Z</time>
      </trkpt>
      <trkpt lat="48.60341" lon="2.12381">
        <ele>82.2</ele>
        <time>2025-03-12T18:01:01.946Z</time>
      </trkpt>
      <trkpt lat="48.60349" lon="2.12387">
        <ele>82.3</ele>
        <time>2025-03-12T18:01:09.117Z</time>
      </trkpt>
      <trkpt lat="48.60357" lon="2.12393">
        <ele>82.7</ele>
        <time>2025-03-12T18:01:16.288Z</time>
      </trkpt>
      <trkpt lat="48.60364" lon="2.12398">
        <ele>83.5</ele>
        <time>2025-03-12T18:01:23.460Z</time>
      </trkpt>
      <trkpt lat="48.60372" lon="2.12404">
        <ele>84.7</ele>
        <time>2025-03-12T18:01:30.632Z</time>
      </trkpt>
      <trkpt lat="48.60378" lon="2.12404">
        <ele>85</ele>
        <time>2025-03-12T18:01:34.960Z</time>
      </trkpt>
      <trkpt lat="48.60384" lon="2.12403">
        <ele>85.3</ele>
        <time>2025-03-12T18:01:39.288Z</time>
      </trkpt>
      <trkpt lat="48.6039" lon="2.12403">
        <ele>85.5</ele>
        <time>2025-03-12T18:01:43.616Z</time>
      </trkpt>
      <trkpt lat="48.60397" lon="2.12402">
        <ele>85.6</ele>
        <time>2025-03-12T18:01:47.944Z</time>
      </trkpt>
      <trkpt lat="48.60403" lon="2.12402">
        <ele>85.6</ele>
        <time>2025-03-12T18:01:52.272Z</time>
      </trkpt>
      <trkpt lat="48.60409" lon="2.12401">
        <ele>85.7</ele>
        <time>2025-03-12T18:01:56.600Z</time>
      </trkpt>
      <trkpt lat="48.60415" lon="2.12401">
        <ele>85.8</ele>
        <time>2025-03-12T18:02:00.928Z</time>
      </trkpt>
      <trkpt lat="48.60421" lon="2.124">
        <ele>85.8</ele>
        <time>2025-03-12T18:02:05.256Z</time>
      </trkpt>
      <trkpt lat="48.60425" lon="2.124">
        <ele>85.8</ele>
        <time>2025-03-12T18:02:07.888Z</time>
      </trkpt>
      <trkpt lat="48.6043" lon="2.12399">
        <ele>85.7</ele>
        <time>2025-03-12T18:02:11.107Z</time>
      </trkpt>
      <trkpt lat="48.60435" lon="2.12398">
        <ele>85.7</ele>
        <time>2025-03-12T18:02:14.326Z</time>
      </trkpt>
      <trkpt lat="48.60441" lon="2.12397">
        <ele>85.5</ele>
        <time>2025-03-12T18:02:18.038Z</time>
      </trkpt>
      <trkpt lat="48.60447" lon="2.12395">
        <ele>85.4</ele>
        <time>2025-03-12T18:02:21.751Z</time>
      </trkpt>
      <trkpt lat="48.60454" lon="2.12404">
        <ele>86.1</ele>
        <time>2025-03-12T18:02:29.209Z</time>
      </trkpt>
      <trkpt lat="48.60461" lon="2.12412">
        <ele>86.7</ele>
        <time>2025-03-12T18:02:36.667Z</time>
      </trkpt>
      <trkpt lat="48.60468" lon="2.12417">
        <ele>87</ele>
        <time>2025-03-12T18:02:42.215Z</time>
      </trkpt>
      <trkpt lat="48.60475" lon="2.12421">
        <ele>87.2</ele>
        <time>2025-03-12T18:02:47.764Z</time>
      </trkpt>
      <trkpt lat="48.60481" lon="2.12424">
        <ele>87.3</ele>
        <time>2025-03-12T18:02:52.120Z</time>
      </trkpt>
      <trkpt lat="48.60487" lon="2.12426">
        <ele>87.5</ele>
        <time>2025-03-12T18:02:56.476Z</time>
      </trkpt>
      <trkpt lat="48.60493" lon="2.12429">
        <ele>87.8</ele>
        <time>2025-03-12T18:03:00.832Z</time>
      </trkpt>
      <trkpt lat="48.605" lon="2.12431">
        <ele>88</ele>
        <time>2025-03-12T18:03:05.188Z</time>
      </trkpt>
      <trkpt lat="48.60506" lon="2.12434">
        <ele>88.3</ele>
        <time>2025-03-12T18:03:09.544Z</time>
      </trkpt>
      <trkpt lat="48.60512" lon="2.12436">
        <ele>88.5</ele>
        <time>2025-03-12T18:03:13.900Z</time>
      </trkpt>
      <trkpt lat="48.60518" lon="2.12439">
        <ele>88.7</ele>
        <time>2025-03-12T18:03:18.256Z</time>
      </trkpt>
      <trkpt lat="48.60524" lon="2.12441">
        <ele>88.9</ele>
        <time>2025-03-12T18:03:22.612Z</time>
      </trkpt>
      <trkpt lat="48.6053" lon="2.12444">
        <ele>88.9</ele>
        <time>2025-03-12T18:03:26.969Z</time>
      </trkpt>
      <trkpt lat="48.60536" lon="2.12446">
        <ele>88.8</ele>
        <time>2025-03-12T18:03:31.326Z</time>
      </trkpt>
      <trkpt lat="48.60542" lon="2.12449">
        <ele>88.6</ele>
        <time>2025-03-12T18:03:35.683Z</time>
      </trkpt>
      <trkpt lat="48.60549" lon="2.12451">
        <ele>88.5</ele>
        <time>2025-03-12T18:03:40.040Z</time>
      </trkpt>
      <trkpt lat="48.60555" lon="2.12454">
        <ele>88.4</ele>
        <time>2025-03-12T18:03:44.397Z</time>
      </trkpt>
      <trkpt lat="48.60561" lon="2.12456">
        <ele>88.4</ele>
        <time>2025-03-12T18:03:48.754Z</time>
      </trkpt>
      <trkpt lat="48.60567" lon="2.12459">
        <ele>88.5</ele>
        <time>2025-03-12T18:03:53.111Z</time>
      </trkpt>
      <trkpt lat="48.60573" lon="2.12461">
        <ele>88.6</ele>
        <time>2025-03-12T18:03:57.468Z</time>
      </trkpt>
      <trkpt lat="48.6058" lon="2.12464">
        <ele>88.7</ele>
        <time>2025-03-12T18:04:02.667Z</time>
      </trkpt>
      <trkpt lat="48.60587" lon="2.12466">
        <ele>88.9</ele>
        <time>2025-03-12T18:04:07.866Z</time>
      </trkpt>
      <trkpt lat="48.60594" lon="2.12469">
        <ele>89.2</ele>
        <time>2025-03-12T18:04:13.065Z</time>
      </trkpt>
      <trkpt lat="48.60601" lon="2.12471">
        <ele>89.6</ele>
        <time>2025-03-12T18:04:18.264Z</time>
      </trkpt>
      <trkpt lat="48.60607" lon="2.12474">
        <ele>89.9</ele>
        <time>2025-03-12T18:04:23.464Z</time>
      </trkpt>
      <trkpt lat="48.60614" lon="2.12476">
        <ele>90.1</ele>
        <time>2025-03-12T18:04:28.664Z</time>
      </trkpt>
      <trkpt lat="48.60621" lon="2.12479">
        <ele>90.4</ele>
        <time>2025-03-12T18:04:33.864Z</time>
      </trkpt>
      <trkpt lat="48.60628" lon="2.12481">
        <ele>90.6</ele>
        <time>2025-03-12T18:04:39.064Z</time>
      </trkpt>
      <trkpt lat="48.60634" lon="2.12479">
        <ele>90.8</ele>
        <time>2025-03-12T18:04:42.839Z</time>
      </trkpt>
      <trkpt lat="48.60639" lon="2.12478">
        <ele>91</ele>
        <time>2025-03-12T18:04:46.614Z</time>
      </trkpt>
      <trkpt lat="48.60645" lon="2.12476">
        <ele>91.2</ele>
        <time>2025-03-12T18:04:50.389Z</time>
      </trkpt>
      <trkpt lat="48.6065" lon="2.12475">
        <ele>91.4</ele>
        <time>2025-03-12T18:04:54.164Z</time>
      </trkpt>
      <trkpt lat="48.60656" lon="2.12473">
        <ele>91.6</ele>
        <time>2025-03-12T18:04:57.939Z</time>
      </trkpt>
      <trkpt lat="48.60661" lon="2.12471">
        <ele>91.8</ele>
        <time>2025-03-12T18:05:01.714Z</time>
      </trkpt>
      <trkpt lat="48.60667" lon="2.1247">
        <ele>91.9</ele>
        <time>2025-03-12T18:05:05.489Z</time>
      </trkpt>
      <trkpt lat="48.60673" lon="2.12468">
        <ele>91.9</ele>
        <time>2025-03-12T18:05:09.264Z</time>
      </trkpt>
      <trkpt lat="48.60678" lon="2.12466">
        <ele>91.9</ele>
        <time>2025-03-12T18:05:13.039Z</time>
      </trkpt>
      <trkpt lat="48.60684" lon="2.12465">
        <ele>91.9</ele>
        <time>2025-03-12T18:05:16.814Z</time>
      </trkpt>
      <trkpt lat="48.60689" lon="2.12463">
        <ele>91.9</ele>
        <time>2025-03-12T18:05:20.589Z</time>
      </trkpt>
      <trkpt lat="48.60695" lon="2.12462">
        <ele>92</ele>
        <time>2025-03-12T18:05:24.364Z</time>
      </trkpt>
      <trkpt lat="48.607" lon="2.1246">
        <ele>92.2</ele>
        <time>2025-03-12T18:05:28.139Z</time>
      </trkpt>
      <trkpt lat="48.60706" lon="2.12458">
        <ele>92.4</ele>
        <time>2025-03-12T18:05:31.914Z</time>
      </trkpt>
      <trkpt lat="48.60711" lon="2.12457">
        <ele>92.6</ele>
        <time>2025-03-12T18:05:35.689Z</time>
      </trkpt>
      <trkpt lat="48.60717" lon="2.12455">
        <ele>92.8</ele>
        <time>2025-03-12T18:05:39.464Z</time>
      </trkpt>
      <trkpt lat="48.60723" lon="2.12453">
        <ele>93</ele>
        <time>2025-03-12T18:05:43.239Z</time>
      </trkpt>
      <trkpt lat="48.60728" lon="2.12452">
        <ele>93.1</ele>
        <time>2025-03-12T18:05:47.014Z</time>
      </trkpt>
      <trkpt lat="48.60734" lon="2.1245">
        <ele>93.1</ele>
        <time>2025-03-12T18:05:50.789Z</time>
      </trkpt>
      <trkpt lat="48.60739" lon="2.12449">
        <ele>93.1</ele>
        <time>2025-03-12T18:05:54.564Z</time>
      </trkpt>
      <trkpt lat="48.60745" lon="2.12447">
        <ele>93.1</ele>
        <time>2025-03-12T18:05:58.339Z</time>
      </trkpt>
      <trkpt lat="48.6075" lon="2.12445">
        <ele>93</ele>
        <time>2025-03-12T18:06:02.114Z</time>
      </trkpt>
      <trkpt lat="48.60756" lon="2.12444">
        <ele>93.2</ele>
        <time>2025-03-12T18:06:05.889Z</time>
      </trkpt>
      <trkpt lat="48.60762" lon="2.12442">
        <ele>93.3</ele>
        <time>2025-03-12T18:06:09.664Z</time>
      </trkpt>
      <trkpt lat="48.60767" lon="2.1244">
        <ele>93.5</ele>
        <time>2025-03-12T18:06:13.439Z</time>
      </trkpt>
      <trkpt lat="48.60773" lon="2.12439">
        <ele>93.6</ele>
        <time>2025-03-12T18:06:17.214Z</time>
      </trkpt>
      <trkpt lat="48.60778" lon="2.12437">
        <ele>93.7</ele>
        <time>2025-03-12T18:06:20.989Z</time>
      </trkpt>
      <trkpt lat="48.60784" lon="2.12436">
        <ele>93.7</ele>
        <time>2025-03-12T18:06:24.764Z</time>
      </trkpt>
      <trkpt lat="48.60789" lon="2.12434">
        <ele>93.6</ele>
        <time>2025-03-12T18:06:28.539Z</time>
      </trkpt>
      <trkpt lat="48.60795" lon="2.12432">
        <ele>93.6</ele>
        <time>2025-03-12T18:06:32.314Z</time>
      </trkpt>
      <trkpt lat="48.608" lon="2.12431">
        <ele>93.5</ele>
        <time>2025-03-12T18:06:36.089Z</time>
      </trkpt>
      <trkpt lat="48.60806" lon="2.12429">
        <ele>93.4</ele>
        <time>2025-03-12T18:06:39.864Z</time>
      </trkpt>
      <trkpt lat="48.60812" lon="2.12427">
        <ele>93.4</ele>
        <time>2025-03-12T18:06:43.639Z</time>
      </trkpt>
      <trkpt lat="48.60817" lon="2.12426">
        <ele>93.3</ele>
        <time>2025-03-12T18:06:47.414Z</time>
      </trkpt>
      <trkpt lat="48.60823" lon="2.12424">
        <ele>93.3</ele>
        <time>2025-03-12T18:06:51.189Z</time>
      </trkpt>
      <trkpt lat="48.60828" lon="2.12423">
        <ele>93.2</ele>
        <time>2025-03-12T18:06:54.964Z</time>
      </trkpt>
      <trkpt lat="48.60834" lon="2.12421">
        <ele>93.2</ele>
        <time>2025-03-12T18:06:58.739Z</time>
      </trkpt>
      <trkpt lat="48.60839" lon="2.12419">
        <ele>93.3</ele>
        <time>2025-03-12T18:07:02.514Z</time>
      </trkpt>
      <trkpt lat="48.60845" lon="2.12418">
        <ele>93.4</ele>
        <time>2025-03-12T18:07:06.289Z</time>
      </trkpt>
      <trkpt lat="48.60851" lon="2.12416">
        <ele>93.6</ele>
        <time>2025-03-12T18:07:10.064Z</time>
      </trkpt>
      <trkpt lat="48.60856" lon="2.12414">
        <ele>93.7</ele>
        <time>2025-03-12T18:07:13.839Z</time>
      </trkpt>
      <trkpt lat="48.60862" lon="2.12413">
        <ele>93.7</ele>
        <time>2025-03-12T18:07:17.614Z</time>
      </trkpt>
      <trkpt lat="48.60867" lon="2.12411">
        <ele>93.6</ele>
        <time>2025-03-12T18:07:21.389Z</time>
      </trkpt>
      <trkpt lat="48.60873" lon="2.1241">
        <ele>93.6</ele>
        <time>2025-03-12T18:07:25.164Z</time>
      </trkpt>
      <trkpt lat="48.60878" lon="2.12408">
        <ele>93.6</ele>
        <time>2025-03-12T18:07:28.939Z</time>
      </trkpt>
      <trkpt lat="48.60884" lon="2.12406">
        <ele>93.6</ele>
        <time>2025-03-12T18:07:32.714Z</time>
      </trkpt>
      <trkpt lat="48.60889" lon="2.12405">
        <ele>93.6</ele>
        <time>2025-03-12T18:07:36.489Z</time>
      </trkpt>
      <trkpt lat="48.60895" lon="2.12403">
        <ele>93.5</ele>
        <time>2025-03-12T18:07:40.264Z</time>
      </trkpt>
      <trkpt lat="48.60901" lon="2.12401">
        <ele>93.5</ele>
        <time>2025-03-12T18:07:44.039Z</time>
      </trkpt>
      <trkpt lat="48.60906" lon="2.124">
        <ele>93.4</ele>
        <time>2025-03-12T18:07:47.814Z</time>
      </trkpt>
      <trkpt lat="48.60912" lon="2.12398">
        <ele>93.3</ele>
        <time>2025-03-12T18:07:51.589Z</time>
      </trkpt>
      <trkpt lat="48.60917" lon="2.12397">
        <ele>93.3</ele>
        <time>2025-03-12T18:07:55.364Z</time>
      </trkpt>
      <trkpt lat="48.60923" lon="2.12395">
        <ele>93.2</ele>
        <time>2025-03-12T18:07:59.139Z</time>
      </trkpt>
      <trkpt lat="48.60928" lon="2.12393">
        <ele>93.2</ele>
        <time>2025-03-12T18:08:02.914Z</time>
      </trkpt>
      <trkpt lat="48.60934" lon="2.12392">
        <ele>93.1</ele>
        <time>2025-03-12T18:08:06.689Z</time>
      </trkpt>
      <trkpt lat="48.6094" lon="2.1239">
        <ele>93</ele>
        <time>2025-03-12T18:08:10.465Z</time>
      </trkpt>
      <trkpt lat="48.60945" lon="2.12388">
        <ele>93</ele>
        <time>2025-03-12T18:08:14.241Z</time>
      </trkpt>
      <trkpt lat="48.60951" lon="2.12387">
        <ele>92.8</ele>
        <time>2025-03-12T18:08:18.017Z</time>
      </trkpt>
      <trkpt lat="48.60956" lon="2.12385">
        <ele>92.7</ele>
        <time>2025-03-12T18:08:21.793Z</time>
      </trkpt>
      <trkpt lat="48.60962" lon="2.12384">
        <ele>92.6</ele>
        <time>2025-03-12T18:08:25.569Z</time>
      </trkpt>
      <trkpt lat="48.60967" lon="2.12382">
        <ele>92.5</ele>
        <time>2025-03-12T18:08:29.345Z</time>
      </trkpt>
      <trkpt lat="48.60973" lon="2.1238">
        <ele>92.4</ele>
        <time>2025-03-12T18:08:33.121Z</time>
      </trkpt>
      <trkpt lat="48.60978" lon="2.12379">
        <ele>92.3</ele>
        <time>2025-03-12T18:08:36.897Z</time>
      </trkpt>
      <trkpt lat="48.60984" lon="2.12377">
        <ele>92.1</ele>
        <time>2025-03-12T18:08:40.673Z</time>
      </trkpt>
      <trkpt lat="48.60991" lon="2.12373">
        <ele>91.9</ele>
        <time>2025-03-12T18:08:45.213Z</time>
      </trkpt>
      <trkpt lat="48.60995" lon="2.12368">
        <ele>91.5</ele>
        <time>2025-03-12T18:08:48.200Z</time>
      </trkpt>
      <trkpt lat="48.60998" lon="2.12364">
        <ele>91.2</ele>
        <time>2025-03-12T18:08:50.502Z</time>
      </trkpt>
      <trkpt lat="48.61001" lon="2.12354">
        <ele>90.8</ele>
        <time>2025-03-12T18:08:54.682Z</time>
      </trkpt>
      <trkpt lat="48.61" lon="2.12343">
        <ele>90.3</ele>
        <time>2025-03-12T18:08:59.143Z</time>
      </trkpt>
      <trkpt lat="48.60998" lon="2.12331">
        <ele>89.8</ele>
        <time>2025-03-12T18:09:03.605Z</time>
      </trkpt>
      <trkpt lat="48.60996" lon="2.12323">
        <ele>89.3</ele>
        <time>2025-03-12T18:09:06.860Z</time>
      </trkpt>
      <trkpt lat="48.60994" lon="2.12315">
        <ele>88.7</ele>
        <time>2025-03-12T18:09:10.116Z</time>
      </trkpt>
      <trkpt lat="48.60993" lon="2.12303">
        <ele>87.9</ele>
        <time>2025-03-12T18:09:14.598Z</time>
      </trkpt>
      <trkpt lat="48.60992" lon="2.12292">
        <ele>87.3</ele>
        <time>2025-03-12T18:09:19.080Z</time>
      </trkpt>
      <trkpt lat="48.6099" lon="2.1228">
        <ele>86.8</ele>
        <time>2025-03-12T18:09:23.563Z</time>
      </trkpt>
      <trkpt lat="48.60989" lon="2.12269">
        <ele>86.3</ele>
        <time>2025-03-12T18:09:28.046Z</time>
      </trkpt>
      <trkpt lat="48.60988" lon="2.12257">
        <ele>85.8</ele>
        <time>2025-03-12T18:09:32.529Z</time>
      </trkpt>
      <trkpt lat="48.60987" lon="2.12245">
        <ele>85.4</ele>
        <time>2025-03-12T18:09:37.012Z</time>
      </trkpt>
      <trkpt lat="48.60985" lon="2.12234">
        <ele>85.2</ele>
        <time>2025-03-12T18:09:41.495Z</time>
      </trkpt>
      <trkpt lat="48.60984" lon="2.12222">
        <ele>85</ele>
        <time>2025-03-12T18:09:45.979Z</time>
      </trkpt>
      <trkpt lat="48.60985" lon="2.12209">
        <ele>85</ele>
        <time>2025-03-12T18:09:51.672Z</time>
      </trkpt>
      <trkpt lat="48.60987" lon="2.122">
        <ele>85</ele>
        <time>2025-03-12T18:09:55.599Z</time>
      </trkpt>
      <trkpt lat="48.60989" lon="2.12192">
        <ele>85</ele>
        <time>2025-03-12T18:09:59.527Z</time>
      </trkpt>
      <trkpt lat="48.60991" lon="2.12183">
        <ele>84.9</ele>
        <time>2025-03-12T18:10:03.455Z</time>
      </trkpt>
      <trkpt lat="48.60993" lon="2.12174">
        <ele>84.8</ele>
        <time>2025-03-12T18:10:07.383Z</time>
      </trkpt>
      <trkpt lat="48.60994" lon="2.12167">
        <ele>84.8</ele>
        <time>2025-03-12T18:10:10.588Z</time>
      </trkpt>
      <trkpt lat="48.60996" lon="2.1216">
        <ele>84.8</ele>
        <time>2025-03-12T18:10:13.793Z</time>
      </trkpt>
      <trkpt lat="48.60997" lon="2.12153">
        <ele>84.9</ele>
        <time>2025-03-12T18:10:16.998Z</time>
      </trkpt>
      <trkpt lat="48.60998" lon="2.12146">
        <ele>84.9</ele>
        <time>2025-03-12T18:10:20.204Z</time>
      </trkpt>
      <trkpt lat="48.61" lon="2.12137">
        <ele>85.1</ele>
        <time>2025-03-12T18:10:25.103Z</time>
      </trkpt>
      <trkpt lat="48.61003" lon="2.12128">
        <ele>85.5</ele>
        <time>2025-03-12T18:10:30.002Z</time>
      </trkpt>
      <trkpt lat="48.61005" lon="2.12118">
        <ele>85.8</ele>
        <time>2025-03-12T18:10:34.901Z</time>
      </trkpt>
      <trkpt lat="48.61007" lon="2.12109">
        <ele>86</ele>
        <time>2025-03-12T18:10:39.800Z</time>
      </trkpt>
      <trkpt lat="48.6101" lon="2.12103">
        <ele>86</ele>
        <time>2025-03-12T18:10:43.248Z</time>
      </trkpt>
      <trkpt lat="48.61013" lon="2.12096">
        <ele>86</ele>
        <time>2025-03-12T18:10:46.696Z</time>
      </trkpt>
      <trkpt lat="48.61019" lon="2.1209">
        <ele>86</ele>
        <time>2025-03-12T18:10:51.157Z</time>
      </trkpt>
      <trkpt lat="48.61024" lon="2.12084">
        <ele>86</ele>
        <time>2025-03-12T18:10:55.619Z</time>
      </trkpt>
      <trkpt lat="48.6103" lon="2.1208">
        <ele>86.2</ele>
        <time>2025-03-12T18:11:00.484Z</time>
      </trkpt>
      <trkpt lat="48.61036" lon="2.12076">
        <ele>86.5</ele>
        <time>2025-03-12T18:11:05.349Z</time>
      </trkpt>
      <trkpt lat="48.61044" lon="2.12074">
        <ele>86.7</ele>
        <time>2025-03-12T18:11:10.766Z</time>
      </trkpt>
      <trkpt lat="48.61052" lon="2.12073">
        <ele>86.9</ele>
        <time>2025-03-12T18:11:16.183Z</time>
      </trkpt>
      <trkpt lat="48.61059" lon="2.12071">
        <ele>87</ele>
        <time>2025-03-12T18:11:21.601Z</time>
      </trkpt>
      <trkpt lat="48.61067" lon="2.12069">
        <ele>87</ele>
        <time>2025-03-12T18:11:27.019Z</time>
      </trkpt>
      <trkpt lat="48.61072" lon="2.12067">
        <ele>87</ele>
        <time>2025-03-12T18:11:30.676Z</time>
      </trkpt>
      <trkpt lat="48.61078" lon="2.12066">
        <ele>87</ele>
        <time>2025-03-12T18:11:34.333Z</time>
      </trkpt>
      <trkpt lat="48.61083" lon="2.12064">
        <ele>87</ele>
        <time>2025-03-12T18:11:37.990Z</time>
      </trkpt>
      <trkpt lat="48.61089" lon="2.12062">
        <ele>87</ele>
        <time>2025-03-12T18:11:41.647Z</time>
      </trkpt>
      <trkpt lat="48.61094" lon="2.1206">
        <ele>87</ele>
        <time>2025-03-12T18:11:45.304Z</time>
      </trkpt>
      <trkpt lat="48.611" lon="2.12059">
        <ele>87</ele>
        <time>2025-03-12T18:11:48.961Z</time>
      </trkpt>
      <trkpt lat="48.61105" lon="2.12057">
        <ele>87</ele>
        <time>2025-03-12T18:11:52.618Z</time>
      </trkpt>
      <trkpt lat="48.61111" lon="2.12055">
        <ele>87</ele>
        <time>2025-03-12T18:11:56.275Z</time>
      </trkpt>
      <trkpt lat="48.61116" lon="2.12053">
        <ele>87</ele>
        <time>2025-03-12T18:11:59.932Z</time>
      </trkpt>
      <trkpt lat="48.61121" lon="2.12052">
        <ele>87</ele>
        <time>2025-03-12T18:12:03.590Z</time>
      </trkpt>
      <trkpt lat="48.61127" lon="2.1205">
        <ele>87</ele>
        <time>2025-03-12T18:12:07.248Z</time>
      </trkpt>
      <trkpt lat="48.61132" lon="2.12048">
        <ele>87</ele>
        <time>2025-03-12T18:12:10.906Z</time>
      </trkpt>
      <trkpt lat="48.61138" lon="2.12046">
        <ele>87</ele>
        <time>2025-03-12T18:12:14.564Z</time>
      </trkpt>
      <trkpt lat="48.61143" lon="2.12045">
        <ele>87</ele>
        <time>2025-03-12T18:12:18.222Z</time>
      </trkpt>
      <trkpt lat="48.61149" lon="2.12043">
        <ele>87</ele>
        <time>2025-03-12T18:12:21.880Z</time>
      </trkpt>
      <trkpt lat="48.61154" lon="2.12041">
        <ele>87</ele>
        <time>2025-03-12T18:12:25.538Z</time>
      </trkpt>
      <trkpt lat="48.61159" lon="2.1204">
        <ele>87</ele>
        <time>2025-03-12T18:12:28.593Z</time>
      </trkpt>
      <trkpt lat="48.61163" lon="2.12038">
        <ele>87</ele>
        <time>2025-03-12T18:12:31.648Z</time>
      </trkpt>
      <trkpt lat="48.61168" lon="2.12037">
        <ele>87</ele>
        <time>2025-03-12T18:12:34.703Z</time>
      </trkpt>
      <trkpt lat="48.61172" lon="2.12036">
        <ele>87</ele>
        <time>2025-03-12T18:12:37.758Z</time>
      </trkpt>
      <trkpt lat="48.61177" lon="2.12034">
        <ele>87</ele>
        <time>2025-03-12T18:12:40.813Z</time>
      </trkpt>
      <trkpt lat="48.61181" lon="2.12033">
        <ele>87</ele>
        <time>2025-03-12T18:12:43.868Z</time>
      </trkpt>
      <trkpt lat="48.61186" lon="2.12032">
        <ele>87</ele>
        <time>2025-03-12T18:12:46.923Z</time>
      </trkpt>
      <trkpt lat="48.61191" lon="2.12031">
        <ele>87</ele>
        <time>2025-03-12T18:12:49.978Z</time>
      </trkpt>
      <trkpt lat="48.61195" lon="2.12029">
        <ele>87</ele>
        <time>2025-03-12T18:12:53.034Z</time>
      </trkpt>
      <trkpt lat="48.612" lon="2.12028">
        <ele>87</ele>
        <time>2025-03-12T18:12:56.090Z</time>
      </trkpt>
      <trkpt lat="48.61204" lon="2.12027">
        <ele>87</ele>
        <time>2025-03-12T18:12:59.146Z</time>
      </trkpt>
      <trkpt lat="48.61209" lon="2.12025">
        <ele>87</ele>
        <time>2025-03-12T18:13:02.202Z</time>
      </trkpt>
      <trkpt lat="48.61213" lon="2.12024">
        <ele>87</ele>
        <time>2025-03-12T18:13:05.258Z</time>
      </trkpt>
      <trkpt lat="48.61218" lon="2.12023">
        <ele>87</ele>
        <time>2025-03-12T18:13:08.314Z</time>
      </trkpt>
      <trkpt lat="48.61222" lon="2.12021">
        <ele>87</ele>
        <time>2025-03-12T18:13:11.370Z</time>
      </trkpt>
      <trkpt lat="48.61227" lon="2.1202">
        <ele>87</ele>
        <time>2025-03-12T18:13:14.426Z</time>
      </trkpt>
      <trkpt lat="48.61232" lon="2.12017">
        <ele>87</ele>
        <time>2025-03-12T18:13:17.812Z</time>
      </trkpt>
      <trkpt lat="48.61237" lon="2.12014">
        <ele>87</ele>
        <time>2025-03-12T18:13:21.198Z</time>
      </trkpt>
      <trkpt lat="48.61241" lon="2.12011">
        <ele>87</ele>
        <time>2025-03-12T18:13:24.585Z</time>
      </trkpt>
      <trkpt lat="48.61246" lon="2.12008">
        <ele>87</ele>
        <time>2025-03-12T18:13:27.972Z</time>
      </trkpt>
      <trkpt lat="48.61251" lon="2.12004">
        <ele>87</ele>
        <time>2025-03-12T18:13:32.121Z</time>
      </trkpt>
      <trkpt lat="48.61256" lon="2.11999">
        <ele>87.2</ele>
        <time>2025-03-12T18:13:36.270Z</time>
      </trkpt>
      <trkpt lat="48.61261" lon="2.11995">
        <ele>87.4</ele>
        <time>2025-03-12T18:13:40.420Z</time>
      </trkpt>
      <trkpt lat="48.61266" lon="2.1199">
        <ele>87.6</ele>
        <time>2025-03-12T18:13:44.570Z</time>
      </trkpt>
      <trkpt lat="48.61273" lon="2.11982">
        <ele>87.8</ele>
        <time>2025-03-12T18:13:50.576Z</time>
      </trkpt>
      <trkpt lat="48.61281" lon="2.11974">
        <ele>88</ele>
        <time>2025-03-12T18:13:56.582Z</time>
      </trkpt>
      <trkpt lat="48.61288" lon="2.11966">
        <ele>87.9</ele>
        <time>2025-03-12T18:14:02.589Z</time>
      </trkpt>
      <trkpt lat="48.61295" lon="2.11958">
        <ele>87.8</ele>
        <time>2025-03-12T18:14:08.596Z</time>
      </trkpt>
      <trkpt lat="48.613" lon="2.11951">
        <ele>87.8</ele>
        <time>2025-03-12T18:14:13.079Z</time>
      </trkpt>
      <trkpt lat="48.61306" lon="2.11944">
        <ele>88</ele>
        <time>2025-03-12T18:14:18.408Z</time>
      </trkpt>
      <trkpt lat="48.61312" lon="2.11936">
        <ele>88</ele>
        <time>2025-03-12T18:14:23.737Z</time>
      </trkpt>
      <trkpt lat="48.61319" lon="2.11929">
        <ele>88</ele>
        <time>2025-03-12T18:14:29.563Z</time>
      </trkpt>
      <trkpt lat="48.61326" lon="2.11921">
        <ele>88</ele>
        <time>2025-03-12T18:14:35.389Z</time>
      </trkpt>
      <trkpt lat="48.61332" lon="2.11914">
        <ele>88.2</ele>
        <time>2025-03-12T18:14:41.215Z</time>
      </trkpt>
      <trkpt lat="48.61339" lon="2.11906">
        <ele>88.6</ele>
        <time>2025-03-12T18:14:47.042Z</time>
      </trkpt>
      <trkpt lat="48.61346" lon="2.11898">
        <ele>88.8</ele>
        <time>2025-03-12T18:14:54.361Z</time>
      </trkpt>
      <trkpt lat="48.61353" lon="2.11889">
        <ele>88.6</ele>
        <time>2025-03-12T18:15:01.680Z</time>
      </trkpt>
      <trkpt lat="48.6136" lon="2.11881">
        <ele>89.3</ele>
        <time>2025-03-12T18:15:08.999Z</time>
      </trkpt>
      <trkpt lat="48.61367" lon="2.11872">
        <ele>91</ele>
        <time>2025-03-12T18:15:16.319Z</time>
      </trkpt>
      <trkpt lat="48.61372" lon="2.11868">
        <ele>91.8</ele>
        <time>2025-03-12T18:15:20.083Z</time>
      </trkpt>
      <trkpt lat="48.61377" lon="2.11863">
        <ele>92.4</ele>
        <time>2025-03-12T18:15:23.847Z</time>
      </trkpt>
      <trkpt lat="48.61381" lon="2.11859">
        <ele>92.8</ele>
        <time>2025-03-12T18:15:27.611Z</time>
      </trkpt>
      <trkpt lat="48.61386" lon="2.11854">
        <ele>92.9</ele>
        <time>2025-03-12T18:15:31.375Z</time>
      </trkpt>
      <trkpt lat="48.61391" lon="2.1185">
        <ele>92.8</ele>
        <time>2025-03-12T18:15:35.140Z</time>
      </trkpt>
      <trkpt lat="48.61396" lon="2.11845">
        <ele>92.4</ele>
        <time>2025-03-12T18:15:38.905Z</time>
      </trkpt>
      <trkpt lat="48.614" lon="2.11841">
        <ele>91.9</ele>
        <time>2025-03-12T18:15:42.670Z</time>
      </trkpt>
      <trkpt lat="48.61405" lon="2.11836">
        <ele>91.3</ele>
        <time>2025-03-12T18:15:46.435Z</time>
      </trkpt>
      <trkpt lat="48.61413" lon="2.1183">
        <ele>90.4</ele>
        <time>2025-03-12T18:15:51.411Z</time>
      </trkpt>
      <trkpt lat="48.6142" lon="2.11823">
        <ele>90</ele>
        <time>2025-03-12T18:15:56.387Z</time>
      </trkpt>
      <trkpt lat="48.61426" lon="2.11819">
        <ele>90.2</ele>
        <time>2025-03-12T18:16:00.651Z</time>
      </trkpt>
      <trkpt lat="48.61432" lon="2.11815">
        <ele>90.4</ele>
        <time>2025-03-12T18:16:04.915Z</time>
      </trkpt>
      <trkpt lat="48.61438" lon="2.11811">
        <ele>90.6</ele>
        <time>2025-03-12T18:16:09.179Z</time>
      </trkpt>
      <trkpt lat="48.61444" lon="2.11807">
        <ele>90.9</ele>
        <time>2025-03-12T18:16:13.443Z</time>
      </trkpt>
      <trkpt lat="48.61449" lon="2.11803">
        <ele>90.7</ele>
        <time>2025-03-12T18:16:17.707Z</time>
      </trkpt>
      <trkpt lat="48.61455" lon="2.11799">
        <ele>90.5</ele>
        <time>2025-03-12T18:16:21.971Z</time>
      </trkpt>
      <trkpt lat="48.61461" lon="2.11795">
        <ele>90.2</ele>
        <time>2025-03-12T18:16:26.235Z</time>
      </trkpt>
      <trkpt lat="48.61467" lon="2.11791">
        <ele>90.1</ele>
        <time>2025-03-12T18:16:30.500Z</time>
      </trkpt>
      <trkpt lat="48.61474" lon="2.11787">
        <ele>90</ele>
        <time>2025-03-12T18:16:35.227Z</time>
      </trkpt>
      <trkpt lat="48.61481" lon="2.1179">
        <ele>90</ele>
        <time>2025-03-12T18:16:40.119Z</time>
      </trkpt>
      <trkpt lat="48.61489" lon="2.11792">
        <ele>90</ele>
        <time>2025-03-12T18:16:45.011Z</time>
      </trkpt>
      <trkpt lat="48.61496" lon="2.11795">
        <ele>90</ele>
        <time>2025-03-12T18:16:49.903Z</time>
      </trkpt>
      <trkpt lat="48.61503" lon="2.11797">
        <ele>90</ele>
        <time>2025-03-12T18:16:54.795Z</time>
      </trkpt>
      <trkpt lat="48.615" lon="2.11786">
        <ele>90</ele>
        <time>2025-03-12T18:17:00.104Z</time>
      </trkpt>
      <trkpt lat="48.61496" lon="2.11775">
        <ele>90</ele>
        <time>2025-03-12T18:17:05.413Z</time>
      </trkpt>
      <trkpt lat="48.61493" lon="2.11764">
        <ele>90</ele>
        <time>2025-03-12T18:17:10.723Z</time>
      </trkpt>
      <trkpt lat="48.61489" lon="2.11753">
        <ele>90</ele>
        <time>2025-03-12T18:17:16.034Z</time>
      </trkpt>
      <trkpt lat="48.61487" lon="2.11743">
        <ele>90</ele>
        <time>2025-03-12T18:17:20.525Z</time>
      </trkpt>
      <trkpt lat="48.61485" lon="2.11734">
        <ele>90</ele>
        <time>2025-03-12T18:17:25.016Z</time>
      </trkpt>
      <trkpt lat="48.61482" lon="2.11724">
        <ele>90</ele>
        <time>2025-03-12T18:17:29.508Z</time>
      </trkpt>
      <trkpt lat="48.6148" lon="2.11714">
        <ele>90</ele>
        <time>2025-03-12T18:17:34.001Z</time>
      </trkpt>
      <trkpt lat="48.6148" lon="2.11706">
        <ele>90</ele>
        <time>2025-03-12T18:17:37.762Z</time>
      </trkpt>
      <trkpt lat="48.61479" lon="2.11698">
        <ele>90</ele>
        <time>2025-03-12T18:17:41.523Z</time>
      </trkpt>
      <trkpt lat="48.61479" lon="2.1169">
        <ele>90.2</ele>
        <time>2025-03-12T18:17:45.284Z</time>
      </trkpt>
      <trkpt lat="48.61478" lon="2.11682">
        <ele>90.4</ele>
        <time>2025-03-12T18:17:49.045Z</time>
      </trkpt>
      <trkpt lat="48.61478" lon="2.11674">
        <ele>90.7</ele>
        <time>2025-03-12T18:17:52.806Z</time>
      </trkpt>
      <trkpt lat="48.61477" lon="2.11666">
        <ele>91</ele>
        <time>2025-03-12T18:17:56.568Z</time>
      </trkpt>
      <trkpt lat="48.61477" lon="2.11658">
        <ele>91</ele>
        <time>2025-03-12T18:18:00.330Z</time>
      </trkpt>
      <trkpt lat="48.61476" lon="2.1165">
        <ele>91</ele>
        <time>2025-03-12T18:18:04.092Z</time>
      </trkpt>
      <trkpt lat="48.61476" lon="2.11642">
        <ele>91</ele>
        <time>2025-03-12T18:18:07.854Z</time>
      </trkpt>
      <trkpt lat="48.61475" lon="2.11634">
        <ele>91.2</ele>
        <time>2025-03-12T18:18:11.616Z</time>
      </trkpt>
      <trkpt lat="48.61475" lon="2.11626">
        <ele>91.5</ele>
        <time>2025-03-12T18:18:15.378Z</time>
      </trkpt>
      <trkpt lat="48.61474" lon="2.11618">
        <ele>91.8</ele>
        <time>2025-03-12T18:18:19.140Z</time>
      </trkpt>
      <trkpt lat="48.61474" lon="2.1161">
        <ele>92</ele>
        <time>2025-03-12T18:18:22.902Z</time>
      </trkpt>
      <trkpt lat="48.61473" lon="2.11602">
        <ele>92</ele>
        <time>2025-03-12T18:18:26.664Z</time>
      </trkpt>
      <trkpt lat="48.61473" lon="2.11594">
        <ele>92</ele>
        <time>2025-03-12T18:18:30.426Z</time>
      </trkpt>
      <trkpt lat="48.61472" lon="2.11586">
        <ele>92</ele>
        <time>2025-03-12T18:18:34.189Z</time>
      </trkpt>
      <trkpt lat="48.61472" lon="2.11574">
        <ele>92</ele>
        <time>2025-03-12T18:18:39.703Z</time>
      </trkpt>
      <trkpt lat="48.61473" lon="2.11562">
        <ele>92</ele>
        <time>2025-03-12T18:18:45.217Z</time>
      </trkpt>
      <trkpt lat="48.61473" lon="2.1155">
        <ele>92.2</ele>
        <time>2025-03-12T18:18:50.731Z</time>
      </trkpt>
      <trkpt lat="48.61474" lon="2.11538">
        <ele>92.6</ele>
        <time>2025-03-12T18:18:56.245Z</time>
      </trkpt>
      <trkpt lat="48.61474" lon="2.11526">
        <ele>93</ele>
        <time>2025-03-12T18:19:01.759Z</time>
      </trkpt>
      <trkpt lat="48.61474" lon="2.11514">
        <ele>93</ele>
        <time>2025-03-12T18:19:07.274Z</time>
      </trkpt>
      <trkpt lat="48.61475" lon="2.11502">
        <ele>93.1</ele>
        <time>2025-03-12T18:19:12.789Z</time>
      </trkpt>
      <trkpt lat="48.61475" lon="2.1149">
        <ele>93.1</ele>
        <time>2025-03-12T18:19:18.304Z</time>
      </trkpt>
      <trkpt lat="48.61473" lon="2.11483">
        <ele>93</ele>
        <time>2025-03-12T18:19:22.002Z</time>
      </trkpt>
      <trkpt lat="48.61472" lon="2.11475">
        <ele>93</ele>
        <time>2025-03-12T18:19:25.700Z</time>
      </trkpt>
      <trkpt lat="48.6147" lon="2.11468">
        <ele>93.2</ele>
        <time>2025-03-12T18:19:29.398Z</time>
      </trkpt>
      <trkpt lat="48.61468" lon="2.1146">
        <ele>93.4</ele>
        <time>2025-03-12T18:19:33.096Z</time>
      </trkpt>
      <trkpt lat="48.61466" lon="2.11453">
        <ele>93.7</ele>
        <time>2025-03-12T18:19:36.794Z</time>
      </trkpt>
      <trkpt lat="48.61465" lon="2.11445">
        <ele>94</ele>
        <time>2025-03-12T18:19:40.492Z</time>
      </trkpt>
      <trkpt lat="48.61463" lon="2.11438">
        <ele>94</ele>
        <time>2025-03-12T18:19:44.190Z</time>
      </trkpt>
      <trkpt lat="48.61461" lon="2.1143">
        <ele>94</ele>
        <time>2025-03-12T18:19:47.889Z</time>
      </trkpt>
      <trkpt lat="48.61459" lon="2.11422">
        <ele>94</ele>
        <time>2025-03-12T18:19:51.795Z</time>
      </trkpt>
      <trkpt lat="48.61458" lon="2.11414">
        <ele>94.1</ele>
        <time>2025-03-12T18:19:55.701Z</time>
      </trkpt>
      <trkpt lat="48.61456" lon="2.11406">
        <ele>94.4</ele>
        <time>2025-03-12T18:19:59.607Z</time>
      </trkpt>
      <trkpt lat="48.61455" lon="2.11398">
        <ele>94.7</ele>
        <time>2025-03-12T18:20:03.513Z</time>
      </trkpt>
      <trkpt lat="48.61453" lon="2.1139">
        <ele>95</ele>
        <time>2025-03-12T18:20:07.419Z</time>
      </trkpt>
      <trkpt lat="48.61451" lon="2.11382">
        <ele>95</ele>
        <time>2025-03-12T18:20:11.325Z</time>
      </trkpt>
      <trkpt lat="48.6145" lon="2.11374">
        <ele>95</ele>
        <time>2025-03-12T18:20:15.231Z</time>
      </trkpt>
      <trkpt lat="48.61448" lon="2.11366">
        <ele>95</ele>
        <time>2025-03-12T18:20:19.139Z</time>
      </trkpt>
      <trkpt lat="48.61447" lon="2.11356">
        <ele>95.2</ele>
        <time>2025-03-12T18:20:24.087Z</time>
      </trkpt>
      <trkpt lat="48.61446" lon="2.11346">
        <ele>95.5</ele>
        <time>2025-03-12T18:20:29.036Z</time>
      </trkpt>
      <trkpt lat="48.61445" lon="2.11336">
        <ele>95.9</ele>
        <time>2025-03-12T18:20:33.985Z</time>
      </trkpt>
      <trkpt lat="48.61444" lon="2.11326">
        <ele>96</ele>
        <time>2025-03-12T18:20:38.935Z</time>
      </trkpt>
      <trkpt lat="48.61444" lon="2.11315">
        <ele>96</ele>
        <time>2025-03-12T18:20:44.434Z</time>
      </trkpt>
      <trkpt lat="48.61443" lon="2.11303">
        <ele>96.1</ele>
        <time>2025-03-12T18:20:49.933Z</time>
      </trkpt>
      <trkpt lat="48.61443" lon="2.11292">
        <ele>96.5</ele>
        <time>2025-03-12T18:20:55.432Z</time>
      </trkpt>
      <trkpt lat="48.61442" lon="2.1128">
        <ele>96.9</ele>
        <time>2025-03-12T18:21:00.932Z</time>
      </trkpt>
      <trkpt lat="48.61443" lon="2.1127">
        <ele>97</ele>
        <time>2025-03-12T18:21:05.613Z</time>
      </trkpt>
      <trkpt lat="48.61443" lon="2.11259">
        <ele>97</ele>
        <time>2025-03-12T18:21:10.295Z</time>
      </trkpt>
      <trkpt lat="48.61446" lon="2.11249">
        <ele>97.1</ele>
        <time>2025-03-12T18:21:15.933Z</time>
      </trkpt>
      <trkpt lat="48.61449" lon="2.11238">
        <ele>97.5</ele>
        <time>2025-03-12T18:21:21.572Z</time>
      </trkpt>
      <trkpt lat="48.61452" lon="2.11228">
        <ele>97.9</ele>
        <time>2025-03-12T18:21:27.211Z</time>
      </trkpt>
      <trkpt lat="48.61455" lon="2.11217">
        <ele>98.2</ele>
        <time>2025-03-12T18:21:32.850Z</time>
      </trkpt>
      <trkpt lat="48.61457" lon="2.11208">
        <ele>98.5</ele>
        <time>2025-03-12T18:21:37.502Z</time>
      </trkpt>
      <trkpt lat="48.61458" lon="2.11199">
        <ele>98.8</ele>
        <time>2025-03-12T18:21:42.154Z</time>
      </trkpt>
      <trkpt lat="48.6146" lon="2.1119">
        <ele>99.1</ele>
        <time>2025-03-12T18:21:46.807Z</time>
      </trkpt>
      <trkpt lat="48.61461" lon="2.11181">
        <ele>99.3</ele>
        <time>2025-03-12T18:21:51.460Z</time>
      </trkpt>
      <trkpt lat="48.61462" lon="2.11172">
        <ele>99.5</ele>
        <time>2025-03-12T18:21:55.716Z</time>
      </trkpt>
      <trkpt lat="48.61463" lon="2.11164">
        <ele>99.7</ele>
        <time>2025-03-12T18:21:59.972Z</time>
      </trkpt>
      <trkpt lat="48.61464" lon="2.11155">
        <ele>99.7</ele>
        <time>2025-03-12T18:22:04.229Z</time>
      </trkpt>
      <trkpt lat="48.61465" lon="2.11146">
        <ele>99.7</ele>
        <time>2025-03-12T18:22:08.486Z</time>
      </trkpt>
      <trkpt lat="48.61465" lon="2.11137">
        <ele>99.8</ele>
        <time>2025-03-12T18:22:12.743Z</time>
      </trkpt>
      <trkpt lat="48.61466" lon="2.11129">
        <ele>100.2</ele>
        <time>2025-03-12T18:22:17.000Z</time>
      </trkpt>
      <trkpt lat="48.61467" lon="2.1112">
        <ele>100.5</ele>
        <time>2025-03-12T18:22:21.257Z</time>
      </trkpt>
      <trkpt lat="48.61468" lon="2.11111">
        <ele>100.8</ele>
        <time>2025-03-12T18:22:25.514Z</time>
      </trkpt>
      <trkpt lat="48.61472" lon="2.11099">
        <ele>101</ele>
        <time>2025-03-12T18:22:31.626Z</time>
      </trkpt>
      <trkpt lat="48.61475" lon="2.11086">
        <ele>101</ele>
        <time>2025-03-12T18:22:37.738Z</time>
      </trkpt>
      <trkpt lat="48.61478" lon="2.1108">
        <ele>101.1</ele>
        <time>2025-03-12T18:22:41.759Z</time>
      </trkpt>
      <trkpt lat="48.61482" lon="2.11073">
        <ele>101.4</ele>
        <time>2025-03-12T18:22:45.781Z</time>
      </trkpt>
      <trkpt lat="48.61485" lon="2.11067">
        <ele>101.6</ele>
        <time>2025-03-12T18:22:49.803Z</time>
      </trkpt>
      <trkpt lat="48.61489" lon="2.11061">
        <ele>101.8</ele>
        <time>2025-03-12T18:22:53.825Z</time>
      </trkpt>
      <trkpt lat="48.61492" lon="2.11054">
        <ele>102</ele>
        <time>2025-03-12T18:22:57.847Z</time>
      </trkpt>
      <trkpt lat="48.61495" lon="2.11048">
        <ele>102.2</ele>
        <time>2025-03-12T18:23:01.869Z</time>
      </trkpt>
      <trkpt lat="48.61499" lon="2.11041">
        <ele>102.5</ele>
        <time>2025-03-12T18:23:05.891Z</time>
      </trkpt>
      <trkpt lat="48.61502" lon="2.11035">
        <ele>102.7</ele>
        <time>2025-03-12T18:23:09.913Z</time>
      </trkpt>
      <trkpt lat="48.61505" lon="2.1103">
        <ele>102.9</ele>
        <time>2025-03-12T18:23:13.340Z</time>
      </trkpt>
      <trkpt lat="48.61508" lon="2.11024">
        <ele>103</ele>
        <time>2025-03-12T18:23:16.767Z</time>
      </trkpt>
      <trkpt lat="48.61511" lon="2.11019">
        <ele>103.1</ele>
        <time>2025-03-12T18:23:20.194Z</time>
      </trkpt>
      <trkpt lat="48.61514" lon="2.11013">
        <ele>103.3</ele>
        <time>2025-03-12T18:23:23.622Z</time>
      </trkpt>
      <trkpt lat="48.61517" lon="2.11005">
        <ele>103.5</ele>
        <time>2025-03-12T18:23:27.943Z</time>
      </trkpt>
      <trkpt lat="48.61519" lon="2.10997">
        <ele>103.7</ele>
        <time>2025-03-12T18:23:32.264Z</time>
      </trkpt>
      <trkpt lat="48.61522" lon="2.10989">
        <ele>103.8</ele>
        <time>2025-03-12T18:23:36.585Z</time>
      </trkpt>
      <trkpt lat="48.61525" lon="2.10981">
        <ele>103.9</ele>
        <time>2025-03-12T18:23:40.906Z</time>
      </trkpt>
      <trkpt lat="48.61527" lon="2.10973">
        <ele>104</ele>
        <time>2025-03-12T18:23:45.227Z</time>
      </trkpt>
      <trkpt lat="48.6153" lon="2.10965">
        <ele>104.3</ele>
        <time>2025-03-12T18:23:49.548Z</time>
      </trkpt>
      <trkpt lat="48.61532" lon="2.10957">
        <ele>104.6</ele>
        <time>2025-03-12T18:23:53.869Z</time>
      </trkpt>
      <trkpt lat="48.61535" lon="2.10949">
        <ele>104.9</ele>
        <time>2025-03-12T18:23:58.191Z</time>
      </trkpt>
      <trkpt lat="48.61534" lon="2.10936">
        <ele>105.1</ele>
        <time>2025-03-12T18:24:04.414Z</time>
      </trkpt>
      <trkpt lat="48.61533" lon="2.10922">
        <ele>105.2</ele>
        <time>2025-03-12T18:24:10.639Z</time>
      </trkpt>
      <trkpt lat="48.61531" lon="2.10913">
        <ele>105.2</ele>
        <time>2025-03-12T18:24:15.404Z</time>
      </trkpt>
      <trkpt lat="48.61528" lon="2.10903">
        <ele>105.5</ele>
        <time>2025-03-12T18:24:20.171Z</time>
      </trkpt>
      <trkpt lat="48.61525" lon="2.10895">
        <ele>105.7</ele>
        <time>2025-03-12T18:24:24.845Z</time>
      </trkpt>
      <trkpt lat="48.61521" lon="2.10886">
        <ele>105.8</ele>
        <time>2025-03-12T18:24:29.521Z</time>
      </trkpt>
      <trkpt lat="48.61518" lon="2.10881">
        <ele>105.8</ele>
        <time>2025-03-12T18:24:32.673Z</time>
      </trkpt>
      <trkpt lat="48.61515" lon="2.10875">
        <ele>105.8</ele>
        <time>2025-03-12T18:24:35.825Z</time>
      </trkpt>
      <trkpt lat="48.61512" lon="2.1087">
        <ele>105.8</ele>
        <time>2025-03-12T18:24:38.977Z</time>
      </trkpt>
      <trkpt lat="48.61509" lon="2.10864">
        <ele>105.9</ele>
        <time>2025-03-12T18:24:42.129Z</time>
      </trkpt>
      <trkpt lat="48.61506" lon="2.10859">
        <ele>106</ele>
        <time>2025-03-12T18:24:45.281Z</time>
      </trkpt>
      <trkpt lat="48.61503" lon="2.10853">
        <ele>106</ele>
        <time>2025-03-12T18:24:48.434Z</time>
      </trkpt>
      <trkpt lat="48.615" lon="2.10848">
        <ele>106</ele>
        <time>2025-03-12T18:24:51.587Z</time>
      </trkpt>
      <trkpt lat="48.61497" lon="2.10842">
        <ele>106</ele>
        <time>2025-03-12T18:24:54.741Z</time>
      </trkpt>
      <trkpt lat="48.61493" lon="2.10837">
        <ele>106</ele>
        <time>2025-03-12T18:24:58.547Z</time>
      </trkpt>
      <trkpt lat="48.61488" lon="2.10831">
        <ele>106</ele>
        <time>2025-03-12T18:25:02.354Z</time>
      </trkpt>
      <trkpt lat="48.61482" lon="2.10826">
        <ele>106.1</ele>
        <time>2025-03-12T18:25:07.070Z</time>
      </trkpt>
      <trkpt lat="48.61484" lon="2.10815">
        <ele>106.3</ele>
        <time>2025-03-12T18:25:12.771Z</time>
      </trkpt>
      <trkpt lat="48.61487" lon="2.10803">
        <ele>106.6</ele>
        <time>2025-03-12T18:25:18.472Z</time>
      </trkpt>
      <trkpt lat="48.61489" lon="2.10792">
        <ele>106.8</ele>
        <time>2025-03-12T18:25:24.173Z</time>
      </trkpt>
      <trkpt lat="48.61491" lon="2.1078">
        <ele>107</ele>
        <time>2025-03-12T18:25:29.875Z</time>
      </trkpt>
      <trkpt lat="48.61493" lon="2.10772">
        <ele>107</ele>
        <time>2025-03-12T18:25:33.978Z</time>
      </trkpt>
      <trkpt lat="48.61496" lon="2.10764">
        <ele>107</ele>
        <time>2025-03-12T18:25:38.081Z</time>
      </trkpt>
      <trkpt lat="48.61498" lon="2.10756">
        <ele>107</ele>
        <time>2025-03-12T18:25:42.184Z</time>
      </trkpt>
      <trkpt lat="48.615" lon="2.10748">
        <ele>107.1</ele>
        <time>2025-03-12T18:25:46.287Z</time>
      </trkpt>
      <trkpt lat="48.61502" lon="2.1074">
        <ele>107.4</ele>
        <time>2025-03-12T18:25:50.390Z</time>
      </trkpt>
      <trkpt lat="48.61505" lon="2.10732">
        <ele>107.7</ele>
        <time>2025-03-12T18:25:54.493Z</time>
      </trkpt>
      <trkpt lat="48.61507" lon="2.10724">
        <ele>108</ele>
        <time>2025-03-12T18:25:58.596Z</time>
      </trkpt>
      <trkpt lat="48.61509" lon="2.10716">
        <ele>108.2</ele>
        <time>2025-03-12T18:26:02.700Z</time>
      </trkpt>
      <trkpt lat="48.61509" lon="2.10711">
        <ele>108.4</ele>
        <time>2025-03-12T18:26:05.339Z</time>
      </trkpt>
      <trkpt lat="48.61501" lon="2.10708">
        <ele>108.5</ele>
        <time>2025-03-12T18:26:11.133Z</time>
      </trkpt>
      <trkpt lat="48.61493" lon="2.10704">
        <ele>108.7</ele>
        <time>2025-03-12T18:26:16.929Z</time>
      </trkpt>
      <trkpt lat="48.61488" lon="2.107">
        <ele>108.8</ele>
        <time>2025-03-12T18:26:20.806Z</time>
      </trkpt>
      <trkpt lat="48.61483" lon="2.10696">
        <ele>108.9</ele>
        <time>2025-03-12T18:26:24.683Z</time>
      </trkpt>
      <trkpt lat="48.61478" lon="2.10692">
        <ele>109</ele>
        <time>2025-03-12T18:26:28.561Z</time>
      </trkpt>
      <trkpt lat="48.61473" lon="2.10688">
        <ele>109</ele>
        <time>2025-03-12T18:26:32.440Z</time>
      </trkpt>
      <trkpt lat="48.61468" lon="2.10681">
        <ele>108.9</ele>
        <time>2025-03-12T18:26:36.964Z</time>
      </trkpt>
      <trkpt lat="48.61464" lon="2.10673">
        <ele>108.9</ele>
        <time>2025-03-12T18:26:41.488Z</time>
      </trkpt>
      <trkpt lat="48.61459" lon="2.10666">
        <ele>109</ele>
        <time>2025-03-12T18:26:46.012Z</time>
      </trkpt>
      <trkpt lat="48.61455" lon="2.10659">
        <ele>109</ele>
        <time>2025-03-12T18:26:50.536Z</time>
      </trkpt>
      <trkpt lat="48.6145" lon="2.10651">
        <ele>109</ele>
        <time>2025-03-12T18:26:55.060Z</time>
      </trkpt>
      <trkpt lat="48.61445" lon="2.10644">
        <ele>109</ele>
        <time>2025-03-12T18:26:59.584Z</time>
      </trkpt>
      <trkpt lat="48.61441" lon="2.10636">
        <ele>109.1</ele>
        <time>2025-03-12T18:27:04.108Z</time>
      </trkpt>
      <trkpt lat="48.61436" lon="2.10629">
        <ele>109.4</ele>
        <time>2025-03-12T18:27:08.634Z</time>
      </trkpt>
      <trkpt lat="48.61432" lon="2.10623">
        <ele>109.6</ele>
        <time>2025-03-12T18:27:12.207Z</time>
      </trkpt>
      <trkpt lat="48.61429" lon="2.10618">
        <ele>109.8</ele>
        <time>2025-03-12T18:27:15.780Z</time>
      </trkpt>
      <trkpt lat="48.61425" lon="2.10612">
        <ele>110</ele>
        <time>2025-03-12T18:27:19.353Z</time>
      </trkpt>
      <trkpt lat="48.61422" lon="2.10607">
        <ele>110</ele>
        <time>2025-03-12T18:27:22.926Z</time>
      </trkpt>
      <trkpt lat="48.61418" lon="2.10601">
        <ele>110</ele>
        <time>2025-03-12T18:27:26.499Z</time>
      </trkpt>
      <trkpt lat="48.61414" lon="2.10595">
        <ele>110</ele>
        <time>2025-03-12T18:27:30.073Z</time>
      </trkpt>
      <trkpt lat="48.61411" lon="2.1059">
        <ele>110</ele>
        <time>2025-03-12T18:27:33.647Z</time>
      </trkpt>
      <trkpt lat="48.61407" lon="2.10584">
        <ele>110</ele>
        <time>2025-03-12T18:27:37.222Z</time>
      </trkpt>
      <trkpt lat="48.61408" lon="2.10577">
        <ele>110.1</ele>
        <time>2025-03-12T18:27:40.763Z</time>
      </trkpt>
      <trkpt lat="48.61409" lon="2.10569">
        <ele>110.1</ele>
        <time>2025-03-12T18:27:44.304Z</time>
      </trkpt>
      <trkpt lat="48.61409" lon="2.10562">
        <ele>110.2</ele>
        <time>2025-03-12T18:27:47.845Z</time>
      </trkpt>
      <trkpt lat="48.6141" lon="2.10555">
        <ele>110.3</ele>
        <time>2025-03-12T18:27:51.387Z</time>
      </trkpt>
      <trkpt lat="48.61411" lon="2.10547">
        <ele>110.5</ele>
        <time>2025-03-12T18:27:54.929Z</time>
      </trkpt>
      <trkpt lat="48.61412" lon="2.1054">
        <ele>110.6</ele>
        <time>2025-03-12T18:27:58.471Z</time>
      </trkpt>
      <trkpt lat="48.61412" lon="2.10532">
        <ele>110.9</ele>
        <time>2025-03-12T18:28:02.013Z</time>
      </trkpt>
      <trkpt lat="48.61413" lon="2.10525">
        <ele>111.1</ele>
        <time>2025-03-12T18:28:05.555Z</time>
      </trkpt>
      <trkpt lat="48.61415" lon="2.10518">
        <ele>111.4</ele>
        <time>2025-03-12T18:28:09.414Z</time>
      </trkpt>
      <trkpt lat="48.61417" lon="2.10511">
        <ele>111.6</ele>
        <time>2025-03-12T18:28:13.274Z</time>
      </trkpt>
      <trkpt lat="48.61418" lon="2.10503">
        <ele>111.9</ele>
        <time>2025-03-12T18:28:17.134Z</time>
      </trkpt>
      <trkpt lat="48.6142" lon="2.10496">
        <ele>112</ele>
        <time>2025-03-12T18:28:20.994Z</time>
      </trkpt>
      <trkpt lat="48.61422" lon="2.1049">
        <ele>112</ele>
        <time>2025-03-12T18:28:24.201Z</time>
      </trkpt>
      <trkpt lat="48.61425" lon="2.10484">
        <ele>112</ele>
        <time>2025-03-12T18:28:27.408Z</time>
      </trkpt>
      <trkpt lat="48.61427" lon="2.10478">
        <ele>112</ele>
        <time>2025-03-12T18:28:30.616Z</time>
      </trkpt>
      <trkpt lat="48.6143" lon="2.10473">
        <ele>112</ele>
        <time>2025-03-12T18:28:33.824Z</time>
      </trkpt>
      <trkpt lat="48.61432" lon="2.10467">
        <ele>112.2</ele>
        <time>2025-03-12T18:28:37.032Z</time>
      </trkpt>
      <trkpt lat="48.61434" lon="2.10461">
        <ele>112.4</ele>
        <time>2025-03-12T18:28:40.240Z</time>
      </trkpt>
      <trkpt lat="48.61437" lon="2.10455">
        <ele>112.6</ele>
        <time>2025-03-12T18:28:43.448Z</time>
      </trkpt>
      <trkpt lat="48.61439" lon="2.10449">
        <ele>112.8</ele>
        <time>2025-03-12T18:28:46.656Z</time>
      </trkpt>
      <trkpt lat="48.61443" lon="2.10442">
        <ele>113.1</ele>
        <time>2025-03-12T18:28:50.945Z</time>
      </trkpt>
      <trkpt lat="48.61446" lon="2.10436">
        <ele>113.3</ele>
        <time>2025-03-12T18:28:55.235Z</time>
      </trkpt>
      <trkpt lat="48.6145" lon="2.10429">
        <ele>113.6</ele>
        <time>2025-03-12T18:28:59.525Z</time>
      </trkpt>
      <trkpt lat="48.61453" lon="2.10422">
        <ele>113.8</ele>
        <time>2025-03-12T18:29:03.815Z</time>
      </trkpt>
      <trkpt lat="48.61459" lon="2.10414">
        <ele>114</ele>
        <time>2025-03-12T18:29:09.207Z</time>
      </trkpt>
      <trkpt lat="48.61465" lon="2.10405">
        <ele>114</ele>
        <time>2025-03-12T18:29:14.599Z</time>
      </trkpt>
      <trkpt lat="48.6147" lon="2.10397">
        <ele>114</ele>
        <time>2025-03-12T18:29:19.991Z</time>
      </trkpt>
      <trkpt lat="48.61476" lon="2.10388">
        <ele>114</ele>
        <time>2025-03-12T18:29:25.383Z</time>
      </trkpt>
      <trkpt lat="48.6148" lon="2.10381">
        <ele>114.3</ele>
        <time>2025-03-12T18:29:30.291Z</time>
      </trkpt>
      <trkpt lat="48.61485" lon="2.10373">
        <ele>114.6</ele>
        <time>2025-03-12T18:29:35.199Z</time>
      </trkpt>
      <trkpt lat="48.61489" lon="2.10366">
        <ele>114.8</ele>
        <time>2025-03-12T18:29:40.107Z</time>
      </trkpt>
      <trkpt lat="48.61493" lon="2.10358">
        <ele>115.1</ele>
        <time>2025-03-12T18:29:45.016Z</time>
      </trkpt>
      <trkpt lat="48.61498" lon="2.10349">
        <ele>115.4</ele>
        <time>2025-03-12T18:29:50.411Z</time>
      </trkpt>
      <trkpt lat="48.61502" lon="2.1034">
        <ele>115.8</ele>
        <time>2025-03-12T18:29:55.806Z</time>
      </trkpt>
      <trkpt lat="48.61507" lon="2.10331">
        <ele>116</ele>
        <time>2025-03-12T18:30:01.201Z</time>
      </trkpt>
      <trkpt lat="48.61511" lon="2.10322">
        <ele>116</ele>
        <time>2025-03-12T18:30:06.596Z</time>
      </trkpt>
      <trkpt lat="48.61513" lon="2.10315">
        <ele>116</ele>
        <time>2025-03-12T18:30:10.372Z</time>
      </trkpt>
      <trkpt lat="48.61515" lon="2.10307">
        <ele>116</ele>
        <time>2025-03-12T18:30:14.148Z</time>
      </trkpt>
      <trkpt lat="48.61517" lon="2.103">
        <ele>116.2</ele>
        <time>2025-03-12T18:30:17.924Z</time>
      </trkpt>
      <trkpt lat="48.6152" lon="2.10292">
        <ele>116.5</ele>
        <time>2025-03-12T18:30:21.700Z</time>
      </trkpt>
      <trkpt lat="48.61522" lon="2.10285">
        <ele>116.7</ele>
        <time>2025-03-12T18:30:25.476Z</time>
      </trkpt>
      <trkpt lat="48.61524" lon="2.10277">
        <ele>117</ele>
        <time>2025-03-12T18:30:29.252Z</time>
      </trkpt>
      <trkpt lat="48.61526" lon="2.1027">
        <ele>117</ele>
        <time>2025-03-12T18:30:33.028Z</time>
      </trkpt>
      <trkpt lat="48.61528" lon="2.10263">
        <ele>117</ele>
        <time>2025-03-12T18:30:36.805Z</time>
      </trkpt>
      <trkpt lat="48.6153" lon="2.10255">
        <ele>117</ele>
        <time>2025-03-12T18:30:40.582Z</time>
      </trkpt>
      <trkpt lat="48.61532" lon="2.10248">
        <ele>117</ele>
        <time>2025-03-12T18:30:44.359Z</time>
      </trkpt>
      <trkpt lat="48.61534" lon="2.1024">
        <ele>117.1</ele>
        <time>2025-03-12T18:30:48.136Z</time>
      </trkpt>
      <trkpt lat="48.61537" lon="2.10233">
        <ele>117.2</ele>
        <time>2025-03-12T18:30:51.913Z</time>
      </trkpt>
      <trkpt lat="48.61539" lon="2.10225">
        <ele>117.3</ele>
        <time>2025-03-12T18:30:55.690Z</time>
      </trkpt>
      <trkpt lat="48.61541" lon="2.10218">
        <ele>117.6</ele>
        <time>2025-03-12T18:30:59.467Z</time>
      </trkpt>
      <trkpt lat="48.61543" lon="2.1021">
        <ele>117.7</ele>
        <time>2025-03-12T18:31:03.244Z</time>
      </trkpt>
      <trkpt lat="48.61545" lon="2.10203">
        <ele>117.9</ele>
        <time>2025-03-12T18:31:07.021Z</time>
      </trkpt>
      <trkpt lat="48.61549" lon="2.10195">
        <ele>118</ele>
        <time>2025-03-12T18:31:11.593Z</time>
      </trkpt>
      <trkpt lat="48.61553" lon="2.1019">
        <ele>118.2</ele>
        <time>2025-03-12T18:31:15.448Z</time>
      </trkpt>
      <trkpt lat="48.61555" lon="2.10184">
        <ele>118.4</ele>
        <time>2025-03-12T18:31:18.819Z</time>
      </trkpt>
      <trkpt lat="48.61556" lon="2.10176">
        <ele>118.7</ele>
        <time>2025-03-12T18:31:22.646Z</time>
      </trkpt>
      <trkpt lat="48.61557" lon="2.10168">
        <ele>118.9</ele>
        <time>2025-03-12T18:31:26.473Z</time>
      </trkpt>
      <trkpt lat="48.61558" lon="2.1016">
        <ele>119</ele>
        <time>2025-03-12T18:31:30.300Z</time>
      </trkpt>
      <trkpt lat="48.6156" lon="2.10153">
        <ele>119</ele>
        <time>2025-03-12T18:31:34.127Z</time>
      </trkpt>
      <trkpt lat="48.61561" lon="2.10145">
        <ele>119</ele>
        <time>2025-03-12T18:31:37.955Z</time>
      </trkpt>
      <trkpt lat="48.61562" lon="2.10137">
        <ele>119.1</ele>
        <time>2025-03-12T18:31:41.783Z</time>
      </trkpt>
      <trkpt lat="48.61563" lon="2.10129">
        <ele>119.4</ele>
        <time>2025-03-12T18:31:45.611Z</time>
      </trkpt>
      <trkpt lat="48.61564" lon="2.10121">
        <ele>119.6</ele>
        <time>2025-03-12T18:31:49.439Z</time>
      </trkpt>
      <trkpt lat="48.61566" lon="2.1011">
        <ele>120</ele>
        <time>2025-03-12T18:31:54.909Z</time>
      </trkpt>
      <trkpt lat="48.61567" lon="2.10098">
        <ele>120</ele>
        <time>2025-03-12T18:32:00.379Z</time>
      </trkpt>
      <trkpt lat="48.61569" lon="2.10087">
        <ele>120</ele>
        <time>2025-03-12T18:32:05.850Z</time>
      </trkpt>
      <trkpt lat="48.6157" lon="2.10075">
        <ele>120.3</ele>
        <time>2025-03-12T18:32:11.321Z</time>
      </trkpt>
      <trkpt lat="48.61571" lon="2.10064">
        <ele>120.7</ele>
        <time>2025-03-12T18:32:16.784Z</time>
      </trkpt>
      <trkpt lat="48.61572" lon="2.10052">
        <ele>121</ele>
        <time>2025-03-12T18:32:22.248Z</time>
      </trkpt>
      <trkpt lat="48.61573" lon="2.10041">
        <ele>121</ele>
        <time>2025-03-12T18:32:27.712Z</time>
      </trkpt>
      <trkpt lat="48.61574" lon="2.10029">
        <ele>121</ele>
        <time>2025-03-12T18:32:33.176Z</time>
      </trkpt>
      <trkpt lat="48.61574" lon="2.10018">
        <ele>121.3</ele>
        <time>2025-03-12T18:32:38.640Z</time>
      </trkpt>
      <trkpt lat="48.61575" lon="2.10006">
        <ele>121.6</ele>
        <time>2025-03-12T18:32:44.104Z</time>
      </trkpt>
      <trkpt lat="48.61576" lon="2.09995">
        <ele>121.8</ele>
        <time>2025-03-12T18:32:49.568Z</time>
      </trkpt>
      <trkpt lat="48.61577" lon="2.09983">
        <ele>121.9</ele>
        <time>2025-03-12T18:32:55.032Z</time>
      </trkpt>
      <trkpt lat="48.61578" lon="2.0997">
        <ele>122.1</ele>
        <time>2025-03-12T18:33:01.401Z</time>
      </trkpt>
      <trkpt lat="48.61578" lon="2.09957">
        <ele>122.6</ele>
        <time>2025-03-12T18:33:07.770Z</time>
      </trkpt>
      <trkpt lat="48.61579" lon="2.09943">
        <ele>123</ele>
        <time>2025-03-12T18:33:14.139Z</time>
      </trkpt>
      <trkpt lat="48.61579" lon="2.0993">
        <ele>123</ele>
        <time>2025-03-12T18:33:20.509Z</time>
      </trkpt>
      <trkpt lat="48.61579" lon="2.09917">
        <ele>123</ele>
        <time>2025-03-12T18:33:26.570Z</time>
      </trkpt>
      <trkpt lat="48.61579" lon="2.09905">
        <ele>123.4</ele>
        <time>2025-03-12T18:33:32.631Z</time>
      </trkpt>
      <trkpt lat="48.61579" lon="2.09892">
        <ele>123.9</ele>
        <time>2025-03-12T18:33:38.692Z</time>
      </trkpt>
      <trkpt lat="48.61579" lon="2.0988">
        <ele>124</ele>
        <time>2025-03-12T18:33:44.753Z</time>
      </trkpt>
      <trkpt lat="48.61578" lon="2.09867">
        <ele>124</ele>
        <time>2025-03-12T18:33:50.815Z</time>
      </trkpt>
      <trkpt lat="48.61578" lon="2.09854">
        <ele>124.2</ele>
        <time>2025-03-12T18:33:56.877Z</time>
      </trkpt>
      <trkpt lat="48.61578" lon="2.09842">
        <ele>124.7</ele>
        <time>2025-03-12T18:34:02.939Z</time>
      </trkpt>
      <trkpt lat="48.61578" lon="2.09829">
        <ele>125.1</ele>
        <time>2025-03-12T18:34:09.002Z</time>
      </trkpt>
      <trkpt lat="48.61577" lon="2.09816">
        <ele>125.5</ele>
        <time>2025-03-12T18:34:15.560Z</time>
      </trkpt>
      <trkpt lat="48.61577" lon="2.09803">
        <ele>125.8</ele>
        <time>2025-03-12T18:34:22.118Z</time>
      </trkpt>
      <trkpt lat="48.61576" lon="2.09789">
        <ele>126.2</ele>
        <time>2025-03-12T18:34:28.676Z</time>
      </trkpt>
      <trkpt lat="48.61575" lon="2.09776">
        <ele>126.5</ele>
        <time>2025-03-12T18:34:35.236Z</time>
      </trkpt>
      <trkpt lat="48.61574" lon="2.09763">
        <ele>126.8</ele>
        <time>2025-03-12T18:34:41.210Z</time>
      </trkpt>
      <trkpt lat="48.61573" lon="2.0975">
        <ele>127.2</ele>
        <time>2025-03-12T18:34:47.185Z</time>
      </trkpt>
      <trkpt lat="48.61571" lon="2.09737">
        <ele>127.1</ele>
        <time>2025-03-12T18:34:53.160Z</time>
      </trkpt>
      <trkpt lat="48.6157" lon="2.09724">
        <ele>127</ele>
        <time>2025-03-12T18:34:59.136Z</time>
      </trkpt>
      <trkpt lat="48.61568" lon="2.09711">
        <ele>127.1</ele>
        <time>2025-03-12T18:35:05.414Z</time>
      </trkpt>
      <trkpt lat="48.61566" lon="2.09699">
        <ele>127.3</ele>
        <time>2025-03-12T18:35:11.693Z</time>
      </trkpt>
      <trkpt lat="48.61563" lon="2.09686">
        <ele>127.6</ele>
        <time>2025-03-12T18:35:17.972Z</time>
      </trkpt>
      <trkpt lat="48.61561" lon="2.09673">
        <ele>128</ele>
        <time>2025-03-12T18:35:24.252Z</time>
      </trkpt>
      <trkpt lat="48.61559" lon="2.09664">
        <ele>128.2</ele>
        <time>2025-03-12T18:35:28.920Z</time>
      </trkpt>
      <trkpt lat="48.61557" lon="2.09654">
        <ele>128.5</ele>
        <time>2025-03-12T18:35:33.588Z</time>
      </trkpt>
      <trkpt lat="48.61554" lon="2.09645">
        <ele>128.8</ele>
        <time>2025-03-12T18:35:38.256Z</time>
      </trkpt>
      <trkpt lat="48.61552" lon="2.09635">
        <ele>128.9</ele>
        <time>2025-03-12T18:35:42.925Z</time>
      </trkpt>
      <trkpt lat="48.6155" lon="2.09626">
        <ele>128.9</ele>
        <time>2025-03-12T18:35:47.594Z</time>
      </trkpt>
      <trkpt lat="48.61548" lon="2.09616">
        <ele>128.9</ele>
        <time>2025-03-12T18:35:52.263Z</time>
      </trkpt>
      <trkpt lat="48.61545" lon="2.09607">
        <ele>129.1</ele>
        <time>2025-03-12T18:35:56.932Z</time>
      </trkpt>
      <trkpt lat="48.61543" lon="2.09598">
        <ele>129.3</ele>
        <time>2025-03-12T18:36:01.601Z</time>
      </trkpt>
      <trkpt lat="48.61541" lon="2.09588">
        <ele>129.4</ele>
        <time>2025-03-12T18:36:06.270Z</time>
      </trkpt>
      <trkpt lat="48.61539" lon="2.09579">
        <ele>129.5</ele>
        <time>2025-03-12T18:36:10.939Z</time>
      </trkpt>
      <trkpt lat="48.61536" lon="2.09569">
        <ele>129.7</ele>
        <time>2025-03-12T18:36:15.608Z</time>
      </trkpt>
      <trkpt lat="48.61534" lon="2.0956">
        <ele>129.9</ele>
        <time>2025-03-12T18:36:20.277Z</time>
      </trkpt>
      <trkpt lat="48.61532" lon="2.0955">
        <ele>130</ele>
        <time>2025-03-12T18:36:24.946Z</time>
      </trkpt>
      <trkpt lat="48.6153" lon="2.09541">
        <ele>130</ele>
        <time>2025-03-12T18:36:29.615Z</time>
      </trkpt>
      <trkpt lat="48.61527" lon="2.09531">
        <ele>130</ele>
        <time>2025-03-12T18:36:34.284Z</time>
      </trkpt>
      <trkpt lat="48.61525" lon="2.09522">
        <ele>130.3</ele>
        <time>2025-03-12T18:36:38.954Z</time>
      </trkpt>
      <trkpt lat="48.61523" lon="2.09513">
        <ele>130.6</ele>
        <time>2025-03-12T18:36:43.432Z</time>
      </trkpt>
      <trkpt lat="48.61521" lon="2.09504">
        <ele>130.9</ele>
        <time>2025-03-12T18:36:47.910Z</time>
      </trkpt>
      <trkpt lat="48.61519" lon="2.09495">
        <ele>131</ele>
        <time>2025-03-12T18:36:52.388Z</time>
      </trkpt>
      <trkpt lat="48.61518" lon="2.09486">
        <ele>131</ele>
        <time>2025-03-12T18:36:56.866Z</time>
      </trkpt>
      <trkpt lat="48.61516" lon="2.09477">
        <ele>131</ele>
        <time>2025-03-12T18:37:01.344Z</time>
      </trkpt>
      <trkpt lat="48.61514" lon="2.09468">
        <ele>131.2</ele>
        <time>2025-03-12T18:37:05.822Z</time>
      </trkpt>
      <trkpt lat="48.61512" lon="2.09459">
        <ele>131.5</ele>
        <time>2025-03-12T18:37:10.300Z</time>
      </trkpt>
      <trkpt lat="48.6151" lon="2.0945">
        <ele>131.8</ele>
        <time>2025-03-12T18:37:14.779Z</time>
      </trkpt>
      <trkpt lat="48.61508" lon="2.0944">
        <ele>132</ele>
        <time>2025-03-12T18:37:19.258Z</time>
      </trkpt>
      <trkpt lat="48.61506" lon="2.09431">
        <ele>132</ele>
        <time>2025-03-12T18:37:23.737Z</time>
      </trkpt>
      <trkpt lat="48.61504" lon="2.09422">
        <ele>132</ele>
        <time>2025-03-12T18:37:28.216Z</time>
      </trkpt>
      <trkpt lat="48.61503" lon="2.09413">
        <ele>132.1</ele>
        <time>2025-03-12T18:37:32.695Z</time>
      </trkpt>
      <trkpt lat="48.61501" lon="2.09404">
        <ele>132.4</ele>
        <time>2025-03-12T18:37:37.174Z</time>
      </trkpt>
      <trkpt lat="48.61499" lon="2.09395">
        <ele>132.7</ele>
        <time>2025-03-12T18:37:41.653Z</time>
      </trkpt>
      <trkpt lat="48.61497" lon="2.09386">
        <ele>132.9</ele>
        <time>2025-03-12T18:37:46.132Z</time>
      </trkpt>
      <trkpt lat="48.61495" lon="2.09377">
        <ele>132.9</ele>
        <time>2025-03-12T18:37:50.612Z</time>
      </trkpt>
      <trkpt lat="48.61493" lon="2.09366">
        <ele>133</ele>
        <time>2025-03-12T18:37:56.204Z</time>
      </trkpt>
      <trkpt lat="48.61491" lon="2.09354">
        <ele>133.2</ele>
        <time>2025-03-12T18:38:01.796Z</time>
      </trkpt>
      <trkpt lat="48.61488" lon="2.09343">
        <ele>133.4</ele>
        <time>2025-03-12T18:38:07.389Z</time>
      </trkpt>
      <trkpt lat="48.61486" lon="2.09331">
        <ele>133.5</ele>
        <time>2025-03-12T18:38:12.982Z</time>
      </trkpt>
      <trkpt lat="48.61484" lon="2.0932">
        <ele>133.7</ele>
        <time>2025-03-12T18:38:18.575Z</time>
      </trkpt>
      <trkpt lat="48.61482" lon="2.09308">
        <ele>133.9</ele>
        <time>2025-03-12T18:38:24.168Z</time>
      </trkpt>
      <trkpt lat="48.6148" lon="2.09297">
        <ele>134.1</ele>
        <time>2025-03-12T18:38:29.761Z</time>
      </trkpt>
      <trkpt lat="48.61478" lon="2.09286">
        <ele>134.1</ele>
        <time>2025-03-12T18:38:35.354Z</time>
      </trkpt>
      <trkpt lat="48.61475" lon="2.09274">
        <ele>134.2</ele>
        <time>2025-03-12T18:38:40.947Z</time>
      </trkpt>
      <trkpt lat="48.61473" lon="2.09263">
        <ele>134.6</ele>
        <time>2025-03-12T18:38:46.540Z</time>
      </trkpt>
      <trkpt lat="48.61471" lon="2.09251">
        <ele>134.9</ele>
        <time>2025-03-12T18:38:52.133Z</time>
      </trkpt>
      <trkpt lat="48.61469" lon="2.0924">
        <ele>134.9</ele>
        <time>2025-03-12T18:38:57.726Z</time>
      </trkpt>
      <trkpt lat="48.61467" lon="2.09228">
        <ele>135</ele>
        <time>2025-03-12T18:39:03.319Z</time>
      </trkpt>
      <trkpt lat="48.61464" lon="2.09217">
        <ele>135.2</ele>
        <time>2025-03-12T18:39:08.912Z</time>
      </trkpt>
      <trkpt lat="48.61462" lon="2.09205">
        <ele>135.6</ele>
        <time>2025-03-12T18:39:14.505Z</time>
      </trkpt>
      <trkpt lat="48.6146" lon="2.09194">
        <ele>136</ele>
        <time>2025-03-12T18:39:20.099Z</time>
      </trkpt>
      <trkpt lat="48.6146" lon="2.09194">
        <ele>136</ele>
        <time>2025-03-12T18:39:20.099Z</time>
      </trkpt>
      <trkpt lat="48.61468" lon="2.09195">
        <ele>136</ele>
        <time>2025-03-12T18:39:25.723Z</time>
      </trkpt>
      <trkpt lat="48.61476" lon="2.09196">
        <ele>136.1</ele>
        <time>2025-03-12T18:39:31.348Z</time>
      </trkpt>
      <trkpt lat="48.61484" lon="2.09197">
        <ele>136.3</ele>
        <time>2025-03-12T18:39:36.973Z</time>
      </trkpt>
      <trkpt lat="48.61493" lon="2.09198">
        <ele>136.6</ele>
        <time>2025-03-12T18:39:42.598Z</time>
      </trkpt>
      <trkpt lat="48.61501" lon="2.09199">
        <ele>136.8</ele>
        <time>2025-03-12T18:39:48.223Z</time>
      </trkpt>
      <trkpt lat="48.61509" lon="2.092">
        <ele>136.9</ele>
        <time>2025-03-12T18:39:53.848Z</time>
      </trkpt>
      <trkpt lat="48.61517" lon="2.09201">
        <ele>136.9</ele>
        <time>2025-03-12T18:39:59.473Z</time>
      </trkpt>
      <trkpt lat="48.61525" lon="2.09202">
        <ele>137</ele>
        <time>2025-03-12T18:40:05.098Z</time>
      </trkpt>
      <trkpt lat="48.6153" lon="2.09202">
        <ele>137.1</ele>
        <time>2025-03-12T18:40:08.714Z</time>
      </trkpt>
      <trkpt lat="48.61534" lon="2.09203">
        <ele>137.4</ele>
        <time>2025-03-12T18:40:12.330Z</time>
      </trkpt>
      <trkpt lat="48.61539" lon="2.09203">
        <ele>137.7</ele>
        <time>2025-03-12T18:40:15.946Z</time>
      </trkpt>
      <trkpt lat="48.61544" lon="2.09203">
        <ele>138</ele>
        <time>2025-03-12T18:40:19.562Z</time>
      </trkpt>
      <trkpt lat="48.61548" lon="2.09203">
        <ele>138.2</ele>
        <time>2025-03-12T18:40:23.178Z</time>
      </trkpt>
      <trkpt lat="48.61553" lon="2.09204">
        <ele>138.5</ele>
        <time>2025-03-12T18:40:26.794Z</time>
      </trkpt>
      <trkpt lat="48.61557" lon="2.09204">
        <ele>138.8</ele>
        <time>2025-03-12T18:40:30.411Z</time>
      </trkpt>
      <trkpt lat="48.61562" lon="2.09204">
        <ele>139</ele>
        <time>2025-03-12T18:40:34.028Z</time>
      </trkpt>
      <trkpt lat="48.61568" lon="2.09206">
        <ele>139.2</ele>
        <time>2025-03-12T18:40:38.455Z</time>
      </trkpt>
      <trkpt lat="48.61573" lon="2.09207">
        <ele>139.5</ele>
        <time>2025-03-12T18:40:42.882Z</time>
      </trkpt>
      <trkpt lat="48.61579" lon="2.09209">
        <ele>139.7</ele>
        <time>2025-03-12T18:40:47.309Z</time>
      </trkpt>
      <trkpt lat="48.61584" lon="2.0921">
        <ele>140</ele>
        <time>2025-03-12T18:40:51.736Z</time>
      </trkpt>
      <trkpt lat="48.6159" lon="2.09212">
        <ele>140.4</ele>
        <time>2025-03-12T18:40:56.163Z</time>
      </trkpt>
      <trkpt lat="48.61595" lon="2.09213">
        <ele>140.8</ele>
        <time>2025-03-12T18:41:00.590Z</time>
      </trkpt>
      <trkpt lat="48.61601" lon="2.09215">
        <ele>141.2</ele>
        <time>2025-03-12T18:41:05.017Z</time>
      </trkpt>
      <trkpt lat="48.61606" lon="2.09216">
        <ele>141.6</ele>
        <time>2025-03-12T18:41:09.444Z</time>
      </trkpt>
      <trkpt lat="48.6161" lon="2.09218">
        <ele>141.9</ele>
        <time>2025-03-12T18:41:13.041Z</time>
      </trkpt>
      <trkpt lat="48.61615" lon="2.09221">
        <ele>142.1</ele>
        <time>2025-03-12T18:41:16.638Z</time>
      </trkpt>
      <trkpt lat="48.61619" lon="2.09223">
        <ele>142.3</ele>
        <time>2025-03-12T18:41:20.235Z</time>
      </trkpt>
      <trkpt lat="48.61624" lon="2.09226">
        <ele>142.5</ele>
        <time>2025-03-12T18:41:23.832Z</time>
      </trkpt>
      <trkpt lat="48.61628" lon="2.09228">
        <ele>142.7</ele>
        <time>2025-03-12T18:41:27.429Z</time>
      </trkpt>
      <trkpt lat="48.61632" lon="2.0923">
        <ele>143</ele>
        <time>2025-03-12T18:41:31.027Z</time>
      </trkpt>
      <trkpt lat="48.61637" lon="2.09233">
        <ele>143.3</ele>
        <time>2025-03-12T18:41:34.625Z</time>
      </trkpt>
      <trkpt lat="48.61641" lon="2.09235">
        <ele>143.5</ele>
        <time>2025-03-12T18:41:38.223Z</time>
      </trkpt>
      <trkpt lat="48.61646" lon="2.09238">
        <ele>143.7</ele>
        <time>2025-03-12T18:41:42.008Z</time>
      </trkpt>
      <trkpt lat="48.61651" lon="2.09242">
        <ele>143.8</ele>
        <time>2025-03-12T18:41:45.793Z</time>
      </trkpt>
      <trkpt lat="48.61656" lon="2.09245">
        <ele>143.9</ele>
        <time>2025-03-12T18:41:49.579Z</time>
      </trkpt>
      <trkpt lat="48.61662" lon="2.09248">
        <ele>144</ele>
        <time>2025-03-12T18:41:53.365Z</time>
      </trkpt>
      <trkpt lat="48.61667" lon="2.09251">
        <ele>144</ele>
        <time>2025-03-12T18:41:57.151Z</time>
      </trkpt>
      <trkpt lat="48.61672" lon="2.09255">
        <ele>144</ele>
        <time>2025-03-12T18:42:00.937Z</time>
      </trkpt>
      <trkpt lat="48.61677" lon="2.09258">
        <ele>144</ele>
        <time>2025-03-12T18:42:04.723Z</time>
      </trkpt>
      <trkpt lat="48.61682" lon="2.09261">
        <ele>144</ele>
        <time>2025-03-12T18:42:08.509Z</time>
      </trkpt>
      <trkpt lat="48.61687" lon="2.09263">
        <ele>144</ele>
        <time>2025-03-12T18:42:11.672Z</time>
      </trkpt>
      <trkpt lat="48.61691" lon="2.09264">
        <ele>144</ele>
        <time>2025-03-12T18:42:14.835Z</time>
      </trkpt>
      <trkpt lat="48.61696" lon="2.09266">
        <ele>144</ele>
        <time>2025-03-12T18:42:17.998Z</time>
      </trkpt>
      <trkpt lat="48.61701" lon="2.09267">
        <ele>144.1</ele>
        <time>2025-03-12T18:42:21.161Z</time>
      </trkpt>
      <trkpt lat="48.61705" lon="2.09269">
        <ele>144.1</ele>
        <time>2025-03-12T18:42:24.324Z</time>
      </trkpt>
      <trkpt lat="48.6171" lon="2.0927">
        <ele>144.2</ele>
        <time>2025-03-12T18:42:27.487Z</time>
      </trkpt>
      <trkpt lat="48.61714" lon="2.09272">
        <ele>144.2</ele>
        <time>2025-03-12T18:42:30.651Z</time>
      </trkpt>
      <trkpt lat="48.61719" lon="2.09273">
        <ele>144.2</ele>
        <time>2025-03-12T18:42:33.815Z</time>
      </trkpt>
      <trkpt lat="48.61724" lon="2.09276">
        <ele>144.1</ele>
        <time>2025-03-12T18:42:36.971Z</time>
      </trkpt>
      <trkpt lat="48.61728" lon="2.09278">
        <ele>144</ele>
        <time>2025-03-12T18:42:40.127Z</time>
      </trkpt>
      <trkpt lat="48.61733" lon="2.09281">
        <ele>144</ele>
        <time>2025-03-12T18:42:43.283Z</time>
      </trkpt>
      <trkpt lat="48.61738" lon="2.09283">
        <ele>144</ele>
        <time>2025-03-12T18:42:46.439Z</time>
      </trkpt>
      <trkpt lat="48.61742" lon="2.09286">
        <ele>144</ele>
        <time>2025-03-12T18:42:49.596Z</time>
      </trkpt>
      <trkpt lat="48.61747" lon="2.09288">
        <ele>144</ele>
        <time>2025-03-12T18:42:52.753Z</time>
      </trkpt>
      <trkpt lat="48.61751" lon="2.09291">
        <ele>144</ele>
        <time>2025-03-12T18:42:55.910Z</time>
      </trkpt>
      <trkpt lat="48.61756" lon="2.09293">
        <ele>143.9</ele>
        <time>2025-03-12T18:42:59.067Z</time>
      </trkpt>
      <trkpt lat="48.6176" lon="2.09297">
        <ele>143.7</ele>
        <time>2025-03-12T18:43:02.034Z</time>
      </trkpt>
      <trkpt lat="48.61765" lon="2.09301">
        <ele>143.6</ele>
        <time>2025-03-12T18:43:05.001Z</time>
      </trkpt>
      <trkpt lat="48.61769" lon="2.09305">
        <ele>143.3</ele>
        <time>2025-03-12T18:43:07.969Z</time>
      </trkpt>
      <trkpt lat="48.61774" lon="2.0931">
        <ele>143.2</ele>
        <time>2025-03-12T18:43:10.937Z</time>
      </trkpt>
      <trkpt lat="48.61778" lon="2.09314">
        <ele>143</ele>
        <time>2025-03-12T18:43:13.905Z</time>
      </trkpt>
      <trkpt lat="48.61782" lon="2.09318">
        <ele>142.6</ele>
        <time>2025-03-12T18:43:16.873Z</time>
      </trkpt>
      <trkpt lat="48.61787" lon="2.09322">
        <ele>142.2</ele>
        <time>2025-03-12T18:43:19.841Z</time>
      </trkpt>
      <trkpt lat="48.61791" lon="2.09326">
        <ele>141.7</ele>
        <time>2025-03-12T18:43:22.809Z</time>
      </trkpt>
      <trkpt lat="48.61796" lon="2.09331">
        <ele>141.1</ele>
        <time>2025-03-12T18:43:26.054Z</time>
      </trkpt>
      <trkpt lat="48.618" lon="2.09336">
        <ele>140.7</ele>
        <time>2025-03-12T18:43:29.299Z</time>
      </trkpt>
      <trkpt lat="48.61805" lon="2.09341">
        <ele>140.3</ele>
        <time>2025-03-12T18:43:32.544Z</time>
      </trkpt>
      <trkpt lat="48.6181" lon="2.09346">
        <ele>140.1</ele>
        <time>2025-03-12T18:43:35.789Z</time>
      </trkpt>
      <trkpt lat="48.61814" lon="2.0935">
        <ele>139.8</ele>
        <time>2025-03-12T18:43:39.034Z</time>
      </trkpt>
      <trkpt lat="48.61819" lon="2.09355">
        <ele>139.5</ele>
        <time>2025-03-12T18:43:42.279Z</time>
      </trkpt>
      <trkpt lat="48.61823" lon="2.0936">
        <ele>139.1</ele>
        <time>2025-03-12T18:43:45.524Z</time>
      </trkpt>
      <trkpt lat="48.61828" lon="2.09365">
        <ele>138.7</ele>
        <time>2025-03-12T18:43:48.769Z</time>
      </trkpt>
      <trkpt lat="48.61835" lon="2.0937">
        <ele>138.2</ele>
        <time>2025-03-12T18:43:53.481Z</time>
      </trkpt>
      <trkpt lat="48.61843" lon="2.09376">
        <ele>137.7</ele>
        <time>2025-03-12T18:43:58.193Z</time>
      </trkpt>
      <trkpt lat="48.6185" lon="2.09381">
        <ele>137.1</ele>
        <time>2025-03-12T18:44:02.905Z</time>
      </trkpt>
      <trkpt lat="48.61858" lon="2.09387">
        <ele>136.4</ele>
        <time>2025-03-12T18:44:07.618Z</time>
      </trkpt>
      <trkpt lat="48.61865" lon="2.09392">
        <ele>136</ele>
        <time>2025-03-12T18:44:12.331Z</time>
      </trkpt>
      <trkpt lat="48.61872" lon="2.09397">
        <ele>135.8</ele>
        <time>2025-03-12T18:44:17.044Z</time>
      </trkpt>
      <trkpt lat="48.6188" lon="2.09403">
        <ele>135.5</ele>
        <time>2025-03-12T18:44:21.757Z</time>
      </trkpt>
      <trkpt lat="48.61887" lon="2.09408">
        <ele>135.1</ele>
        <time>2025-03-12T18:44:26.470Z</time>
      </trkpt>
      <trkpt lat="48.61895" lon="2.09414">
        <ele>134.8</ele>
        <time>2025-03-12T18:44:31.402Z</time>
      </trkpt>
      <trkpt lat="48.61902" lon="2.0942">
        <ele>134.4</ele>
        <time>2025-03-12T18:44:36.334Z</time>
      </trkpt>
      <trkpt lat="48.61908" lon="2.09426">
        <ele>134</ele>
        <time>2025-03-12T18:44:40.182Z</time>
      </trkpt>
      <trkpt lat="48.61913" lon="2.09432">
        <ele>133.6</ele>
        <time>2025-03-12T18:44:44.031Z</time>
      </trkpt>
      <trkpt lat="48.61919" lon="2.09437">
        <ele>133.2</ele>
        <time>2025-03-12T18:44:47.880Z</time>
      </trkpt>
      <trkpt lat="48.61924" lon="2.09443">
        <ele>132.8</ele>
        <time>2025-03-12T18:44:51.729Z</time>
      </trkpt>
      <trkpt lat="48.61931" lon="2.09447">
        <ele>132.4</ele>
        <time>2025-03-12T18:44:55.793Z</time>
      </trkpt>
      <trkpt lat="48.61937" lon="2.09451">
        <ele>132</ele>
        <time>2025-03-12T18:44:59.857Z</time>
      </trkpt>
      <trkpt lat="48.61944" lon="2.09454">
        <ele>131.7</ele>
        <time>2025-03-12T18:45:03.921Z</time>
      </trkpt>
      <trkpt lat="48.6195" lon="2.09458">
        <ele>131.7</ele>
        <time>2025-03-12T18:45:07.986Z</time>
      </trkpt>
      <trkpt lat="48.61954" lon="2.09462">
        <ele>131.7</ele>
        <time>2025-03-12T18:45:11.481Z</time>
      </trkpt>
      <trkpt lat="48.61959" lon="2.09466">
        <ele>131.7</ele>
        <time>2025-03-12T18:45:14.976Z</time>
      </trkpt>
      <trkpt lat="48.61963" lon="2.0947">
        <ele>131.7</ele>
        <time>2025-03-12T18:45:18.471Z</time>
      </trkpt>
      <trkpt lat="48.61968" lon="2.09475">
        <ele>131.8</ele>
        <time>2025-03-12T18:45:21.966Z</time>
      </trkpt>
      <trkpt lat="48.61972" lon="2.09479">
        <ele>131.8</ele>
        <time>2025-03-12T18:45:25.461Z</time>
      </trkpt>
      <trkpt lat="48.61976" lon="2.09483">
        <ele>131.8</ele>
        <time>2025-03-12T18:45:28.956Z</time>
      </trkpt>
      <trkpt lat="48.61981" lon="2.09487">
        <ele>131.9</ele>
        <time>2025-03-12T18:45:32.451Z</time>
      </trkpt>
      <trkpt lat="48.61985" lon="2.09491">
        <ele>132.1</ele>
        <time>2025-03-12T18:45:35.946Z</time>
      </trkpt>
      <trkpt lat="48.61989" lon="2.09497">
        <ele>132.2</ele>
        <time>2025-03-12T18:45:39.572Z</time>
      </trkpt>
      <trkpt lat="48.61992" lon="2.09502">
        <ele>132.4</ele>
        <time>2025-03-12T18:45:43.198Z</time>
      </trkpt>
      <trkpt lat="48.61996" lon="2.09508">
        <ele>132.4</ele>
        <time>2025-03-12T18:45:46.825Z</time>
      </trkpt>
      <trkpt lat="48.61999" lon="2.09514">
        <ele>132.5</ele>
        <time>2025-03-12T18:45:50.452Z</time>
      </trkpt>
      <trkpt lat="48.62003" lon="2.09519">
        <ele>132.5</ele>
        <time>2025-03-12T18:45:54.079Z</time>
      </trkpt>
      <trkpt lat="48.62006" lon="2.09525">
        <ele>132.5</ele>
        <time>2025-03-12T18:45:57.706Z</time>
      </trkpt>
      <trkpt lat="48.6201" lon="2.0953">
        <ele>132.7</ele>
        <time>2025-03-12T18:46:01.333Z</time>
      </trkpt>
      <trkpt lat="48.62013" lon="2.09536">
        <ele>133.1</ele>
        <time>2025-03-12T18:46:04.960Z</time>
      </trkpt>
      <trkpt lat="48.62017" lon="2.09528">
        <ele>133.2</ele>
        <time>2025-03-12T18:46:09.650Z</time>
      </trkpt>
      <trkpt lat="48.62021" lon="2.09521">
        <ele>133.6</ele>
        <time>2025-03-12T18:46:14.340Z</time>
      </trkpt>
      <trkpt lat="48.62025" lon="2.09513">
        <ele>133.8</ele>
        <time>2025-03-12T18:46:19.030Z</time>
      </trkpt>
      <trkpt lat="48.62029" lon="2.09506">
        <ele>134.1</ele>
        <time>2025-03-12T18:46:23.720Z</time>
      </trkpt>
      <trkpt lat="48.62032" lon="2.09498">
        <ele>134.3</ele>
        <time>2025-03-12T18:46:28.410Z</time>
      </trkpt>
      <trkpt lat="48.62036" lon="2.0949">
        <ele>134.6</ele>
        <time>2025-03-12T18:46:33.100Z</time>
      </trkpt>
      <trkpt lat="48.6204" lon="2.09483">
        <ele>134.9</ele>
        <time>2025-03-12T18:46:37.790Z</time>
      </trkpt>
      <trkpt lat="48.62044" lon="2.09475">
        <ele>135.2</ele>
        <time>2025-03-12T18:46:42.480Z</time>
      </trkpt>
      <trkpt lat="48.62048" lon="2.09467">
        <ele>135.5</ele>
        <time>2025-03-12T18:46:47.171Z</time>
      </trkpt>
      <trkpt lat="48.62052" lon="2.0946">
        <ele>135.8</ele>
        <time>2025-03-12T18:46:51.862Z</time>
      </trkpt>
      <trkpt lat="48.62056" lon="2.09452">
        <ele>136</ele>
        <time>2025-03-12T18:46:56.553Z</time>
      </trkpt>
      <trkpt lat="48.6206" lon="2.09445">
        <ele>136</ele>
        <time>2025-03-12T18:47:01.244Z</time>
      </trkpt>
      <trkpt lat="48.62063" lon="2.09437">
        <ele>136.1</ele>
        <time>2025-03-12T18:47:05.935Z</time>
      </trkpt>
      <trkpt lat="48.62067" lon="2.09429">
        <ele>136.2</ele>
        <time>2025-03-12T18:47:10.626Z</time>
      </trkpt>
      <trkpt lat="48.62071" lon="2.09422">
        <ele>136.5</ele>
        <time>2025-03-12T18:47:15.317Z</time>
      </trkpt>
      <trkpt lat="48.62075" lon="2.09414">
        <ele>136.8</ele>
        <time>2025-03-12T18:47:20.008Z</time>
      </trkpt>
      <trkpt lat="48.62078" lon="2.09407">
        <ele>137.2</ele>
        <time>2025-03-12T18:47:23.971Z</time>
      </trkpt>
      <trkpt lat="48.62081" lon="2.094">
        <ele>137.5</ele>
        <time>2025-03-12T18:47:27.934Z</time>
      </trkpt>
      <trkpt lat="48.62084" lon="2.09393">
        <ele>137.8</ele>
        <time>2025-03-12T18:47:31.897Z</time>
      </trkpt>
      <trkpt lat="48.62087" lon="2.09387">
        <ele>138</ele>
        <time>2025-03-12T18:47:35.860Z</time>
      </trkpt>
      <trkpt lat="48.6209" lon="2.0938">
        <ele>138.1</ele>
        <time>2025-03-12T18:47:39.823Z</time>
      </trkpt>
      <trkpt lat="48.62093" lon="2.09373">
        <ele>138.2</ele>
        <time>2025-03-12T18:47:43.786Z</time>
      </trkpt>
      <trkpt lat="48.62096" lon="2.09366">
        <ele>138.4</ele>
        <time>2025-03-12T18:47:47.749Z</time>
      </trkpt>
      <trkpt lat="48.62099" lon="2.09359">
        <ele>138.5</ele>
        <time>2025-03-12T18:47:51.712Z</time>
      </trkpt>
      <trkpt lat="48.62102" lon="2.09352">
        <ele>138.7</ele>
        <time>2025-03-12T18:47:55.675Z</time>
      </trkpt>
      <trkpt lat="48.62105" lon="2.09345">
        <ele>138.8</ele>
        <time>2025-03-12T18:47:59.638Z</time>
      </trkpt>
      <trkpt lat="48.62108" lon="2.09338">
        <ele>138.9</ele>
        <time>2025-03-12T18:48:03.601Z</time>
      </trkpt>
      <trkpt lat="48.62111" lon="2.09332">
        <ele>139.1</ele>
        <time>2025-03-12T18:48:07.564Z</time>
      </trkpt>
      <trkpt lat="48.62114" lon="2.09325">
        <ele>139.2</ele>
        <time>2025-03-12T18:48:11.527Z</time>
      </trkpt>
      <trkpt lat="48.62117" lon="2.09318">
        <ele>139.4</ele>
        <time>2025-03-12T18:48:15.490Z</time>
      </trkpt>
      <trkpt lat="48.6212" lon="2.09311">
        <ele>139.5</ele>
        <time>2025-03-12T18:48:19.454Z</time>
      </trkpt>
      <trkpt lat="48.62123" lon="2.09304">
        <ele>139.6</ele>
        <time>2025-03-12T18:48:23.418Z</time>
      </trkpt>
      <trkpt lat="48.62126" lon="2.09298">
        <ele>139.5</ele>
        <time>2025-03-12T18:48:26.444Z</time>
      </trkpt>
      <trkpt lat="48.62129" lon="2.09292">
        <ele>139.4</ele>
        <time>2025-03-12T18:48:29.470Z</time>
      </trkpt>
      <trkpt lat="48.62132" lon="2.09285">
        <ele>139.3</ele>
        <time>2025-03-12T18:48:32.496Z</time>
      </trkpt>
      <trkpt lat="48.62135" lon="2.09279">
        <ele>139.2</ele>
        <time>2025-03-12T18:48:35.522Z</time>
      </trkpt>
      <trkpt lat="48.62137" lon="2.09273">
        <ele>139.1</ele>
        <time>2025-03-12T18:48:38.548Z</time>
      </trkpt>
      <trkpt lat="48.6214" lon="2.09267">
        <ele>139</ele>
        <time>2025-03-12T18:48:41.574Z</time>
      </trkpt>
      <trkpt lat="48.62143" lon="2.09261">
        <ele>138.9</ele>
        <time>2025-03-12T18:48:44.600Z</time>
      </trkpt>
      <trkpt lat="48.62146" lon="2.09255">
        <ele>139</ele>
        <time>2025-03-12T18:48:47.626Z</time>
      </trkpt>
      <trkpt lat="48.62149" lon="2.09248">
        <ele>139</ele>
        <time>2025-03-12T18:48:50.652Z</time>
      </trkpt>
      <trkpt lat="48.62152" lon="2.09242">
        <ele>138.9</ele>
        <time>2025-03-12T18:48:53.679Z</time>
      </trkpt>
      <trkpt lat="48.62155" lon="2.09236">
        <ele>138.7</ele>
        <time>2025-03-12T18:48:56.706Z</time>
      </trkpt>
      <trkpt lat="48.62158" lon="2.0923">
        <ele>138.5</ele>
        <time>2025-03-12T18:48:59.733Z</time>
      </trkpt>
      <trkpt lat="48.6216" lon="2.09224">
        <ele>138.3</ele>
        <time>2025-03-12T18:49:02.760Z</time>
      </trkpt>
      <trkpt lat="48.62163" lon="2.09217">
        <ele>137.9</ele>
        <time>2025-03-12T18:49:05.787Z</time>
      </trkpt>
      <trkpt lat="48.62166" lon="2.09211">
        <ele>137.6</ele>
        <time>2025-03-12T18:49:08.814Z</time>
      </trkpt>
      <trkpt lat="48.62169" lon="2.09205">
        <ele>137.4</ele>
        <time>2025-03-12T18:49:11.841Z</time>
      </trkpt>
      <trkpt lat="48.62175" lon="2.09198">
        <ele>137.1</ele>
        <time>2025-03-12T18:49:16.267Z</time>
      </trkpt>
      <trkpt lat="48.62181" lon="2.09205">
        <ele>137.4</ele>
        <time>2025-03-12T18:49:20.997Z</time>
      </trkpt>
      <trkpt lat="48.62187" lon="2.09211">
        <ele>137.6</ele>
        <time>2025-03-12T18:49:25.727Z</time>
      </trkpt>
      <trkpt lat="48.62192" lon="2.09218">
        <ele>137.8</ele>
        <time>2025-03-12T18:49:30.457Z</time>
      </trkpt>
      <trkpt lat="48.62198" lon="2.09225">
        <ele>137.9</ele>
        <time>2025-03-12T18:49:35.187Z</time>
      </trkpt>
      <trkpt lat="48.62204" lon="2.09231">
        <ele>137.7</ele>
        <time>2025-03-12T18:49:39.917Z</time>
      </trkpt>
      <trkpt lat="48.6221" lon="2.09238">
        <ele>137.5</ele>
        <time>2025-03-12T18:49:44.647Z</time>
      </trkpt>
      <trkpt lat="48.62215" lon="2.09244">
        <ele>137.3</ele>
        <time>2025-03-12T18:49:49.377Z</time>
      </trkpt>
      <trkpt lat="48.62221" lon="2.09251">
        <ele>137</ele>
        <time>2025-03-12T18:49:54.107Z</time>
      </trkpt>
      <trkpt lat="48.62228" lon="2.09259">
        <ele>136.7</ele>
        <time>2025-03-12T18:49:59.163Z</time>
      </trkpt>
      <trkpt lat="48.62236" lon="2.09266">
        <ele>136.2</ele>
        <time>2025-03-12T18:50:04.219Z</time>
      </trkpt>
      <trkpt lat="48.62243" lon="2.09274">
        <ele>135.6</ele>
        <time>2025-03-12T18:50:09.275Z</time>
      </trkpt>
      <trkpt lat="48.6225" lon="2.09281">
        <ele>135</ele>
        <time>2025-03-12T18:50:14.331Z</time>
      </trkpt>
      <trkpt lat="48.62256" lon="2.09284">
        <ele>134.8</ele>
        <time>2025-03-12T18:50:17.647Z</time>
      </trkpt>
      <trkpt lat="48.62261" lon="2.09286">
        <ele>134.5</ele>
        <time>2025-03-12T18:50:20.964Z</time>
      </trkpt>
      <trkpt lat="48.62267" lon="2.09294">
        <ele>134</ele>
        <time>2025-03-12T18:50:25.505Z</time>
      </trkpt>
      <trkpt lat="48.62273" lon="2.09302">
        <ele>133.5</ele>
        <time>2025-03-12T18:50:30.046Z</time>
      </trkpt>
      <trkpt lat="48.62279" lon="2.09309">
        <ele>133</ele>
        <time>2025-03-12T18:50:34.588Z</time>
      </trkpt>
      <trkpt lat="48.62285" lon="2.09317">
        <ele>132.6</ele>
        <time>2025-03-12T18:50:39.130Z</time>
      </trkpt>
      <trkpt lat="48.62291" lon="2.09323">
        <ele>132.2</ele>
        <time>2025-03-12T18:50:43.323Z</time>
      </trkpt>
      <trkpt lat="48.62297" lon="2.0933">
        <ele>131.7</ele>
        <time>2025-03-12T18:50:47.517Z</time>
      </trkpt>
      <trkpt lat="48.62303" lon="2.09336">
        <ele>131.2</ele>
        <time>2025-03-12T18:50:51.711Z</time>
      </trkpt>
      <trkpt lat="48.62309" lon="2.09342">
        <ele>130.9</ele>
        <time>2025-03-12T18:50:55.905Z</time>
      </trkpt>
      <trkpt lat="48.62315" lon="2.09348">
        <ele>130.7</ele>
        <time>2025-03-12T18:51:00.161Z</time>
      </trkpt>
      <trkpt lat="48.62321" lon="2.09354">
        <ele>130.5</ele>
        <time>2025-03-12T18:51:04.417Z</time>
      </trkpt>
      <trkpt lat="48.62326" lon="2.0936">
        <ele>130.2</ele>
        <time>2025-03-12T18:51:08.673Z</time>
      </trkpt>
      <trkpt lat="48.62332" lon="2.09367">
        <ele>130</ele>
        <time>2025-03-12T18:51:12.929Z</time>
      </trkpt>
      <trkpt lat="48.62338" lon="2.09373">
        <ele>129.8</ele>
        <time>2025-03-12T18:51:17.185Z</time>
      </trkpt>
      <trkpt lat="48.62344" lon="2.09379">
        <ele>129.6</ele>
        <time>2025-03-12T18:51:21.441Z</time>
      </trkpt>
      <trkpt lat="48.6235" lon="2.09385">
        <ele>129.4</ele>
        <time>2025-03-12T18:51:25.697Z</time>
      </trkpt>
      <trkpt lat="48.62356" lon="2.09391">
        <ele>129.2</ele>
        <time>2025-03-12T18:51:29.953Z</time>
      </trkpt>
      <trkpt lat="48.62361" lon="2.09397">
        <ele>129</ele>
        <time>2025-03-12T18:51:34.209Z</time>
      </trkpt>
      <trkpt lat="48.62367" lon="2.09403">
        <ele>128.8</ele>
        <time>2025-03-12T18:51:38.465Z</time>
      </trkpt>
      <trkpt lat="48.62373" lon="2.09409">
        <ele>128.6</ele>
        <time>2025-03-12T18:51:42.722Z</time>
      </trkpt>
      <trkpt lat="48.62379" lon="2.09416">
        <ele>128.4</ele>
        <time>2025-03-12T18:51:46.979Z</time>
      </trkpt>
      <trkpt lat="48.62385" lon="2.09422">
        <ele>128.2</ele>
        <time>2025-03-12T18:51:51.236Z</time>
      </trkpt>
      <trkpt lat="48.6239" lon="2.09428">
        <ele>127.9</ele>
        <time>2025-03-12T18:51:55.493Z</time>
      </trkpt>
      <trkpt lat="48.62396" lon="2.09434">
        <ele>127.7</ele>
        <time>2025-03-12T18:51:59.750Z</time>
      </trkpt>
      <trkpt lat="48.62402" lon="2.0944">
        <ele>127.5</ele>
        <time>2025-03-12T18:52:04.007Z</time>
      </trkpt>
      <trkpt lat="48.62407" lon="2.09445">
        <ele>127.3</ele>
        <time>2025-03-12T18:52:07.514Z</time>
      </trkpt>
      <trkpt lat="48.62412" lon="2.0945">
        <ele>127.2</ele>
        <time>2025-03-12T18:52:11.021Z</time>
      </trkpt>
      <trkpt lat="48.62417" lon="2.09454">
        <ele>127</ele>
        <time>2025-03-12T18:52:14.528Z</time>
      </trkpt>
      <trkpt lat="48.62422" lon="2.09459">
        <ele>126.7</ele>
        <time>2025-03-12T18:52:18.036Z</time>
      </trkpt>
      <trkpt lat="48.62429" lon="2.09466">
        <ele>126.2</ele>
        <time>2025-03-12T18:52:22.772Z</time>
      </trkpt>
      <trkpt lat="48.62436" lon="2.09473">
        <ele>125.6</ele>
        <time>2025-03-12T18:52:27.508Z</time>
      </trkpt>
      <trkpt lat="48.62442" lon="2.0948">
        <ele>125.2</ele>
        <time>2025-03-12T18:52:32.244Z</time>
      </trkpt>
      <trkpt lat="48.62449" lon="2.09487">
        <ele>124.9</ele>
        <time>2025-03-12T18:52:36.980Z</time>
      </trkpt>
      <trkpt lat="48.62456" lon="2.09494">
        <ele>124.7</ele>
        <time>2025-03-12T18:52:41.716Z</time>
      </trkpt>
      <trkpt lat="48.62463" lon="2.09501">
        <ele>124.3</ele>
        <time>2025-03-12T18:52:46.452Z</time>
      </trkpt>
      <trkpt lat="48.62469" lon="2.09508">
        <ele>124.1</ele>
        <time>2025-03-12T18:52:51.188Z</time>
      </trkpt>
      <trkpt lat="48.62476" lon="2.09515">
        <ele>123.9</ele>
        <time>2025-03-12T18:52:55.924Z</time>
      </trkpt>
      <trkpt lat="48.62484" lon="2.09522">
        <ele>123.7</ele>
        <time>2025-03-12T18:53:01.046Z</time>
      </trkpt>
      <trkpt lat="48.62491" lon="2.09528">
        <ele>123.3</ele>
        <time>2025-03-12T18:53:06.168Z</time>
      </trkpt>
      <trkpt lat="48.62498" lon="2.09536">
        <ele>123.1</ele>
        <time>2025-03-12T18:53:11.083Z</time>
      </trkpt>
      <trkpt lat="48.62505" lon="2.09543">
        <ele>122.8</ele>
        <time>2025-03-12T18:53:15.998Z</time>
      </trkpt>
      <trkpt lat="48.62512" lon="2.09551">
        <ele>122.6</ele>
        <time>2025-03-12T18:53:20.914Z</time>
      </trkpt>
      <trkpt lat="48.62519" lon="2.09559">
        <ele>122.2</ele>
        <time>2025-03-12T18:53:25.830Z</time>
      </trkpt>
      <trkpt lat="48.62525" lon="2.09566">
        <ele>121.7</ele>
        <time>2025-03-12T18:53:30.746Z</time>
      </trkpt>
      <trkpt lat="48.62532" lon="2.09574">
        <ele>121.2</ele>
        <time>2025-03-12T18:53:35.662Z</time>
      </trkpt>
      <trkpt lat="48.62539" lon="2.09581">
        <ele>120.7</ele>
        <time>2025-03-12T18:53:40.578Z</time>
      </trkpt>
      <trkpt lat="48.62546" lon="2.09589">
        <ele>120.3</ele>
        <time>2025-03-12T18:53:45.494Z</time>
      </trkpt>
      <trkpt lat="48.62553" lon="2.09597">
        <ele>120.1</ele>
        <time>2025-03-12T18:53:50.746Z</time>
      </trkpt>
      <trkpt lat="48.6256" lon="2.09605">
        <ele>119.9</ele>
        <time>2025-03-12T18:53:55.998Z</time>
      </trkpt>
      <trkpt lat="48.62567" lon="2.09613">
        <ele>119.6</ele>
        <time>2025-03-12T18:54:01.250Z</time>
      </trkpt>
      <trkpt lat="48.62574" lon="2.09621">
        <ele>119.4</ele>
        <time>2025-03-12T18:54:06.502Z</time>
      </trkpt>
      <trkpt lat="48.6258" lon="2.09629">
        <ele>119.1</ele>
        <time>2025-03-12T18:54:11.754Z</time>
      </trkpt>
      <trkpt lat="48.62587" lon="2.09637">
        <ele>118.9</ele>
        <time>2025-03-12T18:54:17.007Z</time>
      </trkpt>
      <trkpt lat="48.62594" lon="2.09645">
        <ele>118.6</ele>
        <time>2025-03-12T18:54:22.260Z</time>
      </trkpt>
      <trkpt lat="48.62601" lon="2.09653">
        <ele>118.4</ele>
        <time>2025-03-12T18:54:27.513Z</time>
      </trkpt>
      <trkpt lat="48.62605" lon="2.09659">
        <ele>118.2</ele>
        <time>2025-03-12T18:54:30.678Z</time>
      </trkpt>
      <trkpt lat="48.62609" lon="2.09664">
        <ele>118.1</ele>
        <time>2025-03-12T18:54:33.843Z</time>
      </trkpt>
      <trkpt lat="48.62613" lon="2.0967">
        <ele>117.8</ele>
        <time>2025-03-12T18:54:37.008Z</time>
      </trkpt>
      <trkpt lat="48.62618" lon="2.09675">
        <ele>117.5</ele>
        <time>2025-03-12T18:54:40.173Z</time>
      </trkpt>
      <trkpt lat="48.62622" lon="2.09681">
        <ele>117.1</ele>
        <time>2025-03-12T18:54:43.338Z</time>
      </trkpt>
      <trkpt lat="48.62626" lon="2.09686">
        <ele>116.8</ele>
        <time>2025-03-12T18:54:46.503Z</time>
      </trkpt>
      <trkpt lat="48.6263" lon="2.09692">
        <ele>116.4</ele>
        <time>2025-03-12T18:54:49.669Z</time>
      </trkpt>
      <trkpt lat="48.62634" lon="2.09697">
        <ele>116.2</ele>
        <time>2025-03-12T18:54:52.835Z</time>
      </trkpt>
      <trkpt lat="48.62638" lon="2.09702">
        <ele>116</ele>
        <time>2025-03-12T18:54:55.850Z</time>
      </trkpt>
      <trkpt lat="48.62642" lon="2.09707">
        <ele>115.9</ele>
        <time>2025-03-12T18:54:58.865Z</time>
      </trkpt>
      <trkpt lat="48.62646" lon="2.09711">
        <ele>115.8</ele>
        <time>2025-03-12T18:55:01.880Z</time>
      </trkpt>
      <trkpt lat="48.62651" lon="2.09716">
        <ele>115.7</ele>
        <time>2025-03-12T18:55:04.896Z</time>
      </trkpt>
      <trkpt lat="48.62655" lon="2.09721">
        <ele>115.5</ele>
        <time>2025-03-12T18:55:07.912Z</time>
      </trkpt>
      <trkpt lat="48.62659" lon="2.09726">
        <ele>115.2</ele>
        <time>2025-03-12T18:55:10.928Z</time>
      </trkpt>
      <trkpt lat="48.62663" lon="2.0973">
        <ele>114.8</ele>
        <time>2025-03-12T18:55:13.944Z</time>
      </trkpt>
      <trkpt lat="48.62667" lon="2.09735">
        <ele>114.5</ele>
        <time>2025-03-12T18:55:16.960Z</time>
      </trkpt>
      <trkpt lat="48.62675" lon="2.09742">
        <ele>114.2</ele>
        <time>2025-03-12T18:55:22.281Z</time>
      </trkpt>
      <trkpt lat="48.62682" lon="2.09749">
        <ele>114</ele>
        <time>2025-03-12T18:55:27.602Z</time>
      </trkpt>
      <trkpt lat="48.62688" lon="2.09756">
        <ele>113.9</ele>
        <time>2025-03-12T18:55:31.812Z</time>
      </trkpt>
      <trkpt lat="48.62693" lon="2.09762">
        <ele>113.6</ele>
        <time>2025-03-12T18:55:36.022Z</time>
      </trkpt>
      <trkpt lat="48.62698" lon="2.09765">
        <ele>113.4</ele>
        <time>2025-03-12T18:55:39.187Z</time>
      </trkpt>
      <trkpt lat="48.62705" lon="2.0977">
        <ele>113.2</ele>
        <time>2025-03-12T18:55:43.793Z</time>
      </trkpt>
      <trkpt lat="48.62712" lon="2.09775">
        <ele>113</ele>
        <time>2025-03-12T18:55:48.399Z</time>
      </trkpt>
      <trkpt lat="48.62718" lon="2.0978">
        <ele>112.9</ele>
        <time>2025-03-12T18:55:53.005Z</time>
      </trkpt>
      <trkpt lat="48.62725" lon="2.09785">
        <ele>112.7</ele>
        <time>2025-03-12T18:55:57.612Z</time>
      </trkpt>
      <trkpt lat="48.62732" lon="2.09789">
        <ele>112.4</ele>
        <time>2025-03-12T18:56:02.219Z</time>
      </trkpt>
      <trkpt lat="48.62739" lon="2.09794">
        <ele>112.2</ele>
        <time>2025-03-12T18:56:06.826Z</time>
      </trkpt>
      <trkpt lat="48.62745" lon="2.09799">
        <ele>112</ele>
        <time>2025-03-12T18:56:11.433Z</time>
      </trkpt>
      <trkpt lat="48.62752" lon="2.09804">
        <ele>112.1</ele>
        <time>2025-03-12T18:56:16.040Z</time>
      </trkpt>
      <trkpt lat="48.62759" lon="2.0981">
        <ele>112.3</ele>
        <time>2025-03-12T18:56:21.918Z</time>
      </trkpt>
      <trkpt lat="48.62765" lon="2.09815">
        <ele>112.7</ele>
        <time>2025-03-12T18:56:27.796Z</time>
      </trkpt>
      <trkpt lat="48.62772" lon="2.09821">
        <ele>113.2</ele>
        <time>2025-03-12T18:56:33.674Z</time>
      </trkpt>
      <trkpt lat="48.62778" lon="2.09826">
        <ele>113.8</ele>
        <time>2025-03-12T18:56:39.553Z</time>
      </trkpt>
      <trkpt lat="48.62783" lon="2.09831">
        <ele>114.3</ele>
        <time>2025-03-12T18:56:44.721Z</time>
      </trkpt>
      <trkpt lat="48.62789" lon="2.09836">
        <ele>114.8</ele>
        <time>2025-03-12T18:56:50.444Z</time>
      </trkpt>
      <trkpt lat="48.62796" lon="2.09841">
        <ele>115.3</ele>
        <time>2025-03-12T18:56:56.167Z</time>
      </trkpt>
      <trkpt lat="48.62802" lon="2.09845">
        <ele>115.7</ele>
        <time>2025-03-12T18:57:01.891Z</time>
      </trkpt>
      <trkpt lat="48.62808" lon="2.0985">
        <ele>116.2</ele>
        <time>2025-03-12T18:57:07.615Z</time>
      </trkpt>
      <trkpt lat="48.62815" lon="2.09856">
        <ele>116.6</ele>
        <time>2025-03-12T18:57:13.559Z</time>
      </trkpt>
      <trkpt lat="48.62821" lon="2.09861">
        <ele>117.1</ele>
        <time>2025-03-12T18:57:19.503Z</time>
      </trkpt>
      <trkpt lat="48.62828" lon="2.09866">
        <ele>117.7</ele>
        <time>2025-03-12T18:57:25.828Z</time>
      </trkpt>
      <trkpt lat="48.62834" lon="2.0987">
        <ele>118.4</ele>
        <time>2025-03-12T18:57:32.154Z</time>
      </trkpt>
      <trkpt lat="48.62842" lon="2.09875">
        <ele>119.6</ele>
        <time>2025-03-12T18:57:41.228Z</time>
      </trkpt>
      <trkpt lat="48.62847" lon="2.09878">
        <ele>120.2</ele>
        <time>2025-03-12T18:57:46.144Z</time>
      </trkpt>
      <trkpt lat="48.62852" lon="2.0988">
        <ele>120.9</ele>
        <time>2025-03-12T18:57:51.060Z</time>
      </trkpt>
      <trkpt lat="48.62856" lon="2.09883">
        <ele>121.4</ele>
        <time>2025-03-12T18:57:55.977Z</time>
      </trkpt>
      <trkpt lat="48.62861" lon="2.09885">
        <ele>122</ele>
        <time>2025-03-12T18:58:00.894Z</time>
      </trkpt>
      <trkpt lat="48.62865" lon="2.09887">
        <ele>122.1</ele>
        <time>2025-03-12T18:58:03.879Z</time>
      </trkpt>
      <trkpt lat="48.62867" lon="2.09879">
        <ele>122.3</ele>
        <time>2025-03-12T18:58:08.036Z</time>
      </trkpt>
      <trkpt lat="48.62868" lon="2.09876">
        <ele>122.4</ele>
        <time>2025-03-12T18:58:09.721Z</time>
      </trkpt>
      <trkpt lat="48.62874" lon="2.09882">
        <ele>122.6</ele>
        <time>2025-03-12T18:58:13.281Z</time>
      </trkpt>
      <trkpt lat="48.6288" lon="2.09887">
        <ele>122.7</ele>
        <time>2025-03-12T18:58:16.841Z</time>
      </trkpt>
      <trkpt lat="48.62884" lon="2.09883">
        <ele>123</ele>
        <time>2025-03-12T18:58:20.107Z</time>
      </trkpt>
      <trkpt lat="48.62889" lon="2.0988">
        <ele>123.3</ele>
        <time>2025-03-12T18:58:23.860Z</time>
      </trkpt>
      <trkpt lat="48.62894" lon="2.09876">
        <ele>123.6</ele>
        <time>2025-03-12T18:58:27.613Z</time>
      </trkpt>
      <trkpt lat="48.62899" lon="2.09873">
        <ele>123.7</ele>
        <time>2025-03-12T18:58:31.366Z</time>
      </trkpt>
      <trkpt lat="48.62904" lon="2.09869">
        <ele>123.9</ele>
        <time>2025-03-12T18:58:35.119Z</time>
      </trkpt>
      <trkpt lat="48.6291" lon="2.09866">
        <ele>124</ele>
        <time>2025-03-12T18:58:39.423Z</time>
      </trkpt>
      <trkpt lat="48.62913" lon="2.09867">
        <ele>124</ele>
        <time>2025-03-12T18:58:41.515Z</time>
      </trkpt>
      <trkpt lat="48.62917" lon="2.09868">
        <ele>124</ele>
        <time>2025-03-12T18:58:44.276Z</time>
      </trkpt>
      <trkpt lat="48.62917" lon="2.09868">
        <ele>124</ele>
        <time>2025-03-12T18:58:44.276Z</time>
        <extensions>
          <visugpx:TrkExtension xmlns:visugpx="https://www.visugpx.com/editgpx/">
            <visugpx:node>6</visugpx:node>
            </visugpx:TrkExtension>
        </extensions>
      </trkpt>
      <trkpt lat="48.62919" lon="2.09868">
        <ele>124.1</ele>
        <time>2025-03-12T18:58:45.638Z</time>
      </trkpt>
      <trkpt lat="48.62923" lon="2.09862">
        <ele>124.4</ele>
        <time>2025-03-12T18:58:49.475Z</time>
      </trkpt>
      <trkpt lat="48.62923" lon="2.09855">
        <ele>124.4</ele>
        <time>2025-03-12T18:58:52.626Z</time>
      </trkpt>
      <trkpt lat="48.62928" lon="2.09854">
        <ele>124.6</ele>
        <time>2025-03-12T18:58:55.919Z</time>
      </trkpt>
      <trkpt lat="48.62933" lon="2.09854">
        <ele>124.8</ele>
        <time>2025-03-12T18:58:59.212Z</time>
      </trkpt>
      <trkpt lat="48.62937" lon="2.09853">
        <ele>125.1</ele>
        <time>2025-03-12T18:59:02.505Z</time>
      </trkpt>
      <trkpt lat="48.62942" lon="2.09852">
        <ele>125.3</ele>
        <time>2025-03-12T18:59:05.798Z</time>
      </trkpt>
      <trkpt lat="48.62947" lon="2.09852">
        <ele>125.3</ele>
        <time>2025-03-12T18:59:09.091Z</time>
      </trkpt>
      <trkpt lat="48.62952" lon="2.09851">
        <ele>125.4</ele>
        <time>2025-03-12T18:59:12.384Z</time>
      </trkpt>
      <trkpt lat="48.62957" lon="2.0985">
        <ele>125.4</ele>
        <time>2025-03-12T18:59:15.677Z</time>
      </trkpt>
      <trkpt lat="48.62962" lon="2.0985">
        <ele>125.4</ele>
        <time>2025-03-12T18:59:18.970Z</time>
      </trkpt>
      <trkpt lat="48.62966" lon="2.09849">
        <ele>125.5</ele>
        <time>2025-03-12T18:59:22.263Z</time>
      </trkpt>
      <trkpt lat="48.62971" lon="2.09848">
        <ele>125.5</ele>
        <time>2025-03-12T18:59:25.556Z</time>
      </trkpt>
      <trkpt lat="48.62976" lon="2.09847">
        <ele>125.5</ele>
        <time>2025-03-12T18:59:28.849Z</time>
      </trkpt>
      <trkpt lat="48.62981" lon="2.09847">
        <ele>125.5</ele>
        <time>2025-03-12T18:59:32.142Z</time>
      </trkpt>
      <trkpt lat="48.62986" lon="2.09846">
        <ele>125.5</ele>
        <time>2025-03-12T18:59:35.435Z</time>
      </trkpt>
      <trkpt lat="48.6299" lon="2.09845">
        <ele>125.4</ele>
        <time>2025-03-12T18:59:38.728Z</time>
      </trkpt>
      <trkpt lat="48.62995" lon="2.09845">
        <ele>125.4</ele>
        <time>2025-03-12T18:59:42.021Z</time>
      </trkpt>
      <trkpt lat="48.63" lon="2.09844">
        <ele>125.4</ele>
        <time>2025-03-12T18:59:45.314Z</time>
      </trkpt>
      <trkpt lat="48.63008" lon="2.09842">
        <ele>125.5</ele>
        <time>2025-03-12T18:59:50.545Z</time>
      </trkpt>
      <trkpt lat="48.63015" lon="2.09839">
        <ele>125.6</ele>
        <time>2025-03-12T18:59:55.777Z</time>
      </trkpt>
      <trkpt lat="48.63021" lon="2.09839">
        <ele>125.8</ele>
        <time>2025-03-12T18:59:59.525Z</time>
      </trkpt>
      <trkpt lat="48.63026" lon="2.09839">
        <ele>125.9</ele>
        <time>2025-03-12T19:00:03.273Z</time>
      </trkpt>
      <trkpt lat="48.63032" lon="2.09838">
        <ele>126.1</ele>
        <time>2025-03-12T19:00:07.021Z</time>
      </trkpt>
      <trkpt lat="48.63037" lon="2.09838">
        <ele>126.3</ele>
        <time>2025-03-12T19:00:10.770Z</time>
      </trkpt>
      <trkpt lat="48.63043" lon="2.09839">
        <ele>126.5</ele>
        <time>2025-03-12T19:00:14.543Z</time>
      </trkpt>
      <trkpt lat="48.63048" lon="2.0984">
        <ele>126.7</ele>
        <time>2025-03-12T19:00:18.317Z</time>
      </trkpt>
      <trkpt lat="48.63051" lon="2.09846">
        <ele>126.8</ele>
        <time>2025-03-12T19:00:21.704Z</time>
      </trkpt>
      <trkpt lat="48.63055" lon="2.09848">
        <ele>127</ele>
        <time>2025-03-12T19:00:24.573Z</time>
      </trkpt>
      <trkpt lat="48.63059" lon="2.09847">
        <ele>127.2</ele>
        <time>2025-03-12T19:00:27.334Z</time>
      </trkpt>
      <trkpt lat="48.63062" lon="2.09842">
        <ele>127.5</ele>
        <time>2025-03-12T19:00:30.374Z</time>
      </trkpt>
      <trkpt lat="48.63069" lon="2.09842">
        <ele>127.9</ele>
        <time>2025-03-12T19:00:34.807Z</time>
      </trkpt>
      <trkpt lat="48.63075" lon="2.09841">
        <ele>128.4</ele>
        <time>2025-03-12T19:00:39.241Z</time>
      </trkpt>
      <trkpt lat="48.63083" lon="2.09844">
        <ele>128.9</ele>
        <time>2025-03-12T19:00:44.472Z</time>
      </trkpt>
      <trkpt lat="48.6309" lon="2.09846">
        <ele>129.2</ele>
        <time>2025-03-12T19:00:49.704Z</time>
      </trkpt>
      <trkpt lat="48.63098" lon="2.09849">
        <ele>129.5</ele>
        <time>2025-03-12T19:00:54.936Z</time>
      </trkpt>
      <trkpt lat="48.63105" lon="2.09851">
        <ele>129.8</ele>
        <time>2025-03-12T19:01:00.168Z</time>
      </trkpt>
      <trkpt lat="48.6311" lon="2.09853">
        <ele>129.9</ele>
        <time>2025-03-12T19:01:03.535Z</time>
      </trkpt>
      <trkpt lat="48.63114" lon="2.09856">
        <ele>130.1</ele>
        <time>2025-03-12T19:01:06.902Z</time>
      </trkpt>
      <trkpt lat="48.63119" lon="2.09858">
        <ele>130.3</ele>
        <time>2025-03-12T19:01:10.269Z</time>
      </trkpt>
      <trkpt lat="48.63124" lon="2.09861">
        <ele>130.5</ele>
        <time>2025-03-12T19:01:13.636Z</time>
      </trkpt>
      <trkpt lat="48.63128" lon="2.09863">
        <ele>130.6</ele>
        <time>2025-03-12T19:01:17.003Z</time>
      </trkpt>
      <trkpt lat="48.63133" lon="2.09865">
        <ele>130.8</ele>
        <time>2025-03-12T19:01:20.370Z</time>
      </trkpt>
      <trkpt lat="48.63138" lon="2.09868">
        <ele>131</ele>
        <time>2025-03-12T19:01:23.737Z</time>
      </trkpt>
      <trkpt lat="48.63143" lon="2.0987">
        <ele>131.1</ele>
        <time>2025-03-12T19:01:27.105Z</time>
      </trkpt>
      <trkpt lat="48.63147" lon="2.09872">
        <ele>131.3</ele>
        <time>2025-03-12T19:01:30.473Z</time>
      </trkpt>
      <trkpt lat="48.63152" lon="2.09875">
        <ele>131.5</ele>
        <time>2025-03-12T19:01:33.841Z</time>
      </trkpt>
      <trkpt lat="48.63157" lon="2.09877">
        <ele>131.6</ele>
        <time>2025-03-12T19:01:37.209Z</time>
      </trkpt>
      <trkpt lat="48.63161" lon="2.0988">
        <ele>131.8</ele>
        <time>2025-03-12T19:01:40.577Z</time>
      </trkpt>
      <trkpt lat="48.63166" lon="2.09882">
        <ele>132</ele>
        <time>2025-03-12T19:01:43.945Z</time>
      </trkpt>
      <trkpt lat="48.63171" lon="2.09884">
        <ele>132.1</ele>
        <time>2025-03-12T19:01:47.313Z</time>
      </trkpt>
      <trkpt lat="48.63175" lon="2.09887">
        <ele>132.3</ele>
        <time>2025-03-12T19:01:50.681Z</time>
      </trkpt>
      <trkpt lat="48.6318" lon="2.09889">
        <ele>132.5</ele>
        <time>2025-03-12T19:01:54.049Z</time>
      </trkpt>
      <trkpt lat="48.63185" lon="2.09892">
        <ele>132.6</ele>
        <time>2025-03-12T19:01:57.394Z</time>
      </trkpt>
      <trkpt lat="48.63189" lon="2.09894">
        <ele>132.8</ele>
        <time>2025-03-12T19:02:00.739Z</time>
      </trkpt>
      <trkpt lat="48.63194" lon="2.09897">
        <ele>133</ele>
        <time>2025-03-12T19:02:04.084Z</time>
      </trkpt>
      <trkpt lat="48.63199" lon="2.09899">
        <ele>133.1</ele>
        <time>2025-03-12T19:02:07.430Z</time>
      </trkpt>
      <trkpt lat="48.63203" lon="2.09902">
        <ele>133.3</ele>
        <time>2025-03-12T19:02:10.776Z</time>
      </trkpt>
      <trkpt lat="48.63208" lon="2.09904">
        <ele>133.5</ele>
        <time>2025-03-12T19:02:14.122Z</time>
      </trkpt>
      <trkpt lat="48.63212" lon="2.09907">
        <ele>133.6</ele>
        <time>2025-03-12T19:02:17.468Z</time>
      </trkpt>
      <trkpt lat="48.63217" lon="2.09909">
        <ele>133.8</ele>
        <time>2025-03-12T19:02:20.814Z</time>
      </trkpt>
      <trkpt lat="48.63221" lon="2.09911">
        <ele>134</ele>
        <time>2025-03-12T19:02:24.020Z</time>
      </trkpt>
      <trkpt lat="48.63226" lon="2.09914">
        <ele>134.3</ele>
        <time>2025-03-12T19:02:27.226Z</time>
      </trkpt>
      <trkpt lat="48.6323" lon="2.09916">
        <ele>134.6</ele>
        <time>2025-03-12T19:02:30.432Z</time>
      </trkpt>
      <trkpt lat="48.63235" lon="2.09919">
        <ele>134.9</ele>
        <time>2025-03-12T19:02:33.638Z</time>
      </trkpt>
      <trkpt lat="48.63239" lon="2.09921">
        <ele>135.2</ele>
        <time>2025-03-12T19:02:36.844Z</time>
      </trkpt>
      <trkpt lat="48.63244" lon="2.09923">
        <ele>135.5</ele>
        <time>2025-03-12T19:02:40.050Z</time>
      </trkpt>
      <trkpt lat="48.63248" lon="2.09926">
        <ele>135.9</ele>
        <time>2025-03-12T19:02:43.256Z</time>
      </trkpt>
      <trkpt lat="48.63253" lon="2.09928">
        <ele>136.1</ele>
        <time>2025-03-12T19:02:46.462Z</time>
      </trkpt>
      <trkpt lat="48.63257" lon="2.0993">
        <ele>136.4</ele>
        <time>2025-03-12T19:02:49.669Z</time>
      </trkpt>
      <trkpt lat="48.63261" lon="2.09933">
        <ele>136.6</ele>
        <time>2025-03-12T19:02:52.876Z</time>
      </trkpt>
      <trkpt lat="48.63266" lon="2.09935">
        <ele>136.9</ele>
        <time>2025-03-12T19:02:56.083Z</time>
      </trkpt>
      <trkpt lat="48.6327" lon="2.09938">
        <ele>137.3</ele>
        <time>2025-03-12T19:02:59.290Z</time>
      </trkpt>
      <trkpt lat="48.63275" lon="2.0994">
        <ele>137.6</ele>
        <time>2025-03-12T19:03:02.497Z</time>
      </trkpt>
      <trkpt lat="48.63279" lon="2.09942">
        <ele>138</ele>
        <time>2025-03-12T19:03:05.704Z</time>
      </trkpt>
      <trkpt lat="48.63284" lon="2.09945">
        <ele>138.4</ele>
        <time>2025-03-12T19:03:08.911Z</time>
      </trkpt>
      <trkpt lat="48.63288" lon="2.09947">
        <ele>138.8</ele>
        <time>2025-03-12T19:03:12.118Z</time>
      </trkpt>
      <trkpt lat="48.63293" lon="2.09949">
        <ele>139.2</ele>
        <time>2025-03-12T19:03:15.410Z</time>
      </trkpt>
      <trkpt lat="48.63297" lon="2.09951">
        <ele>139.7</ele>
        <time>2025-03-12T19:03:18.702Z</time>
      </trkpt>
      <trkpt lat="48.63302" lon="2.09953">
        <ele>140.1</ele>
        <time>2025-03-12T19:03:21.995Z</time>
      </trkpt>
      <trkpt lat="48.63307" lon="2.09956">
        <ele>140.5</ele>
        <time>2025-03-12T19:03:25.288Z</time>
      </trkpt>
      <trkpt lat="48.63311" lon="2.09958">
        <ele>140.9</ele>
        <time>2025-03-12T19:03:28.581Z</time>
      </trkpt>
      <trkpt lat="48.63316" lon="2.0996">
        <ele>141.3</ele>
        <time>2025-03-12T19:03:31.874Z</time>
      </trkpt>
      <trkpt lat="48.6332" lon="2.09962">
        <ele>141.7</ele>
        <time>2025-03-12T19:03:35.167Z</time>
      </trkpt>
      <trkpt lat="48.63325" lon="2.09964">
        <ele>142.1</ele>
        <time>2025-03-12T19:03:38.460Z</time>
      </trkpt>
      <trkpt lat="48.63331" lon="2.09967">
        <ele>142.6</ele>
        <time>2025-03-12T19:03:42.764Z</time>
      </trkpt>
      <trkpt lat="48.6334" lon="2.09971">
        <ele>143.2</ele>
        <time>2025-03-12T19:03:48.765Z</time>
      </trkpt>
      <trkpt lat="48.63348" lon="2.09974">
        <ele>143.6</ele>
        <time>2025-03-12T19:03:54.766Z</time>
      </trkpt>
      <trkpt lat="48.63355" lon="2.09976">
        <ele>143.9</ele>
        <time>2025-03-12T19:03:59.582Z</time>
      </trkpt>
      <trkpt lat="48.63362" lon="2.09977">
        <ele>144.2</ele>
        <time>2025-03-12T19:04:04.398Z</time>
      </trkpt>
      <trkpt lat="48.63369" lon="2.09979">
        <ele>144.8</ele>
        <time>2025-03-12T19:04:09.214Z</time>
      </trkpt>
      <trkpt lat="48.63376" lon="2.0998">
        <ele>145.4</ele>
        <time>2025-03-12T19:04:14.030Z</time>
      </trkpt>
      <trkpt lat="48.63383" lon="2.0998">
        <ele>145.9</ele>
        <time>2025-03-12T19:04:18.841Z</time>
      </trkpt>
      <trkpt lat="48.6339" lon="2.0998">
        <ele>146.3</ele>
        <time>2025-03-12T19:04:23.652Z</time>
      </trkpt>
      <trkpt lat="48.63397" lon="2.0998">
        <ele>146.6</ele>
        <time>2025-03-12T19:04:28.463Z</time>
      </trkpt>
      <trkpt lat="48.63404" lon="2.09981">
        <ele>146.9</ele>
        <time>2025-03-12T19:04:33.274Z</time>
      </trkpt>
      <trkpt lat="48.63411" lon="2.09981">
        <ele>147.1</ele>
        <time>2025-03-12T19:04:38.085Z</time>
      </trkpt>
      <trkpt lat="48.63418" lon="2.09981">
        <ele>147.3</ele>
        <time>2025-03-12T19:04:42.896Z</time>
      </trkpt>
      <trkpt lat="48.63425" lon="2.09981">
        <ele>147.5</ele>
        <time>2025-03-12T19:04:47.707Z</time>
      </trkpt>
      <trkpt lat="48.63433" lon="2.09981">
        <ele>147.7</ele>
        <time>2025-03-12T19:04:52.519Z</time>
      </trkpt>
      <trkpt lat="48.6344" lon="2.09981">
        <ele>147.9</ele>
        <time>2025-03-12T19:04:57.331Z</time>
      </trkpt>
      <trkpt lat="48.63447" lon="2.09981">
        <ele>148</ele>
        <time>2025-03-12T19:05:02.143Z</time>
      </trkpt>
      <trkpt lat="48.63454" lon="2.09981">
        <ele>147.9</ele>
        <time>2025-03-12T19:05:06.955Z</time>
      </trkpt>
      <trkpt lat="48.63461" lon="2.09982">
        <ele>147.8</ele>
        <time>2025-03-12T19:05:11.767Z</time>
      </trkpt>
      <trkpt lat="48.63468" lon="2.09982">
        <ele>147.7</ele>
        <time>2025-03-12T19:05:16.579Z</time>
      </trkpt>
      <trkpt lat="48.63475" lon="2.09982">
        <ele>147.6</ele>
        <time>2025-03-12T19:05:21.391Z</time>
      </trkpt>
      <trkpt lat="48.63482" lon="2.09982">
        <ele>147.3</ele>
        <time>2025-03-12T19:05:26.203Z</time>
      </trkpt>
      <trkpt lat="48.63489" lon="2.09982">
        <ele>147</ele>
        <time>2025-03-12T19:05:31.015Z</time>
      </trkpt>
      <trkpt lat="48.63491" lon="2.09986">
        <ele>146.8</ele>
        <time>2025-03-12T19:05:33.273Z</time>
      </trkpt>
      <trkpt lat="48.63493" lon="2.09987">
        <ele>146.7</ele>
        <time>2025-03-12T19:05:34.707Z</time>
      </trkpt>
      <trkpt lat="48.63496" lon="2.09986">
        <ele>146.6</ele>
        <time>2025-03-12T19:05:36.799Z</time>
      </trkpt>
      <trkpt lat="48.63498" lon="2.0999">
        <ele>146.4</ele>
        <time>2025-03-12T19:05:39.057Z</time>
      </trkpt>
      <trkpt lat="48.63504" lon="2.09993">
        <ele>146.1</ele>
        <time>2025-03-12T19:05:43.361Z</time>
      </trkpt>
      <trkpt lat="48.63511" lon="2.09993">
        <ele>145.8</ele>
        <time>2025-03-12T19:05:48.427Z</time>
      </trkpt>
      <trkpt lat="48.63519" lon="2.09993">
        <ele>145.6</ele>
        <time>2025-03-12T19:05:53.493Z</time>
      </trkpt>
      <trkpt lat="48.63526" lon="2.09993">
        <ele>145.3</ele>
        <time>2025-03-12T19:05:58.559Z</time>
      </trkpt>
      <trkpt lat="48.63534" lon="2.09993">
        <ele>145</ele>
        <time>2025-03-12T19:06:03.625Z</time>
      </trkpt>
      <trkpt lat="48.63541" lon="2.09993">
        <ele>144.8</ele>
        <time>2025-03-12T19:06:08.692Z</time>
      </trkpt>
      <trkpt lat="48.63549" lon="2.09993">
        <ele>144.5</ele>
        <time>2025-03-12T19:06:13.759Z</time>
      </trkpt>
      <trkpt lat="48.63556" lon="2.09993">
        <ele>144.2</ele>
        <time>2025-03-12T19:06:18.826Z</time>
      </trkpt>
      <trkpt lat="48.63564" lon="2.09993">
        <ele>144</ele>
        <time>2025-03-12T19:06:23.893Z</time>
      </trkpt>
      <trkpt lat="48.63571" lon="2.09992">
        <ele>143.7</ele>
        <time>2025-03-12T19:06:28.960Z</time>
      </trkpt>
      <trkpt lat="48.63578" lon="2.09992">
        <ele>143.5</ele>
        <time>2025-03-12T19:06:34.027Z</time>
      </trkpt>
      <trkpt lat="48.63586" lon="2.09992">
        <ele>143.1</ele>
        <time>2025-03-12T19:06:39.094Z</time>
      </trkpt>
      <trkpt lat="48.63593" lon="2.09992">
        <ele>142.6</ele>
        <time>2025-03-12T19:06:44.161Z</time>
      </trkpt>
      <trkpt lat="48.63601" lon="2.09992">
        <ele>142</ele>
        <time>2025-03-12T19:06:49.228Z</time>
      </trkpt>
      <trkpt lat="48.63608" lon="2.09992">
        <ele>141.5</ele>
        <time>2025-03-12T19:06:54.295Z</time>
      </trkpt>
      <trkpt lat="48.63616" lon="2.09992">
        <ele>141.1</ele>
        <time>2025-03-12T19:06:59.362Z</time>
      </trkpt>
      <trkpt lat="48.63623" lon="2.09992">
        <ele>140.7</ele>
        <time>2025-03-12T19:07:04.429Z</time>
      </trkpt>
      <trkpt lat="48.63628" lon="2.09991">
        <ele>140.5</ele>
        <time>2025-03-12T19:07:07.569Z</time>
      </trkpt>
      <trkpt lat="48.63632" lon="2.09991">
        <ele>140.3</ele>
        <time>2025-03-12T19:07:10.709Z</time>
      </trkpt>
      <trkpt lat="48.63637" lon="2.0999">
        <ele>140.1</ele>
        <time>2025-03-12T19:07:13.849Z</time>
      </trkpt>
      <trkpt lat="48.63641" lon="2.0999">
        <ele>139.8</ele>
        <time>2025-03-12T19:07:16.989Z</time>
      </trkpt>
      <trkpt lat="48.63646" lon="2.09989">
        <ele>139.5</ele>
        <time>2025-03-12T19:07:20.129Z</time>
      </trkpt>
      <trkpt lat="48.63651" lon="2.09988">
        <ele>139.2</ele>
        <time>2025-03-12T19:07:23.269Z</time>
      </trkpt>
      <trkpt lat="48.63655" lon="2.09988">
        <ele>138.8</ele>
        <time>2025-03-12T19:07:26.410Z</time>
      </trkpt>
      <trkpt lat="48.6366" lon="2.09987">
        <ele>138.5</ele>
        <time>2025-03-12T19:07:29.551Z</time>
      </trkpt>
      <trkpt lat="48.63664" lon="2.09987">
        <ele>138.2</ele>
        <time>2025-03-12T19:07:32.692Z</time>
      </trkpt>
      <trkpt lat="48.63669" lon="2.09986">
        <ele>137.8</ele>
        <time>2025-03-12T19:07:35.833Z</time>
      </trkpt>
      <trkpt lat="48.63674" lon="2.09986">
        <ele>137.5</ele>
        <time>2025-03-12T19:07:38.974Z</time>
      </trkpt>
      <trkpt lat="48.63678" lon="2.09985">
        <ele>137.2</ele>
        <time>2025-03-12T19:07:42.115Z</time>
      </trkpt>
      <trkpt lat="48.63683" lon="2.09984">
        <ele>136.8</ele>
        <time>2025-03-12T19:07:45.256Z</time>
      </trkpt>
      <trkpt lat="48.63687" lon="2.09984">
        <ele>136.5</ele>
        <time>2025-03-12T19:07:48.397Z</time>
      </trkpt>
      <trkpt lat="48.63692" lon="2.09983">
        <ele>136.2</ele>
        <time>2025-03-12T19:07:51.538Z</time>
      </trkpt>
      <trkpt lat="48.63697" lon="2.09983">
        <ele>135.9</ele>
        <time>2025-03-12T19:07:54.679Z</time>
      </trkpt>
      <trkpt lat="48.63701" lon="2.09982">
        <ele>135.5</ele>
        <time>2025-03-12T19:07:57.820Z</time>
      </trkpt>
      <trkpt lat="48.63706" lon="2.09981">
        <ele>135.2</ele>
        <time>2025-03-12T19:08:00.961Z</time>
      </trkpt>
      <trkpt lat="48.6371" lon="2.09981">
        <ele>134.9</ele>
        <time>2025-03-12T19:08:04.102Z</time>
      </trkpt>
      <trkpt lat="48.63715" lon="2.0998">
        <ele>134.5</ele>
        <time>2025-03-12T19:08:07.243Z</time>
      </trkpt>
      <trkpt lat="48.6372" lon="2.0998">
        <ele>134.2</ele>
        <time>2025-03-12T19:08:10.384Z</time>
      </trkpt>
      <trkpt lat="48.63724" lon="2.09979">
        <ele>133.8</ele>
        <time>2025-03-12T19:08:13.525Z</time>
      </trkpt>
      <trkpt lat="48.63729" lon="2.09978">
        <ele>133.5</ele>
        <time>2025-03-12T19:08:16.666Z</time>
      </trkpt>
      <trkpt lat="48.63733" lon="2.09978">
        <ele>133.1</ele>
        <time>2025-03-12T19:08:19.807Z</time>
      </trkpt>
      <trkpt lat="48.63738" lon="2.09977">
        <ele>132.8</ele>
        <time>2025-03-12T19:08:22.948Z</time>
      </trkpt>
      <trkpt lat="48.63742" lon="2.09977">
        <ele>132.4</ele>
        <time>2025-03-12T19:08:26.089Z</time>
      </trkpt>
      <trkpt lat="48.63747" lon="2.09976">
        <ele>132.1</ele>
        <time>2025-03-12T19:08:29.230Z</time>
      </trkpt>
      <trkpt lat="48.63752" lon="2.09975">
        <ele>131.8</ele>
        <time>2025-03-12T19:08:32.371Z</time>
      </trkpt>
      <trkpt lat="48.63756" lon="2.09975">
        <ele>131.5</ele>
        <time>2025-03-12T19:08:35.512Z</time>
      </trkpt>
      <trkpt lat="48.63761" lon="2.09974">
        <ele>131.2</ele>
        <time>2025-03-12T19:08:38.653Z</time>
      </trkpt>
      <trkpt lat="48.63765" lon="2.09974">
        <ele>130.9</ele>
        <time>2025-03-12T19:08:41.794Z</time>
      </trkpt>
      <trkpt lat="48.6377" lon="2.09973">
        <ele>130.6</ele>
        <time>2025-03-12T19:08:44.935Z</time>
      </trkpt>
      <trkpt lat="48.63775" lon="2.09972">
        <ele>130.2</ele>
        <time>2025-03-12T19:08:48.100Z</time>
      </trkpt>
      <trkpt lat="48.63779" lon="2.09972">
        <ele>130</ele>
        <time>2025-03-12T19:08:51.265Z</time>
      </trkpt>
      <trkpt lat="48.63784" lon="2.09971">
        <ele>129.8</ele>
        <time>2025-03-12T19:08:54.431Z</time>
      </trkpt>
      <trkpt lat="48.63789" lon="2.0997">
        <ele>129.7</ele>
        <time>2025-03-12T19:08:57.597Z</time>
      </trkpt>
      <trkpt lat="48.63793" lon="2.0997">
        <ele>129.5</ele>
        <time>2025-03-12T19:09:00.763Z</time>
      </trkpt>
      <trkpt lat="48.63798" lon="2.09969">
        <ele>129.3</ele>
        <time>2025-03-12T19:09:03.929Z</time>
      </trkpt>
      <trkpt lat="48.63802" lon="2.09968">
        <ele>129.1</ele>
        <time>2025-03-12T19:09:07.095Z</time>
      </trkpt>
      <trkpt lat="48.63807" lon="2.09968">
        <ele>128.9</ele>
        <time>2025-03-12T19:09:10.261Z</time>
      </trkpt>
      <trkpt lat="48.63812" lon="2.09967">
        <ele>128.6</ele>
        <time>2025-03-12T19:09:13.427Z</time>
      </trkpt>
      <trkpt lat="48.63816" lon="2.09966">
        <ele>128.2</ele>
        <time>2025-03-12T19:09:16.593Z</time>
      </trkpt>
      <trkpt lat="48.63821" lon="2.09965">
        <ele>127.9</ele>
        <time>2025-03-12T19:09:19.759Z</time>
      </trkpt>
      <trkpt lat="48.63826" lon="2.09965">
        <ele>127.6</ele>
        <time>2025-03-12T19:09:22.925Z</time>
      </trkpt>
      <trkpt lat="48.6383" lon="2.09964">
        <ele>127.2</ele>
        <time>2025-03-12T19:09:26.091Z</time>
      </trkpt>
      <trkpt lat="48.63835" lon="2.09963">
        <ele>126.9</ele>
        <time>2025-03-12T19:09:29.257Z</time>
      </trkpt>
      <trkpt lat="48.63839" lon="2.09963">
        <ele>126.6</ele>
        <time>2025-03-12T19:09:32.423Z</time>
      </trkpt>
      <trkpt lat="48.63844" lon="2.09962">
        <ele>126.4</ele>
        <time>2025-03-12T19:09:35.589Z</time>
      </trkpt>
      <trkpt lat="48.63849" lon="2.09962">
        <ele>126.1</ele>
        <time>2025-03-12T19:09:38.744Z</time>
      </trkpt>
      <trkpt lat="48.63853" lon="2.09963">
        <ele>125.8</ele>
        <time>2025-03-12T19:09:41.899Z</time>
      </trkpt>
      <trkpt lat="48.63858" lon="2.09963">
        <ele>125.5</ele>
        <time>2025-03-12T19:09:45.054Z</time>
      </trkpt>
      <trkpt lat="48.63863" lon="2.09964">
        <ele>125.2</ele>
        <time>2025-03-12T19:09:48.209Z</time>
      </trkpt>
      <trkpt lat="48.63867" lon="2.09964">
        <ele>124.9</ele>
        <time>2025-03-12T19:09:51.364Z</time>
      </trkpt>
      <trkpt lat="48.63872" lon="2.09964">
        <ele>124.5</ele>
        <time>2025-03-12T19:09:54.519Z</time>
      </trkpt>
      <trkpt lat="48.63876" lon="2.09965">
        <ele>124.2</ele>
        <time>2025-03-12T19:09:57.675Z</time>
      </trkpt>
      <trkpt lat="48.63881" lon="2.09965">
        <ele>123.8</ele>
        <time>2025-03-12T19:10:00.831Z</time>
      </trkpt>
      <trkpt lat="48.63888" lon="2.09966">
        <ele>123.3</ele>
        <time>2025-03-12T19:10:05.578Z</time>
      </trkpt>
      <trkpt lat="48.63895" lon="2.09967">
        <ele>122.9</ele>
        <time>2025-03-12T19:10:10.325Z</time>
      </trkpt>
      <trkpt lat="48.63902" lon="2.09968">
        <ele>122.6</ele>
        <time>2025-03-12T19:10:15.072Z</time>
      </trkpt>
      <trkpt lat="48.63909" lon="2.09969">
        <ele>122.3</ele>
        <time>2025-03-12T19:10:19.819Z</time>
      </trkpt>
      <trkpt lat="48.63916" lon="2.0997">
        <ele>122</ele>
        <time>2025-03-12T19:10:24.566Z</time>
      </trkpt>
      <trkpt lat="48.63923" lon="2.09971">
        <ele>121.6</ele>
        <time>2025-03-12T19:10:29.313Z</time>
      </trkpt>
      <trkpt lat="48.6393" lon="2.09972">
        <ele>121.1</ele>
        <time>2025-03-12T19:10:34.060Z</time>
      </trkpt>
      <trkpt lat="48.63937" lon="2.09973">
        <ele>120.6</ele>
        <time>2025-03-12T19:10:38.807Z</time>
      </trkpt>
      <trkpt lat="48.63943" lon="2.09974">
        <ele>120.1</ele>
        <time>2025-03-12T19:10:43.554Z</time>
      </trkpt>
      <trkpt lat="48.6395" lon="2.09975">
        <ele>119.8</ele>
        <time>2025-03-12T19:10:48.302Z</time>
      </trkpt>
      <trkpt lat="48.63957" lon="2.09976">
        <ele>119.5</ele>
        <time>2025-03-12T19:10:53.050Z</time>
      </trkpt>
      <trkpt lat="48.63964" lon="2.09977">
        <ele>119.3</ele>
        <time>2025-03-12T19:10:57.798Z</time>
      </trkpt>
      <trkpt lat="48.63971" lon="2.09978">
        <ele>119</ele>
        <time>2025-03-12T19:11:02.546Z</time>
      </trkpt>
      <trkpt lat="48.63978" lon="2.09979">
        <ele>118.8</ele>
        <time>2025-03-12T19:11:07.294Z</time>
      </trkpt>
      <trkpt lat="48.63985" lon="2.0998">
        <ele>118.5</ele>
        <time>2025-03-12T19:11:12.042Z</time>
      </trkpt>
      <trkpt lat="48.63992" lon="2.09981">
        <ele>118.3</ele>
        <time>2025-03-12T19:11:16.790Z</time>
      </trkpt>
      <trkpt lat="48.63999" lon="2.09984">
        <ele>118</ele>
        <time>2025-03-12T19:11:21.689Z</time>
      </trkpt>
      <trkpt lat="48.64006" lon="2.09986">
        <ele>117.8</ele>
        <time>2025-03-12T19:11:26.589Z</time>
      </trkpt>
      <trkpt lat="48.64012" lon="2.09986">
        <ele>117.6</ele>
        <time>2025-03-12T19:11:30.677Z</time>
      </trkpt>
      <trkpt lat="48.64018" lon="2.09986">
        <ele>117.4</ele>
        <time>2025-03-12T19:11:34.766Z</time>
      </trkpt>
      <trkpt lat="48.64024" lon="2.09985">
        <ele>117.1</ele>
        <time>2025-03-12T19:11:38.855Z</time>
      </trkpt>
      <trkpt lat="48.6403" lon="2.09985">
        <ele>117</ele>
        <time>2025-03-12T19:11:42.944Z</time>
      </trkpt>
      <trkpt lat="48.64036" lon="2.09984">
        <ele>116.9</ele>
        <time>2025-03-12T19:11:47.086Z</time>
      </trkpt>
      <trkpt lat="48.64042" lon="2.09982">
        <ele>116.8</ele>
        <time>2025-03-12T19:11:51.229Z</time>
      </trkpt>
      <trkpt lat="48.64048" lon="2.09981">
        <ele>116.8</ele>
        <time>2025-03-12T19:11:55.372Z</time>
      </trkpt>
      <trkpt lat="48.64054" lon="2.09979">
        <ele>116.8</ele>
        <time>2025-03-12T19:11:59.515Z</time>
      </trkpt>
      <trkpt lat="48.64057" lon="2.09973">
        <ele>116.9</ele>
        <time>2025-03-12T19:12:02.708Z</time>
      </trkpt>
      <trkpt lat="48.64059" lon="2.09967">
        <ele>116.9</ele>
        <time>2025-03-12T19:12:05.901Z</time>
      </trkpt>
      <trkpt lat="48.64061" lon="2.09957">
        <ele>116.8</ele>
        <time>2025-03-12T19:12:10.604Z</time>
      </trkpt>
      <trkpt lat="48.64062" lon="2.0995">
        <ele>116.8</ele>
        <time>2025-03-12T19:12:13.902Z</time>
      </trkpt>
      <trkpt lat="48.64063" lon="2.09943">
        <ele>116.8</ele>
        <time>2025-03-12T19:12:17.200Z</time>
      </trkpt>
      <trkpt lat="48.64064" lon="2.09935">
        <ele>116.8</ele>
        <time>2025-03-12T19:12:20.498Z</time>
      </trkpt>
      <trkpt lat="48.64064" lon="2.09928">
        <ele>116.9</ele>
        <time>2025-03-12T19:12:23.796Z</time>
      </trkpt>
      <trkpt lat="48.64065" lon="2.09921">
        <ele>116.9</ele>
        <time>2025-03-12T19:12:27.094Z</time>
      </trkpt>
      <trkpt lat="48.64066" lon="2.09914">
        <ele>117</ele>
        <time>2025-03-12T19:12:30.392Z</time>
      </trkpt>
      <trkpt lat="48.64067" lon="2.09907">
        <ele>117</ele>
        <time>2025-03-12T19:12:33.690Z</time>
      </trkpt>
      <trkpt lat="48.64068" lon="2.09899">
        <ele>117</ele>
        <time>2025-03-12T19:12:36.988Z</time>
      </trkpt>
      <trkpt lat="48.64069" lon="2.09892">
        <ele>117</ele>
        <time>2025-03-12T19:12:40.286Z</time>
      </trkpt>
      <trkpt lat="48.64069" lon="2.09885">
        <ele>117</ele>
        <time>2025-03-12T19:12:43.584Z</time>
      </trkpt>
      <trkpt lat="48.6407" lon="2.09878">
        <ele>117</ele>
        <time>2025-03-12T19:12:46.882Z</time>
      </trkpt>
      <trkpt lat="48.64071" lon="2.0987">
        <ele>117</ele>
        <time>2025-03-12T19:12:50.180Z</time>
      </trkpt>
      <trkpt lat="48.64072" lon="2.09863">
        <ele>117</ele>
        <time>2025-03-12T19:12:53.478Z</time>
      </trkpt>
      <trkpt lat="48.64073" lon="2.09856">
        <ele>117.1</ele>
        <time>2025-03-12T19:12:56.776Z</time>
      </trkpt>
      <trkpt lat="48.64073" lon="2.09849">
        <ele>117.2</ele>
        <time>2025-03-12T19:13:00.074Z</time>
      </trkpt>
      <trkpt lat="48.64074" lon="2.09842">
        <ele>117.2</ele>
        <time>2025-03-12T19:13:03.372Z</time>
      </trkpt>
      <trkpt lat="48.64075" lon="2.09834">
        <ele>117.3</ele>
        <time>2025-03-12T19:13:06.670Z</time>
      </trkpt>
      <trkpt lat="48.64076" lon="2.09827">
        <ele>117.4</ele>
        <time>2025-03-12T19:13:09.968Z</time>
      </trkpt>
      <trkpt lat="48.64077" lon="2.0982">
        <ele>117.6</ele>
        <time>2025-03-12T19:13:13.266Z</time>
      </trkpt>
      <trkpt lat="48.64078" lon="2.09813">
        <ele>117.8</ele>
        <time>2025-03-12T19:13:16.564Z</time>
      </trkpt>
      <trkpt lat="48.64078" lon="2.09805">
        <ele>118</ele>
        <time>2025-03-12T19:13:19.862Z</time>
      </trkpt>
      <trkpt lat="48.64079" lon="2.09798">
        <ele>118</ele>
        <time>2025-03-12T19:13:23.160Z</time>
      </trkpt>
      <trkpt lat="48.6408" lon="2.09791">
        <ele>118</ele>
        <time>2025-03-12T19:13:26.458Z</time>
      </trkpt>
      <trkpt lat="48.64081" lon="2.09784">
        <ele>118</ele>
        <time>2025-03-12T19:13:29.756Z</time>
      </trkpt>
      <trkpt lat="48.64082" lon="2.09777">
        <ele>118</ele>
        <time>2025-03-12T19:13:33.054Z</time>
      </trkpt>
      <trkpt lat="48.64083" lon="2.09769">
        <ele>118</ele>
        <time>2025-03-12T19:13:36.352Z</time>
      </trkpt>
      <trkpt lat="48.64083" lon="2.09762">
        <ele>118</ele>
        <time>2025-03-12T19:13:39.650Z</time>
      </trkpt>
      <trkpt lat="48.64084" lon="2.09755">
        <ele>118</ele>
        <time>2025-03-12T19:13:42.948Z</time>
      </trkpt>
      <trkpt lat="48.64085" lon="2.09748">
        <ele>118.1</ele>
        <time>2025-03-12T19:13:46.246Z</time>
      </trkpt>
      <trkpt lat="48.64086" lon="2.0974">
        <ele>118.3</ele>
        <time>2025-03-12T19:13:49.544Z</time>
      </trkpt>
      <trkpt lat="48.64087" lon="2.09733">
        <ele>118.5</ele>
        <time>2025-03-12T19:13:52.842Z</time>
      </trkpt>
      <trkpt lat="48.64088" lon="2.09726">
        <ele>118.7</ele>
        <time>2025-03-12T19:13:56.140Z</time>
      </trkpt>
      <trkpt lat="48.64088" lon="2.09719">
        <ele>118.8</ele>
        <time>2025-03-12T19:13:59.438Z</time>
      </trkpt>
      <trkpt lat="48.64089" lon="2.09712">
        <ele>118.8</ele>
        <time>2025-03-12T19:14:02.736Z</time>
      </trkpt>
      <trkpt lat="48.6409" lon="2.09704">
        <ele>118.8</ele>
        <time>2025-03-12T19:14:06.034Z</time>
      </trkpt>
      <trkpt lat="48.64091" lon="2.09697">
        <ele>118.7</ele>
        <time>2025-03-12T19:14:09.332Z</time>
      </trkpt>
      <trkpt lat="48.64092" lon="2.0969">
        <ele>118.7</ele>
        <time>2025-03-12T19:14:12.630Z</time>
      </trkpt>
      <trkpt lat="48.64093" lon="2.09683">
        <ele>118.7</ele>
        <time>2025-03-12T19:14:15.928Z</time>
      </trkpt>
      <trkpt lat="48.64093" lon="2.09676">
        <ele>118.6</ele>
        <time>2025-03-12T19:14:19.226Z</time>
      </trkpt>
      <trkpt lat="48.64094" lon="2.09668">
        <ele>118.6</ele>
        <time>2025-03-12T19:14:22.524Z</time>
      </trkpt>
      <trkpt lat="48.64095" lon="2.09661">
        <ele>118.6</ele>
        <time>2025-03-12T19:14:25.822Z</time>
      </trkpt>
      <trkpt lat="48.64096" lon="2.09654">
        <ele>118.6</ele>
        <time>2025-03-12T19:14:29.120Z</time>
      </trkpt>
      <trkpt lat="48.64097" lon="2.09647">
        <ele>118.5</ele>
        <time>2025-03-12T19:14:32.418Z</time>
      </trkpt>
      <trkpt lat="48.64097" lon="2.09639">
        <ele>118.5</ele>
        <time>2025-03-12T19:14:35.716Z</time>
      </trkpt>
      <trkpt lat="48.64098" lon="2.09632">
        <ele>118.7</ele>
        <time>2025-03-12T19:14:39.014Z</time>
      </trkpt>
      <trkpt lat="48.64099" lon="2.09625">
        <ele>118.9</ele>
        <time>2025-03-12T19:14:42.312Z</time>
      </trkpt>
      <trkpt lat="48.641" lon="2.09618">
        <ele>119.2</ele>
        <time>2025-03-12T19:14:45.610Z</time>
      </trkpt>
      <trkpt lat="48.64101" lon="2.09611">
        <ele>119.4</ele>
        <time>2025-03-12T19:14:48.908Z</time>
      </trkpt>
      <trkpt lat="48.64102" lon="2.09603">
        <ele>119.5</ele>
        <time>2025-03-12T19:14:52.206Z</time>
      </trkpt>
      <trkpt lat="48.64102" lon="2.09596">
        <ele>119.7</ele>
        <time>2025-03-12T19:14:55.504Z</time>
      </trkpt>
      <trkpt lat="48.64103" lon="2.09589">
        <ele>119.9</ele>
        <time>2025-03-12T19:14:58.802Z</time>
      </trkpt>
      <trkpt lat="48.64104" lon="2.09582">
        <ele>120</ele>
        <time>2025-03-12T19:15:02.100Z</time>
      </trkpt>
      <trkpt lat="48.64105" lon="2.09574">
        <ele>120.1</ele>
        <time>2025-03-12T19:15:05.398Z</time>
      </trkpt>
      <trkpt lat="48.64106" lon="2.09567">
        <ele>120.1</ele>
        <time>2025-03-12T19:15:08.696Z</time>
      </trkpt>
      <trkpt lat="48.64107" lon="2.0956">
        <ele>120.1</ele>
        <time>2025-03-12T19:15:11.994Z</time>
      </trkpt>
      <trkpt lat="48.64107" lon="2.09553">
        <ele>120.2</ele>
        <time>2025-03-12T19:15:15.292Z</time>
      </trkpt>
      <trkpt lat="48.64108" lon="2.09546">
        <ele>120.4</ele>
        <time>2025-03-12T19:15:18.590Z</time>
      </trkpt>
      <trkpt lat="48.64109" lon="2.09538">
        <ele>120.6</ele>
        <time>2025-03-12T19:15:21.889Z</time>
      </trkpt>
      <trkpt lat="48.6411" lon="2.09531">
        <ele>120.9</ele>
        <time>2025-03-12T19:15:25.188Z</time>
      </trkpt>
      <trkpt lat="48.64111" lon="2.09524">
        <ele>121</ele>
        <time>2025-03-12T19:15:28.487Z</time>
      </trkpt>
      <trkpt lat="48.64112" lon="2.09517">
        <ele>121</ele>
        <time>2025-03-12T19:15:31.786Z</time>
      </trkpt>
      <trkpt lat="48.64112" lon="2.09509">
        <ele>121</ele>
        <time>2025-03-12T19:15:35.085Z</time>
      </trkpt>
      <trkpt lat="48.64113" lon="2.09502">
        <ele>120.9</ele>
        <time>2025-03-12T19:15:38.384Z</time>
      </trkpt>
      <trkpt lat="48.64114" lon="2.09495">
        <ele>121.1</ele>
        <time>2025-03-12T19:15:41.683Z</time>
      </trkpt>
      <trkpt lat="48.64116" lon="2.09486">
        <ele>121.3</ele>
        <time>2025-03-12T19:15:45.921Z</time>
      </trkpt>
      <trkpt lat="48.64117" lon="2.09477">
        <ele>121.4</ele>
        <time>2025-03-12T19:15:50.159Z</time>
      </trkpt>
      <trkpt lat="48.64119" lon="2.09468">
        <ele>121.4</ele>
        <time>2025-03-12T19:15:54.397Z</time>
      </trkpt>
      <trkpt lat="48.64121" lon="2.09459">
        <ele>121.3</ele>
        <time>2025-03-12T19:15:58.635Z</time>
      </trkpt>
      <trkpt lat="48.64122" lon="2.0945">
        <ele>121.2</ele>
        <time>2025-03-12T19:16:02.873Z</time>
      </trkpt>
      <trkpt lat="48.64124" lon="2.09441">
        <ele>121.1</ele>
        <time>2025-03-12T19:16:07.111Z</time>
      </trkpt>
      <trkpt lat="48.64126" lon="2.09432">
        <ele>121.2</ele>
        <time>2025-03-12T19:16:11.349Z</time>
      </trkpt>
      <trkpt lat="48.64128" lon="2.09423">
        <ele>121.3</ele>
        <time>2025-03-12T19:16:15.587Z</time>
      </trkpt>
      <trkpt lat="48.64129" lon="2.09413">
        <ele>121.4</ele>
        <time>2025-03-12T19:16:19.825Z</time>
      </trkpt>
      <trkpt lat="48.64131" lon="2.09404">
        <ele>121.4</ele>
        <time>2025-03-12T19:16:24.063Z</time>
      </trkpt>
      <trkpt lat="48.64133" lon="2.09395">
        <ele>121.4</ele>
        <time>2025-03-12T19:16:28.301Z</time>
      </trkpt>
      <trkpt lat="48.64134" lon="2.09386">
        <ele>121.4</ele>
        <time>2025-03-12T19:16:32.539Z</time>
      </trkpt>
      <trkpt lat="48.64136" lon="2.09377">
        <ele>121.6</ele>
        <time>2025-03-12T19:16:36.777Z</time>
      </trkpt>
      <trkpt lat="48.64138" lon="2.09368">
        <ele>121.8</ele>
        <time>2025-03-12T19:16:41.015Z</time>
      </trkpt>
      <trkpt lat="48.64139" lon="2.09359">
        <ele>122</ele>
        <time>2025-03-12T19:16:45.253Z</time>
      </trkpt>
      <trkpt lat="48.64141" lon="2.0935">
        <ele>121.9</ele>
        <time>2025-03-12T19:16:49.491Z</time>
      </trkpt>
      <trkpt lat="48.64143" lon="2.09341">
        <ele>121.8</ele>
        <time>2025-03-12T19:16:53.729Z</time>
      </trkpt>
      <trkpt lat="48.64144" lon="2.09332">
        <ele>121.8</ele>
        <time>2025-03-12T19:16:57.967Z</time>
      </trkpt>
      <trkpt lat="48.64146" lon="2.09323">
        <ele>122</ele>
        <time>2025-03-12T19:17:02.205Z</time>
      </trkpt>
      <trkpt lat="48.64148" lon="2.09314">
        <ele>122.2</ele>
        <time>2025-03-12T19:17:06.443Z</time>
      </trkpt>
      <trkpt lat="48.64149" lon="2.09305">
        <ele>122.2</ele>
        <time>2025-03-12T19:17:10.681Z</time>
      </trkpt>
      <trkpt lat="48.64151" lon="2.09296">
        <ele>122.1</ele>
        <time>2025-03-12T19:17:14.919Z</time>
      </trkpt>
      <trkpt lat="48.64153" lon="2.09287">
        <ele>122</ele>
        <time>2025-03-12T19:17:19.158Z</time>
      </trkpt>
      <trkpt lat="48.64155" lon="2.09278">
        <ele>121.9</ele>
        <time>2025-03-12T19:17:23.397Z</time>
      </trkpt>
      <trkpt lat="48.64156" lon="2.09268">
        <ele>122</ele>
        <time>2025-03-12T19:17:27.636Z</time>
      </trkpt>
      <trkpt lat="48.64158" lon="2.09259">
        <ele>122.1</ele>
        <time>2025-03-12T19:17:31.875Z</time>
      </trkpt>
      <trkpt lat="48.6416" lon="2.0925">
        <ele>122.2</ele>
        <time>2025-03-12T19:17:36.114Z</time>
      </trkpt>
      <trkpt lat="48.64161" lon="2.09241">
        <ele>122.4</ele>
        <time>2025-03-12T19:17:40.353Z</time>
      </trkpt>
      <trkpt lat="48.64163" lon="2.09232">
        <ele>122.7</ele>
        <time>2025-03-12T19:17:44.592Z</time>
      </trkpt>
      <trkpt lat="48.64165" lon="2.09223">
        <ele>123</ele>
        <time>2025-03-12T19:17:48.831Z</time>
      </trkpt>
      <trkpt lat="48.64166" lon="2.09214">
        <ele>123</ele>
        <time>2025-03-12T19:17:53.070Z</time>
      </trkpt>
      <trkpt lat="48.64168" lon="2.09205">
        <ele>123</ele>
        <time>2025-03-12T19:17:57.309Z</time>
      </trkpt>
      <trkpt lat="48.6417" lon="2.09199">
        <ele>123</ele>
        <time>2025-03-12T19:18:00.408Z</time>
      </trkpt>
      <trkpt lat="48.64171" lon="2.09192">
        <ele>123.1</ele>
        <time>2025-03-12T19:18:03.507Z</time>
      </trkpt>
      <trkpt lat="48.6417" lon="2.09184">
        <ele>123.3</ele>
        <time>2025-03-12T19:18:07.172Z</time>
      </trkpt>
      <trkpt lat="48.64173" lon="2.09179">
        <ele>123.4</ele>
        <time>2025-03-12T19:18:10.212Z</time>
      </trkpt>
      <trkpt lat="48.64175" lon="2.09172">
        <ele>123.6</ele>
        <time>2025-03-12T19:18:13.644Z</time>
      </trkpt>
      <trkpt lat="48.64175" lon="2.09165">
        <ele>123.7</ele>
        <time>2025-03-12T19:18:16.794Z</time>
      </trkpt>
      <trkpt lat="48.64175" lon="2.09158">
        <ele>123.9</ele>
        <time>2025-03-12T19:18:19.945Z</time>
      </trkpt>
      <trkpt lat="48.64173" lon="2.09151">
        <ele>124</ele>
        <time>2025-03-12T19:18:23.377Z</time>
      </trkpt>
      <trkpt lat="48.64174" lon="2.09141">
        <ele>124.2</ele>
        <time>2025-03-12T19:18:27.929Z</time>
      </trkpt>
      <trkpt lat="48.64175" lon="2.09131">
        <ele>124.3</ele>
        <time>2025-03-12T19:18:32.482Z</time>
      </trkpt>
      <trkpt lat="48.64171" lon="2.09129">
        <ele>124.1</ele>
        <time>2025-03-12T19:18:35.677Z</time>
      </trkpt>
      <trkpt lat="48.64166" lon="2.09127">
        <ele>124</ele>
        <time>2025-03-12T19:18:38.872Z</time>
      </trkpt>
      <trkpt lat="48.64164" lon="2.09123">
        <ele>124.1</ele>
        <time>2025-03-12T19:18:41.129Z</time>
      </trkpt>
      <trkpt lat="48.6417" lon="2.09113">
        <ele>124.1</ele>
        <time>2025-03-12T19:18:47.209Z</time>
      </trkpt>
      <trkpt lat="48.64172" lon="2.09107">
        <ele>124.3</ele>
        <time>2025-03-12T19:18:50.308Z</time>
      </trkpt>
      <trkpt lat="48.64173" lon="2.091">
        <ele>124.5</ele>
        <time>2025-03-12T19:18:53.407Z</time>
      </trkpt>
      <trkpt lat="48.64175" lon="2.09092">
        <ele>124.8</ele>
        <time>2025-03-12T19:18:57.258Z</time>
      </trkpt>
      <trkpt lat="48.64176" lon="2.09084">
        <ele>125</ele>
        <time>2025-03-12T19:19:01.109Z</time>
      </trkpt>
      <trkpt lat="48.64178" lon="2.09075">
        <ele>125.2</ele>
        <time>2025-03-12T19:19:04.961Z</time>
      </trkpt>
      <trkpt lat="48.64179" lon="2.09067">
        <ele>125.3</ele>
        <time>2025-03-12T19:19:08.813Z</time>
      </trkpt>
      <trkpt lat="48.6418" lon="2.0906">
        <ele>125.5</ele>
        <time>2025-03-12T19:19:12.094Z</time>
      </trkpt>
      <trkpt lat="48.6418" lon="2.09053">
        <ele>125.6</ele>
        <time>2025-03-12T19:19:15.375Z</time>
      </trkpt>
      <trkpt lat="48.64181" lon="2.09045">
        <ele>125.7</ele>
        <time>2025-03-12T19:19:18.656Z</time>
      </trkpt>
      <trkpt lat="48.64181" lon="2.09038">
        <ele>125.8</ele>
        <time>2025-03-12T19:19:21.938Z</time>
      </trkpt>
      <trkpt lat="48.64182" lon="2.09031">
        <ele>125.9</ele>
        <time>2025-03-12T19:19:25.235Z</time>
      </trkpt>
      <trkpt lat="48.64183" lon="2.09024">
        <ele>126.1</ele>
        <time>2025-03-12T19:19:28.532Z</time>
      </trkpt>
      <trkpt lat="48.64184" lon="2.09017">
        <ele>126.4</ele>
        <time>2025-03-12T19:19:31.829Z</time>
      </trkpt>
      <trkpt lat="48.64186" lon="2.0901">
        <ele>126.7</ele>
        <time>2025-03-12T19:19:35.126Z</time>
      </trkpt>
      <trkpt lat="48.64187" lon="2.09002">
        <ele>126.9</ele>
        <time>2025-03-12T19:19:38.424Z</time>
      </trkpt>
      <trkpt lat="48.64188" lon="2.08995">
        <ele>127</ele>
        <time>2025-03-12T19:19:41.722Z</time>
      </trkpt>
      <trkpt lat="48.64189" lon="2.08988">
        <ele>127</ele>
        <time>2025-03-12T19:19:45.020Z</time>
      </trkpt>
      <trkpt lat="48.6419" lon="2.08981">
        <ele>127</ele>
        <time>2025-03-12T19:19:48.318Z</time>
      </trkpt>
      <trkpt lat="48.64191" lon="2.08974">
        <ele>127</ele>
        <time>2025-03-12T19:19:51.711Z</time>
      </trkpt>
      <trkpt lat="48.64191" lon="2.08966">
        <ele>127</ele>
        <time>2025-03-12T19:19:55.104Z</time>
      </trkpt>
      <trkpt lat="48.64193" lon="2.08953">
        <ele>127</ele>
        <time>2025-03-12T19:20:01.012Z</time>
      </trkpt>
      <trkpt lat="48.64195" lon="2.08941">
        <ele>127.1</ele>
        <time>2025-03-12T19:20:06.920Z</time>
      </trkpt>
      <trkpt lat="48.64197" lon="2.08928">
        <ele>127.6</ele>
        <time>2025-03-12T19:20:12.828Z</time>
      </trkpt>
      <trkpt lat="48.64199" lon="2.08915">
        <ele>128</ele>
        <time>2025-03-12T19:20:18.737Z</time>
      </trkpt>
      <trkpt lat="48.64201" lon="2.08902">
        <ele>128.4</ele>
        <time>2025-03-12T19:20:24.646Z</time>
      </trkpt>
      <trkpt lat="48.64203" lon="2.0889">
        <ele>128.7</ele>
        <time>2025-03-12T19:20:30.555Z</time>
      </trkpt>
      <trkpt lat="48.64205" lon="2.08877">
        <ele>128.8</ele>
        <time>2025-03-12T19:20:36.464Z</time>
      </trkpt>
      <trkpt lat="48.64208" lon="2.08864">
        <ele>129</ele>
        <time>2025-03-12T19:20:42.373Z</time>
      </trkpt>
      <trkpt lat="48.6421" lon="2.08851">
        <ele>129.4</ele>
        <time>2025-03-12T19:20:48.282Z</time>
      </trkpt>
      <trkpt lat="48.64212" lon="2.08839">
        <ele>129.8</ele>
        <time>2025-03-12T19:20:54.191Z</time>
      </trkpt>
      <trkpt lat="48.64214" lon="2.08826">
        <ele>130.1</ele>
        <time>2025-03-12T19:21:00.100Z</time>
      </trkpt>
      <trkpt lat="48.64216" lon="2.08813">
        <ele>130.2</ele>
        <time>2025-03-12T19:21:06.009Z</time>
      </trkpt>
      <trkpt lat="48.64218" lon="2.088">
        <ele>130.3</ele>
        <time>2025-03-12T19:21:11.918Z</time>
      </trkpt>
      <trkpt lat="48.6422" lon="2.08788">
        <ele>130.7</ele>
        <time>2025-03-12T19:21:17.827Z</time>
      </trkpt>
      <trkpt lat="48.64222" lon="2.08775">
        <ele>131</ele>
        <time>2025-03-12T19:21:23.736Z</time>
      </trkpt>
      <trkpt lat="48.64224" lon="2.08762">
        <ele>131</ele>
        <time>2025-03-12T19:21:29.645Z</time>
      </trkpt>
      <trkpt lat="48.64226" lon="2.08749">
        <ele>131</ele>
        <time>2025-03-12T19:21:35.653Z</time>
      </trkpt>
      <trkpt lat="48.64229" lon="2.08739">
        <ele>131.3</ele>
        <time>2025-03-12T19:21:40.596Z</time>
      </trkpt>
      <trkpt lat="48.64232" lon="2.08729">
        <ele>131.5</ele>
        <time>2025-03-12T19:21:45.540Z</time>
      </trkpt>
      <trkpt lat="48.64234" lon="2.08722">
        <ele>131.6</ele>
        <time>2025-03-12T19:21:48.972Z</time>
      </trkpt>
      <trkpt lat="48.64236" lon="2.08715">
        <ele>131.8</ele>
        <time>2025-03-12T19:21:52.405Z</time>
      </trkpt>
      <trkpt lat="48.64237" lon="2.08706">
        <ele>132.1</ele>
        <time>2025-03-12T19:21:56.654Z</time>
      </trkpt>
      <trkpt lat="48.64239" lon="2.08697">
        <ele>132.3</ele>
        <time>2025-03-12T19:22:00.904Z</time>
      </trkpt>
      <trkpt lat="48.6424" lon="2.08687">
        <ele>132.7</ele>
        <time>2025-03-12T19:22:05.154Z</time>
      </trkpt>
      <trkpt lat="48.64241" lon="2.08678">
        <ele>132.9</ele>
        <time>2025-03-12T19:22:09.404Z</time>
      </trkpt>
      <trkpt lat="48.64243" lon="2.08668">
        <ele>133</ele>
        <time>2025-03-12T19:22:14.111Z</time>
      </trkpt>
      <trkpt lat="48.64244" lon="2.08658">
        <ele>133.1</ele>
        <time>2025-03-12T19:22:18.818Z</time>
      </trkpt>
      <trkpt lat="48.64246" lon="2.08647">
        <ele>133.2</ele>
        <time>2025-03-12T19:22:23.525Z</time>
      </trkpt>
      <trkpt lat="48.64247" lon="2.08637">
        <ele>133.4</ele>
        <time>2025-03-12T19:22:28.232Z</time>
      </trkpt>
      <trkpt lat="48.64249" lon="2.08627">
        <ele>133.6</ele>
        <time>2025-03-12T19:22:32.939Z</time>
      </trkpt>
      <trkpt lat="48.6425" lon="2.08617">
        <ele>133.7</ele>
        <time>2025-03-12T19:22:37.647Z</time>
      </trkpt>
      <trkpt lat="48.64252" lon="2.08607">
        <ele>134</ele>
        <time>2025-03-12T19:22:42.355Z</time>
      </trkpt>
      <trkpt lat="48.64254" lon="2.08597">
        <ele>134.1</ele>
        <time>2025-03-12T19:22:47.063Z</time>
      </trkpt>
      <trkpt lat="48.64255" lon="2.08586">
        <ele>134.3</ele>
        <time>2025-03-12T19:22:51.771Z</time>
      </trkpt>
      <trkpt lat="48.64257" lon="2.08576">
        <ele>134.3</ele>
        <time>2025-03-12T19:22:56.479Z</time>
      </trkpt>
      <trkpt lat="48.64258" lon="2.08566">
        <ele>134.3</ele>
        <time>2025-03-12T19:23:01.187Z</time>
      </trkpt>
      <trkpt lat="48.6426" lon="2.08556">
        <ele>134.3</ele>
        <time>2025-03-12T19:23:05.895Z</time>
      </trkpt>
      <trkpt lat="48.64261" lon="2.08546">
        <ele>134.4</ele>
        <time>2025-03-12T19:23:10.603Z</time>
      </trkpt>
      <trkpt lat="48.64263" lon="2.08535">
        <ele>134.5</ele>
        <time>2025-03-12T19:23:15.311Z</time>
      </trkpt>
      <trkpt lat="48.64264" lon="2.08525">
        <ele>134.5</ele>
        <time>2025-03-12T19:23:20.019Z</time>
      </trkpt>
      <trkpt lat="48.64266" lon="2.08515">
        <ele>134.5</ele>
        <time>2025-03-12T19:23:24.727Z</time>
      </trkpt>
      <trkpt lat="48.64268" lon="2.08502">
        <ele>134.7</ele>
        <time>2025-03-12T19:23:30.667Z</time>
      </trkpt>
      <trkpt lat="48.64269" lon="2.08489">
        <ele>134.6</ele>
        <time>2025-03-12T19:23:36.607Z</time>
      </trkpt>
      <trkpt lat="48.64271" lon="2.08476">
        <ele>134.5</ele>
        <time>2025-03-12T19:23:42.547Z</time>
      </trkpt>
      <trkpt lat="48.64272" lon="2.08463">
        <ele>134.4</ele>
        <time>2025-03-12T19:23:48.488Z</time>
      </trkpt>
      <trkpt lat="48.64273" lon="2.08452">
        <ele>134.3</ele>
        <time>2025-03-12T19:23:53.486Z</time>
      </trkpt>
      <trkpt lat="48.64273" lon="2.08448">
        <ele>134.3</ele>
        <time>2025-03-12T19:23:55.286Z</time>
      </trkpt>
      <trkpt lat="48.64275" lon="2.08436">
        <ele>134.5</ele>
        <time>2025-03-12T19:24:00.817Z</time>
      </trkpt>
      <trkpt lat="48.64277" lon="2.08424">
        <ele>134.8</ele>
        <time>2025-03-12T19:24:06.348Z</time>
      </trkpt>
      <trkpt lat="48.64278" lon="2.08412">
        <ele>135</ele>
        <time>2025-03-12T19:24:11.880Z</time>
      </trkpt>
      <trkpt lat="48.6428" lon="2.084">
        <ele>134.9</ele>
        <time>2025-03-12T19:24:17.412Z</time>
      </trkpt>
      <trkpt lat="48.64281" lon="2.08392">
        <ele>134.9</ele>
        <time>2025-03-12T19:24:21.075Z</time>
      </trkpt>
      <trkpt lat="48.64282" lon="2.08384">
        <ele>134.9</ele>
        <time>2025-03-12T19:24:24.738Z</time>
      </trkpt>
      <trkpt lat="48.64284" lon="2.08376">
        <ele>134.9</ele>
        <time>2025-03-12T19:24:28.401Z</time>
      </trkpt>
      <trkpt lat="48.64285" lon="2.08368">
        <ele>134.9</ele>
        <time>2025-03-12T19:24:32.064Z</time>
      </trkpt>
      <trkpt lat="48.64286" lon="2.0836">
        <ele>135</ele>
        <time>2025-03-12T19:24:35.727Z</time>
      </trkpt>
      <trkpt lat="48.64287" lon="2.08352">
        <ele>135.2</ele>
        <time>2025-03-12T19:24:39.390Z</time>
      </trkpt>
      <trkpt lat="48.64288" lon="2.08344">
        <ele>135.4</ele>
        <time>2025-03-12T19:24:43.053Z</time>
      </trkpt>
      <trkpt lat="48.6429" lon="2.08337">
        <ele>135.5</ele>
        <time>2025-03-12T19:24:46.716Z</time>
      </trkpt>
      <trkpt lat="48.64291" lon="2.08329">
        <ele>135.5</ele>
        <time>2025-03-12T19:24:50.379Z</time>
      </trkpt>
      <trkpt lat="48.64292" lon="2.08321">
        <ele>135.5</ele>
        <time>2025-03-12T19:24:54.042Z</time>
      </trkpt>
      <trkpt lat="48.64293" lon="2.08313">
        <ele>135.4</ele>
        <time>2025-03-12T19:24:57.706Z</time>
      </trkpt>
      <trkpt lat="48.64294" lon="2.08305">
        <ele>135.4</ele>
        <time>2025-03-12T19:25:01.370Z</time>
      </trkpt>
      <trkpt lat="48.64295" lon="2.08297">
        <ele>135.6</ele>
        <time>2025-03-12T19:25:05.034Z</time>
      </trkpt>
      <trkpt lat="48.64297" lon="2.08289">
        <ele>135.7</ele>
        <time>2025-03-12T19:25:08.698Z</time>
      </trkpt>
      <trkpt lat="48.64298" lon="2.08281">
        <ele>135.9</ele>
        <time>2025-03-12T19:25:12.362Z</time>
      </trkpt>
      <trkpt lat="48.64299" lon="2.08273">
        <ele>136</ele>
        <time>2025-03-12T19:25:16.026Z</time>
      </trkpt>
      <trkpt lat="48.643" lon="2.0826">
        <ele>136.1</ele>
        <time>2025-03-12T19:25:21.887Z</time>
      </trkpt>
      <trkpt lat="48.643" lon="2.08247">
        <ele>136.2</ele>
        <time>2025-03-12T19:25:27.749Z</time>
      </trkpt>
      <trkpt lat="48.64301" lon="2.08235">
        <ele>136.3</ele>
        <time>2025-03-12T19:25:33.193Z</time>
      </trkpt>
      <trkpt lat="48.64302" lon="2.08223">
        <ele>136.3</ele>
        <time>2025-03-12T19:25:38.637Z</time>
      </trkpt>
      <trkpt lat="48.64304" lon="2.08211">
        <ele>136.2</ele>
        <time>2025-03-12T19:25:44.023Z</time>
      </trkpt>
      <trkpt lat="48.64305" lon="2.082">
        <ele>136.1</ele>
        <time>2025-03-12T19:25:49.410Z</time>
      </trkpt>
      <trkpt lat="48.64307" lon="2.08188">
        <ele>136.2</ele>
        <time>2025-03-12T19:25:54.797Z</time>
      </trkpt>
      <trkpt lat="48.64308" lon="2.08176">
        <ele>136.6</ele>
        <time>2025-03-12T19:26:00.184Z</time>
      </trkpt>
      <trkpt lat="48.64309" lon="2.08169">
        <ele>136.8</ele>
        <time>2025-03-12T19:26:03.487Z</time>
      </trkpt>
      <trkpt lat="48.6431" lon="2.08162">
        <ele>137</ele>
        <time>2025-03-12T19:26:06.790Z</time>
      </trkpt>
      <trkpt lat="48.6431" lon="2.08154">
        <ele>137.2</ele>
        <time>2025-03-12T19:26:10.093Z</time>
      </trkpt>
      <trkpt lat="48.64311" lon="2.08147">
        <ele>137.4</ele>
        <time>2025-03-12T19:26:13.397Z</time>
      </trkpt>
      <trkpt lat="48.64313" lon="2.08141">
        <ele>137.5</ele>
        <time>2025-03-12T19:26:16.496Z</time>
      </trkpt>
      <trkpt lat="48.64314" lon="2.08134">
        <ele>137.4</ele>
        <time>2025-03-12T19:26:19.595Z</time>
      </trkpt>
      <trkpt lat="48.64317" lon="2.08123">
        <ele>137.4</ele>
        <time>2025-03-12T19:26:25.160Z</time>
      </trkpt>
      <trkpt lat="48.6432" lon="2.08111">
        <ele>137.5</ele>
        <time>2025-03-12T19:26:30.726Z</time>
      </trkpt>
      <trkpt lat="48.64321" lon="2.08101">
        <ele>137.8</ele>
        <time>2025-03-12T19:26:35.480Z</time>
      </trkpt>
      <trkpt lat="48.64322" lon="2.0809">
        <ele>138.1</ele>
        <time>2025-03-12T19:26:40.234Z</time>
      </trkpt>
      <trkpt lat="48.64322" lon="2.0808">
        <ele>138.3</ele>
        <time>2025-03-12T19:26:44.988Z</time>
      </trkpt>
      <trkpt lat="48.64323" lon="2.08069">
        <ele>138.4</ele>
        <time>2025-03-12T19:26:49.742Z</time>
      </trkpt>
      <trkpt lat="48.64325" lon="2.08062">
        <ele>138.5</ele>
        <time>2025-03-12T19:26:53.322Z</time>
      </trkpt>
      <trkpt lat="48.64327" lon="2.08054">
        <ele>138.5</ele>
        <time>2025-03-12T19:26:56.902Z</time>
      </trkpt>
      <trkpt lat="48.64328" lon="2.08047">
        <ele>138.4</ele>
        <time>2025-03-12T19:27:00.482Z</time>
      </trkpt>
      <trkpt lat="48.6433" lon="2.08039">
        <ele>138.3</ele>
        <time>2025-03-12T19:27:04.063Z</time>
      </trkpt>
      <trkpt lat="48.64331" lon="2.08027">
        <ele>138.2</ele>
        <time>2025-03-12T19:27:09.698Z</time>
      </trkpt>
      <trkpt lat="48.64333" lon="2.08014">
        <ele>138.1</ele>
        <time>2025-03-12T19:27:15.333Z</time>
      </trkpt>
      <trkpt lat="48.64334" lon="2.08002">
        <ele>138</ele>
        <time>2025-03-12T19:27:20.968Z</time>
      </trkpt>
      <trkpt lat="48.64335" lon="2.0799">
        <ele>137.9</ele>
        <time>2025-03-12T19:27:26.603Z</time>
      </trkpt>
      <trkpt lat="48.64336" lon="2.07977">
        <ele>137.9</ele>
        <time>2025-03-12T19:27:32.238Z</time>
      </trkpt>
      <trkpt lat="48.64338" lon="2.07965">
        <ele>137.9</ele>
        <time>2025-03-12T19:27:37.873Z</time>
      </trkpt>
      <trkpt lat="48.64339" lon="2.07952">
        <ele>137.8</ele>
        <time>2025-03-12T19:27:43.509Z</time>
      </trkpt>
      <trkpt lat="48.6434" lon="2.0794">
        <ele>137.9</ele>
        <time>2025-03-12T19:27:49.145Z</time>
      </trkpt>
      <trkpt lat="48.64342" lon="2.07931">
        <ele>138.2</ele>
        <time>2025-03-12T19:27:53.584Z</time>
      </trkpt>
      <trkpt lat="48.64344" lon="2.07921">
        <ele>138.5</ele>
        <time>2025-03-12T19:27:58.023Z</time>
      </trkpt>
      <trkpt lat="48.64345" lon="2.07912">
        <ele>138.6</ele>
        <time>2025-03-12T19:28:02.462Z</time>
      </trkpt>
      <trkpt lat="48.64347" lon="2.07902">
        <ele>138.5</ele>
        <time>2025-03-12T19:28:06.901Z</time>
      </trkpt>
      <trkpt lat="48.64349" lon="2.07893">
        <ele>138.4</ele>
        <time>2025-03-12T19:28:11.340Z</time>
      </trkpt>
      <trkpt lat="48.64351" lon="2.07883">
        <ele>138.5</ele>
        <time>2025-03-12T19:28:15.780Z</time>
      </trkpt>
      <trkpt lat="48.64352" lon="2.07874">
        <ele>138.5</ele>
        <time>2025-03-12T19:28:20.220Z</time>
      </trkpt>
      <trkpt lat="48.64354" lon="2.07864">
        <ele>138.5</ele>
        <time>2025-03-12T19:28:24.660Z</time>
      </trkpt>
      <trkpt lat="48.64354" lon="2.07852">
        <ele>138.5</ele>
        <time>2025-03-12T19:28:30.286Z</time>
      </trkpt>
      <trkpt lat="48.64354" lon="2.07839">
        <ele>138.5</ele>
        <time>2025-03-12T19:28:35.913Z</time>
      </trkpt>
      <trkpt lat="48.64356" lon="2.07826">
        <ele>138.4</ele>
        <time>2025-03-12T19:28:41.798Z</time>
      </trkpt>
      <trkpt lat="48.64357" lon="2.07813">
        <ele>138.3</ele>
        <time>2025-03-12T19:28:47.683Z</time>
      </trkpt>
      <trkpt lat="48.64359" lon="2.078">
        <ele>138.2</ele>
        <time>2025-03-12T19:28:53.568Z</time>
      </trkpt>
      <trkpt lat="48.6436" lon="2.07788">
        <ele>138.1</ele>
        <time>2025-03-12T19:28:59.453Z</time>
      </trkpt>
      <trkpt lat="48.64362" lon="2.07775">
        <ele>138</ele>
        <time>2025-03-12T19:29:05.338Z</time>
      </trkpt>
      <trkpt lat="48.64363" lon="2.07762">
        <ele>138</ele>
        <time>2025-03-12T19:29:11.223Z</time>
      </trkpt>
      <trkpt lat="48.64365" lon="2.07749">
        <ele>138</ele>
        <time>2025-03-12T19:29:17.108Z</time>
      </trkpt>
      <trkpt lat="48.64366" lon="2.07736">
        <ele>138.4</ele>
        <time>2025-03-12T19:29:22.993Z</time>
      </trkpt>
      <trkpt lat="48.64367" lon="2.07725">
        <ele>138.7</ele>
        <time>2025-03-12T19:29:27.906Z</time>
      </trkpt>
      <trkpt lat="48.64369" lon="2.07715">
        <ele>138.9</ele>
        <time>2025-03-12T19:29:32.819Z</time>
      </trkpt>
      <trkpt lat="48.6437" lon="2.07704">
        <ele>139.1</ele>
        <time>2025-03-12T19:29:37.733Z</time>
      </trkpt>
      <trkpt lat="48.64371" lon="2.07693">
        <ele>139.3</ele>
        <time>2025-03-12T19:29:42.647Z</time>
      </trkpt>
      <trkpt lat="48.64372" lon="2.07683">
        <ele>139.6</ele>
        <time>2025-03-12T19:29:47.244Z</time>
      </trkpt>
      <trkpt lat="48.64374" lon="2.07673">
        <ele>139.9</ele>
        <time>2025-03-12T19:29:51.842Z</time>
      </trkpt>
      <trkpt lat="48.64375" lon="2.07663">
        <ele>140</ele>
        <time>2025-03-12T19:29:56.440Z</time>
      </trkpt>
      <trkpt lat="48.64377" lon="2.07653">
        <ele>139.9</ele>
        <time>2025-03-12T19:30:01.038Z</time>
      </trkpt>
      <trkpt lat="48.64378" lon="2.07643">
        <ele>139.8</ele>
        <time>2025-03-12T19:30:05.636Z</time>
      </trkpt>
      <trkpt lat="48.64379" lon="2.07633">
        <ele>139.9</ele>
        <time>2025-03-12T19:30:10.234Z</time>
      </trkpt>
      <trkpt lat="48.64381" lon="2.07623">
        <ele>140.2</ele>
        <time>2025-03-12T19:30:14.832Z</time>
      </trkpt>
      <trkpt lat="48.64382" lon="2.07613">
        <ele>140.4</ele>
        <time>2025-03-12T19:30:19.430Z</time>
      </trkpt>
      <trkpt lat="48.64382" lon="2.07605">
        <ele>140.7</ele>
        <time>2025-03-12T19:30:23.031Z</time>
      </trkpt>
      <trkpt lat="48.64382" lon="2.07597">
        <ele>140.9</ele>
        <time>2025-03-12T19:30:26.632Z</time>
      </trkpt>
      <trkpt lat="48.64385" lon="2.07598">
        <ele>140.7</ele>
        <time>2025-03-12T19:30:28.726Z</time>
      </trkpt>
      <trkpt lat="48.64385" lon="2.07598">
        <ele>140.7</ele>
        <time>2025-03-12T19:30:28.726Z</time>
        <extensions>
          <visugpx:TrkExtension xmlns:visugpx="https://www.visugpx.com/editgpx/">
            <visugpx:node>7</visugpx:node>
            </visugpx:TrkExtension>
        </extensions>
      </trkpt>
      <trkpt lat="48.64385" lon="2.07598">
        <ele>140.7</ele>
        <time>2025-03-12T19:30:28.726Z</time>
      </trkpt>
      <trkpt lat="48.64389" lon="2.0759">
        <ele>140.8</ele>
        <time>2025-03-12T19:30:33.289Z</time>
      </trkpt>
      <trkpt lat="48.64392" lon="2.07581">
        <ele>140.9</ele>
        <time>2025-03-12T19:30:37.852Z</time>
      </trkpt>
      <trkpt lat="48.64396" lon="2.07576">
        <ele>140.7</ele>
        <time>2025-03-12T19:30:40.891Z</time>
      </trkpt>
      <trkpt lat="48.64396" lon="2.07565">
        <ele>140.7</ele>
        <time>2025-03-12T19:30:45.673Z</time>
      </trkpt>
      <trkpt lat="48.64392" lon="2.07557">
        <ele>140.9</ele>
        <time>2025-03-12T19:30:50.467Z</time>
      </trkpt>
      <trkpt lat="48.64395" lon="2.0755">
        <ele>141</ele>
        <time>2025-03-12T19:30:54.249Z</time>
      </trkpt>
      <trkpt lat="48.64397" lon="2.07543">
        <ele>141.2</ele>
        <time>2025-03-12T19:30:58.032Z</time>
      </trkpt>
      <trkpt lat="48.64398" lon="2.07536">
        <ele>141.4</ele>
        <time>2025-03-12T19:31:01.645Z</time>
      </trkpt>
      <trkpt lat="48.64398" lon="2.07529">
        <ele>141.6</ele>
        <time>2025-03-12T19:31:05.258Z</time>
      </trkpt>
      <trkpt lat="48.64399" lon="2.07521">
        <ele>141.8</ele>
        <time>2025-03-12T19:31:08.871Z</time>
      </trkpt>
      <trkpt lat="48.64399" lon="2.07514">
        <ele>142</ele>
        <time>2025-03-12T19:31:12.484Z</time>
      </trkpt>
      <trkpt lat="48.644" lon="2.07503">
        <ele>142.2</ele>
        <time>2025-03-12T19:31:17.905Z</time>
      </trkpt>
      <trkpt lat="48.64401" lon="2.07491">
        <ele>142.3</ele>
        <time>2025-03-12T19:31:23.326Z</time>
      </trkpt>
      <trkpt lat="48.64402" lon="2.0748">
        <ele>142.4</ele>
        <time>2025-03-12T19:31:28.747Z</time>
      </trkpt>
      <trkpt lat="48.64403" lon="2.07469">
        <ele>142.6</ele>
        <time>2025-03-12T19:31:34.168Z</time>
      </trkpt>
      <trkpt lat="48.64403" lon="2.07457">
        <ele>142.7</ele>
        <time>2025-03-12T19:31:39.589Z</time>
      </trkpt>
      <trkpt lat="48.64404" lon="2.07446">
        <ele>142.9</ele>
        <time>2025-03-12T19:31:45.010Z</time>
      </trkpt>
      <trkpt lat="48.64405" lon="2.07434">
        <ele>143.2</ele>
        <time>2025-03-12T19:31:50.432Z</time>
      </trkpt>
      <trkpt lat="48.64406" lon="2.07423">
        <ele>143.5</ele>
        <time>2025-03-12T19:31:55.854Z</time>
      </trkpt>
      <trkpt lat="48.64407" lon="2.07412">
        <ele>143.9</ele>
        <time>2025-03-12T19:32:01.276Z</time>
      </trkpt>
      <trkpt lat="48.64408" lon="2.074">
        <ele>144.2</ele>
        <time>2025-03-12T19:32:06.698Z</time>
      </trkpt>
      <trkpt lat="48.64409" lon="2.07389">
        <ele>144.6</ele>
        <time>2025-03-12T19:32:12.120Z</time>
      </trkpt>
      <trkpt lat="48.6441" lon="2.07378">
        <ele>144.5</ele>
        <time>2025-03-12T19:32:17.542Z</time>
      </trkpt>
      <trkpt lat="48.6441" lon="2.07366">
        <ele>144.5</ele>
        <time>2025-03-12T19:32:22.964Z</time>
      </trkpt>
      <trkpt lat="48.64411" lon="2.07355">
        <ele>144.6</ele>
        <time>2025-03-12T19:32:28.386Z</time>
      </trkpt>
      <trkpt lat="48.64412" lon="2.07343">
        <ele>145</ele>
        <time>2025-03-12T19:32:33.808Z</time>
      </trkpt>
      <trkpt lat="48.64413" lon="2.07332">
        <ele>145.3</ele>
        <time>2025-03-12T19:32:39.230Z</time>
      </trkpt>
      <trkpt lat="48.64414" lon="2.0732">
        <ele>145.7</ele>
        <time>2025-03-12T19:32:44.951Z</time>
      </trkpt>
      <trkpt lat="48.64415" lon="2.07308">
        <ele>146</ele>
        <time>2025-03-12T19:32:50.672Z</time>
      </trkpt>
      <trkpt lat="48.64416" lon="2.07296">
        <ele>146.1</ele>
        <time>2025-03-12T19:32:56.393Z</time>
      </trkpt>
      <trkpt lat="48.64417" lon="2.07284">
        <ele>146</ele>
        <time>2025-03-12T19:33:02.114Z</time>
      </trkpt>
      <trkpt lat="48.64418" lon="2.07273">
        <ele>146.1</ele>
        <time>2025-03-12T19:33:07.835Z</time>
      </trkpt>
      <trkpt lat="48.64419" lon="2.07261">
        <ele>146.5</ele>
        <time>2025-03-12T19:33:13.556Z</time>
      </trkpt>
      <trkpt lat="48.6442" lon="2.07249">
        <ele>146.8</ele>
        <time>2025-03-12T19:33:19.277Z</time>
      </trkpt>
      <trkpt lat="48.64421" lon="2.07237">
        <ele>147.2</ele>
        <time>2025-03-12T19:33:24.998Z</time>
      </trkpt>
      <trkpt lat="48.64422" lon="2.07225">
        <ele>147.5</ele>
        <time>2025-03-12T19:33:30.719Z</time>
      </trkpt>
      <trkpt lat="48.64423" lon="2.07213">
        <ele>147.6</ele>
        <time>2025-03-12T19:33:36.440Z</time>
      </trkpt>
      <trkpt lat="48.64424" lon="2.07201">
        <ele>147.7</ele>
        <time>2025-03-12T19:33:42.161Z</time>
      </trkpt>
      <trkpt lat="48.64425" lon="2.07189">
        <ele>147.9</ele>
        <time>2025-03-12T19:33:47.882Z</time>
      </trkpt>
      <trkpt lat="48.64426" lon="2.07177">
        <ele>148.1</ele>
        <time>2025-03-12T19:33:53.603Z</time>
      </trkpt>
      <trkpt lat="48.64427" lon="2.07165">
        <ele>148.3</ele>
        <time>2025-03-12T19:33:59.324Z</time>
      </trkpt>
      <trkpt lat="48.64428" lon="2.07153">
        <ele>148.7</ele>
        <time>2025-03-12T19:34:05.045Z</time>
      </trkpt>
      <trkpt lat="48.64429" lon="2.07142">
        <ele>149.1</ele>
        <time>2025-03-12T19:34:10.766Z</time>
      </trkpt>
      <trkpt lat="48.6443" lon="2.0713">
        <ele>149.4</ele>
        <time>2025-03-12T19:34:16.487Z</time>
      </trkpt>
      <trkpt lat="48.6443" lon="2.07118">
        <ele>149.8</ele>
        <time>2025-03-12T19:34:22.208Z</time>
      </trkpt>
      <trkpt lat="48.64431" lon="2.07106">
        <ele>149.9</ele>
        <time>2025-03-12T19:34:27.929Z</time>
      </trkpt>
      <trkpt lat="48.64432" lon="2.07094">
        <ele>149.9</ele>
        <time>2025-03-12T19:34:33.650Z</time>
      </trkpt>
      <trkpt lat="48.64433" lon="2.07082">
        <ele>149.9</ele>
        <time>2025-03-12T19:34:39.371Z</time>
      </trkpt>
      <trkpt lat="48.64434" lon="2.0707">
        <ele>150.2</ele>
        <time>2025-03-12T19:34:45.093Z</time>
      </trkpt>
      <trkpt lat="48.64435" lon="2.07058">
        <ele>150.6</ele>
        <time>2025-03-12T19:34:50.815Z</time>
      </trkpt>
      <trkpt lat="48.64436" lon="2.07046">
        <ele>150.9</ele>
        <time>2025-03-12T19:34:56.537Z</time>
      </trkpt>
      <trkpt lat="48.64437" lon="2.07034">
        <ele>151.3</ele>
        <time>2025-03-12T19:35:02.259Z</time>
      </trkpt>
      <trkpt lat="48.64438" lon="2.07022">
        <ele>151.6</ele>
        <time>2025-03-12T19:35:07.981Z</time>
      </trkpt>
      <trkpt lat="48.64439" lon="2.07011">
        <ele>152</ele>
        <time>2025-03-12T19:35:13.703Z</time>
      </trkpt>
      <trkpt lat="48.6444" lon="2.06999">
        <ele>152.3</ele>
        <time>2025-03-12T19:35:19.425Z</time>
      </trkpt>
      <trkpt lat="48.64441" lon="2.06987">
        <ele>152.3</ele>
        <time>2025-03-12T19:35:25.147Z</time>
      </trkpt>
      <trkpt lat="48.64442" lon="2.06975">
        <ele>152.2</ele>
        <time>2025-03-12T19:35:30.869Z</time>
      </trkpt>
      <trkpt lat="48.64443" lon="2.06963">
        <ele>152.5</ele>
        <time>2025-03-12T19:35:36.591Z</time>
      </trkpt>
      <trkpt lat="48.64444" lon="2.06951">
        <ele>152.8</ele>
        <time>2025-03-12T19:35:42.313Z</time>
      </trkpt>
      <trkpt lat="48.64439" lon="2.06951">
        <ele>153.4</ele>
        <time>2025-03-12T19:35:47.213Z</time>
        <extensions>
          <visugpx:TrkExtension xmlns:visugpx="https://www.visugpx.com/editgpx/">
            <visugpx:node>8</visugpx:node>
            </visugpx:TrkExtension>
        </extensions>
      </trkpt>
      <trkpt lat="48.64434" lon="2.06951">
        <ele>153.9</ele>
        <time>2025-03-12T19:35:51.948Z</time>
      </trkpt>
      <trkpt lat="48.64429" lon="2.0695">
        <ele>154.5</ele>
        <time>2025-03-12T19:35:56.684Z</time>
      </trkpt>
      <trkpt lat="48.64422" lon="2.06957">
        <ele>155</ele>
        <time>2025-03-12T19:36:03.523Z</time>
      </trkpt>
      <trkpt lat="48.64414" lon="2.06963">
        <ele>155.5</ele>
        <time>2025-03-12T19:36:10.363Z</time>
      </trkpt>
      <trkpt lat="48.64412" lon="2.06974">
        <ele>155.3</ele>
        <time>2025-03-12T19:36:15.277Z</time>
      </trkpt>
      <trkpt lat="48.64409" lon="2.06986">
        <ele>155.2</ele>
        <time>2025-03-12T19:36:20.191Z</time>
      </trkpt>
      <trkpt lat="48.64407" lon="2.06997">
        <ele>155.2</ele>
        <time>2025-03-12T19:36:25.106Z</time>
      </trkpt>
      <trkpt lat="48.64404" lon="2.07008">
        <ele>155.1</ele>
        <time>2025-03-12T19:36:30.021Z</time>
      </trkpt>
      <trkpt lat="48.64402" lon="2.07019">
        <ele>154.9</ele>
        <time>2025-03-12T19:36:34.936Z</time>
      </trkpt>
      <trkpt lat="48.64399" lon="2.07031">
        <ele>154.8</ele>
        <time>2025-03-12T19:36:39.851Z</time>
      </trkpt>
      <trkpt lat="48.64397" lon="2.07042">
        <ele>154.7</ele>
        <time>2025-03-12T19:36:44.766Z</time>
      </trkpt>
      <trkpt lat="48.64394" lon="2.07053">
        <ele>154.5</ele>
        <time>2025-03-12T19:36:49.682Z</time>
      </trkpt>
      <trkpt lat="48.64389" lon="2.07057">
        <ele>155</ele>
        <time>2025-03-12T19:36:53.866Z</time>
      </trkpt>
      <trkpt lat="48.64384" lon="2.0706">
        <ele>155</ele>
        <time>2025-03-12T19:36:58.051Z</time>
      </trkpt>
      <trkpt lat="48.64382" lon="2.07069">
        <ele>154.9</ele>
        <time>2025-03-12T19:37:01.833Z</time>
      </trkpt>
      <trkpt lat="48.6438" lon="2.07078">
        <ele>154.8</ele>
        <time>2025-03-12T19:37:05.615Z</time>
      </trkpt>
      <trkpt lat="48.64378" lon="2.07086">
        <ele>154.7</ele>
        <time>2025-03-12T19:37:09.397Z</time>
      </trkpt>
      <trkpt lat="48.64376" lon="2.07095">
        <ele>154.5</ele>
        <time>2025-03-12T19:37:13.181Z</time>
      </trkpt>
      <trkpt lat="48.64374" lon="2.07097">
        <ele>154.6</ele>
        <time>2025-03-12T19:37:14.980Z</time>
      </trkpt>
      <trkpt lat="48.64367" lon="2.07094">
        <ele>155.2</ele>
        <time>2025-03-12T19:37:21.532Z</time>
      </trkpt>
      <trkpt lat="48.64359" lon="2.07091">
        <ele>155.8</ele>
        <time>2025-03-12T19:37:28.086Z</time>
      </trkpt>
      <trkpt lat="48.64352" lon="2.0709">
        <ele>156.2</ele>
        <time>2025-03-12T19:37:33.633Z</time>
      </trkpt>
      <trkpt lat="48.6435" lon="2.07083">
        <ele>156.4</ele>
        <time>2025-03-12T19:37:37.532Z</time>
      </trkpt>
      <trkpt lat="48.64347" lon="2.07076">
        <ele>156.6</ele>
        <time>2025-03-12T19:37:41.432Z</time>
      </trkpt>
      <trkpt lat="48.64343" lon="2.07071">
        <ele>156.9</ele>
        <time>2025-03-12T19:37:45.537Z</time>
      </trkpt>
      <trkpt lat="48.64338" lon="2.07069">
        <ele>157.3</ele>
        <time>2025-03-12T19:37:50.209Z</time>
      </trkpt>
      <trkpt lat="48.64332" lon="2.07067">
        <ele>157.7</ele>
        <time>2025-03-12T19:37:54.882Z</time>
      </trkpt>
      <trkpt lat="48.64326" lon="2.07068">
        <ele>157.9</ele>
        <time>2025-03-12T19:37:59.408Z</time>
      </trkpt>
      <trkpt lat="48.6432" lon="2.07069">
        <ele>158.2</ele>
        <time>2025-03-12T19:38:03.935Z</time>
      </trkpt>
      <trkpt lat="48.64316" lon="2.07072">
        <ele>158.4</ele>
        <time>2025-03-12T19:38:07.657Z</time>
      </trkpt>
      <trkpt lat="48.64311" lon="2.07074">
        <ele>158.7</ele>
        <time>2025-03-12T19:38:11.380Z</time>
      </trkpt>
      <trkpt lat="48.64308" lon="2.07079">
        <ele>158.9</ele>
        <time>2025-03-12T19:38:14.990Z</time>
      </trkpt>
      <trkpt lat="48.64304" lon="2.07084">
        <ele>159.1</ele>
        <time>2025-03-12T19:38:18.602Z</time>
      </trkpt>
      <trkpt lat="48.643" lon="2.07086">
        <ele>159.4</ele>
        <time>2025-03-12T19:38:22.270Z</time>
      </trkpt>
      <trkpt lat="48.64295" lon="2.07087">
        <ele>159.6</ele>
        <time>2025-03-12T19:38:25.938Z</time>
      </trkpt>
      <trkpt lat="48.64291" lon="2.07089">
        <ele>159.9</ele>
        <time>2025-03-12T19:38:29.607Z</time>
      </trkpt>
      <trkpt lat="48.64286" lon="2.0709">
        <ele>160.2</ele>
        <time>2025-03-12T19:38:33.276Z</time>
      </trkpt>
      <trkpt lat="48.64278" lon="2.07089">
        <ele>160.8</ele>
        <time>2025-03-12T19:38:39.998Z</time>
      </trkpt>
      <trkpt lat="48.64274" lon="2.07087">
        <ele>161</ele>
        <time>2025-03-12T19:38:43.653Z</time>
      </trkpt>
      <trkpt lat="48.64269" lon="2.07085">
        <ele>161.3</ele>
        <time>2025-03-12T19:38:47.310Z</time>
      </trkpt>
      <trkpt lat="48.64263" lon="2.07077">
        <ele>161.5</ele>
        <time>2025-03-12T19:38:53.362Z</time>
      </trkpt>
    </trkseg>
  </trk>
</gpx>